GFSCGP_sfc_wetblb_003.txt.gz
Wetbulb
46.49 42.79 37.97 39.51 42.60 43.92 42.10 40.24 38.47 41.33 45.67 43.16 41.57 41.27 43.97 42.78 43.64 43.38 43.56 44.33 45.47 47.10 48.52 50.43 50.11 48.76 48.57 48.28 48.12 48.50 47.89 48.14 47.75 46.39 45.97 45.52 45.43 46.88 47.18 47.69 50.16 50.08 49.48 49.16
43.02 40.52 44.48 46.10 45.69 44.01 42.24 40.27 39.40 42.49 45.78 44.44 42.14 42.02 43.18 44.24 43.76 44.30 44.89 44.95 45.97 46.49 47.84 49.38 49.79 48.13 47.84 47.78 47.92 47.54 47.94 47.75 47.24 46.99 46.51 46.03 45.42 46.03 46.91 47.81 48.37 49.32 48.97 48.65
40.12 44.35 47.53 45.78 44.33 42.57 40.53 40.34 39.71 39.87 43.54 44.86 41.57 39.64 41.55 43.74 45.00 46.50 46.64 46.13 46.64 46.42 46.32 47.79 48.97 47.97 47.63 47.51 47.91 48.70 48.01 47.87 47.75 47.31 46.67 46.03 45.64 45.91 44.97 45.57 46.68 47.38 48.65 48.73
43.59 47.18 44.85 43.38 43.54 42.77 38.03 44.46 43.66 42.29 39.35 34.54 42.17 31.79 39.06 41.56 42.40 44.89 45.96 44.65 45.33 46.17 47.46 47.97 46.90 46.01 47.61 48.22 48.48 49.15 49.46 49.13 48.87 47.76 45.62 45.05 44.40 44.12 44.45 45.10 45.18 46.55 48.17 48.72
42.37 41.78 41.19 42.36 42.54 44.24 41.48 45.53 43.51 42.96 39.72 36.66 39.02 34.34 37.12 41.41 40.62 42.41 43.89 45.32 45.39 46.33 46.45 47.03 46.11 46.72 46.64 48.69 48.49 48.92 49.22 49.57 49.95 48.40 46.67 45.40 43.98 45.36 45.67 46.05 45.59 45.34 46.99 47.92
43.35 45.85 44.30 43.02 45.78 45.88 46.69 44.24 43.33 43.36 39.32 30.41 38.16 36.02 34.68 39.30 41.18 43.19 44.87 45.46 46.06 46.10 46.10 47.36 47.34 48.70 48.25 49.01 48.59 48.22 48.13 49.03 49.39 49.11 48.20 46.68 45.80 46.24 45.33 44.90 43.96 44.90 44.69 44.53
44.48 43.38 44.56 47.32 42.75 45.89 43.41 38.94 28.62 27.56 27.41 27.52 40.01 36.31 37.29 43.45 44.20 44.55 43.76 44.16 45.02 45.11 45.31 46.93 45.53 47.54 47.94 48.07 48.44 48.31 48.65 48.95 49.15 48.40 48.05 47.83 47.36 46.36 45.50 44.82 42.88 42.12 41.18 41.70
37.10 34.00 43.57 46.85 43.44 40.55 40.59 39.35 28.70 24.41 23.13 27.58 38.58 32.77 38.24 45.13 45.82 46.83 46.52 44.99 46.04 46.75 47.13 46.53 46.23 47.61 47.63 48.13 48.09 48.40 49.26 49.51 49.47 47.97 47.70 48.03 47.71 47.23 47.07 45.70 42.99 40.23 39.70 40.83
36.32 38.69 46.39 46.63 46.20 44.24 41.02 35.89 41.64 32.70 26.45 25.16 32.54 38.66 43.67 44.85 46.91 48.03 46.96 47.18 46.35 45.98 47.57 45.94 47.19 47.81 47.42 47.62 47.85 46.90 46.97 48.26 48.44 46.32 45.80 44.57 44.38 42.91 41.00 39.45 39.89 40.22 40.92 41.22
43.00 35.88 44.72 46.86 46.87 46.09 43.03 44.50 33.20 31.13 25.01 24.43 31.27 33.19 35.12 41.59 43.67 46.10 44.10 44.81 45.61 45.98 46.48 47.19 46.89 47.44 47.50 47.32 46.34 46.30 46.57 45.80 45.35 43.05 41.83 41.13 39.99 39.39 40.05 41.08 39.81 39.58 39.70 39.82
44.25 39.77 38.11 43.34 42.70 40.02 39.37 36.79 38.78 40.93 33.61 29.12 26.96 30.92 42.13 43.47 44.07 44.81 46.40 46.88 46.03 45.88 45.32 45.89 46.84 48.07 46.82 46.35 46.13 45.80 46.34 45.90 42.23 41.15 39.73 39.37 38.95 38.57 38.06 38.70 38.70 38.70 38.71 39.09
43.77 38.41 30.17 38.36 44.83 46.13 43.16 42.04 41.93 32.83 32.42 30.95 28.58 33.09 46.02 44.32 45.91 47.68 46.93 46.72 46.44 45.87 45.67 46.26 46.15 46.20 46.05 46.07 46.07 46.45 46.60 42.60 41.00 39.71 38.53 38.04 37.62 36.71 36.30 37.22 38.27 38.48 37.82 39.06
42.84 34.37 28.10 33.37 39.36 42.70 40.75 42.49 41.63 38.28 32.25 31.13 28.50 31.95 45.95 46.72 46.48 46.80 43.84 44.15 45.18 46.08 45.78 46.01 46.10 46.24 46.14 45.42 45.94 45.76 45.65 40.51 40.21 38.25 37.19 36.48 36.22 35.76 35.74 36.74 36.83 37.81 38.05 37.98
44.74 39.23 33.25 28.90 34.15 39.54 36.59 39.49 40.46 37.83 24.79 31.12 32.28 35.84 40.66 43.06 42.79 42.96 42.91 43.58 43.69 44.13 45.24 45.29 45.19 45.53 44.48 45.24 45.94 44.96 41.27 41.35 41.09 38.13 36.75 35.89 35.76 35.69 36.14 35.85 36.25 36.84 37.56 36.47
43.63 33.35 37.70 38.99 40.56 41.05 40.19 38.88 39.00 37.08 36.41 31.81 35.16 36.36 40.22 41.49 42.15 42.46 44.11 45.15 45.06 44.39 44.34 44.72 44.92 44.53 43.28 45.25 45.27 41.99 40.67 41.47 41.98 39.68 37.04 37.20 37.49 37.76 37.54 36.93 36.20 36.47 35.98 36.54
44.01 32.86 34.66 35.10 39.52 40.00 35.97 36.86 38.14 37.71 37.50 37.46 37.75 36.99 42.56 42.71 44.13 43.58 43.48 44.36 43.48 43.81 44.30 44.68 45.08 44.79 44.81 45.19 42.22 41.80 41.31 42.27 42.71 41.20 40.56 40.85 40.14 39.28 38.46 37.72 37.55 36.01 34.87 34.12
37.94 32.31 30.87 33.14 36.35 34.36 27.53 33.82 36.25 37.79 39.09 37.98 31.87 36.39 42.17 41.34 42.41 42.68 43.00 42.95 42.98 43.80 44.17 43.94 44.03 44.11 44.58 42.87 41.28 39.66 41.17 42.20 42.48 41.68 40.88 40.68 40.60 40.08 39.19 38.16 35.59 33.81 31.71 30.41
33.14 30.22 29.34 30.92 29.24 26.49 35.86 42.24 41.33 38.62 39.83 40.36 40.50 41.25 42.53 42.77 44.66 44.88 45.33 42.81 42.85 43.30 43.86 42.71 43.50 43.53 41.27 39.69 39.92 40.63 41.57 43.02 41.44 40.45 40.39 40.56 40.14 38.52 35.30 34.54 33.25 30.46 29.02 27.93
41.73 32.59 31.70 31.18 29.12 32.11 35.77 39.23 36.33 35.04 35.73 41.93 40.80 42.39 43.81 44.53 43.28 42.63 45.05 43.97 43.47 43.62 42.98 43.13 42.56 40.77 39.41 39.32 39.82 40.43 39.95 41.19 41.25 39.46 38.93 36.09 35.19 33.91 33.22 31.51 28.73 28.08 26.88 26.22
39.65 36.01 31.87 27.92 24.66 24.60 31.78 40.08 44.13 42.88 31.94 42.02 43.39 42.69 42.33 41.32 35.00 37.93 43.13 44.75 44.05 43.78 43.37 41.46 41.45 39.32 38.46 38.82 40.32 39.77 39.81 39.36 33.69 34.01 34.29 34.68 34.21 32.86 30.65 28.38 27.09 26.42 26.00 26.10
29.18 26.82 25.25 19.43 27.27 30.05 38.25 42.49 44.91 29.48 33.83 41.03 43.34 43.95 42.74 39.79 40.35 44.08 44.90 43.32 43.08 42.72 41.03 39.96 38.69 39.98 40.00 40.40 39.04 36.15 31.22 31.54 33.91 34.62 34.80 34.21 33.16 30.94 29.51 27.20 26.41 25.40 24.87 25.25
28.16 25.81 28.92 28.22 30.19 25.42 42.97 41.26 32.33 37.89 41.04 43.67 41.84 41.88 42.47 43.56 43.26 42.70 42.02 42.14 41.42 38.51 38.09 38.33 38.29 37.96 38.49 38.73 36.38 31.13 31.23 33.82 34.60 33.99 32.95 31.67 30.96 30.61 29.91 25.52 24.74 25.05 24.00 20.12
31.41 33.84 29.16 32.18 30.80 39.56 43.02 41.85 43.56 44.69 43.36 42.73 42.33 43.44 43.46 42.68 41.65 40.37 38.45 40.17 37.74 37.25 36.59 37.94 37.41 38.90 38.89 35.43 33.65 32.60 32.68 33.94 32.80 31.36 30.24 29.58 29.77 29.23 26.94 24.79 24.09 23.86 22.18 18.76
39.21 41.83 35.02 33.87 38.74 41.08 42.58 44.45 45.17 45.10 43.44 45.25 45.45 44.64 42.94 41.46 40.18 37.57 38.26 36.43 36.00 35.61 35.74 37.29 37.02 36.62 35.20 34.04 33.40 32.62 33.16 32.73 31.32 29.18 28.43 28.76 26.79 26.21 24.77 25.15 25.10 23.10 18.09 16.73
38.94 38.44 36.13 36.07 39.86 41.44 42.33 42.71 44.17 44.88 46.04 45.90 44.55 43.07 43.13 40.22 38.20 37.62 37.45 36.29 34.93 35.20 35.96 37.15 35.59 35.45 33.18 32.88 31.68 32.52 31.78 31.05 28.87 28.09 27.71 26.93 25.76 24.54 24.90 25.39 24.06 22.89 21.46 20.50
41.18 38.48 35.61 34.46 41.05 40.56 41.81 43.53 45.37 44.71 44.03 44.59 42.82 40.40 40.01 39.13 37.00 37.55 36.73 35.61 34.73 34.42 36.40 37.10 37.24 33.20 32.40 31.63 30.77 31.22 30.58 28.74 27.41 27.24 26.48 23.98 22.19 22.08 23.88 23.66 23.95 27.51 27.60 28.85

GFSCGP_sfc_wetblb_006.txt.gz
Wetbulb
45.08 40.70 36.63 38.52 40.04 41.96 39.73 37.59 36.37 39.28 42.69 42.15 39.64 39.42 42.44 42.75 40.61 41.28 41.66 42.73 43.42 45.00 45.69 46.80 47.09 46.98 46.37 46.48 46.98 47.40 46.90 46.86 46.04 45.14 44.61 43.90 44.19 45.38 45.55 46.85 50.94 50.51 50.04 49.50
42.09 38.29 42.73 44.36 44.11 41.74 40.45 38.11 37.13 40.51 43.67 42.05 41.06 40.13 39.69 41.41 40.64 41.79 42.78 42.90 43.80 44.09 45.98 47.19 46.58 44.55 46.18 46.04 46.21 46.35 46.52 46.46 46.18 44.96 44.74 44.98 43.90 44.51 45.74 46.19 46.54 49.62 49.22 47.96
39.28 42.42 45.67 43.64 42.01 40.73 38.59 38.00 37.71 38.43 41.20 41.67 40.27 38.31 39.15 42.15 43.20 43.96 43.69 43.84 44.52 44.80 45.35 46.26 47.26 45.57 44.71 45.57 46.08 46.91 46.67 46.60 46.50 46.36 44.92 44.18 43.85 43.74 43.82 44.19 44.75 46.71 48.38 48.56
41.81 44.25 42.65 42.31 41.22 40.49 36.38 41.96 41.74 40.36 37.52 32.96 39.95 31.03 37.39 39.53 40.19 42.47 43.20 42.60 43.45 45.24 45.92 45.84 45.39 44.81 45.67 46.32 45.82 46.26 47.29 47.02 46.95 46.43 44.20 43.71 45.59 44.87 46.51 46.87 44.26 45.73 47.94 47.80
40.60 40.04 40.22 40.52 40.54 42.40 39.79 43.09 41.85 40.88 36.94 34.80 36.88 32.88 36.60 39.78 39.09 41.17 41.29 43.19 42.81 43.45 44.61 44.45 44.14 45.02 46.16 47.03 46.63 46.91 47.04 47.45 48.41 47.67 46.04 44.57 44.15 45.64 46.43 43.09 43.07 43.31 44.66 46.27
41.85 43.79 42.49 41.42 44.16 44.22 44.80 42.42 40.84 39.98 36.90 29.07 35.54 33.66 33.30 37.25 39.90 41.14 42.71 43.30 44.52 43.46 43.51 45.47 45.95 45.71 46.16 46.81 46.75 47.70 47.27 47.76 48.09 47.68 47.12 44.92 43.91 45.23 43.87 44.21 43.42 43.14 41.95 41.86
42.48 41.69 43.35 45.40 41.26 43.76 41.41 36.71 27.61 26.33 25.69 26.38 37.97 33.91 34.53 39.51 42.44 43.30 43.55 42.94 42.93 43.97 44.95 44.43 44.93 45.24 45.93 45.41 45.88 46.86 46.81 47.88 49.34 47.19 46.82 46.62 45.78 45.61 44.67 44.77 44.61 43.53 41.80 40.67
36.01 33.23 42.36 45.23 41.74 38.91 39.22 37.69 27.63 23.57 22.09 27.04 36.30 30.82 35.89 42.77 43.24 43.60 44.16 44.14 45.85 43.67 44.93 44.55 45.45 45.49 46.02 46.27 46.11 46.79 47.64 46.78 46.91 46.41 46.39 45.29 45.29 44.69 44.47 43.44 42.20 40.13 40.88 39.72
34.40 36.68 44.69 45.20 44.87 43.15 40.03 34.40 39.63 31.17 24.15 24.18 30.99 36.44 40.89 42.08 44.34 44.95 43.49 44.58 44.40 45.00 44.61 44.83 46.23 45.86 44.96 44.78 45.21 45.34 44.98 46.38 46.39 45.02 42.76 40.75 40.20 40.59 38.42 37.88 38.57 39.34 39.21 39.98
41.07 34.94 42.63 44.71 45.44 44.32 41.09 42.57 32.81 30.32 20.87 25.10 29.84 31.25 33.62 39.81 42.48 44.69 42.59 42.25 44.02 43.52 44.51 45.11 45.21 45.48 45.39 44.93 45.45 45.86 45.62 45.63 45.03 41.43 40.35 38.89 37.91 38.17 38.11 37.76 37.19 37.43 38.80 40.81
41.33 38.07 37.06 41.14 40.66 38.36 37.47 35.50 37.52 38.19 31.77 26.44 26.01 30.06 39.24 41.89 43.07 43.51 44.96 43.38 42.49 42.98 43.12 44.04 45.91 47.18 47.56 47.42 46.88 45.57 44.46 43.86 40.23 39.74 39.08 38.02 36.99 37.43 36.70 36.31 36.51 37.25 38.39 39.40
42.23 35.66 29.70 36.34 42.18 43.77 40.87 38.72 37.97 27.40 30.61 29.36 28.19 32.05 44.68 42.81 45.09 43.34 42.52 43.30 43.47 42.85 43.29 44.00 44.89 45.42 44.97 44.57 44.01 44.13 44.03 40.29 39.33 39.45 38.22 37.36 36.12 35.31 35.09 35.56 36.31 36.89 37.20 38.71
40.96 32.61 27.08 31.67 36.64 40.55 38.67 40.32 39.17 36.27 30.16 28.45 22.60 28.45 43.53 44.29 43.08 43.19 41.72 42.53 43.03 42.98 43.07 43.91 44.26 44.69 44.69 43.97 43.66 44.41 43.05 39.44 39.93 38.57 36.94 35.32 34.46 34.06 34.47 35.00 35.58 36.53 36.89 36.85
43.47 37.23 31.95 27.30 31.76 36.88 35.49 38.54 39.27 35.11 23.43 30.81 32.26 33.95 38.50 41.21 41.73 41.88 42.26 42.31 41.86 42.97 43.89 43.82 43.20 43.37 43.98 43.57 43.54 43.51 39.58 40.00 40.29 39.30 35.29 34.43 33.98 33.75 34.36 34.36 35.22 36.26 36.29 35.70
40.84 32.42 35.28 36.82 38.28 38.67 38.69 38.04 38.40 36.00 35.06 29.30 32.77 33.77 37.76 38.82 39.35 41.15 42.44 43.37 43.40 43.27 43.27 43.09 42.66 42.73 42.93 42.84 43.08 40.68 40.35 40.82 40.05 37.29 35.84 35.46 36.58 36.40 35.97 35.36 35.21 37.50 36.86 35.92
41.42 31.70 32.93 34.38 38.14 38.07 35.71 37.98 37.26 36.61 36.77 35.19 35.24 34.46 40.40 42.16 42.49 42.11 42.08 43.06 42.68 42.45 43.17 43.47 43.98 43.71 43.35 43.15 41.83 40.58 40.24 40.40 40.99 40.35 40.68 40.42 39.88 39.32 38.73 38.98 38.92 37.75 35.33 34.21
36.09 30.59 27.40 30.03 33.81 32.77 30.68 33.43 34.73 35.96 37.18 35.31 30.28 34.92 40.55 40.48 41.70 42.19 42.43 42.85 42.51 42.44 42.31 42.44 43.27 43.06 42.11 40.91 40.29 39.13 39.49 40.50 41.70 41.60 40.98 41.05 40.95 40.15 38.93 38.59 37.14 33.60 30.86 29.33
31.55 29.05 28.63 26.52 30.27 25.25 35.61 39.66 39.50 36.43 37.69 38.33 39.29 39.76 41.18 41.84 43.10 43.78 44.20 43.31 41.98 42.47 42.87 43.17 42.77 41.42 40.47 39.60 39.14 39.10 39.52 40.05 39.90 39.87 39.92 38.79 38.61 36.80 34.60 32.45 30.81 28.48 28.06 27.09
39.71 33.12 30.17 26.94 28.60 31.38 35.12 37.89 34.65 32.46 34.56 39.82 39.43 41.17 41.80 42.26 41.87 40.01 43.14 43.93 44.23 43.77 43.40 42.96 40.77 39.82 38.84 37.78 37.95 38.00 37.80 38.18 36.58 32.70 32.36 32.66 32.51 32.28 31.75 28.92 26.96 26.47 25.37 24.90
37.34 31.93 26.90 28.66 26.13 24.19 31.04 37.53 41.96 40.80 30.26 41.12 41.13 40.70 40.58 41.25 36.07 39.02 43.37 43.71 43.15 43.49 41.46 39.27 38.91 38.18 37.22 37.80 36.89 31.75 31.31 31.87 32.17 33.27 33.74 34.04 33.43 31.53 29.02 27.51 26.61 25.44 24.39 24.77
26.76 30.55 23.91 18.85 25.07 26.35 35.85 39.71 42.10 25.46 30.04 38.06 40.88 41.63 41.71 40.70 41.33 43.51 44.09 42.59 41.84 38.69 38.16 38.63 38.05 37.18 37.64 38.88 36.18 31.43 31.12 31.09 33.72 33.92 33.51 32.26 31.60 30.17 28.64 26.37 25.31 24.10 23.88 23.43
28.12 24.89 27.76 27.01 25.84 25.52 40.38 40.70 33.47 36.83 38.25 41.41 41.60 41.26 41.81 42.59 41.64 41.84 41.29 40.66 38.98 37.19 37.34 37.63 36.98 36.71 38.69 34.45 32.50 30.70 29.63 33.03 33.31 32.39 31.34 30.58 30.09 29.47 28.29 25.37 24.45 24.13 22.80 19.46
31.84 32.98 28.81 30.01 29.69 37.49 40.32 41.27 41.42 43.25 41.88 41.18 42.31 43.86 42.32 41.26 40.40 40.59 37.13 36.46 36.49 36.32 35.51 36.44 36.13 36.97 36.31 32.87 32.51 31.14 30.93 32.08 31.15 30.06 29.07 28.55 28.67 27.33 26.12 24.26 23.30 22.79 21.30 17.75
37.44 39.77 33.01 33.62 37.47 39.20 40.73 43.61 44.22 42.83 41.07 44.70 44.79 42.96 43.43 40.24 40.49 37.90 37.77 36.65 36.03 34.84 34.39 35.78 36.87 35.31 33.74 31.91 31.24 30.68 31.13 30.66 29.02 27.74 27.65 27.90 26.36 25.90 24.56 24.71 24.37 22.63 17.16 16.08
39.04 39.94 36.62 36.87 39.81 40.80 41.61 41.88 42.85 44.57 45.18 42.98 43.05 42.25 41.33 40.05 39.14 37.25 35.75 35.65 34.86 34.36 34.74 36.20 36.87 35.84 33.22 31.13 30.37 31.08 30.25 29.13 28.14 27.54 27.34 26.65 25.58 23.65 24.23 24.89 23.59 22.65 21.49 19.80
40.28 38.73 35.61 34.93 40.92 40.05 40.95 43.78 43.66 41.98 40.80 40.19 39.22 38.65 39.15 39.39 37.98 37.26 35.11 34.50 34.33 34.08 36.82 36.14 36.20 32.83 32.11 30.94 30.12 30.37 30.05 28.42 27.41 27.27 26.40 23.21 21.94 20.85 23.02 22.94 23.52 27.19 26.41 27.39

GFSCGP_sfc_wetblb_009.txt.gz
Wetbulb
43.80 39.54 35.76 36.27 38.33 39.81 37.85 36.00 34.42 37.43 41.01 40.98 38.02 38.35 41.52 40.92 39.33 38.90 38.18 41.14 43.02 44.56 43.77 44.72 45.09 44.69 45.04 45.43 45.94 45.21 44.80 44.87 45.01 44.44 44.04 43.44 43.87 44.57 44.87 45.43 48.34 50.61 50.42 49.77
41.10 36.85 40.81 42.56 42.26 40.08 38.55 36.27 35.17 39.10 41.81 40.27 39.42 38.85 38.90 40.36 39.64 39.42 40.56 41.32 43.00 43.55 44.02 44.92 44.46 43.40 44.64 44.79 45.22 45.32 45.86 45.57 44.93 44.14 43.91 43.96 43.15 43.54 44.25 45.00 46.12 49.37 50.37 49.88
37.95 40.58 43.55 42.27 39.94 38.83 36.97 35.90 35.63 37.01 39.73 39.46 38.48 37.22 38.13 41.03 41.99 42.80 42.47 42.19 42.56 43.37 44.09 44.77 45.24 43.83 43.31 43.76 44.45 45.30 45.59 45.32 45.29 45.26 43.92 43.38 42.89 43.00 42.67 43.69 43.37 45.85 49.43 50.60
40.34 42.18 41.47 40.37 39.25 38.89 34.81 40.00 39.25 38.67 36.17 32.02 37.59 30.17 36.57 38.00 38.47 40.85 41.42 40.57 40.64 43.16 43.93 44.68 45.07 44.77 44.48 45.02 44.52 45.03 45.51 45.42 45.99 45.47 44.26 42.84 43.67 44.02 46.53 46.15 45.70 45.81 46.12 48.02
39.05 38.66 39.42 39.11 39.84 40.67 39.12 42.04 39.46 38.94 35.52 33.40 35.64 31.01 35.75 38.13 37.02 38.14 39.37 41.39 42.18 42.41 43.20 44.22 44.89 44.42 43.59 44.52 44.48 44.77 45.85 47.04 47.04 46.71 45.78 44.80 43.55 45.14 46.22 45.61 42.87 43.62 43.68 45.84
41.12 42.49 41.48 40.62 42.40 42.81 43.76 40.15 38.76 37.52 34.98 28.28 33.10 32.12 31.24 34.84 37.52 39.30 41.39 42.04 42.40 42.37 43.68 43.61 45.06 44.71 45.30 45.16 44.92 45.39 46.36 46.75 47.60 47.08 46.50 44.80 43.33 44.15 43.53 43.84 42.95 43.87 42.01 42.03
41.07 41.31 43.27 43.83 40.29 42.65 40.77 35.36 26.34 25.24 24.71 25.70 35.53 31.81 33.35 38.65 40.71 41.37 41.51 42.88 43.51 42.35 42.39 42.90 42.17 44.52 44.85 44.26 44.20 45.07 45.03 45.28 45.32 44.88 44.85 44.90 44.16 43.32 42.95 43.26 43.38 41.84 39.19 38.07
34.20 31.47 40.94 44.49 40.18 37.62 37.68 35.94 26.34 21.87 20.93 25.71 34.49 28.86 34.73 40.57 42.21 42.72 43.85 42.20 43.44 44.07 43.71 43.31 44.46 43.87 43.52 43.65 44.41 44.38 44.76 44.96 45.31 44.60 43.77 42.73 41.92 41.98 42.98 42.56 41.23 40.08 37.83 37.28
33.41 35.17 42.94 43.63 43.56 41.26 38.40 33.36 37.79 29.09 22.76 23.18 29.69 34.96 39.26 40.86 42.51 43.61 42.75 43.29 41.97 42.54 42.85 43.26 43.79 44.11 43.80 43.90 44.25 44.15 44.43 44.77 44.59 42.65 40.41 40.35 39.11 39.39 39.68 37.58 37.46 36.86 37.20 38.79
39.43 33.92 40.76 42.83 43.50 43.19 40.36 41.02 31.98 29.91 19.67 23.31 29.30 30.44 32.58 37.58 40.35 42.55 41.38 40.43 40.70 41.52 42.69 43.21 43.61 44.20 44.94 44.61 44.25 44.24 44.32 43.80 42.98 39.41 39.63 40.01 37.90 37.32 37.11 36.37 36.15 36.35 37.47 39.35
39.34 36.55 35.52 39.09 38.56 36.40 36.89 34.63 35.46 35.85 30.70 26.64 22.44 29.04 38.11 38.37 40.09 40.92 39.96 41.11 40.26 40.53 41.86 43.03 43.89 44.47 44.42 44.39 44.14 43.60 43.53 42.95 39.86 38.40 38.71 38.32 37.31 36.04 35.11 35.10 35.38 36.43 38.23 39.45
40.30 34.46 28.90 34.58 40.31 41.94 39.84 37.17 36.11 30.16 28.74 28.02 24.55 29.76 40.33 39.63 40.77 40.73 39.93 41.89 41.99 41.60 42.75 43.73 43.98 44.53 43.85 43.65 43.53 43.00 42.64 40.77 38.96 39.24 38.57 38.11 36.64 35.10 34.06 34.68 36.00 36.93 37.52 38.25
39.66 31.95 26.10 30.35 34.93 38.02 36.84 37.78 37.41 33.20 29.29 28.40 24.02 27.66 40.34 43.05 41.08 40.82 40.31 41.51 42.20 42.53 43.39 44.33 43.94 44.86 44.31 43.97 43.45 42.75 42.75 39.00 39.35 39.75 39.35 37.56 34.53 32.75 33.30 34.95 36.50 37.39 36.97 37.01
42.55 35.30 30.97 26.85 30.58 34.94 34.19 36.57 37.22 34.53 26.88 28.57 31.08 33.46 38.21 39.06 38.75 40.41 40.86 41.46 42.23 42.47 44.06 43.88 43.97 43.28 43.38 43.75 43.13 42.37 40.85 39.88 40.26 40.12 38.58 34.40 32.62 32.63 33.13 34.52 35.53 36.17 36.99 35.81
39.49 32.26 33.92 35.04 36.39 36.57 36.91 36.27 37.48 35.18 34.41 31.15 33.01 33.08 36.95 37.81 39.09 40.11 41.68 41.89 42.21 43.18 43.53 43.16 43.62 42.93 42.99 42.56 41.93 41.50 39.97 39.83 39.77 39.70 35.79 34.03 35.99 36.66 35.29 36.93 38.25 38.29 37.97 37.55
39.67 30.24 32.04 31.47 36.01 36.53 34.64 36.75 36.40 36.52 36.06 34.64 34.15 32.93 38.30 40.42 41.76 41.48 41.95 42.55 41.87 41.61 42.90 42.97 42.81 42.95 42.67 42.34 41.13 40.06 39.56 39.21 39.87 38.99 39.64 40.27 40.63 40.93 40.56 40.24 39.20 37.83 36.88 33.73
35.32 30.09 27.83 25.03 32.63 30.99 26.20 31.24 33.96 34.90 35.71 34.50 29.57 33.86 38.46 39.23 40.03 40.80 41.39 41.87 41.42 41.59 42.75 41.72 41.68 42.24 42.20 40.95 40.43 38.68 38.56 39.32 39.11 39.19 39.64 39.67 39.90 39.96 39.27 38.94 37.30 32.80 30.15 29.23
31.07 28.99 27.47 22.29 30.96 21.82 34.02 37.71 37.91 35.42 36.58 36.65 36.42 38.50 39.75 40.30 41.73 42.11 42.94 41.90 41.21 41.79 42.32 42.24 42.72 41.46 40.69 39.99 38.64 37.38 37.89 37.91 37.77 35.10 32.90 34.72 34.45 33.65 31.70 30.41 29.19 27.74 26.99 26.38
36.45 32.20 28.62 27.18 26.74 28.87 34.16 36.36 33.65 31.83 32.96 38.17 38.33 39.21 40.77 41.49 40.04 38.87 42.25 41.62 40.64 41.14 41.76 42.08 40.77 39.53 38.42 37.06 36.27 33.11 31.57 31.52 32.20 32.79 32.61 33.05 33.74 32.21 29.74 27.99 26.55 25.80 24.66 24.95
35.14 29.43 26.63 28.19 25.78 23.48 30.85 35.67 39.18 38.94 29.58 38.77 39.91 39.32 39.56 38.93 34.81 38.04 43.08 41.81 41.16 41.21 41.50 39.31 38.78 37.80 36.38 37.02 32.00 32.54 31.69 32.48 30.82 33.68 33.06 31.66 30.73 29.45 27.75 26.59 25.43 25.69 24.92 25.07
26.19 29.94 25.76 25.42 24.95 26.94 34.48 37.83 39.25 28.18 30.37 37.09 40.24 41.11 38.72 37.87 39.83 42.42 41.74 40.95 40.93 39.93 39.03 38.80 36.85 36.19 36.68 36.15 32.68 30.67 30.19 30.26 31.67 31.91 31.74 30.72 30.59 29.22 27.31 25.90 25.37 24.31 23.70 23.39
27.90 26.13 23.55 26.47 25.56 22.16 38.41 39.40 33.07 37.29 37.74 39.65 39.79 38.85 39.27 40.38 41.12 40.06 39.73 40.39 39.46 37.05 36.48 36.02 35.35 35.58 36.12 32.09 30.95 29.07 27.97 29.95 30.54 30.37 29.78 28.95 28.35 27.62 26.73 24.67 23.85 23.47 22.42 19.82
31.06 32.53 28.69 29.63 30.18 36.77 38.36 40.27 40.66 41.29 39.39 38.60 38.82 43.18 43.04 40.12 38.98 38.43 38.59 38.79 36.94 35.75 34.92 35.16 34.74 35.83 36.92 32.83 31.05 29.99 29.71 30.64 29.68 28.38 27.62 27.57 27.62 26.64 25.31 23.90 22.89 22.59 20.97 18.26
37.36 39.32 32.01 33.27 37.29 38.60 40.67 43.01 44.38 42.73 40.33 43.90 42.48 41.14 38.52 36.62 37.22 37.50 38.68 36.81 35.64 34.97 33.17 33.94 34.58 34.88 34.28 33.61 31.78 31.87 31.07 30.18 28.30 27.46 27.11 27.33 25.76 25.02 23.98 24.44 24.46 22.64 18.73 17.12
39.05 39.62 35.92 36.62 40.03 40.84 41.82 42.48 42.17 44.03 42.64 39.83 39.70 39.34 38.77 38.22 37.46 37.55 36.10 35.42 34.23 33.26 33.39 34.95 34.88 33.80 33.48 32.41 29.84 30.76 30.37 29.42 28.35 27.73 27.02 25.75 25.19 24.04 24.44 24.38 23.54 23.38 22.13 19.03
40.62 37.60 35.41 35.65 41.05 40.27 41.55 42.97 42.36 40.49 39.40 40.07 39.35 38.67 39.26 38.14 36.76 37.01 35.81 34.74 33.01 32.80 34.23 35.17 34.31 33.13 31.00 29.98 29.07 29.38 29.84 28.72 27.58 27.42 26.24 22.83 21.50 21.03 23.18 22.31 22.78 26.65 25.69 26.96

GFSCGP_sfc_wetblb_012.txt.gz
Wetbulb
42.64 38.73 34.49 35.30 36.69 37.54 36.21 34.16 32.95 34.95 39.04 39.25 36.17 36.81 39.28 38.59 38.49 38.26 36.64 39.05 41.50 42.54 42.45 42.87 43.30 44.01 45.01 45.47 45.41 45.14 45.98 46.25 44.85 43.97 43.93 43.40 44.08 44.00 44.60 45.30 46.47 48.06 49.81 50.43
39.97 35.76 38.99 41.14 40.26 38.28 37.01 34.48 33.42 37.61 39.54 38.65 37.57 37.60 37.86 39.76 38.64 37.93 38.93 40.07 41.44 41.85 42.22 44.15 43.49 42.36 44.28 45.11 45.26 44.65 44.55 44.17 43.49 43.22 42.81 42.87 42.20 42.83 43.11 44.12 44.95 45.92 47.38 49.29
37.10 38.45 42.27 40.81 38.77 38.51 36.33 34.12 33.91 35.55 38.23 37.55 36.47 34.70 37.16 39.37 40.61 41.20 40.95 40.16 41.21 42.24 43.48 42.88 43.49 42.77 42.57 43.42 43.70 44.14 44.05 43.91 43.86 44.51 43.81 43.26 42.89 43.06 42.92 44.02 43.42 45.05 45.74 47.52
38.97 40.64 40.46 39.72 38.33 37.60 33.96 38.48 37.63 36.84 34.66 31.22 35.71 29.10 35.31 36.74 37.59 39.61 39.98 39.88 39.33 40.84 42.38 43.53 43.57 42.18 42.05 43.03 43.15 43.84 44.91 45.02 45.97 45.40 44.07 42.96 41.95 41.97 44.13 44.09 44.55 45.49 44.83 44.93
36.69 37.47 38.80 38.88 38.15 39.24 38.01 40.34 37.72 37.05 34.00 32.51 34.26 30.00 34.33 36.67 36.09 36.67 38.28 40.96 39.91 41.57 42.02 41.88 41.83 42.96 43.33 43.07 43.62 44.01 45.26 45.82 45.91 45.22 44.59 43.67 44.00 45.05 44.52 44.36 43.26 43.97 44.05 43.20
39.77 41.66 40.41 39.27 41.00 40.77 42.31 38.51 36.89 35.57 33.53 27.55 31.96 30.69 30.71 33.69 36.23 38.21 39.97 40.64 42.03 41.86 41.70 43.75 42.79 44.11 43.48 43.44 43.34 43.82 44.49 45.13 45.73 45.12 45.25 43.40 41.76 41.77 41.93 42.27 42.26 42.83 42.34 41.07
39.48 39.76 42.44 42.30 39.42 41.68 39.81 33.35 25.07 24.68 23.99 24.85 34.05 30.24 32.39 38.20 39.17 39.53 40.02 42.01 42.15 41.90 41.34 41.44 41.96 42.85 43.22 43.28 43.66 44.65 44.21 44.59 45.26 46.19 43.26 41.14 40.40 39.99 39.88 40.68 41.68 41.31 40.25 36.74
33.35 30.24 39.69 43.46 38.82 35.98 36.44 34.38 25.57 21.16 19.97 24.65 32.74 28.20 34.04 40.13 40.72 43.22 43.29 41.30 42.05 41.48 42.07 42.06 42.66 42.31 42.90 43.54 43.68 43.98 44.60 44.69 44.69 43.13 40.58 40.31 40.85 39.78 39.73 39.88 39.39 38.40 36.76 36.17
32.39 33.71 41.71 42.30 41.84 39.84 36.76 32.26 36.11 28.60 21.31 22.16 28.50 33.16 38.13 39.17 40.89 41.44 41.53 40.68 40.06 40.92 41.50 42.37 43.49 43.56 43.08 43.63 44.10 43.50 43.29 43.55 43.71 41.82 39.17 39.18 39.38 39.07 38.50 37.52 36.56 35.99 36.32 38.95
37.54 32.91 38.69 41.28 41.72 41.92 39.17 39.73 30.47 29.11 19.45 21.34 27.65 29.03 30.97 36.25 38.09 39.68 38.61 38.77 40.17 41.37 42.47 42.90 43.33 43.88 44.78 44.31 43.80 43.42 43.09 42.91 43.05 39.39 39.39 40.44 39.49 39.86 37.42 35.76 35.59 35.19 37.08 39.09
37.78 34.94 33.98 37.37 36.67 34.72 36.15 33.16 34.07 34.09 29.67 21.63 22.24 27.63 36.73 36.58 38.18 38.61 38.69 40.25 40.21 40.63 41.93 42.63 43.41 43.92 43.92 43.50 43.72 43.40 42.97 42.46 42.55 38.93 38.80 38.64 40.30 39.47 36.23 33.95 34.49 35.74 37.40 38.62
38.53 33.25 28.09 32.99 37.86 39.83 37.58 35.35 34.33 25.43 25.94 26.97 23.37 28.06 38.39 38.94 39.00 39.68 39.12 41.12 41.38 41.69 42.12 42.45 43.09 43.55 43.39 43.57 43.49 43.18 42.32 42.35 40.80 38.82 39.61 39.54 39.04 35.75 33.42 33.29 34.33 35.39 36.30 36.97
38.50 31.32 25.06 28.75 33.47 36.53 35.61 36.39 35.75 31.43 29.49 29.38 26.74 27.82 38.53 40.12 40.57 39.60 39.39 40.76 41.52 42.01 42.26 42.85 43.88 43.39 43.44 43.15 42.98 43.10 42.67 41.55 39.59 39.72 39.21 38.31 34.87 32.02 31.91 33.16 34.38 35.92 36.05 36.85
41.91 33.85 30.09 25.21 29.56 32.66 31.55 34.90 35.58 34.00 29.80 29.33 29.35 32.60 37.60 39.23 37.87 38.92 40.02 40.58 41.17 41.68 42.63 43.69 42.90 42.98 43.09 42.91 42.78 42.61 41.81 40.38 39.72 39.29 38.21 34.57 32.73 31.62 32.28 34.32 36.48 37.14 37.41 37.44
38.68 32.26 32.72 33.75 35.18 34.97 35.08 34.80 35.22 33.16 33.03 31.21 33.33 32.08 36.41 38.54 37.16 39.56 41.05 41.39 42.91 42.80 42.46 42.01 41.74 43.45 43.05 43.55 43.56 41.88 40.88 39.50 39.22 38.99 37.31 35.83 36.71 36.56 37.25 37.34 37.54 38.31 37.56 37.76
37.89 29.94 30.89 29.93 33.04 33.61 31.50 34.31 35.09 34.83 34.72 34.38 34.86 33.92 38.78 37.53 39.89 40.18 41.15 41.58 41.21 41.29 41.14 41.74 41.75 41.03 41.45 42.78 40.70 40.15 39.69 38.92 39.65 38.86 38.13 40.80 40.96 40.07 38.49 38.97 38.66 38.14 38.12 37.78
34.53 28.96 28.01 23.95 30.10 29.69 23.42 29.55 32.25 33.81 35.14 34.05 30.01 34.40 35.67 37.13 39.00 39.55 40.58 40.55 40.85 40.36 41.09 39.07 39.81 41.03 42.61 41.01 39.99 39.03 38.08 38.07 38.23 36.55 36.30 37.40 37.64 36.14 35.40 36.31 34.54 30.46 28.45 27.64
31.11 27.47 27.10 22.76 29.79 18.13 33.12 36.15 37.04 34.40 35.17 36.06 34.98 35.28 37.93 39.09 39.46 39.96 41.43 40.76 38.96 38.69 39.76 40.12 40.21 41.34 39.33 38.75 37.65 36.11 33.26 33.41 32.94 32.57 33.30 34.51 34.19 34.02 32.18 29.52 27.75 27.03 27.03 26.32
35.23 30.95 28.75 28.37 27.48 27.90 34.18 34.58 32.70 31.10 31.74 36.05 35.24 37.95 39.22 39.84 38.65 38.35 40.22 40.21 40.26 40.16 40.09 40.08 39.61 38.77 37.62 36.20 32.78 30.29 30.69 30.89 32.01 33.09 33.47 32.19 29.96 29.17 28.78 27.38 26.39 26.03 25.36 25.07
33.55 28.66 25.59 27.80 24.91 22.14 30.52 34.22 36.82 37.95 28.58 37.31 39.61 39.33 39.07 37.49 33.18 37.23 40.34 40.99 39.97 40.54 40.86 39.26 37.87 36.99 36.21 36.46 31.57 33.99 32.35 31.19 30.10 30.83 29.84 29.62 28.96 27.72 25.99 24.97 24.35 24.96 24.57 25.26
26.01 29.01 25.42 26.33 26.41 28.61 34.14 36.46 38.38 27.79 30.42 36.55 40.02 39.00 37.83 34.90 38.74 38.02 38.68 38.51 38.85 39.62 38.83 38.22 36.08 35.03 35.98 36.48 33.24 30.90 29.15 28.75 30.10 30.31 29.94 28.58 28.10 26.65 25.01 24.33 24.18 23.57 23.05 23.62
27.12 23.39 21.46 25.13 25.54 22.73 36.22 36.77 32.78 37.38 37.63 38.68 37.73 36.68 40.16 39.54 38.28 37.74 37.36 37.70 37.65 37.35 36.82 36.38 34.54 34.47 36.34 36.74 31.53 29.09 26.95 30.26 30.91 29.71 27.57 27.00 27.04 26.55 25.70 23.92 23.72 23.46 22.05 19.80
28.02 32.05 30.73 32.26 29.08 35.79 38.77 40.10 40.23 39.53 38.67 38.10 37.69 41.18 39.54 36.80 36.66 37.11 36.22 36.97 37.58 36.70 34.66 34.74 33.73 34.43 35.41 34.27 31.28 32.62 33.59 32.41 29.59 27.63 26.43 26.49 26.92 26.26 25.20 23.72 22.69 22.67 20.98 17.67
35.46 38.42 33.30 33.88 36.37 38.21 41.51 42.83 42.41 41.19 40.56 40.75 40.22 39.13 38.87 37.27 37.40 36.65 36.63 36.28 35.87 35.07 33.28 33.19 33.17 33.86 33.30 34.19 32.65 30.01 29.56 29.38 27.12 26.91 26.47 26.30 25.12 25.20 24.20 24.82 24.25 22.89 18.76 17.26
37.43 37.57 35.69 35.08 39.82 40.25 40.62 40.35 41.37 40.86 40.78 40.27 40.33 39.28 37.81 37.03 36.48 36.31 35.24 34.86 34.71 33.30 32.86 33.37 33.82 32.70 32.71 32.85 31.39 29.15 29.22 28.76 27.45 27.20 26.69 26.01 25.20 24.11 24.82 24.90 23.01 22.89 22.05 19.20
40.44 37.97 34.90 35.18 40.53 40.64 42.05 42.11 42.44 39.93 39.03 40.20 39.43 37.74 38.14 37.21 35.75 35.11 34.88 34.51 33.39 33.12 32.83 32.98 33.37 32.26 32.53 30.39 28.84 28.62 28.52 27.93 26.71 27.07 26.31 21.85 21.20 20.34 22.31 22.07 22.33 26.06 25.22 26.28

GFSCGP_sfc_wetblb_015.txt.gz
Wetbulb
46.27 43.96 40.62 41.50 42.55 42.27 41.37 39.82 39.32 41.47 43.60 44.16 42.56 42.96 44.28 44.56 44.70 44.07 44.80 45.86 47.92 49.39 49.40 49.79 50.00 51.06 52.32 54.04 55.44 56.58 55.70 55.31 55.29 54.26 53.09 53.37 53.02 53.31 53.74 54.00 53.73 53.88 54.17 54.76
44.28 40.56 43.13 43.50 43.09 42.13 41.44 39.56 39.24 41.85 43.05 43.63 42.86 43.11 43.28 44.38 43.46 43.85 45.76 46.87 47.99 48.89 49.11 48.92 49.95 50.90 51.31 52.87 53.56 52.37 51.17 51.01 50.90 51.62 52.01 51.97 51.59 52.18 51.77 52.55 53.36 53.67 53.26 53.37
41.37 42.09 44.33 43.51 42.13 41.69 41.13 39.93 39.35 39.45 41.98 42.90 41.73 41.39 42.47 43.87 45.01 45.68 46.38 47.12 47.74 49.15 49.42 49.35 49.86 50.72 50.83 50.61 50.15 50.02 50.37 50.88 51.60 51.52 51.99 52.38 52.44 52.76 52.26 52.58 52.34 52.94 53.01 52.68
42.10 43.66 43.09 42.78 41.36 41.78 38.80 41.94 41.73 40.25 40.05 38.16 40.76 36.37 41.16 41.61 43.02 44.57 45.65 46.89 47.79 48.14 49.24 49.43 49.66 49.79 49.86 49.71 51.37 51.82 51.96 52.22 51.79 52.20 51.51 50.39 49.17 48.19 49.91 50.23 50.83 51.14 51.95 51.69
40.72 42.38 42.27 42.11 41.70 43.02 41.66 42.79 41.27 40.87 39.73 39.17 39.72 38.16 40.51 41.94 41.13 42.73 45.14 46.21 47.86 47.90 47.75 48.06 48.42 49.03 49.11 50.27 50.63 51.34 51.73 51.56 51.31 51.11 49.92 49.25 48.74 49.03 49.27 49.27 48.83 49.49 50.34 50.66
42.88 45.73 44.26 43.54 44.20 44.31 44.25 41.94 40.12 39.48 38.77 34.78 36.50 36.65 37.64 39.89 40.42 42.88 45.94 47.25 46.67 47.28 47.37 47.39 48.96 49.60 49.75 51.01 51.13 51.44 51.18 51.12 51.58 51.34 49.41 48.56 48.00 47.67 47.68 47.97 47.66 48.04 48.00 48.11
41.78 42.77 45.32 44.93 43.10 44.97 43.61 38.55 33.99 33.93 33.66 33.32 36.98 35.81 37.99 41.62 43.38 44.38 45.11 45.85 46.28 47.25 47.47 47.70 48.07 48.93 49.66 50.08 50.62 50.72 50.67 50.20 50.60 50.27 48.05 47.77 47.72 47.87 47.15 47.16 46.85 46.21 45.61 45.84
36.60 35.39 42.45 45.17 42.94 40.43 40.72 39.05 33.93 27.04 29.25 31.85 36.06 33.55 38.11 43.52 45.26 46.38 45.97 45.20 45.88 46.56 47.30 47.66 47.82 48.72 49.25 49.52 49.83 50.37 49.73 49.47 50.00 49.62 48.34 47.20 48.27 47.43 46.71 46.19 45.58 44.30 43.76 43.88
36.60 36.73 44.00 44.67 44.62 43.53 40.53 37.69 39.53 32.23 25.96 30.94 34.58 37.91 41.52 43.05 44.15 44.39 44.13 44.99 45.19 46.38 47.02 47.83 48.59 49.23 49.81 49.62 49.51 49.36 49.11 48.95 49.07 48.99 47.38 46.74 46.80 46.62 45.76 45.60 44.51 42.99 43.12 43.94
40.53 35.77 41.15 43.10 44.71 44.58 42.52 42.45 36.07 36.04 28.41 26.38 32.83 33.66 36.65 39.43 41.19 42.76 43.39 43.95 45.34 46.19 47.49 48.68 49.48 49.77 49.81 50.00 49.47 49.20 50.21 48.62 48.73 48.69 46.52 45.94 45.98 45.85 45.27 43.64 41.84 41.82 43.04 44.68
41.29 38.30 37.93 40.70 39.89 38.72 40.34 38.32 37.73 37.50 34.74 30.02 26.38 32.88 41.42 41.10 41.83 42.66 43.72 44.39 45.63 46.98 47.91 48.66 49.04 49.57 49.54 49.23 49.73 49.47 49.06 48.23 47.99 47.18 45.40 45.50 45.12 44.19 41.60 40.25 40.66 41.57 43.64 43.43
41.82 37.29 33.40 36.72 41.14 42.96 41.49 38.70 37.32 32.35 29.64 32.92 31.89 31.85 42.11 43.14 42.82 43.74 44.24 44.32 46.04 47.11 47.78 48.26 48.50 48.66 48.79 48.99 49.01 48.62 48.81 47.77 46.40 44.91 44.94 44.44 42.77 39.98 39.06 39.46 40.46 41.06 40.53 41.02
42.22 36.27 30.57 32.48 37.42 40.15 39.25 39.74 37.27 35.64 34.25 32.33 29.67 32.31 41.73 42.89 44.16 44.17 44.26 45.20 46.37 46.95 47.60 47.95 48.01 47.70 47.76 47.40 47.34 47.60 47.34 46.08 45.21 44.72 43.97 41.63 39.48 38.49 38.50 40.56 41.56 41.91 41.69 41.76
43.62 36.84 33.99 30.39 33.08 36.70 34.73 36.89 37.81 37.73 33.48 32.53 33.55 35.75 40.50 42.45 42.24 43.41 43.63 45.42 46.34 46.04 46.52 46.96 46.78 46.22 45.49 45.49 45.39 45.22 45.04 45.04 44.18 43.26 42.44 40.44 39.44 38.62 40.69 41.62 41.68 41.70 41.55 40.95
42.37 36.27 35.86 36.47 37.48 36.77 36.44 36.16 36.76 35.80 36.70 33.17 35.92 36.15 39.79 42.03 42.13 42.58 44.80 44.82 44.44 45.22 45.63 44.72 43.14 43.01 43.59 44.05 44.44 43.95 43.88 43.42 43.16 42.84 42.06 41.33 41.26 41.27 40.85 40.60 39.88 40.61 40.42 40.28
40.09 35.66 35.50 32.87 34.77 34.88 33.01 35.78 36.09 36.59 37.05 36.63 37.25 36.49 42.91 42.62 43.61 43.39 43.06 43.18 43.09 43.48 42.32 42.07 41.83 42.10 42.50 43.16 41.89 41.55 41.72 41.77 41.61 40.51 39.59 38.40 38.22 38.56 38.79 39.37 39.97 39.63 37.82 34.96
38.19 35.29 32.03 29.30 31.79 32.05 29.29 33.33 35.35 36.78 38.15 37.76 33.75 38.83 40.65 41.05 42.00 42.61 42.94 43.03 41.56 39.82 40.00 39.50 40.03 41.50 42.68 41.71 40.81 40.43 40.03 40.23 38.62 37.91 37.60 37.79 38.75 38.06 37.28 36.04 35.01 33.77 33.08 32.92
33.50 32.98 31.41 30.82 29.75 25.93 36.18 39.43 39.54 37.19 38.20 38.67 38.15 38.82 40.33 42.24 43.34 43.37 42.55 40.53 39.26 38.80 38.13 39.82 40.91 42.25 41.65 40.70 40.83 38.65 37.63 37.60 36.90 36.86 37.54 37.87 35.66 34.05 33.85 33.67 32.81 32.31 32.20 31.45
37.62 33.83 30.86 29.48 29.21 31.82 35.84 37.67 37.44 36.02 35.97 40.04 38.87 41.11 42.22 43.90 43.22 41.78 40.50 40.80 39.49 38.76 40.57 41.22 43.00 41.54 40.18 40.11 39.79 35.78 35.80 36.04 36.19 35.66 34.75 34.11 33.73 32.90 32.69 31.70 31.08 31.33 30.83 30.66
35.06 32.91 34.31 30.08 27.22 25.54 34.97 38.02 40.15 40.77 33.04 40.71 41.69 41.49 41.54 41.29 34.97 39.97 39.19 39.81 39.84 40.95 41.34 41.90 41.99 40.12 39.26 40.62 40.38 37.72 36.99 36.30 33.96 34.32 34.10 33.74 33.03 32.15 31.18 30.72 30.47 30.57 30.59 29.74
30.01 31.08 30.11 30.38 28.27 31.63 37.84 38.95 40.54 31.56 34.52 40.13 41.73 42.00 41.04 38.52 38.51 38.41 39.45 39.88 40.71 40.45 40.52 42.28 40.13 38.53 39.10 40.29 39.90 37.03 34.45 33.11 34.58 34.37 33.27 32.53 32.20 31.59 31.34 30.48 30.77 30.15 29.62 28.80
31.56 30.56 28.37 28.85 26.83 25.85 38.90 39.13 36.22 40.48 42.09 42.02 42.40 41.26 41.59 39.57 38.89 38.56 39.91 39.63 39.28 39.33 40.03 40.81 38.37 37.94 39.31 39.91 37.21 35.03 34.66 36.50 36.55 34.00 32.44 31.82 31.84 31.23 30.25 30.11 30.13 29.37 29.07 28.00
32.49 35.27 33.51 33.84 34.21 39.92 40.61 42.23 43.78 42.66 40.51 41.35 41.81 39.57 39.13 38.14 38.50 39.32 38.90 39.16 39.64 39.23 39.80 39.36 37.64 37.30 38.74 39.10 38.03 35.32 37.34 37.67 36.47 33.20 32.16 31.81 31.44 30.78 30.58 29.76 29.75 28.51 28.55 27.40
37.05 38.49 35.55 35.80 40.07 40.82 42.48 44.97 43.55 43.48 41.21 40.70 41.03 40.56 40.62 39.54 39.18 38.37 39.30 39.41 38.64 38.83 38.04 38.24 37.07 36.75 37.66 38.94 37.39 37.54 36.73 34.71 33.29 32.11 31.86 31.78 30.75 30.45 31.01 30.42 29.93 28.32 27.82 26.97
39.57 39.11 37.18 36.55 40.83 42.06 42.30 42.35 43.13 41.47 41.41 40.84 41.58 40.65 39.65 39.49 38.75 39.39 38.74 37.97 37.41 37.05 37.24 37.20 36.55 36.73 37.52 37.87 36.68 36.17 34.26 33.38 31.98 31.50 31.12 30.92 30.46 29.36 29.07 28.89 28.51 28.03 28.42 26.56
41.00 39.54 36.82 36.46 42.68 41.88 41.89 42.46 42.44 40.31 40.00 40.40 40.04 38.71 39.02 38.84 38.52 38.12 36.81 36.77 36.06 35.73 36.23 35.87 36.11 35.27 33.80 33.57 32.45 32.72 32.71 32.31 31.65 30.52 30.48 30.23 29.43 29.36 28.06 27.30 27.02 27.34 25.94 25.89

GFSCGP_sfc_wetblb_018.txt.gz
Wetbulb
51.28 49.86 46.14 46.68 47.74 46.91 45.60 44.29 43.55 45.78 47.89 47.84 47.62 47.77 48.11 49.96 50.47 50.82 51.22 51.57 53.23 56.35 56.24 56.02 56.71 57.46 58.28 60.27 60.87 61.26 60.92 59.55 60.84 60.76 58.18 58.34 57.69 58.00 58.23 58.87 58.53 58.90 58.65 58.24
48.85 45.31 47.32 48.38 47.91 46.14 45.70 43.79 43.90 46.13 47.31 47.34 47.46 46.43 47.92 49.44 49.61 50.79 51.82 52.63 53.64 54.27 54.90 55.26 56.66 57.64 57.99 58.07 57.96 57.24 56.23 55.89 56.40 57.99 57.81 57.40 56.95 57.82 58.07 58.56 58.02 57.57 56.81 56.70
46.31 45.88 47.26 47.03 47.12 46.03 45.81 44.02 43.95 43.67 47.03 47.96 46.92 45.89 46.23 48.20 50.15 51.02 51.78 52.67 53.16 53.35 53.58 54.02 54.76 55.83 56.61 56.19 56.26 55.76 56.22 56.76 57.11 57.05 58.02 57.92 58.09 57.78 55.96 54.58 54.36 55.12 54.99 54.91
46.59 47.71 47.18 46.91 45.34 46.77 43.32 46.09 46.18 44.90 44.59 42.63 46.95 41.30 44.56 46.36 47.48 49.12 50.32 51.72 52.49 52.82 53.29 53.64 54.29 54.83 55.41 56.07 57.05 56.72 56.49 56.36 56.27 56.44 55.63 54.77 53.72 52.37 53.28 53.95 54.11 53.86 54.23 53.59
43.73 46.24 46.35 45.61 44.89 47.40 45.00 47.46 45.88 45.34 44.90 44.34 44.33 42.62 44.34 46.87 44.95 47.02 50.06 51.18 52.41 52.97 52.87 53.12 53.65 54.43 55.27 56.19 56.42 56.98 56.27 55.91 55.90 55.24 54.28 54.16 53.24 53.94 53.92 53.53 53.00 53.42 53.08 52.83
47.21 49.70 48.90 47.72 47.67 47.46 48.43 46.21 45.63 46.30 45.96 40.03 42.24 42.07 42.54 45.51 44.15 46.98 49.99 51.50 52.16 52.69 52.77 52.92 53.86 54.71 55.15 56.48 56.49 56.39 55.34 54.54 55.03 55.18 54.22 53.36 52.58 51.33 51.00 51.52 50.70 50.53 50.78 50.95
45.95 46.47 49.16 49.80 46.69 48.77 48.45 44.67 40.51 38.33 38.89 38.29 42.24 41.19 42.66 45.34 47.39 48.26 48.85 50.39 51.98 53.00 53.25 53.05 53.08 53.64 54.29 55.04 55.32 54.98 54.80 53.86 54.48 54.05 52.66 51.23 52.32 52.22 51.14 50.50 49.60 49.02 48.76 49.07
42.00 40.13 46.63 49.00 46.44 44.57 45.14 44.57 39.53 30.61 35.09 38.41 41.38 38.59 42.23 47.34 49.24 49.86 49.99 50.61 51.25 51.75 52.51 52.49 52.77 53.86 54.17 54.11 54.36 54.51 54.10 53.18 52.82 52.58 51.96 52.56 52.37 51.97 51.07 50.08 48.95 48.16 48.14 48.59
41.69 40.67 47.56 47.51 48.45 47.30 44.56 42.35 44.61 38.02 33.22 36.70 41.29 42.32 45.97 47.41 47.36 48.15 48.42 49.41 49.74 50.69 51.24 52.01 53.16 53.72 54.08 54.19 54.17 54.22 54.10 54.06 53.57 52.82 53.15 52.42 51.96 50.96 49.34 48.88 48.37 47.71 48.14 47.74
44.27 40.04 44.65 46.40 48.27 48.71 46.67 46.61 40.88 42.52 32.69 29.19 37.80 38.60 40.78 44.43 46.41 46.88 47.88 48.30 49.31 50.83 51.51 52.44 53.10 53.55 53.86 54.12 54.62 54.97 54.12 53.16 53.28 52.93 52.35 50.94 50.59 49.60 48.44 47.16 46.02 46.17 46.88 47.73
45.80 42.95 41.90 44.99 44.14 43.38 45.23 44.03 42.38 42.38 40.14 33.46 30.92 37.09 46.51 45.36 46.30 45.93 48.01 48.24 49.45 50.41 51.40 51.96 52.52 53.11 53.14 53.85 53.82 52.89 52.76 52.54 51.75 51.28 50.57 49.68 48.62 47.20 45.99 45.44 45.44 45.88 46.67 46.13
46.06 43.81 38.78 39.68 45.05 46.86 45.80 42.90 41.96 37.60 32.04 37.62 35.95 36.11 46.53 47.23 47.56 47.39 47.86 48.14 49.64 50.62 51.07 51.52 52.18 52.41 52.52 51.94 51.63 51.13 50.83 49.97 49.97 49.77 48.61 47.76 46.67 45.41 45.08 44.30 44.53 45.36 44.58 44.80
46.87 42.07 36.16 37.32 42.29 44.92 43.12 43.62 42.75 40.88 39.50 35.44 33.39 37.41 46.19 47.38 47.43 48.48 47.90 48.34 49.35 49.81 50.51 51.04 51.42 51.13 50.40 49.80 49.03 48.92 48.94 48.74 48.40 47.43 46.95 46.40 45.40 44.79 44.12 44.41 44.56 44.65 44.18 43.33
47.16 43.19 38.73 34.87 37.71 41.03 38.59 40.68 41.92 40.85 35.90 36.17 37.46 39.65 43.95 45.46 45.90 47.32 47.34 48.49 49.12 49.16 49.31 49.96 49.74 49.42 49.17 48.00 47.79 47.78 47.50 47.15 46.50 46.49 45.86 45.19 44.73 44.64 41.88 42.95 43.21 42.82 42.67 41.93
47.38 39.02 41.03 41.60 42.07 41.96 40.63 39.86 40.76 39.11 39.96 35.84 39.03 39.77 43.21 45.22 45.64 46.71 47.78 48.09 47.72 47.84 47.86 47.67 46.92 44.95 45.99 46.37 47.09 46.60 45.69 45.61 45.96 45.12 44.38 43.01 42.50 41.68 42.58 42.56 42.60 42.53 42.23 41.42
45.91 40.00 38.86 36.84 40.35 40.38 38.22 40.81 40.92 40.65 41.03 41.05 41.09 40.19 46.10 46.42 47.10 46.53 46.55 46.71 46.08 46.14 45.15 45.08 43.73 43.51 44.45 45.53 45.40 44.13 44.37 44.33 44.63 43.33 42.51 42.15 42.17 42.04 41.90 41.31 40.53 39.72 38.97 38.68
43.05 41.20 37.27 34.57 37.40 37.11 34.37 38.15 39.97 41.01 42.23 41.42 37.48 42.33 45.15 44.39 44.74 45.67 46.27 46.19 44.87 43.54 43.53 43.40 43.19 43.66 45.15 45.48 43.80 43.70 43.56 43.63 42.90 42.36 41.43 41.34 41.34 39.97 39.21 38.99 38.20 37.26 37.07 37.25
39.35 39.34 36.46 35.04 35.32 30.52 39.04 44.20 43.70 41.32 42.34 43.70 43.38 43.86 44.46 45.52 46.80 47.65 46.79 44.41 41.55 40.81 42.57 43.08 43.76 44.59 45.72 44.71 44.25 44.14 43.56 42.50 41.98 41.40 40.65 40.05 39.06 38.16 37.87 37.07 36.38 36.42 36.65 35.88
44.14 40.64 34.73 32.07 32.90 36.89 39.54 40.95 40.57 39.13 39.48 44.74 43.05 44.29 45.99 46.57 46.85 45.51 43.36 40.91 40.37 43.22 43.61 43.84 44.75 45.52 45.49 44.21 44.09 43.67 42.77 42.36 41.36 39.87 39.48 38.89 38.30 36.71 36.15 35.71 35.60 35.98 35.53 35.23
40.53 40.48 40.47 34.04 29.96 28.79 38.97 42.18 43.78 44.04 35.81 44.62 45.06 44.06 42.64 43.48 39.17 41.25 40.21 41.90 43.24 44.12 43.96 43.46 44.38 45.68 44.83 44.29 43.81 42.51 41.66 41.26 39.82 39.63 39.09 39.24 37.84 36.22 35.54 35.70 35.38 35.64 35.62 34.38
34.51 34.70 33.87 33.58 32.03 35.99 43.03 42.99 44.31 33.57 37.34 44.28 43.85 41.54 41.61 39.93 39.20 40.06 41.84 43.00 43.98 43.90 43.74 43.99 44.31 44.31 44.09 44.17 43.40 41.14 40.51 39.05 39.91 39.88 39.79 38.83 37.31 36.08 36.19 35.96 36.25 35.57 34.75 33.52
37.13 35.98 33.04 33.19 29.71 28.93 44.18 43.25 37.92 43.24 45.42 45.64 44.57 42.35 40.68 39.83 40.59 41.00 42.04 42.39 43.17 43.17 43.51 43.28 42.44 42.56 43.63 43.88 43.15 41.17 39.80 40.72 40.56 40.44 39.80 38.06 36.72 36.05 35.32 35.80 35.82 35.38 34.24 31.91
36.32 40.59 38.88 38.37 39.03 46.07 46.94 45.77 47.94 48.11 45.99 43.44 42.01 40.91 42.35 41.37 40.84 41.58 41.24 41.95 42.33 42.79 42.85 42.92 41.68 41.29 42.22 42.87 42.75 40.70 40.69 41.12 40.22 39.17 38.39 37.20 36.23 35.75 35.83 35.31 34.44 32.64 32.24 29.60
43.26 44.38 40.34 39.92 43.16 45.02 46.86 48.49 47.88 46.67 42.04 41.91 42.80 42.48 41.48 40.27 40.75 40.47 40.92 41.49 42.05 42.06 41.23 41.22 40.40 39.69 39.77 41.79 40.98 40.68 40.47 40.28 39.15 37.42 36.68 36.91 35.78 34.76 35.63 35.10 33.17 32.01 29.77 27.94
44.44 44.36 41.74 41.64 44.22 45.48 46.40 45.67 44.92 42.20 42.56 41.79 42.18 41.69 40.58 39.76 39.48 39.92 40.03 40.14 40.21 39.88 40.21 40.02 38.50 38.05 38.31 39.30 38.75 39.48 38.20 37.68 36.25 36.34 35.64 35.40 34.64 34.56 33.92 33.08 32.25 30.81 30.21 27.91
45.39 43.54 40.41 38.86 44.67 42.97 41.93 43.36 43.01 40.49 40.47 40.88 39.87 38.87 39.99 39.93 38.62 39.17 38.35 39.00 39.19 38.87 39.34 38.38 38.14 37.84 37.79 37.27 36.78 37.03 36.25 35.26 34.37 33.53 34.38 34.79 34.29 33.72 31.83 31.20 30.65 28.52 26.74 25.62

GFSCGP_sfc_wetblb_021.txt.gz
Wetbulb
53.13 50.36 48.64 48.35 48.82 48.18 46.90 45.75 45.08 47.39 49.60 48.35 48.20 48.79 49.58 51.80 52.85 52.85 53.40 53.84 54.39 56.06 60.15 59.48 59.47 60.11 61.37 62.94 63.73 64.45 64.17 62.41 61.80 61.16 59.12 58.85 58.63 59.23 59.40 59.81 60.18 60.04 59.50 58.99
49.41 48.15 49.27 49.73 49.31 48.05 47.52 46.12 46.01 47.86 49.04 48.61 48.74 48.30 49.76 51.13 51.72 53.27 53.78 54.78 55.93 56.59 56.26 57.48 58.68 59.70 59.98 59.74 60.07 59.66 59.23 58.72 58.83 59.30 58.53 58.85 58.68 58.85 59.17 59.74 59.13 58.78 57.61 56.99
48.23 48.54 49.33 49.05 48.34 47.38 47.78 46.27 46.31 45.74 48.62 50.07 48.70 47.14 47.80 50.39 51.89 52.58 53.63 54.40 54.87 54.78 54.70 55.73 56.92 58.20 59.12 58.58 58.54 58.33 58.46 58.54 58.56 58.70 58.92 58.50 58.67 58.66 57.34 57.07 57.05 57.52 57.38 56.21
48.42 50.10 48.50 48.22 47.06 48.44 45.58 48.43 47.68 47.00 46.01 43.50 49.28 42.91 46.78 49.00 49.39 50.90 52.26 53.40 53.93 54.28 55.16 55.84 56.17 56.80 57.72 58.02 58.77 58.37 58.06 57.83 57.91 58.04 56.75 56.25 55.33 54.50 56.18 56.63 57.05 56.35 56.53 55.52
46.82 47.74 47.96 47.13 47.19 49.09 47.01 49.70 48.06 47.84 46.71 46.43 46.11 43.48 45.79 48.80 47.15 48.97 51.39 52.72 53.77 54.53 55.01 55.18 55.80 56.62 57.35 58.25 58.51 58.49 57.79 57.26 57.38 57.04 56.43 55.93 55.09 55.49 55.83 54.78 54.04 54.16 53.87 53.66
49.28 51.77 50.79 49.49 50.03 49.44 50.66 49.07 48.24 48.78 47.37 41.08 45.37 44.13 44.85 46.74 47.63 49.11 51.66 52.75 53.66 54.66 54.79 55.16 55.79 56.38 57.04 58.19 58.08 57.83 57.18 56.88 57.09 57.12 56.58 55.21 53.90 53.22 52.41 52.49 51.70 51.45 51.58 51.57
47.83 48.13 51.07 51.32 48.76 50.82 50.28 47.35 41.94 39.75 40.28 39.65 45.47 42.56 45.03 48.08 49.55 50.44 50.48 51.75 53.25 54.42 54.68 54.80 54.96 55.46 55.81 56.18 56.85 57.16 56.77 55.91 56.45 55.60 55.06 54.62 53.73 53.28 52.35 51.74 50.86 49.97 49.28 49.26
44.23 42.07 48.14 50.44 48.40 46.33 47.00 46.58 41.23 33.08 36.56 39.85 44.64 39.58 45.15 49.90 51.24 51.38 51.61 52.03 52.71 53.12 53.76 53.85 54.41 55.01 55.70 56.04 56.70 56.55 56.15 55.72 55.83 55.86 55.18 54.80 54.74 53.07 52.25 51.41 50.20 48.63 48.06 48.44
44.02 43.38 49.26 49.58 50.77 49.75 46.74 44.37 47.01 41.06 38.99 37.95 42.06 45.03 48.53 49.70 49.55 49.92 50.44 51.30 51.62 52.29 52.77 53.70 54.56 55.32 55.58 55.60 55.79 55.99 55.64 54.92 54.81 54.84 54.81 53.89 53.03 52.09 50.74 49.83 48.38 47.64 48.18 47.90
46.50 42.60 46.68 48.28 50.15 50.34 48.27 48.92 42.83 44.23 33.37 31.02 38.99 40.12 42.06 45.76 47.52 49.68 49.17 49.96 51.32 52.23 52.86 53.72 54.12 54.63 54.94 54.99 55.42 55.80 54.92 53.88 53.35 52.69 52.58 51.93 51.10 51.04 49.39 47.95 47.06 47.00 47.55 48.11
47.85 44.85 44.54 46.41 45.89 44.76 46.63 46.18 44.68 43.81 41.35 34.62 32.88 38.37 47.77 46.74 47.93 47.82 48.96 50.37 51.38 51.97 52.60 52.93 53.01 53.20 54.19 54.27 53.90 53.51 53.07 52.50 51.61 51.57 51.13 50.14 49.25 48.72 47.68 46.79 46.58 46.64 46.79 45.97
48.01 45.62 40.64 42.01 47.13 49.07 47.50 45.17 44.67 38.71 35.30 39.15 37.37 37.50 48.56 48.44 48.91 48.89 49.55 50.55 51.03 52.11 52.32 51.80 52.01 52.39 52.22 52.15 52.42 51.78 51.46 50.52 50.36 49.79 48.80 47.92 48.16 47.69 47.00 46.26 45.98 45.82 44.46 45.10
48.80 44.90 38.82 40.75 44.65 47.19 44.41 45.65 44.74 42.44 40.88 35.98 35.69 38.01 48.03 49.06 48.78 49.48 49.36 50.16 50.63 50.79 51.20 51.20 51.08 50.89 50.54 50.88 50.99 49.82 49.77 49.02 48.35 47.52 47.09 47.08 47.03 46.66 45.45 45.19 45.19 45.04 44.69 44.51
48.59 45.37 40.45 37.07 40.21 43.47 40.73 42.64 43.75 42.61 37.07 37.92 38.88 41.02 45.35 46.65 47.19 48.30 49.00 50.03 50.66 50.07 49.08 49.54 50.31 50.10 50.15 49.32 48.59 48.52 48.19 47.53 46.89 46.65 46.09 45.44 45.22 43.37 43.97 44.49 44.11 43.15 43.31 42.30
48.56 40.99 43.34 43.68 43.81 43.24 42.30 41.86 42.52 40.99 41.69 37.58 40.35 41.37 44.89 46.62 46.90 47.94 49.59 49.62 49.03 48.58 48.64 49.26 48.28 48.33 47.67 46.86 47.61 47.86 46.90 46.71 46.18 45.20 44.84 44.57 43.96 43.25 42.62 42.73 42.18 41.72 41.52 40.51
47.86 41.51 41.90 39.05 42.86 42.52 40.18 42.26 42.70 42.59 42.53 42.72 42.51 41.86 47.68 48.53 49.01 48.17 47.95 47.76 46.72 47.64 47.85 46.27 45.31 46.14 45.55 45.95 46.92 46.18 45.86 45.37 45.31 44.31 43.84 44.15 43.22 41.85 41.50 41.05 40.63 40.27 39.23 39.04
44.98 43.43 39.06 35.72 40.88 39.59 35.99 40.50 41.58 42.41 43.95 43.02 38.84 43.78 47.36 46.52 46.32 45.59 45.57 46.15 47.11 46.31 44.34 42.94 44.17 45.29 45.61 46.48 46.55 45.20 45.38 45.55 44.33 43.54 43.64 42.67 41.30 40.41 40.05 39.84 38.93 38.16 38.07 38.28
43.90 41.55 39.64 36.06 35.88 31.30 42.16 46.36 45.55 43.16 43.72 45.25 45.09 45.61 46.76 46.14 47.02 48.18 47.23 45.08 44.88 43.79 43.86 45.20 45.47 45.40 45.82 46.62 46.79 46.07 45.23 44.65 43.90 43.41 42.78 41.86 40.84 39.42 39.50 38.63 37.91 37.63 37.68 37.07
47.26 43.33 36.83 34.45 34.92 38.43 41.29 42.82 42.39 40.79 40.65 46.16 45.24 46.34 46.91 47.36 46.96 46.22 45.66 45.82 45.75 45.68 45.85 45.79 45.80 45.29 45.37 45.91 46.41 45.39 44.36 44.04 42.92 42.08 41.43 41.23 39.97 39.64 38.85 37.35 37.23 37.42 37.03 36.61
43.77 44.78 41.36 35.87 31.84 30.14 40.73 45.04 46.09 45.87 36.97 46.98 46.53 45.66 45.18 45.23 38.80 41.63 43.02 45.29 45.53 45.68 46.21 45.28 45.53 45.06 45.01 44.95 45.05 44.35 43.37 43.13 41.82 41.49 41.25 40.74 40.08 39.05 38.10 37.49 37.16 37.35 36.98 36.12
35.71 36.89 35.92 34.92 33.44 37.34 44.62 45.59 47.06 35.16 38.55 46.91 46.28 43.98 42.81 40.30 41.85 43.67 44.17 44.86 45.47 45.40 45.26 45.55 45.24 44.34 44.27 44.48 44.11 42.60 42.30 41.53 42.26 42.37 41.72 41.08 40.45 39.11 38.36 37.45 37.70 36.83 36.36 36.03
37.04 35.99 33.77 36.00 31.82 30.03 46.76 45.23 38.93 44.78 47.33 46.02 45.42 43.47 40.54 42.39 43.28 43.51 43.87 43.74 43.84 43.67 44.13 44.64 43.78 43.34 43.65 43.55 42.50 41.34 41.03 42.30 43.14 42.74 41.49 40.66 39.50 38.24 37.68 37.02 36.90 36.33 35.44 34.03
38.28 42.25 40.31 40.46 40.45 47.68 47.90 46.56 48.83 48.55 47.26 46.09 43.82 42.93 43.72 42.92 42.41 42.64 42.30 42.45 42.84 43.06 43.14 43.39 42.30 41.73 41.90 41.80 41.43 39.73 40.63 41.67 40.85 40.67 39.60 39.22 38.83 37.57 37.66 36.43 35.59 34.49 34.11 32.51
45.24 47.78 42.85 42.48 45.07 45.57 47.04 48.48 47.89 47.76 45.49 44.51 43.66 44.55 43.65 41.88 41.55 41.35 41.60 41.30 40.92 41.12 40.74 41.34 40.82 39.90 39.41 40.48 40.34 39.88 40.16 39.34 38.10 36.84 37.24 38.00 37.02 36.28 36.95 36.16 35.51 33.80 32.35 29.69
46.27 45.93 43.71 43.49 45.94 46.08 47.11 45.38 44.86 44.84 44.55 44.70 43.87 43.39 42.40 41.22 41.04 40.67 39.70 39.70 39.85 39.81 40.24 40.21 39.51 39.12 39.15 39.75 39.40 39.91 38.54 37.93 35.84 35.92 35.96 35.98 36.24 35.77 34.76 34.39 34.36 32.41 32.17 29.47
46.63 44.78 42.19 39.68 45.76 43.26 43.34 44.01 44.51 44.31 43.23 43.03 41.70 41.07 42.21 41.79 39.90 40.03 39.50 39.94 39.75 39.27 39.61 39.52 39.40 39.19 39.17 39.20 38.61 37.46 37.67 36.63 35.05 33.44 33.98 34.71 35.13 34.34 32.63 32.21 31.48 29.25 28.05 26.51

GFSCGP_sfc_wetblb_027.txt.gz
Wetbulb
48.94 43.57 40.17 40.84 43.46 44.44 43.38 42.26 40.52 41.90 45.34 42.53 41.20 41.20 44.42 46.49 46.72 45.75 48.61 50.68 51.39 52.11 53.90 54.82 55.05 55.14 55.12 54.73 55.30 54.77 54.31 53.50 53.81 52.44 51.41 51.31 51.07 51.91 52.59 53.71 53.72 53.49 53.52 53.12
44.71 41.22 45.68 47.31 46.57 45.46 44.48 42.85 41.90 43.30 46.13 43.75 41.38 40.85 44.17 47.11 46.44 49.11 49.35 49.68 50.24 51.39 52.81 54.05 53.93 53.49 52.94 52.14 52.73 53.19 53.27 53.04 52.78 51.98 51.54 51.90 51.39 52.07 52.48 53.49 52.81 53.51 52.63 52.14
42.53 44.96 48.96 47.41 46.25 44.77 44.41 42.48 41.83 41.82 44.42 43.81 41.76 39.73 43.04 46.64 48.34 49.89 48.93 49.37 50.34 50.73 51.29 52.53 52.86 51.13 51.17 51.03 51.22 52.37 52.57 52.74 52.33 51.85 51.69 51.51 51.62 50.73 50.34 50.62 50.55 51.17 51.09 50.27
44.84 48.05 47.42 46.10 45.43 44.97 41.92 47.06 45.82 44.01 40.67 35.20 41.91 32.16 39.53 44.07 45.34 47.62 48.03 46.69 47.24 49.79 51.70 52.51 51.58 50.84 51.18 51.07 51.74 52.08 52.50 52.00 52.83 52.01 51.05 49.92 48.42 47.39 48.59 48.59 48.90 48.96 48.78 48.31
43.73 44.91 45.70 45.52 45.29 46.61 44.23 47.17 45.07 44.20 40.16 37.65 40.09 35.52 38.03 44.61 43.32 45.13 46.04 47.50 47.70 48.81 49.55 50.06 50.63 51.62 51.72 51.76 51.15 51.36 51.84 52.12 52.16 52.06 51.20 50.13 48.20 48.94 48.98 48.24 47.29 46.54 46.87 46.61
45.39 48.85 47.09 45.77 48.30 47.77 47.82 45.91 45.21 43.94 40.37 31.19 40.27 38.57 38.53 40.45 43.79 45.60 47.85 48.51 48.59 48.38 49.13 50.09 51.05 52.03 51.35 51.35 50.89 50.91 51.20 51.82 51.80 51.15 50.61 49.26 48.16 48.28 47.24 46.02 44.54 44.33 44.15 44.26
44.75 45.57 47.43 48.94 44.80 47.45 45.43 40.89 31.59 30.50 29.56 29.59 43.21 40.05 41.63 45.01 47.05 47.65 47.24 47.18 47.80 48.20 47.94 48.11 48.78 49.36 50.35 49.23 50.07 50.78 51.02 50.97 51.15 50.52 49.39 48.63 48.22 47.84 47.01 46.15 44.74 43.00 42.07 42.08
39.22 36.46 44.30 48.41 45.04 42.12 43.03 41.17 30.27 27.38 26.97 30.76 41.47 35.89 38.73 45.80 47.55 48.80 49.07 48.06 48.70 48.19 48.68 47.84 48.83 48.92 49.32 49.83 49.55 49.71 50.31 50.19 49.82 49.39 48.54 47.42 46.61 45.97 45.10 43.84 42.60 41.77 40.88 41.32
40.11 39.66 46.44 47.44 47.22 45.89 42.25 37.66 42.33 35.12 31.84 27.77 34.32 39.09 43.83 45.81 46.90 48.34 47.94 47.53 46.73 47.29 48.16 48.48 49.11 48.59 48.29 48.62 49.34 48.84 47.76 48.21 48.25 47.32 46.23 45.55 45.51 44.78 42.89 41.90 41.30 41.19 41.21 43.16
43.50 37.98 44.88 46.45 46.84 47.94 44.01 45.02 34.79 34.88 26.40 26.39 32.24 35.98 37.06 41.75 44.29 47.48 46.42 46.25 46.47 47.48 47.66 47.27 47.51 47.98 48.29 48.27 48.47 47.76 47.17 46.60 45.34 44.54 44.06 43.87 42.91 43.02 42.32 41.65 41.29 41.53 41.38 41.52
43.60 41.34 40.16 43.80 41.62 39.76 41.02 39.77 40.52 39.42 33.14 26.29 23.77 29.87 41.86 43.77 45.48 45.32 45.30 46.81 45.71 45.98 45.93 46.60 47.28 47.80 47.80 48.37 47.62 46.36 45.64 44.93 43.36 43.15 42.81 41.83 42.00 42.04 41.40 40.53 40.10 40.88 40.88 41.25
43.59 40.47 31.07 39.19 44.08 45.65 42.92 41.48 41.30 29.13 30.80 29.52 27.93 29.72 43.28 43.57 45.00 45.01 44.67 47.22 46.08 46.38 45.73 46.17 46.62 46.34 45.49 45.57 45.52 45.08 44.45 43.75 42.67 42.57 41.62 41.19 41.95 40.90 39.78 39.43 39.54 40.08 39.80 40.90
44.21 38.60 29.76 35.12 40.38 44.06 40.33 42.54 42.92 39.84 32.36 29.38 21.61 27.27 44.58 47.05 45.82 46.19 44.64 45.36 45.94 46.08 45.79 45.01 44.91 44.38 44.80 44.87 44.89 43.36 43.40 42.24 42.32 41.51 40.58 40.19 40.29 39.45 38.29 38.85 39.79 40.00 39.14 38.46
45.98 41.78 35.27 29.50 35.31 38.45 35.95 39.23 40.20 38.06 28.17 29.61 30.40 35.45 40.47 43.78 44.77 43.05 43.84 44.45 44.39 44.67 44.13 44.01 43.28 43.13 43.53 44.61 42.92 42.42 42.67 42.28 42.29 41.83 40.20 39.49 39.33 39.14 38.22 38.38 38.59 38.58 38.20 36.81
44.12 36.32 39.30 40.00 40.00 39.97 38.63 38.11 38.51 36.98 36.51 29.87 33.35 37.19 41.66 41.63 42.21 43.17 44.24 45.14 44.42 44.21 43.61 43.13 42.15 42.08 42.82 41.80 41.58 42.16 42.62 43.03 42.29 40.76 41.21 39.55 40.34 39.35 39.26 39.05 38.26 38.17 37.40 35.84
44.80 33.69 33.84 32.65 39.56 38.88 35.50 37.76 38.62 38.87 39.14 37.89 38.04 37.15 44.00 44.43 44.06 42.91 43.40 43.55 42.83 42.86 43.08 42.85 42.85 43.29 43.08 41.71 41.21 41.50 41.20 41.92 42.33 40.96 40.45 41.19 40.05 40.32 39.21 37.97 37.67 37.58 34.68 33.59
41.17 33.82 30.00 27.89 35.57 33.58 27.91 35.32 39.15 39.55 40.24 38.42 31.95 38.36 42.28 40.83 41.07 41.09 41.08 41.99 41.57 42.10 41.65 41.69 42.56 43.16 41.72 40.54 40.94 39.19 39.66 41.14 41.13 40.83 41.32 40.05 40.61 39.52 40.12 39.70 38.55 36.08 32.33 31.79
36.45 34.17 30.22 23.76 26.97 17.62 37.96 42.59 41.88 40.07 40.69 41.24 41.38 41.60 41.97 40.71 41.10 42.20 41.68 40.12 40.32 41.01 41.77 42.11 41.80 41.04 40.68 40.33 39.61 38.96 39.08 38.58 38.86 39.01 39.02 40.02 39.65 38.90 39.08 39.41 37.58 33.69 32.84 30.65
44.10 33.35 26.24 27.09 25.74 31.56 37.44 41.26 39.16 36.03 36.41 42.90 41.49 41.63 41.13 41.14 41.26 40.94 42.14 40.91 40.29 41.16 41.58 41.10 39.94 39.68 39.01 38.45 38.70 37.79 36.91 36.57 36.61 37.68 38.24 38.84 38.79 39.12 38.93 35.69 35.07 34.49 33.05 31.24
42.12 36.81 29.58 23.45 22.12 17.27 33.55 42.05 44.58 42.67 28.54 42.60 42.42 40.58 39.64 39.13 29.65 34.66 40.69 41.39 42.22 41.35 39.53 37.88 37.44 37.51 36.82 36.86 37.10 35.96 34.76 34.67 35.10 36.98 37.18 38.08 38.77 37.58 35.87 34.98 35.17 34.88 32.79 32.13
27.87 31.86 27.88 22.28 21.52 28.59 40.05 43.59 44.74 29.01 30.62 42.05 41.84 40.56 38.86 35.41 36.49 39.78 41.82 40.60 39.59 38.85 37.21 37.14 36.21 34.91 35.18 36.63 36.38 34.88 33.70 33.38 35.82 36.94 36.60 36.77 37.43 37.07 37.61 35.52 33.93 31.69 30.76 29.48
28.89 27.04 26.72 29.87 28.32 22.11 43.83 43.03 33.64 37.77 42.28 41.86 40.54 40.49 39.17 39.55 41.44 40.59 38.98 38.95 38.17 35.83 36.09 36.62 34.71 34.65 35.41 36.64 35.64 34.26 33.02 35.08 36.36 35.70 35.20 34.53 34.78 36.44 36.64 34.77 32.80 32.97 28.31 26.41
31.50 34.74 31.20 32.33 30.70 40.01 43.47 42.26 44.35 44.12 41.51 41.17 40.43 41.80 41.83 41.04 38.22 37.98 37.74 36.84 36.16 36.19 35.36 36.14 34.36 34.81 35.70 35.93 35.84 34.60 34.75 35.22 34.67 33.44 32.61 32.49 33.26 34.06 34.55 33.90 33.38 27.50 25.96 21.97
39.21 43.40 34.01 36.10 40.98 42.27 43.51 44.07 43.84 43.47 42.67 42.95 42.96 44.12 41.87 37.39 37.71 36.77 35.46 34.91 35.02 34.97 34.59 34.97 34.44 33.90 34.03 35.29 35.84 34.38 34.94 34.74 33.28 31.43 31.10 31.35 30.78 31.56 31.95 31.67 28.86 26.00 21.47 19.89
39.14 41.78 39.51 36.00 41.00 43.40 44.88 44.21 43.19 42.98 44.11 43.92 43.77 40.18 38.71 37.62 36.20 35.08 34.55 34.10 33.72 33.44 33.88 34.34 33.78 34.05 33.83 34.91 34.85 34.70 34.44 33.94 32.03 30.58 30.07 28.55 28.09 28.38 28.73 28.71 26.32 25.64 23.95 22.80
43.03 39.30 34.36 31.33 42.09 41.27 41.47 42.92 44.23 42.85 42.85 41.45 38.93 38.27 38.50 36.16 34.90 34.56 33.04 33.11 32.91 33.02 34.05 34.25 34.42 34.63 34.03 33.91 33.87 34.23 33.65 32.51 30.33 28.87 27.85 26.05 25.28 24.26 26.65 26.42 26.73 30.24 28.56 29.56

GFSCGP_sfc_wetblb_030.txt.gz
Wetbulb
47.67 42.69 38.57 40.32 41.28 43.14 42.32 39.39 39.44 39.13 42.83 41.09 39.61 40.30 42.43 43.81 46.41 47.10 48.33 49.08 49.40 50.12 51.39 52.65 53.04 53.00 53.40 53.26 53.43 53.98 54.01 52.57 52.16 51.67 51.30 51.08 50.10 50.54 51.26 51.32 51.98 51.61 51.18 51.33
43.18 39.59 44.01 45.55 45.80 44.78 43.32 41.20 39.28 42.20 45.04 41.93 39.43 39.88 42.46 44.97 45.78 47.94 48.16 48.26 48.90 49.69 50.59 51.44 51.44 50.70 51.12 52.20 51.70 51.73 51.46 51.00 51.20 50.54 49.80 50.13 49.70 50.31 50.02 49.87 49.87 49.71 48.62 48.42
40.65 43.31 46.87 46.62 44.28 43.38 42.48 40.49 39.83 39.94 42.04 41.90 41.01 38.87 41.98 45.16 46.59 48.09 48.26 49.26 50.03 49.51 49.20 50.07 50.73 50.41 50.07 49.42 49.85 50.84 50.81 50.83 50.37 50.75 50.39 49.81 49.34 48.64 47.88 47.69 47.24 47.05 47.15 46.77
42.97 46.35 45.91 44.87 43.53 42.98 39.91 44.73 43.68 41.72 38.30 33.80 39.53 29.89 37.36 41.74 43.07 45.29 46.53 46.90 48.11 49.65 50.07 50.39 49.61 49.28 49.41 48.89 49.77 50.12 50.65 50.66 51.07 50.73 49.84 48.80 47.17 46.06 46.57 46.38 45.59 45.33 45.64 45.25
41.64 43.61 43.98 43.15 43.47 44.46 42.29 44.78 42.86 42.19 37.77 35.82 37.36 33.08 35.23 42.73 41.21 42.97 43.86 46.15 47.11 48.18 49.11 49.10 49.65 50.18 50.06 49.89 49.15 49.35 50.67 51.07 50.69 50.45 49.54 48.20 47.03 46.90 46.60 45.32 43.90 43.79 44.29 44.68
43.74 47.00 45.14 43.93 46.12 45.76 46.07 43.90 43.05 41.38 38.29 29.79 38.18 35.65 34.05 37.71 41.59 44.03 45.88 45.94 46.84 46.88 47.56 49.07 49.57 50.36 49.49 49.17 48.63 48.79 49.52 49.35 49.98 49.16 48.22 47.49 46.37 45.50 44.12 43.49 42.05 42.41 42.26 42.30
43.25 43.79 45.71 46.97 43.34 45.55 43.53 39.22 29.87 29.41 28.20 28.18 41.08 37.75 37.19 43.23 46.03 46.89 45.34 45.04 45.88 46.07 46.61 48.00 48.82 48.74 48.82 47.53 48.25 49.09 49.08 48.65 49.16 48.38 47.07 46.19 45.27 44.22 44.15 43.58 41.05 40.63 40.10 39.71
37.16 34.74 42.67 46.56 43.11 40.24 40.67 39.70 29.09 27.02 25.66 28.74 38.70 33.13 36.65 44.85 47.49 47.58 47.94 46.56 46.72 45.98 46.58 46.31 46.17 46.87 47.63 47.56 47.38 47.69 47.90 47.93 47.79 47.26 45.55 45.16 45.61 43.86 42.81 41.52 40.60 39.82 39.43 39.56
37.78 37.75 44.46 44.97 45.22 44.00 40.64 35.87 40.64 33.25 30.16 26.25 32.80 36.85 41.92 44.16 46.36 47.52 47.26 48.80 47.91 46.83 45.68 46.03 46.53 46.38 46.62 47.15 47.20 45.54 45.83 46.16 45.45 44.83 43.43 42.84 43.41 42.42 41.15 40.46 40.47 39.92 40.08 41.79
41.75 36.06 43.21 44.67 45.71 45.80 42.05 42.90 34.56 32.07 25.23 25.70 30.39 33.45 36.15 40.55 42.53 45.05 44.66 44.54 45.35 45.13 45.32 45.61 45.86 46.38 46.51 46.18 46.01 45.01 44.67 43.69 42.98 42.32 42.15 41.97 41.74 41.79 40.74 40.20 40.08 39.95 39.87 40.24
42.42 39.00 38.29 43.05 39.43 37.88 39.15 37.65 38.01 36.80 31.03 25.73 22.79 28.50 39.49 41.96 44.19 43.25 43.92 45.07 44.32 45.19 45.00 44.68 44.59 44.67 44.49 44.90 44.06 43.65 43.09 42.30 41.76 41.43 40.96 40.76 40.90 40.78 40.19 39.03 38.92 39.35 39.38 39.40
42.10 37.61 29.99 37.22 42.06 43.53 40.84 39.65 38.37 28.17 29.82 27.78 26.34 28.46 42.10 42.64 43.05 43.51 44.26 44.86 44.00 43.31 43.28 43.06 43.38 43.38 43.09 43.00 42.67 43.28 42.57 42.01 41.13 41.13 40.73 39.88 41.02 40.28 39.26 38.49 38.57 38.44 38.19 39.33
41.73 35.89 28.22 33.38 38.58 41.93 38.13 40.42 40.79 36.50 30.43 28.86 21.36 26.45 41.82 43.86 42.81 43.90 42.99 43.96 43.03 42.85 42.52 42.41 42.37 42.58 42.48 42.38 42.32 41.61 41.81 40.85 41.00 40.66 39.57 38.92 38.79 39.29 38.13 37.55 37.98 38.72 38.65 38.07
44.86 38.91 33.53 29.06 33.54 36.30 33.33 36.68 38.77 35.99 26.64 28.49 28.64 33.05 37.63 40.49 40.78 41.29 41.52 42.19 41.74 41.60 41.79 42.42 41.90 41.45 41.63 42.10 40.70 40.72 41.35 41.20 41.07 40.28 38.87 38.17 38.52 37.59 37.79 37.30 38.09 39.45 39.42 38.99
42.20 34.80 36.95 37.31 37.27 37.22 35.89 35.36 35.57 34.70 34.27 29.62 32.36 33.98 37.93 39.69 39.89 41.00 42.53 42.69 42.08 41.65 41.85 41.90 41.48 40.88 41.16 40.83 39.99 39.60 39.23 39.94 40.28 39.65 39.57 38.60 38.78 38.62 39.12 37.47 38.65 39.48 40.05 38.98
42.38 32.46 32.82 31.41 37.36 36.55 32.95 35.67 36.37 36.75 36.76 36.00 36.04 35.54 40.80 41.37 41.74 41.38 41.44 41.11 40.70 40.84 41.08 41.00 40.87 41.38 41.73 40.48 38.80 38.34 38.38 38.75 39.56 39.45 39.26 39.78 40.21 39.50 38.57 38.62 39.05 38.99 38.78 38.44
38.65 32.14 28.27 24.96 32.93 31.60 26.09 34.19 37.00 37.15 37.52 36.97 31.36 36.71 39.41 39.12 40.08 39.49 39.57 39.93 39.34 39.97 40.34 40.26 40.49 40.23 39.24 37.52 38.06 36.67 36.96 37.79 37.14 37.96 38.51 38.72 38.58 38.07 37.96 38.56 38.42 38.56 37.44 33.64
34.99 32.01 27.06 21.64 23.69 15.94 34.16 40.45 40.26 38.12 39.35 39.85 39.23 39.19 39.46 39.32 39.89 40.03 40.09 38.58 38.35 38.92 39.61 39.72 38.57 37.16 36.85 36.44 36.23 36.36 36.39 35.85 35.89 36.50 37.17 37.75 37.68 37.20 37.17 37.23 37.02 34.32 33.32 33.47
40.28 30.27 26.01 19.35 23.99 28.34 34.76 39.07 37.73 35.27 36.06 40.96 39.57 39.37 39.17 39.97 39.48 38.43 40.71 39.58 38.72 39.41 38.96 36.21 35.37 35.76 34.88 35.33 35.87 35.20 34.26 33.70 34.71 35.26 35.44 36.02 36.72 36.93 36.22 34.78 34.38 33.81 34.52 34.12
39.32 33.01 26.43 24.79 17.17 15.14 30.66 39.65 42.53 40.54 29.33 41.63 41.02 38.99 38.58 37.68 28.28 32.95 39.18 39.88 40.34 36.58 35.38 34.36 34.43 34.74 34.07 34.12 34.11 33.38 32.24 32.35 33.68 34.83 35.01 35.56 36.68 35.87 35.33 34.43 35.81 35.40 35.02 30.87
26.92 24.97 25.53 16.57 16.06 26.24 36.01 41.46 42.56 28.81 30.36 40.84 41.22 39.51 37.94 34.67 35.00 37.45 40.05 38.20 36.58 34.88 34.32 34.93 33.67 32.87 33.02 34.09 33.84 32.31 31.50 32.17 34.38 34.91 34.72 34.31 34.46 34.62 34.61 34.67 33.43 32.62 29.77 28.26
28.99 26.77 24.17 23.37 17.12 21.61 40.15 40.76 33.49 36.39 40.18 40.65 40.04 39.73 38.22 38.29 38.78 39.12 37.25 35.87 35.21 34.29 34.34 34.05 32.82 32.78 33.58 33.84 33.64 31.45 31.18 33.20 34.24 33.85 32.99 31.98 31.83 32.32 34.82 34.17 33.34 30.15 27.17 26.00
30.84 32.30 29.88 32.05 31.08 37.72 41.31 40.40 42.01 42.90 40.36 40.05 39.53 40.29 40.31 39.79 37.66 36.18 34.11 33.91 33.82 33.41 32.54 33.55 32.18 32.54 33.69 33.41 33.59 32.29 33.05 33.73 33.10 31.76 30.76 30.20 30.74 31.48 30.88 30.60 27.89 26.87 25.82 20.95
38.13 41.26 33.41 34.33 39.02 40.22 41.97 42.30 42.11 42.14 40.90 42.97 42.91 42.21 41.01 36.44 35.57 33.35 32.87 32.31 31.82 32.02 31.79 32.25 31.96 31.50 32.02 33.49 33.84 32.73 33.30 33.18 31.91 29.92 29.28 29.44 28.02 29.02 28.63 27.73 27.62 25.28 20.10 18.46
36.16 39.91 37.59 34.16 39.38 41.77 41.93 41.41 41.78 41.76 42.76 43.78 44.08 40.79 36.97 34.97 33.26 32.93 31.89 31.20 31.22 31.49 31.89 32.21 31.67 31.67 32.08 33.17 33.06 33.60 32.96 32.44 30.68 30.13 29.47 27.56 26.48 26.51 26.97 27.27 25.48 25.26 23.82 22.23
41.13 38.78 33.21 32.44 40.00 39.98 39.92 41.96 42.49 42.62 43.32 43.53 38.42 35.75 34.82 34.12 32.75 31.95 30.85 31.32 31.10 31.08 31.70 31.79 32.10 32.04 32.43 32.45 32.31 32.61 33.25 32.93 30.05 30.20 28.37 26.01 24.56 23.42 25.85 26.03 25.93 28.74 28.40 29.87

GFSCGP_sfc_wetblb_033.txt.gz
Wetbulb
45.78 40.81 37.05 37.46 39.69 41.11 40.04 37.31 36.70 37.48 40.98 40.15 37.79 38.44 40.31 43.68 46.06 45.50 46.27 47.35 47.70 48.44 49.51 51.29 51.87 52.30 52.91 53.58 54.88 55.93 55.00 52.54 51.86 52.19 53.15 51.15 48.55 48.23 48.55 48.50 48.45 47.62 47.71 48.65
42.09 38.58 42.19 44.77 44.67 42.86 41.70 38.53 37.09 40.07 42.81 40.86 38.85 38.50 41.78 44.02 44.61 46.14 46.79 46.69 47.17 47.24 48.58 49.52 50.68 51.17 52.13 52.88 50.90 50.33 49.91 50.32 50.02 50.01 48.99 49.03 48.35 48.04 47.31 46.79 46.66 46.88 47.42 46.26
39.22 41.59 46.02 44.66 42.87 42.72 41.00 38.63 37.96 38.53 40.45 41.01 39.35 36.83 39.83 43.57 45.57 47.13 47.15 47.31 47.80 47.72 47.83 49.29 50.38 50.14 49.18 48.86 48.98 49.34 49.24 49.73 50.03 50.03 49.40 48.71 48.24 47.47 45.93 45.50 44.57 45.03 45.18 45.09
41.56 45.59 44.65 43.07 41.87 41.72 38.35 42.89 41.90 40.00 36.60 32.36 37.98 28.57 36.06 39.76 41.85 44.42 45.64 45.43 46.53 47.84 49.57 50.15 48.62 47.05 47.07 47.46 48.10 49.04 49.48 49.22 49.84 49.62 48.89 47.59 46.67 45.27 45.28 44.23 43.79 43.09 44.07 43.47
40.14 42.08 42.54 41.68 41.50 42.65 40.70 42.99 41.02 40.29 35.95 34.13 35.59 31.99 33.21 40.48 39.44 41.59 43.07 45.37 47.28 48.62 47.72 48.90 49.48 49.03 48.88 47.72 47.07 47.61 48.75 49.46 49.61 48.97 48.30 47.08 46.63 46.21 45.26 43.72 42.49 42.76 42.61 42.95
42.39 44.87 43.52 42.41 44.36 43.79 44.25 42.42 41.15 39.25 36.44 29.06 35.80 33.07 31.69 36.27 39.78 41.72 43.63 45.59 47.60 48.12 48.40 48.34 49.41 49.21 48.12 47.64 47.04 47.03 47.66 48.23 48.53 48.11 48.01 47.30 45.81 44.20 42.82 41.68 42.79 41.95 41.04 40.87
41.64 41.88 43.69 45.11 41.60 43.59 42.37 37.66 28.81 28.54 27.18 27.68 37.84 35.13 34.50 40.57 43.07 43.83 43.91 44.84 46.78 47.20 46.78 47.10 48.07 48.96 49.39 48.18 47.03 46.94 47.26 46.97 47.55 46.64 45.67 45.35 44.27 43.19 42.28 41.47 40.11 39.45 38.89 38.79
35.67 33.62 40.97 44.57 41.36 38.97 39.04 37.91 28.27 27.83 24.88 27.59 36.84 31.24 35.78 42.51 45.13 45.87 46.06 45.11 45.38 45.13 46.74 48.12 48.60 48.22 47.50 46.66 46.23 45.76 47.08 46.62 46.51 44.88 44.42 44.66 43.92 42.55 41.66 40.81 39.90 39.03 38.69 38.89
35.92 36.13 42.94 43.17 43.61 42.68 39.25 34.24 38.58 31.65 29.18 25.55 30.82 34.97 41.21 42.44 43.49 44.48 44.27 45.28 46.52 44.94 44.47 44.97 45.24 45.33 45.46 45.56 44.92 44.19 45.31 44.75 44.77 43.14 42.44 42.83 43.04 41.73 41.00 39.82 39.23 39.15 39.26 40.37
41.01 34.87 41.15 42.77 43.65 42.92 39.86 41.93 33.37 30.65 24.49 25.00 28.62 31.46 32.74 38.71 41.30 44.30 45.69 44.88 43.11 43.51 43.81 43.75 43.83 44.35 45.17 44.99 44.39 43.89 43.72 42.91 41.86 41.49 40.93 40.96 40.47 41.31 40.42 39.51 39.42 39.19 38.88 38.98
40.94 37.13 36.42 41.16 37.98 36.31 38.13 36.17 35.67 35.04 29.66 24.80 21.83 28.03 37.33 40.75 42.47 42.66 42.30 42.83 42.75 42.42 42.21 42.70 43.02 43.60 43.37 43.06 41.95 41.83 41.41 41.36 40.50 40.23 40.21 39.86 40.24 40.09 39.41 38.90 38.72 38.63 38.37 38.33
40.54 35.82 29.43 35.37 40.60 41.79 38.87 37.40 35.93 25.98 28.45 26.56 25.29 27.75 39.64 41.01 43.00 42.55 41.81 42.09 41.00 42.23 42.73 42.34 42.84 42.64 42.20 41.19 41.12 41.75 41.98 40.94 40.47 40.05 39.53 38.42 39.49 39.66 38.88 38.22 38.39 38.27 37.08 38.52
40.22 34.56 27.75 32.41 37.36 39.95 36.75 38.53 37.48 33.81 29.77 27.94 20.90 26.16 40.43 41.38 40.70 41.59 40.34 41.05 41.03 41.05 40.89 41.19 41.77 40.84 41.23 42.35 41.40 40.59 40.20 40.45 39.44 39.36 38.11 37.50 37.09 37.03 37.29 37.88 37.70 37.49 37.90 37.37
43.38 37.08 32.02 28.13 31.70 34.98 31.84 34.91 36.89 34.37 26.18 27.78 27.49 30.64 36.41 38.21 38.91 39.60 39.89 40.31 40.22 40.38 40.87 40.79 41.11 41.13 41.54 42.16 39.55 38.53 38.38 38.99 38.99 38.45 37.71 37.15 36.97 37.23 36.93 37.18 36.68 36.70 37.61 37.01
40.37 33.58 35.24 34.65 35.33 35.10 34.00 34.30 35.14 33.96 32.93 29.01 31.09 32.26 35.73 38.50 38.52 39.45 40.83 40.63 40.38 40.10 40.05 40.72 40.67 40.68 40.38 39.11 37.37 37.05 37.02 37.40 37.64 37.71 37.73 37.32 37.75 37.69 36.88 36.41 36.88 37.38 37.76 37.77
40.45 31.40 32.43 30.29 35.18 34.68 31.66 34.02 33.86 33.79 34.00 34.27 34.02 34.09 39.15 39.81 40.73 40.02 40.15 40.01 39.17 39.90 40.45 40.63 39.71 38.75 37.26 36.69 35.67 36.35 36.06 36.07 36.61 37.25 36.79 37.83 37.75 37.49 37.05 37.00 36.67 36.51 36.21 37.56
36.03 31.05 27.33 23.78 30.59 28.79 24.08 31.31 35.44 35.76 36.27 35.26 31.48 35.82 38.40 38.21 39.12 38.74 38.80 39.17 38.10 39.38 38.54 38.21 36.76 36.21 35.84 35.41 35.92 34.77 35.08 35.42 34.90 35.75 36.76 37.30 36.86 36.19 36.11 36.36 36.20 35.82 35.31 36.93
33.35 29.94 24.71 20.50 23.03 16.10 31.92 37.32 38.09 36.27 37.50 37.58 37.09 37.94 38.79 38.66 39.04 39.72 39.63 37.56 37.53 37.84 37.76 35.86 35.04 34.53 34.34 34.16 34.03 34.51 34.33 33.53 34.54 34.80 35.08 35.75 35.10 35.44 35.42 35.03 33.98 31.62 31.67 34.38
38.28 29.56 25.12 19.56 22.00 27.14 32.92 36.89 36.76 34.76 34.01 39.19 37.55 37.75 37.85 38.88 37.94 36.85 39.54 38.78 37.60 38.83 36.32 34.01 33.90 33.95 33.08 33.12 33.62 33.01 32.31 31.78 33.53 33.78 33.62 33.92 34.50 34.78 34.20 33.37 34.25 34.84 35.00 34.00
36.23 30.72 25.97 24.32 15.62 15.09 29.70 37.55 40.66 38.94 29.47 40.24 39.25 37.44 36.93 37.41 28.69 33.25 39.03 39.53 37.48 34.76 33.64 33.19 32.77 33.06 32.26 32.08 31.80 31.30 30.56 31.61 32.30 33.27 33.40 33.76 33.29 33.34 33.13 32.24 32.25 35.06 33.48 29.46
27.18 24.19 22.68 15.68 15.98 25.71 34.21 39.74 40.74 29.16 28.99 40.06 40.27 38.83 37.20 34.55 35.37 36.50 39.61 38.17 34.27 33.40 33.13 32.83 32.06 31.37 31.25 32.34 32.53 31.24 30.54 30.92 32.76 33.51 33.29 32.37 31.89 30.86 31.50 33.71 33.80 34.64 30.43 27.90
29.31 26.13 25.54 21.81 18.16 22.62 37.92 38.43 33.37 36.36 38.08 40.87 40.04 39.35 37.92 38.65 39.23 39.42 36.52 33.72 33.42 32.17 31.71 31.85 31.14 31.02 31.87 31.93 32.06 30.58 29.82 31.86 32.70 32.62 31.51 30.79 30.34 30.98 31.68 33.65 32.62 27.83 26.36 25.97
28.50 31.26 29.63 31.15 30.67 37.06 38.71 38.41 39.70 41.12 40.28 39.45 39.87 40.12 41.07 40.14 39.53 36.18 32.83 32.21 31.90 31.25 30.82 31.69 30.36 30.73 31.86 32.00 32.07 31.01 31.59 32.31 31.81 30.91 30.54 29.69 29.08 29.34 29.23 29.95 28.62 26.21 25.17 21.04
36.42 38.42 31.08 32.88 36.81 37.57 38.99 41.11 41.54 41.83 40.41 40.95 41.96 42.66 41.87 39.46 35.70 32.45 31.51 30.70 30.27 30.49 30.42 30.84 30.14 30.15 30.41 31.93 32.79 31.89 32.45 32.15 31.06 31.26 30.47 30.79 28.31 27.92 28.63 29.23 28.50 24.75 20.07 17.39
35.50 37.88 35.37 32.85 37.21 39.62 41.61 41.31 41.12 41.03 41.95 42.75 42.95 41.15 38.69 35.24 32.86 32.25 30.69 30.17 30.05 30.37 30.54 30.68 30.16 30.20 30.19 31.48 31.67 32.04 32.07 31.58 30.52 30.54 31.29 29.95 27.60 26.17 26.47 28.30 25.98 25.97 24.32 22.41
38.86 37.09 32.36 32.19 38.79 38.97 38.73 41.30 41.52 40.55 41.65 41.96 38.04 35.88 35.63 34.38 32.81 31.67 30.43 30.46 30.41 30.02 30.68 30.61 30.09 29.96 30.76 30.42 30.13 31.00 32.69 32.77 30.98 29.11 30.63 29.59 26.39 23.68 25.66 25.66 26.04 28.58 27.63 29.31

GFSCGP_sfc_wetblb_036.txt.gz
Wetbulb
44.68 40.62 36.69 39.03 38.70 39.00 38.14 36.06 34.94 36.01 39.66 38.58 37.93 38.03 40.61 43.50 44.66 44.62 44.90 45.61 46.39 47.09 48.45 50.13 51.07 52.65 54.14 54.71 56.83 58.22 58.56 58.05 55.32 53.41 50.56 48.46 47.87 46.29 46.12 46.03 46.63 47.00 46.81 45.54
41.47 37.18 40.64 43.39 42.39 41.37 39.41 36.82 35.48 38.07 40.70 40.17 37.86 37.68 40.72 43.15 43.72 44.35 44.41 44.35 45.10 46.10 47.54 49.60 50.09 51.74 52.70 53.40 53.60 51.99 50.30 50.08 50.31 49.30 48.03 47.64 46.34 45.70 45.35 44.94 44.84 44.78 44.57 44.18
38.49 39.93 44.36 43.50 41.91 41.36 39.48 37.54 36.11 36.90 38.72 39.77 37.61 35.31 38.30 42.53 44.83 46.00 45.82 45.64 45.87 46.19 47.43 49.47 50.06 48.73 47.90 46.97 47.36 48.28 48.66 48.88 49.03 49.27 48.20 47.24 46.88 45.86 44.50 43.87 42.94 43.40 43.73 43.44
40.68 43.94 42.89 41.51 40.62 40.43 36.54 41.06 40.00 38.23 34.90 32.00 36.40 29.47 34.80 38.98 41.32 43.55 44.88 44.47 44.91 46.30 47.75 48.40 47.37 46.23 46.48 46.71 47.32 48.00 48.42 48.53 48.87 48.37 47.47 45.99 44.97 43.87 43.88 43.14 42.53 41.99 42.69 42.72
38.93 40.38 41.11 40.35 39.66 41.13 39.09 42.14 40.17 38.32 35.21 32.72 33.84 31.60 32.83 40.15 39.76 41.79 43.03 44.33 45.17 46.19 46.88 47.07 47.14 47.65 46.41 46.35 46.10 46.60 48.04 48.86 48.70 48.27 47.41 46.12 44.89 44.37 43.18 42.03 41.43 41.51 41.59 42.24
40.84 43.22 42.14 40.71 42.75 42.45 42.79 41.26 39.66 37.70 35.08 28.41 33.43 32.10 30.54 35.32 39.33 41.47 43.00 44.69 45.85 46.13 46.06 46.96 47.97 47.66 46.10 46.45 45.94 46.59 47.81 47.45 47.90 47.30 46.92 46.11 44.72 42.68 41.50 40.88 40.70 40.50 40.14 40.12
40.49 40.49 42.73 43.62 40.41 41.83 40.93 36.58 28.21 27.78 26.46 27.12 35.64 33.04 33.76 38.52 41.25 43.54 43.20 44.39 45.63 46.10 46.48 46.70 47.76 46.85 47.43 48.23 48.08 46.77 46.71 46.30 46.15 45.90 45.67 45.00 44.14 43.32 42.34 41.26 40.28 39.31 38.74 38.23
34.33 32.66 39.43 43.12 40.01 38.22 37.57 36.36 29.26 27.17 24.90 27.40 35.20 30.73 35.22 41.00 43.32 44.76 45.39 45.13 45.18 45.00 46.29 46.52 48.67 48.47 46.58 45.96 45.66 45.91 46.22 45.82 44.84 44.45 44.23 44.04 43.52 42.00 41.50 40.94 39.85 39.17 38.43 38.43
34.36 34.61 41.07 41.81 42.27 41.15 37.72 32.79 36.68 30.83 28.38 24.92 29.51 34.35 39.62 41.31 41.62 43.01 43.22 44.07 44.04 45.28 45.48 44.21 44.87 44.82 44.58 44.27 43.89 44.53 45.01 44.79 44.35 43.30 43.40 43.04 42.45 41.44 40.57 39.87 38.48 38.28 38.53 39.66
39.59 34.03 39.19 40.95 42.30 41.87 38.23 40.69 32.35 29.66 23.57 24.10 26.86 29.83 32.04 37.32 39.67 41.72 42.09 42.21 42.94 42.75 42.71 42.76 43.00 43.45 43.81 42.85 42.64 43.17 43.38 42.62 42.60 40.76 40.23 40.20 39.69 39.60 39.80 38.98 38.67 38.51 38.58 38.46
39.10 36.06 35.30 39.27 36.36 35.39 36.99 34.96 33.86 33.56 28.63 23.78 20.36 27.40 36.31 39.95 41.70 41.69 41.93 43.65 41.58 41.47 40.90 40.92 41.27 41.47 41.41 41.07 41.85 41.56 41.15 40.60 40.33 39.53 39.12 38.46 38.17 38.85 38.85 38.29 38.24 38.22 38.14 37.77
39.01 34.92 29.75 33.91 38.39 40.08 37.38 35.96 34.19 25.08 26.98 25.92 24.85 26.37 37.85 39.16 41.88 42.49 41.29 41.54 40.65 40.50 40.42 40.18 40.64 40.69 40.58 40.75 40.90 41.17 41.17 41.49 39.21 38.57 38.16 37.16 37.13 37.50 37.51 37.53 37.95 37.61 36.56 36.95
39.39 33.54 27.81 31.63 35.26 37.95 35.20 36.82 35.19 32.02 29.29 27.26 20.79 25.49 39.08 39.67 39.66 40.51 39.20 39.44 39.76 39.81 39.68 39.73 39.71 40.02 40.38 41.70 40.90 40.71 39.00 38.71 38.42 38.17 37.21 36.34 36.19 35.90 35.55 35.61 36.00 36.14 36.03 36.50
42.10 35.28 31.65 28.53 30.23 33.62 31.15 34.54 35.08 33.33 25.57 27.14 26.97 29.26 34.83 36.98 37.99 38.19 38.64 39.16 39.17 39.37 39.49 39.50 39.62 39.71 40.55 41.41 39.35 36.51 36.65 36.81 36.77 36.55 36.32 35.98 35.76 35.50 35.30 35.29 35.61 35.90 36.23 35.82
38.52 32.64 33.27 32.57 33.42 33.29 32.19 32.40 34.14 32.88 31.76 28.79 29.43 30.41 34.15 37.88 37.75 37.97 39.17 39.17 39.25 39.22 39.52 39.49 39.00 39.49 39.86 36.71 36.07 35.75 35.61 35.81 35.72 36.18 36.15 35.44 36.09 35.96 35.95 35.94 35.86 35.98 36.21 36.42
38.79 31.20 31.54 30.28 33.09 33.01 31.20 32.66 32.67 32.85 31.79 32.53 31.72 32.11 37.81 38.34 39.20 38.90 39.11 39.08 38.50 38.77 39.09 39.09 39.08 37.91 36.42 35.44 34.69 35.11 35.00 34.59 34.87 35.67 35.32 36.35 36.27 36.09 35.46 35.14 34.81 34.74 34.68 34.84
34.48 30.58 28.00 25.06 28.69 27.35 23.56 30.50 32.17 32.76 34.29 33.52 29.99 34.24 37.44 36.92 38.38 38.43 38.14 38.58 37.98 38.05 38.24 38.68 36.29 34.92 34.67 34.42 34.93 33.50 33.57 34.03 33.26 34.18 35.21 35.57 35.35 34.16 34.25 34.40 34.18 32.37 30.80 32.29
31.83 28.99 23.54 19.70 21.89 15.76 30.58 35.37 35.29 34.64 35.23 35.98 35.43 36.32 38.37 38.18 38.17 39.26 39.20 38.36 36.89 37.34 37.72 35.89 34.32 33.82 33.53 33.13 32.44 32.61 32.48 31.88 32.50 33.48 33.58 33.84 33.54 33.25 33.73 32.97 32.77 31.29 33.64 34.98
35.56 28.55 22.69 19.31 20.54 26.85 31.67 34.84 35.07 33.91 33.39 38.41 36.65 36.56 37.28 38.09 38.28 37.43 39.90 38.06 36.64 37.47 37.13 34.25 33.58 32.79 32.20 31.81 31.94 31.61 31.29 30.81 32.01 32.63 32.39 32.42 32.56 32.10 31.95 31.03 30.81 33.77 34.18 33.03
34.34 30.12 26.41 20.00 15.76 14.49 29.45 35.32 38.94 37.76 28.92 37.61 38.41 36.56 36.51 37.11 30.08 35.88 38.41 38.66 38.17 36.33 33.60 32.23 32.11 31.96 31.56 31.33 31.18 30.59 29.90 30.03 30.99 31.81 32.07 32.38 31.53 30.61 29.77 29.59 33.49 33.48 33.54 31.58
28.73 25.74 21.20 14.04 14.78 24.48 32.52 37.37 38.95 29.03 29.55 37.90 38.50 37.23 36.46 35.43 36.70 36.83 38.42 38.83 35.09 33.93 33.30 32.32 31.51 31.20 30.83 31.50 31.20 30.19 29.46 29.75 31.33 31.98 32.03 31.41 30.48 29.56 29.91 31.83 33.32 33.27 31.05 28.85
29.61 28.08 28.04 22.08 15.17 21.94 36.29 37.80 32.80 36.11 35.63 38.74 38.60 38.09 37.94 36.57 36.55 38.43 35.57 33.43 32.95 31.96 32.11 31.86 31.18 30.54 31.06 31.44 30.93 29.57 28.97 30.69 31.64 31.28 30.68 30.67 31.41 30.20 30.13 31.04 33.58 29.56 26.94 25.70
28.46 30.98 27.68 29.72 29.72 35.74 36.78 37.29 39.11 39.16 38.51 38.77 39.18 38.76 39.18 38.35 39.23 36.07 32.67 33.48 31.87 31.85 31.07 31.31 30.34 30.62 31.41 31.23 30.95 29.97 30.71 31.40 30.86 30.20 29.90 31.03 31.39 29.97 28.60 28.33 28.86 27.90 26.11 21.45
34.60 35.79 29.58 31.89 35.10 36.15 37.90 38.98 41.66 41.07 40.15 40.12 40.79 40.83 40.99 39.84 36.92 34.37 32.92 31.48 31.32 30.99 30.79 30.76 30.27 29.65 29.76 31.12 31.28 30.59 30.82 30.81 29.52 29.66 31.44 31.78 30.48 29.28 28.02 27.99 28.51 27.11 23.01 18.70
34.49 35.61 33.21 31.96 36.39 36.88 40.42 41.05 40.54 40.84 41.09 41.35 41.75 40.89 39.19 36.05 34.37 33.26 31.44 30.71 30.57 30.59 30.62 30.56 29.88 29.49 29.42 30.86 30.17 30.12 29.99 30.34 29.66 31.47 31.01 31.07 30.41 28.26 26.31 26.87 27.22 27.22 25.72 23.12
36.72 35.21 31.56 30.79 37.55 37.48 37.69 40.25 40.90 40.82 40.98 41.25 37.54 35.77 35.34 35.18 32.94 32.39 31.12 31.30 30.87 29.79 30.16 30.31 30.15 29.39 30.01 29.54 29.09 29.07 29.64 30.07 30.13 30.25 30.04 30.51 29.90 27.90 25.32 25.28 25.79 29.18 28.09 28.79

GFSCGP_sfc_wetblb_039.txt.gz
Wetbulb
47.59 45.14 42.32 42.97 43.36 42.36 42.14 41.16 40.72 42.00 43.15 44.30 42.20 42.78 44.49 47.35 49.35 49.12 49.72 50.65 50.88 51.06 53.03 55.82 57.31 59.49 61.04 61.91 61.87 59.54 59.64 58.96 56.56 54.32 53.30 51.71 51.88 50.92 51.20 51.89 51.87 51.73 51.34 51.23
45.36 42.06 44.36 45.62 44.66 43.32 42.21 41.36 40.82 42.14 43.49 44.53 42.79 42.54 45.11 46.78 46.91 48.49 49.49 49.83 50.93 52.54 53.86 54.80 56.09 57.66 60.16 60.38 61.21 61.08 58.52 57.77 56.61 55.96 55.39 55.09 53.31 52.55 51.56 51.03 50.82 50.89 50.66 50.41
43.10 44.15 46.04 45.54 44.30 43.94 42.67 41.66 41.11 41.31 43.08 43.67 43.05 41.67 43.14 46.10 47.56 47.98 48.87 50.39 51.99 52.91 52.60 52.61 53.16 54.77 56.12 57.04 57.66 59.25 58.32 57.09 56.66 55.50 54.29 53.27 52.72 51.57 50.76 50.39 50.21 49.62 49.40 49.53
44.85 46.28 44.68 43.79 43.06 43.96 41.15 44.47 42.82 41.22 40.85 38.85 41.56 37.26 40.90 44.00 45.21 46.85 48.08 49.68 50.68 51.21 51.87 51.82 51.43 51.32 52.46 52.94 53.80 54.68 54.55 54.34 54.09 54.44 54.22 53.70 53.76 52.88 51.84 50.91 50.18 50.12 48.96 49.26
43.06 44.25 43.68 43.14 43.12 44.70 42.67 44.88 43.45 41.59 40.35 40.18 39.77 39.04 39.33 43.67 43.74 45.70 47.62 48.91 49.83 50.93 51.73 51.01 51.41 51.96 52.33 52.85 53.27 53.71 53.84 53.83 53.59 54.06 54.28 53.88 51.89 51.07 50.34 49.87 48.90 49.35 49.47 48.27
44.19 47.19 45.86 45.03 45.08 45.00 45.63 44.55 43.06 41.77 40.80 36.18 38.11 37.94 38.45 41.33 44.32 46.58 48.01 48.77 49.37 50.34 51.06 51.37 51.87 51.91 51.93 52.58 53.18 53.38 53.05 52.22 53.18 53.42 53.09 52.48 51.41 50.00 49.68 49.66 49.39 49.20 48.18 47.85
43.22 43.53 45.61 46.81 44.60 45.74 45.08 42.12 35.65 34.46 35.12 33.63 38.51 37.28 41.17 42.73 44.74 49.07 47.79 48.46 49.75 50.95 51.22 51.15 51.14 51.23 51.65 51.71 51.41 52.44 53.22 51.83 51.94 52.06 52.16 52.10 51.63 50.85 50.00 49.55 48.86 47.83 47.60 47.41
38.39 36.64 43.25 45.54 44.57 43.20 41.83 42.13 36.89 29.50 31.15 34.43 38.01 35.64 41.07 44.90 46.50 49.61 49.83 50.18 50.15 50.08 50.91 51.35 51.91 52.02 52.58 52.36 52.06 51.91 51.57 50.56 50.54 50.74 50.59 51.02 50.26 50.84 49.63 48.38 47.87 47.46 46.81 46.71
38.85 38.12 44.72 44.64 45.99 45.40 41.42 38.41 41.03 34.77 31.77 32.09 35.49 39.16 43.36 44.03 44.37 46.72 48.02 48.54 49.29 50.09 50.50 51.28 51.75 51.73 50.82 50.52 50.07 51.11 50.92 50.24 49.25 48.54 49.79 49.57 48.99 47.77 47.21 47.15 47.01 46.13 46.11 45.22
42.46 37.74 42.33 43.88 45.56 44.79 43.63 43.27 37.55 36.39 28.93 27.50 32.67 34.34 37.85 41.23 42.78 45.47 46.86 47.95 49.07 48.99 48.48 48.75 48.81 48.96 49.19 48.83 48.83 49.25 49.51 47.75 47.64 47.23 46.80 46.27 45.84 45.46 45.70 46.06 45.55 45.48 45.81 45.33
42.75 41.01 39.69 42.61 40.76 40.88 41.23 39.38 37.48 37.81 34.35 29.86 28.17 33.90 42.13 43.56 45.03 45.32 47.31 48.28 48.15 47.19 46.75 46.29 46.30 46.73 46.90 46.60 47.50 47.44 46.60 45.30 45.30 45.06 45.24 45.06 44.97 44.74 44.93 44.49 44.23 44.07 44.06 43.74
42.47 39.47 36.01 38.84 42.50 43.71 42.42 40.34 39.33 33.60 30.91 31.17 31.82 34.54 41.74 43.74 45.59 46.22 46.61 47.04 46.40 46.02 45.19 45.30 45.46 45.64 45.90 45.83 46.61 44.77 44.83 44.37 44.28 44.76 44.29 43.71 43.91 43.60 43.04 42.92 42.96 43.37 42.59 43.09
42.81 37.97 33.70 36.09 39.86 41.96 40.38 40.31 37.77 35.70 34.99 31.90 32.75 34.38 41.58 42.97 43.49 46.06 46.31 44.61 44.17 43.90 43.98 44.31 44.41 44.78 45.10 43.95 44.14 43.15 43.45 42.86 43.41 43.35 43.44 43.13 42.85 42.28 41.92 42.05 42.27 42.20 41.54 41.12
44.21 37.92 37.10 34.49 36.19 38.43 36.51 38.49 37.71 38.18 33.60 32.63 34.04 36.09 38.73 42.11 42.30 42.42 43.35 44.01 43.83 43.64 43.70 44.10 44.09 44.20 44.51 43.52 42.58 40.99 41.08 42.46 42.36 42.35 42.42 42.32 42.05 41.46 41.50 41.70 41.57 40.86 40.68 39.97
42.77 37.35 37.07 36.00 36.42 36.84 36.58 36.47 37.26 36.42 36.54 35.17 35.89 35.57 39.66 41.71 43.57 43.02 43.25 42.87 42.19 42.43 42.92 43.68 43.11 43.07 42.70 41.36 40.00 41.04 41.33 41.55 41.41 40.96 41.30 41.16 41.83 41.39 40.83 40.29 40.49 39.86 39.85 39.36
40.70 36.55 36.15 34.47 35.33 35.05 34.83 36.18 36.18 36.69 36.48 36.85 35.97 36.37 41.60 42.10 43.05 41.70 41.63 41.85 41.96 42.25 42.81 42.80 42.13 41.08 40.09 39.70 40.32 39.71 39.84 40.03 39.92 39.36 39.97 40.89 40.69 39.92 39.38 39.47 38.87 38.68 38.28 37.55
37.87 35.85 33.57 30.41 31.17 31.22 29.70 34.55 36.68 36.38 37.37 38.89 35.01 40.40 41.41 40.46 41.31 42.16 42.11 42.29 42.19 42.16 41.99 41.55 40.43 39.69 39.39 39.58 39.27 38.95 38.83 38.66 38.12 38.16 39.44 39.17 38.81 38.30 38.29 38.21 37.58 37.51 37.23 37.19
34.91 32.16 28.96 29.07 26.69 25.57 36.15 39.12 38.44 37.05 37.82 38.94 38.97 40.14 41.65 41.93 42.04 43.33 44.49 43.65 42.37 41.65 41.44 41.10 39.31 38.84 38.92 38.90 38.46 37.93 37.90 37.64 37.15 38.00 37.78 37.68 37.47 36.93 36.89 36.36 35.91 36.56 36.14 34.76
37.43 32.92 27.73 29.72 27.40 31.04 35.19 35.27 37.25 36.56 37.78 40.63 40.16 40.27 40.32 40.71 42.39 42.27 43.60 44.09 43.36 42.19 42.15 40.26 39.48 38.86 38.23 37.45 37.23 37.13 37.01 36.06 36.27 36.64 36.61 36.91 36.72 35.80 35.28 34.68 35.06 34.97 34.16 34.48
35.90 34.48 34.70 27.22 27.12 25.01 33.93 37.82 42.13 41.66 34.62 40.93 41.57 39.92 39.36 41.07 38.48 42.61 43.48 42.71 41.30 42.29 38.58 36.81 37.38 37.34 37.12 36.58 36.62 36.08 35.66 35.24 35.38 35.86 36.27 36.60 36.07 34.91 34.54 34.60 34.63 34.41 34.19 33.57
32.54 31.51 31.56 22.78 29.34 30.88 36.12 39.25 42.06 33.03 35.56 40.37 41.83 40.81 39.88 40.58 43.43 41.93 42.72 41.40 41.34 37.90 36.46 36.78 36.67 36.40 35.93 36.14 35.82 35.17 35.09 34.96 35.66 36.19 36.36 35.89 35.34 34.61 34.42 34.12 34.94 35.18 34.20 33.12
33.18 31.34 30.15 25.43 26.79 28.05 38.72 40.94 37.70 42.02 41.03 41.71 41.85 41.63 41.71 40.42 39.85 40.48 40.43 36.84 35.49 35.46 34.99 35.78 35.73 35.22 35.45 35.81 35.63 34.95 34.72 35.90 35.91 35.94 35.35 35.17 35.36 34.63 32.71 33.14 33.69 33.82 31.89 30.90
33.11 36.20 34.15 33.82 35.09 40.21 40.24 41.87 43.13 42.29 41.96 42.58 42.67 42.95 43.11 40.38 40.42 38.54 35.97 34.98 34.69 33.87 34.75 35.17 34.97 34.22 34.77 34.84 35.15 33.97 35.10 34.91 34.23 34.22 34.52 34.95 34.77 33.29 32.33 31.78 31.97 31.44 31.21 30.13
37.11 37.54 35.71 35.65 39.53 38.55 40.49 42.56 42.26 44.10 43.22 44.27 44.15 43.49 42.53 41.59 39.93 35.43 33.88 32.74 32.49 33.85 34.72 34.54 33.97 33.11 33.03 34.14 34.02 34.13 33.98 34.03 33.49 33.35 33.98 34.24 32.62 32.50 32.81 31.86 31.95 31.11 30.37 29.36
37.85 37.91 36.26 35.80 38.81 39.61 41.18 42.29 43.93 43.25 44.06 44.09 43.45 43.38 42.29 39.27 35.47 34.23 32.32 33.27 32.86 33.54 33.70 33.86 33.24 32.80 32.49 33.79 33.43 33.60 33.32 33.37 32.35 32.96 33.21 33.10 32.30 32.05 31.73 31.18 31.07 30.53 31.31 30.26
38.37 37.74 35.91 35.48 40.05 40.33 40.93 42.80 43.81 43.21 43.38 43.40 40.41 37.18 37.34 35.61 33.58 34.25 33.85 34.31 34.16 33.26 33.07 32.82 32.84 32.42 32.74 32.63 31.96 32.75 33.03 33.06 32.34 31.29 32.37 33.08 32.72 32.44 31.47 30.61 30.22 30.63 29.92 29.13

GFSCGP_sfc_wetblb_042.txt.gz
Wetbulb
51.86 48.51 45.15 46.95 47.41 46.97 46.51 45.54 44.03 45.95 47.53 48.04 47.14 48.09 49.07 54.15 55.99 55.58 56.35 56.81 57.22 57.49 59.28 61.44 62.66 63.52 63.65 62.82 63.55 63.43 62.45 60.89 60.25 61.51 58.22 55.76 54.00 55.37 56.34 56.84 56.23 55.98 55.94 55.89
49.21 45.90 48.23 49.05 48.25 47.11 46.13 45.25 45.28 46.26 47.24 48.75 48.66 47.96 49.66 51.90 54.61 56.01 56.44 56.78 57.20 58.01 59.71 60.58 62.23 63.30 63.24 62.60 63.07 63.43 63.99 64.10 63.33 61.81 60.15 59.50 58.43 58.41 57.80 56.66 55.95 55.65 55.50 54.47
46.89 47.44 49.37 48.99 47.90 46.61 46.57 45.61 45.48 45.12 47.09 48.98 48.54 46.74 48.33 49.85 52.37 53.70 55.46 57.24 57.79 58.82 59.34 60.20 61.27 62.61 63.24 63.08 63.96 64.01 63.55 62.64 61.33 60.51 59.57 58.93 57.83 56.66 55.56 55.41 55.04 54.65 54.46 53.87
48.16 49.00 48.11 48.33 46.88 47.89 44.44 47.57 46.87 46.14 45.59 42.53 47.76 40.77 47.43 49.38 49.43 51.61 53.59 55.67 57.58 58.25 58.35 58.59 58.29 59.76 61.26 62.01 62.50 60.99 60.87 60.41 60.00 59.61 58.52 57.72 57.69 56.64 57.06 57.75 56.12 55.61 53.86 52.41
46.33 47.51 47.35 46.57 46.30 47.66 46.10 48.26 47.44 46.30 46.05 45.03 44.86 42.53 46.48 49.14 48.01 49.59 53.04 55.55 56.91 57.21 56.84 55.44 55.91 56.96 57.93 58.71 59.38 59.60 59.33 58.51 58.71 58.69 58.27 58.66 57.24 56.93 56.62 55.98 54.24 54.56 54.48 52.63
48.61 50.86 49.71 48.57 48.87 49.17 50.16 48.64 48.18 47.85 46.51 39.92 43.64 42.86 42.65 46.95 48.79 50.86 52.96 55.23 55.86 56.05 55.56 55.41 56.39 56.84 56.83 58.20 58.29 58.40 57.97 57.63 58.03 58.21 57.94 57.34 55.98 54.55 54.60 54.08 52.64 52.68 51.96 51.46
47.23 47.26 49.58 50.35 48.05 49.69 49.29 45.99 40.33 37.89 38.32 37.13 43.60 42.07 43.99 47.95 49.38 52.52 52.71 54.50 55.15 55.19 54.90 55.01 55.30 55.64 56.41 56.64 57.46 57.54 57.73 56.81 57.50 57.29 56.63 55.90 54.67 52.94 51.66 50.94 50.80 50.01 49.67 49.86
42.66 40.51 46.47 48.97 48.23 46.31 46.42 45.23 40.06 31.17 34.58 39.39 42.87 39.80 45.87 49.46 51.02 52.64 54.96 55.58 55.03 54.38 54.93 55.43 55.79 56.15 56.17 56.48 57.41 56.92 56.71 55.80 55.83 55.51 54.55 53.48 51.98 53.20 51.88 51.26 51.02 50.34 49.71 49.82
43.11 41.86 47.98 48.04 49.70 48.94 45.66 43.82 46.40 40.40 37.41 38.03 41.80 44.24 48.21 49.05 49.21 50.77 53.77 54.48 53.34 54.16 54.99 55.52 56.01 56.33 56.61 56.85 56.83 57.03 55.91 54.82 54.12 53.30 52.72 51.47 53.02 51.35 50.70 50.64 50.86 50.41 49.91 48.39
47.11 41.43 46.21 46.89 49.04 49.02 48.04 48.50 41.41 42.99 32.27 31.02 38.23 39.27 42.59 45.54 47.37 49.74 52.12 52.63 53.17 54.51 54.93 55.58 55.92 56.02 56.06 56.02 55.42 55.84 54.83 53.16 51.28 50.33 49.82 50.24 50.05 50.22 50.58 51.10 48.90 47.07 46.42 46.03
49.21 46.02 43.88 46.18 45.14 44.70 45.10 44.35 43.77 43.92 41.40 34.73 33.63 39.55 47.61 47.19 49.27 49.63 52.33 53.03 53.75 54.39 54.64 54.84 54.96 55.07 54.44 53.89 53.68 53.16 51.70 50.38 49.82 48.55 48.28 49.02 49.81 49.34 49.29 48.07 46.05 45.52 45.60 45.13
47.73 47.02 42.50 43.69 46.53 47.71 46.96 45.38 45.16 39.10 36.21 39.43 38.55 39.06 47.01 49.22 50.77 51.60 52.04 53.27 54.56 54.93 54.10 53.60 53.06 52.57 51.70 51.49 51.68 51.04 50.69 49.72 48.71 47.35 47.85 47.33 47.72 47.31 46.22 45.02 44.72 45.67 44.54 44.78
48.02 44.83 39.84 40.68 44.14 46.30 44.47 46.09 45.23 42.86 42.49 37.89 36.92 39.21 47.00 48.74 49.37 51.17 51.95 53.10 53.29 52.70 51.96 51.50 51.16 50.58 50.44 50.35 49.69 49.07 48.39 47.76 46.26 47.10 46.50 46.59 45.97 45.07 44.43 44.31 44.87 44.51 44.02 43.58
47.74 45.74 43.53 39.45 41.58 45.15 41.93 43.59 44.47 43.57 38.52 38.84 39.46 40.59 44.12 46.48 47.90 49.68 51.50 52.99 51.99 50.88 50.36 50.34 50.15 49.99 49.37 48.77 48.29 46.01 46.71 46.30 46.42 45.63 44.95 44.59 44.59 44.58 44.48 44.38 44.04 43.62 43.33 42.59
48.53 43.08 43.17 42.07 41.77 41.98 42.42 42.49 43.28 41.95 42.87 38.94 41.24 40.68 43.46 45.59 47.32 49.43 51.27 51.65 50.55 49.59 49.34 49.50 49.36 49.12 48.71 47.73 46.34 46.72 46.37 45.34 45.29 44.01 43.34 43.44 44.36 44.77 43.95 43.36 43.15 43.07 42.36 41.92
46.49 42.74 41.93 39.71 40.45 40.45 39.51 42.42 42.77 43.69 43.74 43.37 43.32 42.62 47.84 48.48 48.68 48.98 49.21 49.47 48.88 48.77 49.07 49.07 48.84 47.82 46.88 45.72 45.89 44.94 44.04 44.18 44.37 42.95 42.26 43.20 43.78 43.19 42.65 42.42 42.05 41.63 41.36 41.19
45.40 43.29 40.29 36.50 37.46 37.77 35.88 40.99 42.86 43.19 44.35 44.11 40.53 45.18 47.16 46.07 46.75 48.08 48.83 49.11 48.72 48.86 48.77 48.12 47.45 45.93 44.79 44.56 44.19 43.19 43.41 43.73 42.52 41.60 41.57 42.33 41.93 41.37 41.33 41.16 40.65 40.02 40.01 39.82
42.65 42.05 39.07 36.94 33.53 31.63 40.66 43.39 43.21 43.56 44.95 45.91 44.86 45.52 46.38 46.95 48.69 49.50 50.94 49.74 48.66 48.61 48.31 47.67 46.04 43.08 42.72 43.59 42.91 42.57 42.97 42.33 40.97 40.23 40.52 40.81 40.84 40.30 40.49 39.93 39.33 39.52 39.44 37.13
44.71 41.68 35.16 36.90 34.41 38.00 40.35 40.22 39.69 39.72 41.11 45.65 45.16 45.99 46.25 46.61 47.17 48.43 49.63 50.53 50.07 49.62 48.98 47.77 45.20 42.88 43.08 41.80 42.70 41.56 40.98 40.29 39.35 38.91 39.63 40.04 40.17 39.52 39.01 38.33 38.42 38.60 36.01 36.73
42.39 42.84 42.16 34.99 35.34 33.41 39.81 42.82 45.91 45.18 38.38 45.57 46.37 46.07 46.13 46.29 43.55 45.12 49.41 49.71 50.08 49.06 47.98 45.36 42.59 40.91 41.35 39.93 41.74 40.46 39.41 38.84 38.29 38.84 39.27 39.98 39.81 38.94 38.23 38.33 37.65 37.15 36.04 35.10
38.84 39.00 37.82 36.19 36.71 38.64 42.72 43.16 45.88 36.14 38.72 46.06 47.25 47.68 47.00 45.60 47.83 47.54 50.44 49.22 48.71 47.26 44.40 42.81 41.61 41.31 41.02 40.83 40.02 38.53 38.43 37.78 38.75 39.22 39.41 39.41 39.18 38.52 38.43 37.82 37.62 36.00 35.82 35.82
39.08 38.18 36.99 35.30 35.00 32.96 43.91 44.44 40.77 45.77 48.20 46.75 47.87 48.06 48.13 48.74 46.27 46.93 48.25 46.26 44.00 41.89 40.21 41.34 39.05 39.39 40.42 39.82 39.01 37.61 37.26 38.89 38.95 39.30 38.48 38.12 38.74 38.17 37.70 37.44 36.99 35.08 34.94 33.60
38.62 42.99 41.90 41.14 42.02 45.06 46.20 47.71 48.72 48.36 47.75 48.34 48.08 48.48 47.86 47.67 45.98 45.59 44.48 43.19 41.36 40.39 37.32 38.18 38.04 38.01 39.05 38.68 38.37 36.49 37.89 38.28 37.97 37.41 36.95 37.68 38.09 37.39 37.06 35.87 34.47 33.09 33.22 31.76
43.09 43.20 42.10 40.49 43.95 44.82 46.32 48.01 48.74 49.17 47.98 48.50 48.77 49.09 49.00 47.96 46.70 44.14 41.65 39.26 37.47 38.33 37.93 37.58 37.81 36.90 36.93 36.94 37.40 38.02 37.98 37.65 36.91 35.82 36.37 37.31 36.82 36.13 36.54 34.85 33.59 32.95 32.18 31.19
44.21 43.38 42.24 41.97 45.05 45.64 46.08 46.69 47.71 48.32 49.20 48.50 48.52 47.92 47.54 47.44 44.28 40.51 38.90 39.16 38.54 37.81 36.88 36.94 37.12 36.37 35.93 36.93 37.04 37.74 37.18 36.96 35.33 35.49 35.85 35.98 36.12 35.61 35.44 34.43 33.98 32.96 33.29 32.63
44.44 42.62 41.81 42.00 43.88 44.42 45.19 47.65 47.88 47.45 47.36 47.50 45.15 43.80 44.58 43.56 39.81 38.71 36.97 37.10 37.41 37.85 37.50 36.11 35.52 35.35 35.65 36.24 36.82 36.96 37.22 36.42 35.31 34.64 35.09 35.59 35.15 34.79 34.01 33.44 32.99 32.24 30.47 30.62

GFSCGP_sfc_wetblb_045.txt.gz
Wetbulb
52.74 48.50 44.97 46.86 48.53 47.85 47.00 44.82 44.53 46.66 48.38 47.37 46.87 48.20 51.03 54.48 55.04 55.71 57.26 57.64 58.13 58.92 60.73 62.32 63.53 64.14 64.09 65.84 65.59 64.04 62.56 62.02 63.75 63.77 60.89 59.87 57.87 57.94 57.86 57.97 57.98 57.98 57.78 57.48
49.77 46.02 50.08 49.91 48.85 47.28 46.44 45.49 44.69 47.41 48.36 48.81 47.44 47.67 50.96 54.07 54.85 55.66 56.42 57.72 58.57 59.34 60.34 62.07 63.47 64.43 64.97 64.21 64.14 63.16 63.21 63.78 64.71 64.12 62.57 61.24 59.56 58.81 58.70 58.39 58.21 58.01 57.30 56.01
46.13 48.51 50.98 49.02 47.79 46.49 46.40 45.42 45.64 45.84 48.04 48.65 48.78 47.25 49.90 52.88 55.50 56.63 57.72 58.56 59.21 59.41 60.48 61.66 62.81 63.50 62.80 61.93 62.59 63.38 64.33 64.14 63.37 61.82 60.75 60.28 59.61 58.81 57.41 57.15 56.84 56.80 56.13 55.41
48.84 51.51 49.61 47.78 46.62 47.94 44.93 49.14 47.86 46.75 46.50 42.14 49.40 40.56 47.96 51.31 52.17 54.21 56.23 57.87 58.86 60.13 61.69 62.22 62.94 62.64 63.17 64.12 64.83 64.88 62.93 61.55 60.93 60.88 59.41 58.58 57.04 55.35 57.14 58.62 58.00 56.70 55.44 54.62
47.44 48.67 47.91 46.80 48.05 49.58 47.06 49.77 48.44 47.81 46.10 45.40 46.13 42.87 45.42 51.52 49.66 51.93 55.22 57.07 59.11 60.59 61.03 60.65 61.33 62.22 62.61 63.02 62.16 61.37 60.90 60.45 60.42 60.11 59.86 59.00 58.05 58.73 58.53 57.87 56.17 55.69 55.57 54.00
46.86 53.10 51.19 50.68 50.21 50.06 51.24 49.06 48.85 48.48 46.61 40.91 44.67 43.99 43.90 48.06 50.09 52.30 54.78 56.85 58.65 59.10 59.36 58.69 59.55 59.86 59.76 61.33 61.04 60.75 60.04 59.22 59.86 59.74 59.71 58.75 57.53 56.29 55.76 54.95 54.30 53.52 53.14 52.18
48.45 48.76 51.32 51.89 48.63 50.79 49.93 47.17 40.48 39.02 39.40 38.30 46.03 43.36 44.86 49.54 51.44 52.94 54.26 56.21 58.02 58.66 57.49 56.75 56.62 56.73 57.76 58.58 59.27 59.42 58.97 58.10 59.10 59.25 58.87 57.94 56.51 55.03 53.22 52.70 52.02 50.80 50.47 50.58
42.96 41.83 48.58 51.21 50.08 47.76 48.01 46.88 41.17 33.06 35.42 39.23 45.58 39.77 46.09 52.14 53.17 54.08 56.29 57.21 57.87 57.65 57.03 56.45 56.89 57.15 57.57 58.34 58.86 58.95 58.53 57.76 58.42 58.07 56.92 56.41 54.84 54.22 53.44 51.62 51.30 50.84 50.46 50.52
43.89 42.92 50.09 50.11 50.96 50.21 47.48 43.94 48.82 42.32 42.60 38.60 41.37 45.73 50.36 51.34 51.65 52.76 55.21 56.38 56.67 56.66 56.56 56.41 57.26 57.63 58.11 58.22 58.45 58.88 58.25 57.01 56.86 55.92 55.23 54.05 53.34 52.09 50.88 51.11 51.59 50.94 51.00 49.34
47.85 42.57 48.17 48.95 51.14 50.94 49.07 50.38 42.72 43.47 33.83 33.08 39.52 40.50 43.51 47.00 48.61 51.23 53.86 55.32 56.27 56.46 56.14 56.79 57.29 57.87 58.51 58.66 59.10 59.24 58.61 56.70 55.50 54.45 53.42 52.37 50.79 50.49 51.13 50.89 49.91 48.85 47.93 47.05
49.85 47.04 46.10 48.01 46.55 45.75 47.22 45.48 45.61 45.18 43.68 36.40 34.69 41.33 47.78 47.44 49.74 50.81 53.39 55.64 56.24 56.10 56.31 56.96 57.60 58.25 58.57 58.75 58.04 57.86 56.95 55.00 53.23 52.39 51.45 50.28 49.85 50.32 50.23 49.12 47.54 46.66 46.49 46.09
50.53 47.92 43.23 45.24 49.43 50.36 49.46 47.04 46.89 40.94 39.14 41.09 40.72 40.16 49.08 49.93 50.72 52.00 53.13 55.14 56.38 56.65 57.02 57.40 57.73 57.85 57.21 56.57 56.21 55.55 54.36 53.02 52.00 50.71 48.65 49.17 49.84 49.29 48.18 46.86 46.02 46.58 45.61 45.75
51.01 45.47 40.50 42.49 46.34 48.54 46.19 47.52 47.29 46.71 44.56 40.16 39.14 40.76 49.79 50.24 49.64 51.14 52.13 54.29 55.56 56.24 56.80 56.95 56.83 56.07 55.49 54.95 54.61 53.91 52.63 51.56 49.83 47.04 49.07 48.84 48.01 47.20 46.23 45.65 45.93 45.69 45.14 44.45
49.77 46.75 43.91 40.02 43.20 47.05 44.92 46.08 47.28 45.85 40.72 40.47 41.18 42.86 45.82 47.94 48.36 49.68 51.39 52.89 54.84 55.57 56.01 55.92 55.07 54.73 54.39 54.00 53.21 51.92 50.51 49.67 47.28 48.65 47.42 46.65 46.36 46.10 45.55 45.68 45.22 44.68 44.33 43.56
50.78 44.70 46.25 46.35 46.24 45.86 45.58 45.01 45.51 44.34 44.78 41.84 43.17 42.87 44.86 46.76 47.67 49.63 51.10 51.88 52.90 54.27 54.49 54.38 53.58 53.46 53.35 52.21 51.20 49.68 49.28 48.72 47.88 46.52 45.76 45.38 45.35 45.79 45.50 44.97 44.20 43.87 43.81 43.09
50.75 44.95 45.62 42.72 45.63 45.08 43.24 45.21 45.38 45.07 45.29 44.49 44.47 44.07 49.23 49.96 50.22 49.24 49.80 51.01 51.52 53.06 53.54 53.75 53.48 53.04 52.10 50.72 49.00 48.80 48.27 47.33 46.12 45.12 44.16 43.98 44.29 44.30 44.05 43.44 43.25 43.05 42.40 42.42
48.88 46.28 42.72 38.60 41.94 41.63 37.40 43.02 44.40 45.25 46.36 45.93 42.59 46.67 49.11 48.52 48.08 48.61 49.74 50.86 51.17 52.33 53.08 52.90 52.68 52.35 51.60 50.15 48.55 47.31 46.76 45.66 44.75 43.49 43.21 42.79 43.17 42.30 42.33 42.36 42.19 41.19 40.96 41.66
47.52 46.34 43.68 39.08 35.81 31.88 42.83 45.82 45.24 44.53 45.98 47.31 47.13 47.70 48.02 48.09 50.01 50.71 52.00 51.79 51.73 52.39 52.82 52.85 52.60 51.57 49.98 49.09 47.25 46.84 45.32 44.74 43.21 42.32 41.65 42.02 41.86 41.58 41.71 41.55 40.97 40.90 41.09 40.48
48.97 45.68 38.85 37.91 36.69 40.68 42.48 43.64 42.58 41.74 42.40 46.59 46.59 47.05 47.70 49.24 49.95 50.05 52.04 52.34 52.59 53.14 53.43 53.13 52.43 50.06 47.96 46.36 45.38 44.97 43.99 42.61 41.64 40.33 40.29 40.94 41.31 40.77 40.66 39.98 40.14 40.44 39.82 38.06
45.33 46.61 43.19 37.79 35.25 32.42 42.14 45.19 47.65 47.00 39.36 46.81 47.11 47.00 47.34 48.33 44.10 47.88 51.47 51.85 52.10 52.99 53.01 51.74 49.74 47.23 46.05 44.99 44.78 43.67 42.44 41.45 39.48 40.07 40.23 40.88 41.03 40.42 39.79 39.99 40.07 39.89 39.15 36.45
41.22 41.53 39.30 39.02 38.03 41.42 46.05 45.97 47.83 38.10 40.86 47.86 48.56 48.34 48.08 46.55 49.33 51.20 51.77 51.33 52.62 52.46 51.30 49.90 46.76 44.85 43.98 44.34 42.96 40.63 40.08 39.27 40.27 40.57 40.50 40.47 40.62 40.23 40.34 40.09 39.71 39.19 37.96 36.01
40.94 40.53 37.94 41.18 35.10 33.76 46.73 46.51 41.68 47.55 49.10 49.27 49.33 49.76 49.79 50.60 50.67 49.47 50.58 50.75 50.26 49.24 46.66 45.32 43.62 42.33 43.10 41.98 40.37 39.21 38.41 39.84 40.70 40.21 39.66 39.40 39.87 39.65 39.56 39.24 38.68 38.33 36.04 34.16
41.48 45.56 44.60 43.66 43.64 48.18 48.54 47.64 50.14 50.22 49.05 49.63 49.82 50.66 50.63 49.88 49.72 49.07 49.49 48.23 46.62 44.46 43.21 42.56 41.70 39.58 39.65 40.00 39.12 36.90 38.60 39.69 39.10 38.34 38.13 38.54 39.27 39.48 39.21 38.01 37.55 35.03 34.13 34.02
46.58 47.18 44.56 43.06 45.71 46.83 47.96 49.44 50.38 50.92 50.51 50.87 51.23 50.72 50.72 49.71 50.59 48.49 47.37 44.88 43.11 41.70 41.04 40.62 38.56 37.85 38.68 39.24 38.39 38.57 38.90 38.65 37.80 36.84 37.15 38.02 37.94 37.54 37.76 37.68 37.34 34.24 33.91 33.49
47.32 46.76 44.63 44.49 46.47 47.21 48.35 49.53 50.04 50.07 51.06 50.77 50.86 49.81 49.69 49.97 48.50 46.60 43.34 41.81 41.10 38.97 37.72 37.65 37.51 37.56 37.90 38.59 38.36 38.97 38.51 37.98 36.70 36.68 36.98 37.23 37.24 37.31 36.94 37.04 35.80 34.58 35.59 34.69
47.70 45.71 43.96 43.73 46.88 46.77 47.89 48.29 49.25 48.69 48.07 48.61 47.23 45.32 46.42 46.35 43.54 42.07 39.40 38.02 37.36 36.54 36.90 37.06 38.07 37.59 37.35 37.61 37.91 38.42 38.89 38.38 36.95 36.02 36.46 36.80 36.42 36.57 36.48 35.83 34.60 34.55 32.23 32.21

GFSCGP_sfc_wetblb_051.txt.gz
Wetbulb
49.32 44.07 40.38 43.10 45.85 45.18 44.07 42.93 40.24 42.96 46.29 45.05 46.01 44.76 47.09 49.34 50.68 49.10 48.21 48.22 48.91 50.73 52.97 54.25 56.29 60.60 60.84 61.35 61.45 60.48 59.48 58.80 58.68 57.89 56.91 55.36 53.18 51.86 51.35 51.72 52.84 53.01 53.26 52.28
44.68 42.15 47.34 49.09 48.34 46.12 44.34 42.53 42.42 45.20 46.34 44.02 41.60 42.40 45.79 48.23 50.38 51.20 50.10 48.99 49.64 51.27 54.67 56.42 56.81 60.84 61.06 60.88 60.80 59.80 59.44 58.57 58.58 60.05 57.92 55.52 53.31 51.70 51.77 52.25 52.63 52.94 51.69 51.16
41.89 46.03 50.17 48.28 46.35 45.42 45.04 43.69 42.29 42.50 45.13 44.15 43.36 40.05 42.20 46.92 48.96 52.17 52.56 52.23 52.42 53.48 54.59 56.16 57.65 58.06 60.61 60.12 59.90 60.06 59.76 59.39 59.51 60.92 57.41 55.12 52.93 51.78 50.89 50.94 51.19 51.54 51.59 50.80
44.35 48.70 47.48 46.09 45.17 46.56 41.92 47.33 46.57 44.43 41.54 35.57 43.21 32.94 41.10 45.17 46.64 48.82 51.64 51.50 51.96 53.33 56.38 56.91 57.48 58.99 59.78 59.60 60.58 60.95 60.66 59.58 59.99 60.65 56.35 53.28 50.29 50.09 50.11 50.72 50.89 50.68 51.19 49.97
44.16 46.07 46.28 44.75 45.91 48.24 44.27 47.70 46.05 45.73 42.06 39.82 39.92 36.53 40.16 45.53 45.08 46.76 48.24 50.79 53.11 54.96 56.17 57.00 58.11 59.63 60.11 60.21 60.57 59.39 59.81 59.79 59.95 56.85 54.89 52.44 50.67 51.03 51.64 52.09 51.87 50.65 50.32 49.49
45.82 49.29 48.16 47.42 49.92 48.42 48.53 45.98 45.75 43.79 41.59 32.96 40.53 38.70 36.44 40.92 45.68 48.60 50.81 51.47 52.40 53.31 56.59 58.20 59.61 60.12 59.60 59.22 58.74 58.96 59.50 58.87 55.06 54.09 53.65 52.53 51.19 51.85 51.83 51.36 51.18 50.40 50.13 48.27
44.38 45.62 48.48 49.93 45.06 47.64 45.91 41.45 32.93 30.79 30.38 30.71 43.49 39.75 39.73 46.34 48.05 49.76 49.76 50.85 52.21 54.57 56.10 57.94 58.72 58.08 58.85 57.82 58.72 59.31 57.63 53.75 53.93 53.89 53.59 52.54 50.70 49.79 49.45 48.03 46.45 45.17 45.65 46.06
38.20 36.86 44.46 48.59 45.99 43.96 43.91 42.36 33.15 28.13 29.43 32.22 42.65 37.39 40.87 47.90 49.62 51.53 52.18 50.77 53.57 53.73 54.39 56.36 57.75 57.96 58.81 56.01 53.94 56.10 53.44 53.38 53.95 53.98 52.76 51.36 50.07 48.25 46.69 46.55 47.42 46.68 46.15 46.37
39.39 39.49 48.35 49.86 49.66 47.33 43.72 39.30 45.33 37.28 35.45 29.10 35.27 40.01 45.50 47.98 48.27 50.20 49.96 51.96 51.94 52.46 52.17 53.10 52.94 54.42 53.43 53.24 53.29 52.73 52.66 53.14 53.92 53.72 51.44 49.52 47.05 46.25 46.50 46.69 46.59 46.64 45.08 44.82
44.69 38.24 45.33 47.90 49.42 47.99 45.33 46.83 37.01 36.25 27.73 25.98 33.17 35.30 37.66 43.70 46.28 48.25 49.16 50.53 51.57 52.19 51.53 51.35 51.80 53.13 53.65 53.46 53.98 53.72 53.08 53.65 53.86 52.95 51.16 49.76 46.30 46.92 46.76 47.15 46.91 45.37 43.43 42.92
45.47 40.76 41.34 46.36 43.94 42.21 42.39 40.40 41.10 39.97 36.51 28.35 25.94 32.31 42.47 44.08 45.92 45.79 48.05 51.63 52.06 51.74 51.04 50.62 50.66 53.13 53.39 53.58 53.70 53.48 52.97 53.59 52.18 50.84 49.01 46.74 46.95 47.95 47.48 47.00 45.15 43.18 42.78 42.24
46.92 41.26 36.61 41.15 46.74 48.09 44.97 42.71 42.39 30.69 33.05 33.95 29.30 32.32 44.39 45.10 46.63 47.01 47.11 52.23 52.95 53.05 52.31 51.41 51.02 51.89 53.15 54.23 55.42 55.26 53.42 51.95 50.22 47.69 47.33 48.34 48.10 47.65 47.14 46.11 43.47 43.06 42.01 41.73
46.80 40.52 31.80 36.58 41.19 45.16 42.31 43.48 43.23 42.16 38.07 33.78 26.41 31.63 44.82 45.85 45.10 46.74 45.65 49.66 52.43 52.80 51.65 51.44 51.00 52.58 54.47 54.85 54.98 54.66 51.60 48.13 47.89 48.04 47.92 47.60 47.17 47.20 44.82 43.66 42.67 42.49 40.96 40.99
47.95 43.29 38.12 31.72 36.82 41.30 40.02 42.55 43.34 40.64 30.52 32.87 33.25 37.60 42.24 43.36 44.05 45.08 45.68 46.05 49.50 52.42 52.64 51.74 51.63 53.08 54.56 54.14 53.81 51.98 47.90 47.69 47.78 47.72 47.79 46.42 46.53 44.78 42.49 42.34 42.14 40.61 40.93 39.83
45.22 38.35 40.12 40.88 42.49 43.26 42.58 41.83 42.07 41.12 40.04 34.15 37.61 39.48 42.55 42.39 43.26 43.41 45.66 46.58 46.91 48.51 50.33 51.02 50.77 51.65 51.70 51.40 49.96 47.81 47.48 47.25 47.53 46.67 45.22 42.40 42.90 42.90 43.06 42.22 41.19 41.21 40.99 40.54
46.00 38.10 39.49 37.66 43.07 41.92 38.59 41.11 41.34 41.03 41.26 40.06 39.58 39.14 43.89 44.73 44.90 44.43 44.79 45.37 45.96 46.39 49.16 50.64 51.69 51.65 50.95 49.99 47.17 47.02 46.34 46.46 47.00 43.35 42.73 42.79 42.64 42.58 41.21 40.24 39.82 40.18 39.62 39.13
43.19 40.05 34.87 31.79 37.11 36.79 29.61 37.83 39.75 40.98 41.60 40.24 35.41 40.00 43.74 43.31 44.23 43.86 44.30 45.85 45.95 46.83 48.22 49.94 50.10 50.35 49.72 47.52 46.87 46.12 46.17 44.43 43.09 42.22 42.50 42.37 42.10 40.65 39.89 39.97 39.72 38.87 38.06 38.28
42.67 40.61 34.18 29.70 29.64 21.79 38.06 43.36 42.18 40.60 40.98 41.45 41.47 42.64 43.41 43.12 44.48 45.06 44.94 44.58 45.63 47.48 48.09 48.90 47.79 45.91 45.95 46.36 46.41 44.40 43.48 42.80 41.95 41.49 40.14 40.30 39.72 39.07 39.18 39.62 38.99 37.86 37.70 36.86
46.89 39.10 32.35 27.61 27.25 34.84 39.09 41.07 40.56 38.55 37.41 42.03 41.16 42.27 43.49 44.69 44.95 44.07 46.91 46.51 46.04 47.14 47.10 45.86 44.89 43.34 41.53 41.30 42.07 42.48 41.92 41.03 39.37 38.10 38.20 39.25 39.37 38.85 38.72 37.88 37.17 37.18 36.28 35.34
44.81 42.23 32.66 29.52 25.62 21.05 36.21 42.15 44.87 43.05 31.09 43.13 43.34 42.90 43.37 42.86 35.26 39.80 45.85 47.32 46.66 46.50 44.77 42.87 40.98 40.66 39.46 39.02 39.13 38.06 37.29 37.84 36.89 38.56 38.73 39.51 39.37 38.52 37.36 36.96 36.10 36.29 36.06 34.81
31.31 30.62 28.13 25.21 24.70 32.07 44.00 44.27 45.23 30.12 32.39 43.69 44.32 43.89 43.71 42.02 42.73 44.88 47.05 42.79 43.00 42.90 40.75 40.54 39.52 37.75 37.51 38.38 38.08 36.90 36.98 36.44 38.37 39.44 39.39 38.96 38.82 37.45 36.68 36.23 36.47 35.70 34.37 32.41
33.76 31.69 26.97 31.18 30.84 27.77 44.65 43.16 36.50 41.21 43.56 44.30 44.16 44.17 44.06 44.52 45.96 46.20 43.69 40.38 38.85 37.84 37.69 37.64 36.44 35.72 36.05 36.99 37.86 36.81 36.03 38.46 39.32 38.60 37.97 37.48 37.15 36.94 36.74 35.46 35.02 34.37 32.20 30.01
34.18 39.63 34.82 36.22 34.87 43.39 45.00 44.36 45.66 45.83 44.26 44.41 44.60 45.43 46.04 45.45 45.60 43.17 38.00 37.50 37.23 36.84 36.64 37.25 36.28 36.75 37.13 37.50 37.63 36.40 36.29 37.50 37.48 36.25 35.40 35.55 35.73 35.40 35.10 33.46 32.51 30.44 29.77 26.88
42.18 45.35 38.99 38.35 42.40 43.37 45.52 46.53 46.84 46.88 45.91 45.41 44.29 44.07 45.68 44.66 44.25 38.67 37.69 36.43 36.14 36.38 36.13 37.25 36.91 36.18 36.31 37.16 37.56 36.93 37.86 37.57 35.52 33.95 33.75 34.03 33.45 33.06 32.77 33.06 32.79 30.55 27.05 25.92
41.51 42.54 41.05 39.54 43.47 43.98 43.74 44.81 45.54 45.11 44.96 41.17 41.06 40.55 40.10 39.12 37.49 36.53 35.14 35.27 35.83 35.74 36.30 37.07 36.01 35.39 35.44 36.85 37.07 36.89 35.98 36.14 33.91 33.38 33.18 32.91 32.44 31.72 31.53 32.46 31.71 30.21 29.02 28.32
42.94 41.59 34.80 34.20 43.00 41.77 40.61 42.99 43.86 41.36 40.63 40.72 39.05 37.67 38.02 37.59 36.39 36.33 34.91 35.16 35.76 35.98 36.92 35.82 36.01 35.64 34.83 34.01 33.83 34.54 35.03 34.56 32.98 32.15 31.67 30.07 29.42 29.35 29.76 29.79 31.25 32.84 31.88 32.36

GFSCGP_sfc_wetblb_054.txt.gz
Wetbulb
47.33 43.07 39.93 42.27 44.72 46.09 44.23 42.26 38.86 42.42 45.58 44.98 45.07 44.23 45.26 48.17 49.51 47.27 47.99 51.80 51.11 52.38 54.66 56.53 57.03 57.60 57.98 59.09 59.22 58.53 57.49 56.76 56.66 56.02 56.10 54.91 52.07 51.65 50.60 50.77 51.71 52.00 51.64 51.93
43.60 41.15 46.68 47.68 47.76 45.63 44.21 41.38 40.16 43.26 44.86 45.94 41.59 42.57 44.76 47.78 49.97 49.38 48.84 48.81 49.37 49.97 52.17 55.87 56.82 57.09 57.79 59.46 59.09 58.44 57.79 57.06 56.85 57.70 56.12 55.05 52.90 50.86 50.35 50.66 51.15 51.91 50.60 49.08
40.18 44.23 49.17 47.09 45.55 44.04 42.93 40.81 40.95 40.73 42.88 42.10 40.22 38.49 41.75 46.09 49.39 50.09 50.39 49.96 50.49 51.06 51.14 54.62 56.70 57.07 58.39 58.89 58.82 58.38 58.15 57.56 57.52 58.57 57.16 53.37 51.48 50.18 49.59 49.56 49.69 49.66 50.00 49.81
42.81 46.56 45.74 44.07 44.42 45.12 39.98 45.70 44.67 42.82 38.16 33.63 40.17 31.16 38.30 42.88 46.25 48.80 49.25 47.81 48.30 51.64 53.25 55.85 57.12 57.63 58.20 58.94 59.23 59.10 58.75 58.19 58.05 59.25 56.80 52.34 50.21 49.40 49.22 49.38 49.61 49.33 49.94 49.03
41.21 43.75 44.16 42.69 43.99 47.01 42.36 45.58 44.44 43.72 39.29 37.38 39.28 34.89 37.77 42.80 42.77 44.87 48.46 48.65 49.16 52.62 53.77 55.47 57.79 58.70 59.44 59.34 59.17 59.25 59.27 59.28 58.66 59.24 56.51 52.88 49.66 49.69 49.35 49.74 49.14 48.98 48.42 48.21
42.82 47.10 46.67 45.26 48.44 47.14 47.05 43.95 43.47 41.59 39.11 32.26 39.79 35.88 35.36 39.55 43.45 47.12 47.95 50.21 50.15 52.43 54.08 55.61 58.47 59.50 59.10 59.66 59.58 59.47 59.32 58.73 58.34 57.88 54.51 53.07 50.55 49.73 49.55 49.45 48.72 48.56 48.36 46.49
42.46 43.33 46.28 48.33 43.87 45.63 44.03 38.59 30.20 28.28 28.53 28.97 40.56 36.49 38.67 43.62 46.57 46.76 47.44 48.53 49.66 52.15 53.19 55.82 57.74 58.36 58.73 58.86 59.24 59.24 58.48 57.77 55.46 54.08 53.33 51.79 50.51 50.04 49.94 49.47 48.23 46.40 44.99 45.36
36.27 34.80 44.05 47.53 44.17 41.57 42.71 39.76 30.36 26.60 26.40 29.36 40.28 34.47 39.14 46.28 48.35 48.80 48.97 48.23 51.52 52.11 55.23 56.41 57.19 57.86 57.94 58.14 57.77 58.82 58.11 54.43 52.30 52.28 51.40 50.02 49.21 47.99 47.33 48.00 47.11 46.49 45.99 44.07
37.05 37.84 46.27 47.61 47.76 45.72 42.13 37.91 42.40 35.25 32.22 28.23 34.23 37.50 43.94 46.60 47.70 48.52 47.57 49.06 50.58 51.90 55.27 56.02 56.55 56.82 57.07 56.42 56.10 56.16 54.51 52.59 52.18 51.34 49.55 47.69 47.46 46.46 47.66 47.27 46.64 45.16 43.98 43.48
42.61 36.47 43.94 46.16 47.43 46.08 43.27 45.16 36.57 35.05 26.84 25.24 30.76 33.20 36.37 41.72 44.13 46.63 46.05 47.72 50.37 51.11 52.17 53.76 55.42 55.27 54.93 54.71 51.89 51.52 53.23 53.33 52.68 50.50 49.44 48.45 47.63 46.75 47.66 47.84 46.14 43.99 43.46 43.01
43.79 39.90 39.30 44.35 42.06 40.38 40.40 38.82 39.23 38.35 33.79 27.75 25.13 30.86 39.97 43.35 45.18 46.52 47.24 49.79 50.56 50.69 51.00 52.36 53.65 54.41 54.11 53.23 52.34 51.56 51.78 52.15 51.61 49.78 47.27 46.91 47.76 47.72 47.49 46.05 44.33 43.18 43.07 42.34
44.65 39.95 34.47 39.84 45.09 47.09 43.26 40.70 40.68 30.08 31.19 31.35 27.66 30.92 42.62 44.23 45.79 45.81 46.78 50.41 51.34 51.97 51.15 51.73 52.33 52.90 52.20 52.72 52.67 52.34 52.74 52.82 49.20 47.07 46.86 47.64 47.73 48.43 47.43 44.96 43.82 43.81 41.98 42.16
45.05 38.43 31.77 35.78 40.86 43.64 40.80 41.72 41.52 39.89 34.99 31.50 25.74 30.89 43.21 42.59 43.95 45.67 44.89 47.51 50.95 51.66 50.57 50.21 50.84 51.92 52.25 52.97 53.13 51.62 49.39 46.40 46.95 47.29 46.97 47.57 46.78 47.18 45.88 45.02 42.88 42.17 40.98 39.49
46.22 40.75 36.03 31.97 35.88 39.18 37.42 40.68 41.13 38.32 29.05 31.24 31.82 36.09 41.04 42.70 42.41 43.59 44.13 45.11 49.52 51.54 51.53 50.38 49.67 51.10 52.22 52.14 50.81 48.68 48.03 48.15 48.51 48.43 47.77 46.63 46.88 46.80 43.55 42.03 40.95 40.43 40.60 38.58
43.57 37.63 39.07 39.77 40.66 41.25 39.69 39.37 39.57 38.32 37.89 32.86 36.30 36.80 41.00 41.27 41.81 42.28 43.78 44.27 47.39 49.60 49.99 49.83 48.62 49.68 51.02 51.57 48.58 47.32 47.91 48.01 48.41 46.83 44.67 44.70 42.86 41.44 42.14 41.34 39.24 40.52 39.45 39.55
43.94 36.72 36.41 35.30 39.06 39.15 36.69 38.79 38.89 39.35 39.42 38.66 38.11 37.70 41.18 41.67 41.96 42.13 42.45 44.14 44.33 46.00 47.10 48.94 50.43 50.77 50.55 48.46 46.30 46.44 46.72 46.57 45.53 42.13 41.52 42.04 42.07 41.77 41.01 39.41 39.28 38.59 39.56 39.33
41.10 38.25 32.65 30.83 34.71 35.02 29.53 36.20 38.47 39.27 39.48 39.27 34.02 37.97 40.91 40.53 41.41 41.41 42.25 43.78 44.32 45.69 48.11 48.95 49.81 49.83 48.54 46.52 46.83 44.92 43.30 41.60 40.57 40.30 41.33 42.12 42.10 40.25 39.57 39.53 39.15 38.48 37.45 37.38
39.53 37.33 31.36 28.09 28.50 22.09 37.40 42.26 41.12 38.45 38.58 39.46 39.97 39.86 41.45 41.77 41.85 42.44 42.77 43.49 44.84 45.67 45.64 44.88 44.35 43.41 43.68 43.40 41.46 41.21 41.29 40.98 39.50 38.56 39.75 39.87 38.89 38.51 39.52 39.13 38.20 36.73 36.63 35.82
44.81 36.35 31.00 27.02 26.97 33.16 37.74 39.55 37.84 36.52 35.45 40.45 39.33 40.63 42.54 43.25 43.03 42.36 44.60 44.46 42.90 41.76 39.98 38.97 39.31 39.53 39.73 40.06 40.24 38.78 37.17 37.97 37.96 38.11 38.44 39.18 39.96 39.41 38.64 36.73 36.26 35.85 34.64 34.25
41.73 38.78 33.57 28.47 24.91 21.87 34.62 40.02 42.57 41.23 30.19 41.11 42.26 41.92 41.45 40.64 33.81 38.20 40.92 41.10 38.85 38.59 38.46 37.39 37.52 37.77 37.36 37.05 37.83 36.81 35.65 36.54 36.28 38.19 38.81 40.45 39.85 37.77 37.12 36.33 35.23 34.35 33.87 33.48
30.80 30.60 27.80 22.91 23.32 29.12 39.25 42.72 42.75 29.92 31.03 41.86 42.73 42.56 41.84 40.30 40.31 39.77 38.74 38.14 38.38 37.03 35.71 35.92 35.74 34.81 35.44 36.88 37.45 36.68 36.90 36.56 38.04 39.97 39.93 38.53 38.11 36.88 36.19 34.47 33.99 33.58 32.43 30.88
32.83 29.68 25.87 28.34 24.49 25.86 43.34 41.82 35.60 37.81 41.56 42.65 42.52 42.30 42.49 43.15 40.54 37.68 37.30 36.23 35.79 35.06 35.26 35.73 35.23 35.90 37.47 38.30 37.92 36.30 35.15 37.40 38.28 36.85 36.38 35.62 35.39 35.09 34.75 33.07 32.37 32.30 30.60 29.21
33.09 35.60 32.59 34.24 32.74 41.11 43.08 42.38 43.49 44.00 42.75 42.70 42.83 43.77 44.32 40.10 37.15 36.87 35.59 35.53 35.50 35.44 35.22 36.95 36.09 35.84 36.81 36.85 36.11 35.22 35.68 35.94 35.81 35.10 34.14 33.55 33.89 33.45 32.81 31.57 31.10 29.29 28.65 26.38
40.08 43.71 38.03 37.18 40.64 41.91 43.44 44.67 44.90 43.99 40.58 40.54 41.46 43.10 42.98 36.75 36.62 35.54 35.24 34.65 34.47 36.17 36.12 36.83 36.11 35.47 34.71 36.29 36.28 35.58 36.23 36.06 34.34 32.80 32.40 32.19 31.32 31.37 31.12 31.06 31.01 29.37 27.43 26.75
40.17 41.63 38.39 38.54 41.04 41.88 42.33 42.80 41.17 40.00 39.97 38.74 38.87 38.84 38.20 36.82 35.39 34.77 34.67 35.25 35.34 35.93 36.66 36.77 35.71 34.63 34.35 34.90 34.38 33.78 33.71 33.86 32.20 31.61 31.51 31.25 30.93 30.48 30.16 30.79 31.03 30.51 30.23 30.09
41.11 39.74 34.58 33.56 42.38 39.97 39.45 40.08 41.10 39.07 38.35 38.06 36.76 35.92 36.70 36.14 34.62 34.33 34.59 35.53 36.21 36.11 36.26 35.57 33.76 31.71 31.03 31.59 31.68 32.39 33.31 32.81 31.07 30.23 29.72 28.76 28.77 29.04 29.15 29.56 30.67 33.00 32.18 32.54

GFSCGP_sfc_wetblb_057.txt.gz
Wetbulb
45.76 41.39 38.51 41.21 42.83 44.42 42.59 40.85 39.07 40.86 44.18 44.77 43.27 42.09 43.26 46.69 49.23 49.16 53.08 52.97 54.52 55.73 57.32 57.77 58.79 56.42 56.35 57.41 57.74 57.01 56.56 55.64 55.90 54.98 53.54 52.19 51.68 50.92 50.40 50.37 51.38 51.73 51.52 50.06
42.35 40.61 44.94 45.48 45.23 44.18 42.30 40.35 39.95 42.05 43.49 43.85 40.76 41.62 43.08 46.15 47.82 49.91 51.14 52.49 51.08 53.43 54.13 55.85 55.87 55.10 55.95 57.64 57.58 56.91 56.88 55.94 55.75 55.61 54.63 54.12 51.84 50.71 49.96 50.24 50.61 51.11 50.71 48.76
39.05 42.03 46.93 45.45 43.10 42.22 40.73 40.12 39.39 39.57 41.57 42.17 39.40 37.72 40.51 45.07 48.14 48.87 51.19 53.95 51.68 51.60 52.24 53.79 53.81 54.41 55.37 57.15 57.21 57.42 57.16 56.42 56.00 56.55 54.69 51.76 50.26 49.48 48.62 48.72 48.96 49.64 48.93 48.17
41.16 44.85 44.32 42.30 42.30 43.14 37.86 43.68 42.85 41.05 37.75 32.60 38.83 30.41 37.44 42.13 46.09 47.67 48.51 49.23 49.99 51.04 52.41 53.86 54.02 54.10 55.24 57.27 58.20 58.28 57.57 56.54 56.48 57.37 54.60 51.79 50.03 48.13 48.38 48.54 48.92 48.68 48.89 48.08
40.78 42.94 42.28 41.32 42.19 44.39 40.69 44.05 42.72 41.72 38.23 35.49 36.58 33.35 36.50 41.01 42.20 45.61 47.46 47.32 48.29 49.71 51.34 53.38 54.32 55.04 56.07 57.79 58.00 57.96 57.63 57.19 57.46 57.69 56.30 52.61 49.21 48.72 48.80 48.76 48.48 47.66 47.48 47.24
41.22 46.15 44.79 43.29 45.69 45.39 45.53 42.84 40.98 38.96 37.22 30.38 36.24 34.51 33.89 37.67 42.56 45.88 48.98 48.78 48.15 48.59 50.54 53.66 55.65 56.07 56.71 58.03 58.12 57.48 57.57 57.46 57.83 57.93 55.94 53.10 50.33 48.82 48.50 47.77 47.45 47.14 46.02 44.79
40.74 42.60 44.67 46.93 41.59 43.75 42.40 36.85 29.06 28.19 27.39 28.49 37.88 34.71 37.38 41.28 43.86 44.52 46.29 48.53 47.63 49.21 50.11 53.15 55.32 56.31 57.35 57.72 58.16 58.04 57.86 57.78 57.77 57.87 55.84 53.44 50.85 49.69 49.13 48.48 48.28 45.81 43.72 43.90
34.91 33.16 41.91 45.22 42.59 40.40 40.06 37.52 29.50 25.90 25.61 27.93 37.81 32.76 37.73 44.53 46.66 46.24 46.84 47.52 47.60 49.61 52.02 54.73 56.42 57.18 57.53 58.45 58.68 58.28 58.27 57.96 57.26 56.04 54.50 52.38 50.63 49.72 48.43 47.83 46.97 45.45 45.00 43.11
35.07 35.83 44.88 46.30 45.76 43.98 40.10 36.50 39.93 32.97 31.50 28.02 32.15 35.97 42.52 44.48 45.10 46.00 45.11 47.52 47.73 49.34 52.11 54.95 56.86 57.57 57.64 58.87 58.09 57.96 57.78 57.20 54.38 53.72 51.36 49.38 49.34 47.36 46.03 46.86 46.18 43.93 43.75 44.90
39.82 34.43 42.42 45.20 45.87 45.43 41.93 43.55 34.55 33.24 26.58 25.17 29.09 31.10 34.15 40.76 43.03 45.00 43.78 45.41 48.75 50.43 52.64 54.42 56.20 56.46 57.32 57.93 57.79 56.92 56.76 54.98 52.30 50.63 49.52 47.84 46.80 47.35 46.76 45.76 43.79 44.12 44.30 44.13
41.48 38.03 37.09 42.97 40.73 39.36 39.08 37.34 36.98 36.72 31.59 26.89 24.78 30.32 38.07 41.77 43.67 44.74 44.66 46.52 48.76 50.33 52.97 54.43 55.70 56.49 57.03 56.60 54.30 55.13 53.15 52.17 50.27 48.41 46.08 45.53 45.75 46.25 45.35 44.44 44.29 44.38 43.67 43.51
42.63 38.06 32.63 38.73 42.60 44.50 40.96 39.67 38.28 29.78 30.44 30.15 27.28 29.68 40.54 42.27 44.66 44.82 46.90 47.81 49.02 50.45 52.19 54.16 55.15 55.01 53.91 53.42 53.13 52.86 52.93 51.61 49.84 45.84 45.63 45.92 46.30 46.15 45.93 44.65 43.33 44.08 43.62 43.39
42.97 36.28 30.39 34.39 38.61 41.49 39.70 40.41 40.26 37.57 33.11 30.02 25.26 30.19 41.40 41.24 42.65 44.75 44.75 46.12 49.47 50.02 49.42 50.94 52.05 53.33 53.82 53.43 52.35 49.78 47.89 45.18 46.25 47.07 46.62 46.94 47.17 46.37 44.05 43.35 43.86 43.17 42.79 41.91
45.08 38.50 35.86 32.24 36.00 39.77 37.89 38.62 38.95 37.22 28.76 30.50 30.60 34.29 39.22 41.24 41.12 42.07 43.69 43.29 46.03 49.79 49.73 48.06 49.08 51.02 51.74 51.55 49.52 46.80 46.14 46.47 46.41 46.86 47.00 46.67 45.97 45.81 45.27 43.58 41.06 40.61 40.56 39.37
42.62 36.77 37.11 37.83 38.46 39.01 38.47 38.80 38.64 37.10 36.07 32.15 34.95 34.89 39.23 40.38 41.42 41.35 42.09 42.59 45.51 48.28 48.95 48.08 47.34 48.42 49.53 48.45 47.41 47.16 47.37 48.34 48.56 47.78 46.95 47.32 46.49 44.82 41.24 40.12 39.47 40.78 40.42 39.84
42.02 34.96 34.70 34.38 37.29 37.87 36.12 38.79 37.72 37.62 37.26 37.08 36.65 35.99 39.38 39.44 40.53 40.46 41.06 42.85 43.83 45.61 46.85 48.65 48.59 49.12 49.57 47.15 45.97 46.84 47.33 47.82 48.04 46.76 43.94 42.73 41.81 41.57 41.05 41.04 39.67 39.38 39.37 39.47
39.39 36.38 31.65 29.98 33.37 33.25 29.63 35.02 37.53 38.04 38.44 37.77 33.15 37.55 39.07 38.91 40.05 39.64 40.89 42.88 43.79 45.85 47.18 47.77 48.38 48.30 46.65 45.50 46.07 45.20 43.08 41.45 41.28 42.29 42.19 41.91 41.64 39.89 39.38 39.26 39.32 38.84 37.95 37.58
38.18 34.92 30.24 27.08 28.30 21.43 36.03 39.95 39.98 37.63 36.70 37.45 37.66 38.82 39.31 39.07 40.19 41.12 41.57 42.20 42.79 42.24 41.59 41.52 42.09 42.26 41.24 40.37 39.69 39.89 40.32 40.60 40.73 40.06 39.44 39.24 39.45 39.44 40.42 40.73 40.13 37.69 36.67 34.54
42.04 34.52 29.24 26.91 27.15 31.52 36.70 37.11 36.92 35.91 34.38 38.42 38.03 39.08 40.30 41.09 40.71 40.36 40.65 39.05 37.18 36.65 36.42 35.99 37.56 38.36 38.54 38.44 38.62 37.89 37.61 38.89 38.37 38.10 38.93 40.52 41.14 40.97 40.58 38.28 36.74 35.63 33.39 32.58
40.08 37.50 32.99 25.82 24.79 23.30 35.24 39.53 41.14 39.73 29.67 40.10 40.12 39.78 40.31 39.11 32.22 37.05 37.48 37.11 35.89 35.88 35.90 35.51 35.88 35.96 35.34 35.11 36.43 35.80 36.04 37.40 37.11 38.50 40.11 41.05 39.98 38.85 37.09 35.52 33.94 33.19 32.23 32.10
31.02 30.65 29.47 22.93 23.93 30.05 37.83 41.10 40.67 30.24 31.56 40.40 41.60 40.68 39.85 38.01 37.36 37.15 36.59 34.58 34.69 34.41 34.23 35.26 35.33 34.59 35.01 36.38 36.85 35.31 35.25 36.29 38.66 40.14 39.27 38.85 37.34 36.64 35.26 33.21 32.20 31.90 30.72 29.91
33.72 30.77 25.79 26.07 21.55 26.82 41.10 39.65 34.39 36.59 39.70 41.40 41.42 41.71 40.58 36.40 36.03 35.35 34.59 33.92 33.71 33.23 34.01 35.05 34.48 34.45 35.31 36.42 36.38 35.15 35.78 37.69 37.86 36.59 35.45 34.91 34.22 33.82 33.34 31.27 30.64 30.24 29.28 28.47
33.12 35.56 33.05 33.93 32.99 39.90 41.54 39.96 41.07 41.79 41.61 41.51 41.93 42.18 39.63 36.03 34.78 34.48 33.43 33.62 33.68 33.60 33.15 34.35 35.79 35.80 35.67 36.70 36.14 33.99 34.42 35.14 34.99 33.71 32.48 32.32 32.61 31.80 31.17 30.01 29.55 28.63 28.39 26.48
39.05 40.97 35.63 36.50 39.54 40.53 41.71 42.26 41.65 42.09 41.30 41.93 42.75 41.67 38.61 35.34 34.97 33.99 33.71 33.39 33.21 33.68 34.35 36.35 35.74 35.40 35.46 36.30 35.08 33.62 33.39 33.68 32.43 31.07 30.87 30.61 29.58 29.94 29.80 29.72 29.44 28.49 27.08 27.24
40.24 41.18 37.44 36.62 39.20 41.38 41.78 39.57 38.86 38.58 38.71 37.91 37.92 37.95 36.79 35.61 34.09 33.73 32.75 33.20 34.51 35.55 35.88 36.12 34.94 33.32 31.68 31.69 31.27 31.99 32.14 31.87 30.52 30.22 30.03 29.86 29.36 29.06 29.34 29.41 28.81 29.55 30.06 29.75
40.74 38.75 35.95 34.32 40.88 39.68 40.11 38.96 39.48 38.00 36.92 36.98 35.93 34.93 35.65 35.11 33.75 33.73 33.50 34.85 35.38 35.07 34.38 32.25 31.95 31.06 29.87 30.49 30.89 31.52 32.18 31.09 29.61 28.87 28.63 28.15 28.18 27.78 28.03 28.05 28.55 31.75 31.63 32.48

GFSCGP_sfc_wetblb_060.txt.gz
Wetbulb
44.27 40.49 36.97 38.86 40.25 41.80 41.18 40.21 38.65 40.08 44.43 40.66 40.27 41.01 43.10 47.33 51.72 52.46 52.64 52.80 53.95 54.54 56.28 56.18 57.60 57.49 56.36 56.35 57.36 57.26 56.14 55.18 56.06 55.19 53.26 52.26 51.93 51.64 51.40 51.43 51.60 51.17 50.77 48.61
41.02 38.04 42.66 43.37 43.67 42.09 41.26 40.43 38.83 41.69 42.18 41.58 39.71 39.58 42.24 45.75 49.11 52.13 53.00 52.78 53.90 55.31 55.58 55.84 56.36 56.06 55.30 56.57 57.52 56.62 56.85 55.68 56.50 56.75 53.47 53.18 51.83 50.72 50.23 50.10 50.52 51.01 49.53 47.20
38.16 41.24 45.37 44.09 41.79 40.87 39.53 38.80 37.52 38.67 40.18 40.59 38.39 37.37 40.49 43.77 47.27 49.62 52.71 54.61 54.18 54.49 54.79 55.32 55.78 55.43 55.14 55.92 56.83 56.86 56.93 56.16 56.27 55.66 54.07 50.80 50.03 49.80 48.61 48.42 48.67 49.49 49.64 47.61
39.42 42.80 42.98 41.48 40.88 41.30 36.34 42.52 41.88 40.34 36.72 32.13 36.81 29.95 35.90 39.91 44.43 47.44 49.84 51.96 53.13 52.52 54.13 54.69 54.56 53.61 54.05 55.40 56.77 57.00 56.93 56.04 55.48 55.64 53.47 51.51 50.85 48.65 48.40 48.86 48.65 48.67 48.45 47.16
39.34 40.64 40.71 39.66 40.85 42.85 39.54 43.02 41.66 41.16 37.20 33.97 34.15 31.49 35.42 39.83 41.50 45.37 47.65 48.53 52.11 52.01 52.15 52.46 53.83 53.97 54.18 55.13 55.94 56.38 56.54 56.04 55.72 56.07 54.91 53.01 50.70 50.63 50.27 48.50 48.72 47.64 46.44 46.34
39.96 44.02 43.34 42.38 43.80 43.72 43.87 41.19 38.96 37.33 35.66 29.58 34.22 33.00 32.74 36.27 40.79 44.31 46.50 46.95 49.01 50.18 50.58 51.49 52.53 52.75 52.80 54.98 55.26 56.00 56.12 56.22 56.24 56.46 55.64 54.00 53.27 50.69 49.66 47.76 48.01 46.36 44.73 43.98
39.04 40.34 42.54 44.87 40.10 42.02 40.08 35.60 28.32 27.04 26.83 28.00 36.01 33.60 36.22 39.19 42.41 44.06 45.82 47.72 47.89 48.53 47.83 48.93 50.49 52.20 53.78 55.46 56.18 56.76 56.56 56.28 56.74 56.58 55.92 54.82 53.94 51.67 49.67 47.99 47.61 45.14 42.89 42.02
33.70 31.71 40.40 43.53 41.42 38.48 38.33 36.89 29.36 25.20 24.61 27.23 35.55 32.08 36.89 42.84 44.93 45.67 45.14 45.81 47.66 45.91 47.35 49.28 51.79 53.39 54.56 56.00 56.60 57.41 56.90 57.44 57.25 57.10 56.78 55.94 54.29 50.76 48.85 48.61 48.67 44.61 43.31 42.22
33.08 34.08 41.98 44.27 44.36 42.23 38.26 34.95 38.06 31.54 30.37 27.08 30.98 35.53 39.80 41.99 43.35 45.57 43.89 44.68 44.72 45.28 47.59 49.98 52.43 54.53 55.42 56.16 56.77 57.88 57.84 58.04 57.49 57.58 56.36 54.52 52.53 50.44 47.77 46.36 45.62 44.23 43.60 43.50
38.65 32.64 40.52 43.19 44.36 43.38 40.05 42.22 33.55 31.88 26.70 25.26 27.95 29.90 32.44 38.42 40.71 43.50 44.12 44.29 45.81 46.10 48.29 50.49 53.44 55.42 56.36 56.97 57.84 58.38 57.96 57.73 56.93 56.04 54.30 53.65 50.70 48.03 46.77 46.59 44.21 43.01 44.42 44.26
39.78 36.11 34.79 40.65 39.45 38.32 37.99 36.25 35.46 35.31 30.50 26.52 23.83 29.20 37.47 39.10 41.54 41.30 42.32 45.22 45.20 48.65 49.67 51.42 53.76 55.34 56.06 56.70 57.08 57.10 57.14 56.86 53.18 52.84 50.76 47.53 45.63 45.21 45.26 44.88 44.09 44.82 43.96 43.46
41.41 36.06 30.78 36.73 40.43 42.01 39.65 38.49 37.08 29.57 29.64 29.29 26.70 28.52 39.72 40.03 41.13 42.62 43.97 45.79 46.03 49.04 50.61 52.00 53.00 53.96 54.61 55.58 55.66 55.66 55.08 54.50 51.26 46.51 44.93 44.97 45.10 44.80 45.12 43.94 44.75 44.97 43.81 44.18
41.60 34.55 28.70 32.10 36.23 39.70 37.94 38.96 38.41 35.49 31.87 29.64 24.81 29.75 40.28 40.20 40.49 41.87 43.27 44.28 47.09 48.98 49.78 51.39 52.22 53.41 54.43 55.11 53.34 52.56 51.51 49.40 46.96 46.19 45.28 45.40 45.54 45.00 44.45 44.49 44.35 44.83 44.08 43.50
44.06 36.98 33.44 30.31 33.13 37.16 35.66 37.97 38.46 36.91 28.88 30.35 29.61 33.33 38.21 39.61 39.84 40.93 41.99 42.91 42.88 47.56 49.40 49.24 50.10 51.18 51.86 51.39 49.73 47.88 46.31 47.99 47.62 47.23 46.97 46.47 45.44 45.45 44.40 44.55 43.80 43.02 42.73 41.40
41.48 35.22 35.82 36.25 36.95 37.62 37.13 36.97 36.17 35.18 34.77 31.74 34.35 33.25 37.98 39.42 39.20 39.86 40.17 40.93 41.89 43.85 48.10 48.08 47.68 48.89 49.39 48.51 46.41 45.90 45.89 46.59 47.37 47.15 46.36 46.33 46.77 45.88 44.34 42.10 41.91 41.93 41.46 40.62
40.07 34.97 34.45 33.55 35.39 36.55 35.08 37.85 37.05 36.75 35.84 35.14 35.11 34.51 39.24 37.98 38.52 39.27 39.89 41.79 43.76 44.43 45.69 47.39 46.23 48.09 47.98 46.81 46.48 46.29 46.36 45.92 46.29 45.96 44.77 44.90 44.44 42.37 41.69 41.32 40.77 40.00 39.13 38.95
37.95 35.01 31.68 30.30 32.54 33.29 29.25 34.29 37.06 37.47 37.25 37.34 32.44 37.08 38.30 37.29 38.67 37.77 39.98 41.97 43.24 43.70 44.83 45.60 45.87 45.82 45.07 44.56 45.61 44.68 43.52 43.22 42.88 42.86 42.49 42.26 41.66 40.39 39.58 39.39 39.77 40.15 40.12 39.74
36.05 34.01 30.29 27.10 27.46 21.28 35.35 38.04 38.51 37.29 36.82 36.61 35.91 36.33 37.35 37.97 38.76 38.56 38.15 40.27 39.41 39.11 39.16 40.07 40.09 38.90 38.41 39.05 39.06 39.50 40.49 40.27 40.42 39.97 39.51 39.30 39.34 39.97 41.14 40.94 40.57 40.19 38.64 36.22
40.16 33.62 29.61 27.23 26.95 30.96 34.57 36.40 36.12 35.25 34.52 37.68 36.24 37.27 38.74 39.93 39.20 37.81 36.34 35.87 34.99 34.52 34.41 34.52 35.53 36.07 36.56 36.77 37.73 37.90 37.92 38.84 39.12 39.77 40.34 40.98 40.92 40.35 40.20 40.22 39.02 35.77 33.42 32.45
38.40 36.15 32.15 26.18 24.62 22.78 33.51 38.28 39.19 38.15 29.98 38.47 38.70 38.59 38.83 38.49 32.07 35.15 34.99 34.56 33.48 33.82 33.82 33.44 33.82 34.27 34.27 34.38 37.00 37.25 37.65 38.37 38.59 40.38 40.51 40.64 40.69 40.90 38.08 35.45 34.13 32.66 31.01 30.69
30.95 29.73 28.25 22.81 23.85 30.06 37.94 38.86 39.51 29.84 32.44 38.09 40.02 40.41 38.94 36.63 35.31 34.40 33.50 32.49 32.99 33.08 33.21 33.97 34.03 33.23 33.01 34.60 36.14 35.88 37.42 37.61 39.53 39.83 39.66 38.54 36.77 35.03 33.80 31.79 30.92 30.54 29.71 28.95
34.97 31.87 27.83 25.72 23.26 27.52 39.84 38.44 34.66 37.17 37.73 39.39 39.48 39.86 38.40 34.67 33.85 33.04 32.43 31.92 32.37 32.04 32.71 33.97 33.77 33.66 34.25 34.42 35.39 33.85 35.47 36.76 36.14 35.14 34.19 33.42 32.80 32.29 31.82 29.93 29.59 29.42 28.35 27.55
33.96 37.08 34.08 35.06 34.17 39.54 39.97 38.72 39.42 39.95 39.85 40.58 41.01 40.57 37.29 34.55 33.17 32.75 31.52 31.70 31.59 32.12 32.73 34.21 33.96 33.75 34.01 33.97 34.14 34.03 33.62 34.04 33.28 31.99 31.11 30.22 30.57 29.93 29.36 28.82 28.55 27.76 27.49 26.06
38.91 40.18 35.78 36.46 38.44 39.88 40.87 40.95 40.86 40.99 40.53 41.55 41.57 38.47 37.46 34.09 33.42 32.18 32.06 31.86 31.58 32.76 33.02 33.75 33.59 31.33 30.18 32.21 32.69 32.03 31.91 31.35 30.28 29.46 29.41 29.20 28.34 28.82 28.46 28.45 28.65 27.37 25.30 25.54
39.55 40.64 37.32 36.50 39.39 40.72 41.39 39.55 39.17 38.71 39.33 38.78 37.79 37.13 35.79 34.32 32.88 32.47 31.68 32.25 32.88 33.09 33.23 32.34 30.56 30.25 30.81 31.31 30.38 30.65 30.28 29.53 28.71 27.83 27.80 27.22 27.30 26.97 26.95 27.16 26.99 27.49 27.24 26.95
40.68 39.23 36.71 37.00 41.83 41.06 39.51 38.39 38.66 38.16 37.04 37.06 36.07 34.56 34.63 34.31 32.75 33.06 32.73 33.02 32.97 30.93 31.59 31.08 30.66 30.71 29.42 27.85 26.59 27.24 28.42 27.09 25.76 25.59 25.75 25.17 24.77 24.14 23.99 23.74 24.05 27.71 28.12 29.55

GFSCGP_sfc_wetblb_063.txt.gz
Wetbulb
48.26 45.28 42.77 44.38 43.94 43.66 43.06 42.33 41.48 44.39 46.62 45.13 44.26 44.48 46.52 53.78 54.39 54.23 54.56 54.89 55.83 56.23 58.45 58.93 59.49 59.95 60.30 61.60 61.67 62.26 62.02 62.04 60.78 59.69 59.02 58.84 59.83 59.86 59.42 59.98 58.85 57.71 56.69 55.80
45.48 43.06 46.14 45.54 45.08 44.93 44.13 42.65 42.48 44.56 45.95 45.04 44.49 44.22 46.01 51.29 53.59 55.30 55.18 55.55 56.27 57.29 57.43 57.97 59.24 60.18 59.55 59.91 61.04 61.34 61.49 60.61 60.89 61.10 60.67 60.55 60.18 58.95 58.60 58.06 57.70 57.01 55.89 54.24
42.61 44.70 46.46 45.73 44.91 43.42 43.47 42.01 41.39 41.81 43.71 43.87 42.47 41.65 43.94 46.84 51.76 54.14 56.21 56.90 56.92 56.97 57.28 57.56 57.68 58.99 59.59 59.21 60.19 60.66 61.19 60.83 61.25 61.48 60.07 57.53 56.92 56.35 55.58 55.90 55.56 54.68 53.75 52.51
43.47 45.33 44.37 43.99 43.48 44.48 40.34 44.74 43.95 42.86 41.50 38.07 41.67 35.47 40.61 44.28 46.28 49.78 52.99 55.60 56.49 56.94 57.89 58.73 58.42 58.62 59.47 59.53 60.77 60.90 61.03 60.68 60.75 60.56 59.85 58.40 58.69 56.79 56.64 55.95 54.15 52.95 52.77 52.26
42.77 43.60 43.38 42.44 43.73 45.27 43.19 45.05 43.99 43.44 41.91 40.16 39.15 38.30 42.02 42.91 43.00 46.81 50.23 53.51 56.23 57.45 58.04 58.51 58.82 59.49 59.91 60.01 60.22 61.03 60.83 60.40 60.28 59.79 59.99 59.15 58.27 57.79 56.02 54.94 53.12 52.92 52.81 53.06
43.50 47.18 45.90 45.82 45.63 45.77 45.97 44.58 42.06 41.35 40.46 36.46 38.70 38.98 40.79 42.26 44.04 46.53 49.39 51.74 54.23 57.02 57.21 58.58 59.82 59.77 58.96 59.53 60.11 60.35 60.13 59.75 59.66 59.47 59.14 58.61 57.37 55.37 53.82 54.22 52.88 52.74 52.91 51.98
42.43 43.79 46.50 47.36 44.57 45.72 44.52 41.03 35.37 33.57 34.37 34.20 39.52 37.31 41.61 45.05 46.56 47.14 48.19 50.65 52.52 55.37 56.72 56.47 56.73 57.00 57.25 57.87 59.15 59.94 59.62 59.24 59.05 58.40 58.57 57.99 57.50 55.86 54.85 54.79 52.69 51.98 51.19 50.02
37.69 35.93 43.49 46.35 45.22 43.35 42.59 41.53 36.79 29.12 30.52 34.19 37.94 36.41 42.45 46.61 48.37 49.16 49.68 49.40 51.08 52.03 54.53 55.37 55.93 56.77 56.86 57.42 58.55 58.78 58.96 59.17 59.01 57.99 58.14 57.80 57.01 56.71 55.59 52.81 53.33 52.73 51.07 49.07
36.66 37.06 44.65 46.20 46.79 46.31 42.06 39.57 42.21 35.57 34.11 33.32 36.57 40.26 43.99 45.63 46.43 48.70 49.59 49.31 49.54 50.27 51.68 53.26 54.61 56.05 56.77 57.47 58.36 58.92 59.26 59.16 59.51 58.71 58.55 58.31 58.28 57.07 54.68 53.40 54.82 53.26 51.25 48.60
42.19 36.76 43.08 45.50 47.56 45.91 44.34 44.83 38.41 37.49 30.49 28.78 33.49 34.65 38.47 43.58 44.52 46.62 47.86 49.28 50.20 50.75 49.87 50.97 53.06 55.30 57.00 58.16 59.03 59.60 59.92 59.59 59.53 59.53 59.22 58.93 58.36 57.09 55.07 53.54 52.94 51.27 48.62 47.96
42.52 40.67 39.06 44.12 42.77 42.11 41.97 40.95 39.30 39.93 36.67 32.50 30.20 35.29 43.51 44.72 45.31 47.07 48.40 49.44 50.75 51.89 52.41 52.66 54.18 56.39 57.65 58.75 59.07 59.46 59.76 59.85 59.54 59.81 59.07 58.27 58.53 56.19 53.76 52.02 51.08 49.04 48.22 46.34
44.53 40.74 35.69 39.97 43.98 45.02 44.03 42.62 41.52 37.39 34.41 34.51 33.59 35.38 45.48 45.87 45.15 45.54 48.40 49.23 51.73 52.47 54.41 54.84 55.62 57.13 57.85 58.55 59.14 59.48 59.58 59.47 59.79 59.35 57.95 56.79 54.07 51.40 50.00 48.39 47.71 47.85 46.30 45.67
43.60 38.55 34.24 36.08 40.31 43.81 42.35 42.13 41.03 39.10 37.39 34.42 34.31 37.04 44.50 44.89 46.24 46.41 46.63 48.74 49.71 52.03 53.71 54.75 55.83 56.63 57.66 58.47 58.93 58.51 57.67 57.77 56.38 53.88 51.91 50.15 48.95 48.27 47.74 47.05 47.35 47.87 45.50 44.96
45.59 39.67 37.92 34.35 37.71 40.94 39.19 40.74 40.76 41.27 35.63 36.82 36.17 40.13 43.86 45.66 44.79 47.01 47.04 47.45 48.06 49.35 52.80 54.75 55.14 56.07 56.64 57.18 57.05 57.06 55.06 53.35 50.70 50.07 49.87 49.12 48.29 47.70 46.96 46.40 45.50 45.51 45.71 42.90
45.56 38.91 38.70 39.10 39.23 40.49 40.83 40.81 39.86 39.27 40.88 37.76 40.38 38.06 42.99 44.79 45.83 45.64 44.63 45.06 46.16 47.86 48.56 52.07 53.06 54.61 55.13 53.87 52.15 51.46 51.40 51.02 50.51 49.38 48.38 47.78 47.78 47.62 45.71 44.62 43.98 44.97 43.76 43.64
43.14 39.16 38.66 37.49 39.03 39.04 38.58 40.16 39.84 40.26 39.94 39.42 39.26 38.64 44.47 44.99 44.01 43.83 43.74 45.96 47.60 48.03 49.01 50.20 50.74 52.14 51.65 50.41 49.79 49.04 49.43 49.81 50.34 49.20 46.94 46.36 45.54 44.80 43.06 43.68 42.60 42.00 41.71 40.63
40.67 38.45 36.28 34.34 36.41 37.43 33.30 38.26 39.56 40.35 41.33 41.70 37.85 42.86 42.91 42.36 42.68 43.15 44.30 46.55 45.95 45.43 46.65 46.91 47.62 48.67 48.91 48.72 48.74 47.97 47.59 48.21 47.66 46.83 45.58 44.25 42.92 41.52 41.07 40.04 40.72 41.16 42.34 42.00
39.21 38.23 35.49 33.17 32.21 28.83 40.55 41.62 42.50 41.43 41.91 42.01 40.65 41.49 42.68 42.93 42.15 41.56 42.08 45.22 43.35 43.15 43.52 43.57 43.93 43.99 44.57 45.26 45.38 45.63 45.57 44.99 43.43 41.52 40.40 40.11 40.34 41.25 41.98 42.25 42.36 42.15 42.01 42.03
42.34 37.24 33.17 32.96 32.43 35.46 38.19 39.75 40.30 39.85 40.81 42.87 42.19 41.98 41.79 42.43 42.89 40.35 38.68 39.80 39.99 39.61 39.72 40.11 41.49 41.62 42.46 43.22 43.92 43.25 42.42 41.23 40.63 40.56 41.17 41.72 41.67 42.03 42.24 41.59 41.68 41.48 40.14 39.49
38.94 39.09 37.87 30.99 30.70 29.27 38.54 41.65 42.63 43.33 36.28 43.33 42.64 41.94 42.03 42.13 40.91 42.83 38.30 37.90 37.43 38.20 38.96 38.87 39.62 40.50 40.56 41.23 42.68 42.02 40.84 40.90 40.82 40.96 41.21 42.51 42.08 41.83 40.91 39.74 39.00 39.34 38.78 37.41
34.78 34.20 33.55 30.17 33.51 35.59 40.57 41.84 43.10 36.12 39.45 42.83 43.44 43.59 43.54 41.71 42.23 40.14 37.17 36.24 37.40 37.49 37.31 38.40 38.98 38.39 38.95 41.28 41.97 40.72 40.88 40.00 41.64 42.01 39.13 37.92 38.96 37.91 37.52 37.43 37.25 36.72 36.51 36.06
36.60 34.65 33.14 31.42 31.94 32.11 42.31 40.26 39.07 44.05 42.44 43.44 43.60 43.90 43.36 37.86 36.17 36.14 35.84 35.55 35.95 36.23 36.87 37.80 37.29 37.37 38.93 40.48 40.03 38.36 37.20 38.09 36.99 37.05 36.55 36.11 36.06 35.46 35.62 35.90 36.05 35.72 35.25 34.32
36.23 39.72 37.29 37.79 39.35 44.33 42.96 45.24 44.18 43.49 44.80 43.62 44.34 43.88 40.30 36.97 35.66 35.15 34.41 34.93 35.49 36.17 36.62 37.31 36.64 35.69 36.10 37.18 37.97 35.62 35.41 36.16 35.98 35.33 34.32 34.00 33.54 32.88 32.84 32.49 32.09 31.58 31.53 30.53
39.97 42.31 39.40 40.26 42.41 42.38 43.69 44.53 44.42 44.55 44.42 44.69 45.33 42.84 40.76 37.69 35.72 34.58 34.57 34.88 35.44 35.98 35.76 35.63 34.86 33.87 33.00 34.32 34.07 34.18 34.58 34.62 33.57 32.07 31.34 31.18 30.44 29.81 30.24 30.39 30.02 29.41 29.09 28.63
41.62 42.43 39.94 39.92 41.87 42.49 43.89 44.23 44.15 42.75 42.69 41.87 41.95 41.30 39.78 37.25 35.43 35.09 34.21 35.04 35.19 35.14 34.32 34.61 33.45 32.22 31.36 31.66 30.39 30.57 30.95 31.72 30.31 29.63 28.72 28.27 28.12 27.62 27.39 27.83 27.90 27.76 28.84 28.44
42.92 41.40 39.36 39.38 44.42 44.61 45.83 46.03 43.06 41.65 41.27 41.02 38.84 37.33 38.05 37.44 35.27 35.09 34.91 35.56 34.66 33.24 33.67 33.24 32.24 29.53 28.03 28.18 27.81 28.12 29.19 29.29 28.54 26.92 26.57 25.48 25.83 25.73 26.07 25.82 25.94 26.64 26.96 27.41

GFSCGP_sfc_wetblb_066.txt.gz
Wetbulb
52.57 48.75 46.30 47.12 48.54 48.08 46.91 45.13 44.24 47.07 49.72 48.59 48.23 48.64 49.77 54.26 56.46 55.86 57.86 57.42 57.40 58.19 60.42 61.58 61.82 63.72 62.46 63.06 63.40 63.80 64.03 65.39 65.59 64.95 62.79 61.87 62.01 64.08 65.15 65.20 65.63 64.58 63.80 62.67
49.46 46.48 49.92 49.96 49.27 47.87 47.00 45.11 45.12 47.50 49.09 48.79 48.41 47.46 49.48 51.91 55.23 56.99 57.37 58.03 58.04 59.23 59.80 59.83 61.14 62.46 63.12 63.33 63.89 64.11 64.68 65.85 65.91 64.88 63.49 62.53 62.78 63.64 65.00 64.55 64.43 63.84 62.44 61.60
46.81 48.09 50.17 49.07 48.22 46.58 47.08 45.48 45.11 44.84 48.22 49.36 47.44 46.17 47.84 50.93 55.07 57.48 58.49 59.02 59.69 60.13 60.02 60.49 60.35 61.59 62.52 62.49 63.44 64.09 65.29 65.61 65.80 65.06 63.65 63.31 64.46 64.34 63.38 62.45 62.55 62.65 60.49 60.98
48.08 50.68 47.99 47.66 46.39 47.94 44.21 48.27 47.31 46.01 45.22 42.39 46.57 40.38 45.29 48.85 50.57 53.71 56.69 58.84 59.40 60.04 61.07 61.30 61.35 61.33 62.43 62.53 63.45 64.68 65.37 65.46 65.46 65.19 63.56 62.16 61.56 61.20 62.79 62.72 62.85 59.59 59.63 58.22
46.26 47.17 46.71 46.05 47.02 48.94 45.67 48.44 47.23 47.16 46.02 45.04 44.68 42.44 45.72 48.23 47.79 50.44 54.01 57.10 59.56 60.46 61.09 60.95 61.56 62.20 62.91 63.39 63.77 63.80 64.48 65.14 65.61 65.58 64.93 63.42 62.60 63.56 64.13 62.80 61.69 59.86 58.07 56.89
48.39 50.72 49.79 48.62 49.13 49.74 50.01 47.91 47.10 47.32 45.93 39.60 43.05 42.58 44.66 46.42 47.59 50.00 52.44 54.42 57.45 60.27 61.40 62.06 62.52 62.97 63.13 64.75 64.58 64.50 63.84 64.07 65.14 65.29 65.05 64.46 63.85 63.39 61.50 60.89 59.44 56.56 56.53 54.66
46.38 46.99 49.82 50.21 47.57 49.19 48.80 46.30 40.00 38.01 38.33 37.86 44.02 41.79 44.16 48.12 50.32 51.28 52.44 54.55 56.21 58.18 61.36 61.92 62.13 62.77 62.78 63.57 64.18 64.42 64.15 63.34 64.71 64.58 64.32 64.22 64.21 63.76 61.49 60.38 58.69 57.13 55.37 54.98
41.40 39.58 46.91 50.08 48.38 46.32 47.16 46.40 40.94 32.23 34.12 38.07 42.49 38.81 44.75 50.03 51.81 53.02 54.07 55.54 55.30 56.95 58.76 61.14 62.59 63.22 63.48 63.08 63.66 63.79 63.58 63.32 63.73 62.86 63.81 63.65 62.30 61.53 60.87 60.11 59.08 55.83 53.95 56.36
41.86 41.50 47.81 49.26 49.95 49.68 46.16 43.37 47.25 40.98 40.48 39.45 41.72 44.07 48.38 49.38 49.85 51.59 51.40 53.59 55.07 55.22 57.66 59.35 61.52 62.87 63.34 63.44 63.12 63.76 63.61 63.74 64.10 62.56 63.36 61.94 61.51 59.46 59.26 60.17 58.13 54.55 55.01 56.31
45.94 40.74 46.50 48.69 50.32 49.35 48.22 49.48 41.73 43.67 33.60 32.34 39.20 39.96 42.32 45.49 47.09 49.18 50.24 51.98 54.58 56.65 55.87 57.11 58.65 60.99 61.97 63.08 63.74 64.08 64.04 63.25 63.77 63.69 62.04 62.16 61.41 61.57 60.57 59.65 57.04 54.87 56.45 56.79
47.86 45.26 43.69 47.57 45.97 45.54 45.84 44.88 45.41 45.10 42.60 36.19 34.76 39.79 48.09 47.17 48.64 49.69 51.12 52.56 54.11 56.03 57.35 57.42 57.78 58.72 60.15 61.88 62.55 62.85 63.03 62.97 63.03 63.47 62.94 61.43 60.59 60.31 60.15 58.52 56.39 55.38 55.03 54.57
48.58 45.74 41.13 43.18 48.30 49.53 48.98 46.96 46.93 40.60 38.86 41.36 40.44 40.00 49.80 50.44 51.15 50.96 51.92 53.66 54.68 56.38 57.38 58.97 59.13 59.56 60.00 60.39 61.40 61.80 62.35 62.43 62.93 63.36 62.46 59.66 59.37 58.60 54.88 53.20 51.79 52.06 49.79 48.49
48.20 43.94 38.83 40.27 43.97 47.26 45.43 47.01 47.29 46.28 44.40 40.42 38.22 40.57 49.43 50.40 50.92 52.24 51.99 52.86 54.18 55.59 57.47 59.22 59.78 60.00 60.67 61.30 61.56 61.85 62.35 62.31 62.41 60.85 58.35 53.70 52.03 51.04 49.61 48.73 47.99 46.93 46.05 45.54
48.75 45.73 42.28 38.12 41.11 44.57 42.65 44.68 46.29 45.35 41.01 40.70 41.27 43.15 47.03 49.34 50.05 51.55 52.50 52.97 53.25 54.16 55.72 58.43 59.74 60.54 61.08 61.51 61.66 60.59 58.42 57.69 55.75 54.39 51.84 50.03 49.36 48.81 48.04 47.61 47.46 46.11 46.94 45.07
49.01 42.77 44.50 44.45 44.79 44.72 44.01 43.44 44.34 43.36 43.96 40.77 43.57 43.89 46.71 49.38 50.83 52.11 51.80 50.82 50.91 51.99 52.61 55.73 58.72 60.07 60.73 60.53 60.12 59.97 56.39 52.98 52.32 50.78 50.14 49.47 49.08 48.44 47.13 46.71 45.40 45.68 44.29 44.25
48.79 43.02 44.77 42.14 44.59 44.05 42.24 44.24 44.79 45.21 45.35 45.42 45.69 44.82 50.05 51.40 51.08 50.34 50.12 49.84 51.46 52.49 53.76 54.70 56.73 58.28 57.46 56.91 56.77 55.97 54.95 52.47 51.94 49.91 48.29 47.92 47.17 47.25 47.34 44.64 43.95 44.57 43.72 42.55
46.30 44.65 42.37 38.73 42.63 42.27 37.32 42.31 44.55 45.74 47.03 46.53 43.19 47.12 50.40 49.82 49.77 50.18 49.93 50.65 50.98 51.67 52.70 53.71 54.90 55.36 54.99 54.72 55.09 53.96 53.23 52.97 50.98 48.77 48.01 47.69 47.99 45.54 43.96 42.57 40.95 41.27 41.69 42.29
45.24 44.63 44.11 39.50 37.54 33.03 43.66 46.98 48.31 46.66 47.56 48.92 48.31 49.01 49.88 49.88 50.28 49.51 49.72 51.83 50.65 50.71 50.48 50.98 52.01 52.28 52.90 53.36 52.81 52.54 52.29 51.25 50.07 48.68 47.85 47.19 45.00 42.86 42.56 42.77 42.52 43.27 44.34 43.97
48.38 45.50 40.49 38.35 37.41 41.58 43.34 42.64 45.06 44.83 45.40 49.95 48.69 49.71 49.76 48.89 48.17 47.26 47.73 50.61 50.24 49.61 49.57 50.12 50.98 51.14 51.68 51.24 51.13 50.11 48.35 46.76 45.56 44.66 43.49 43.18 43.17 42.37 42.87 42.61 42.85 43.70 45.19 44.75
44.67 45.11 43.66 38.10 36.03 34.30 43.36 47.46 49.68 48.80 41.18 49.96 49.74 49.20 48.91 47.66 44.61 48.88 46.70 46.63 46.45 47.41 47.95 48.18 49.05 49.70 49.42 49.46 49.19 47.31 45.81 44.78 43.50 43.48 43.05 44.19 45.27 44.18 43.04 43.68 42.88 43.44 43.52 41.57
39.50 39.92 39.46 38.98 38.78 42.04 47.13 46.18 48.55 39.64 43.55 50.82 50.67 50.37 49.31 47.53 49.41 48.72 46.29 45.39 46.22 46.13 46.23 47.34 47.77 47.48 47.85 48.43 47.84 46.31 45.83 44.64 45.29 44.80 42.94 42.26 42.14 41.90 41.77 41.18 41.40 42.00 41.70 40.59
39.64 39.22 38.51 38.92 37.81 35.91 46.07 44.51 43.69 50.08 51.02 51.60 50.97 51.28 50.21 48.97 45.62 44.78 44.45 43.55 43.92 43.94 44.36 45.23 45.15 45.62 46.82 47.47 46.61 44.92 43.44 43.81 42.78 40.92 39.83 40.19 40.14 39.45 40.01 40.30 40.62 40.01 38.65 36.62
37.92 43.88 43.36 42.69 44.06 49.03 48.87 50.54 51.73 51.43 51.87 50.20 51.41 51.25 51.32 45.49 43.98 43.86 43.21 43.26 43.59 43.83 44.08 44.36 43.78 43.10 43.85 44.47 44.17 41.69 41.14 41.60 40.70 39.94 38.98 38.37 37.64 37.23 36.65 36.55 35.72 35.73 35.07 34.01
43.86 45.62 43.95 43.14 48.22 47.99 49.54 50.89 49.77 50.56 50.36 50.28 50.87 50.80 48.83 45.82 44.22 43.50 43.14 42.83 42.74 42.92 42.39 42.39 41.54 40.15 39.72 41.00 40.80 40.32 39.77 39.84 38.85 37.12 36.07 35.71 33.51 34.25 33.87 34.74 34.18 33.99 33.11 32.06
46.47 45.38 44.94 45.43 48.66 46.95 48.10 50.62 51.78 50.06 49.79 49.01 49.81 50.03 48.07 46.15 43.81 43.37 42.65 42.32 42.21 41.21 41.40 41.70 40.03 38.29 37.10 37.07 36.39 37.18 37.37 37.29 34.87 33.78 32.86 32.54 32.24 31.93 32.74 32.40 32.10 31.28 31.93 29.48
47.07 46.02 43.14 43.66 50.35 48.96 51.24 50.66 52.76 50.37 48.75 48.69 47.75 47.04 47.31 45.64 43.65 43.48 42.38 42.02 40.89 39.92 40.40 38.68 37.80 36.10 34.71 33.36 32.48 33.48 34.23 34.53 33.32 31.64 31.14 29.71 31.20 31.42 31.48 31.63 31.41 26.84 26.69 25.78

GFSCGP_sfc_wetblb_072.txt.gz
Wetbulb
51.48 46.83 43.92 47.20 49.63 49.38 47.82 45.90 44.83 47.12 50.64 49.11 47.75 48.21 50.14 53.13 54.30 54.83 55.78 56.09 56.17 56.66 58.93 59.27 59.22 59.35 58.25 57.93 57.36 56.73 57.14 57.89 59.83 60.02 59.32 59.43 59.12 59.82 60.32 61.71 63.34 63.93 63.90 64.08
48.40 44.64 48.81 50.76 50.91 48.01 46.85 45.02 44.86 48.48 50.71 48.52 47.52 47.46 50.41 52.08 53.56 54.79 55.67 55.81 56.46 56.66 57.70 58.68 58.09 58.23 57.83 57.49 57.22 57.16 58.12 61.38 62.11 61.99 61.52 60.55 59.92 60.11 60.58 62.39 63.50 64.08 63.90 63.83
46.13 48.17 51.41 49.81 48.81 46.56 46.54 45.52 45.91 46.07 48.91 50.21 48.07 45.76 47.25 51.41 53.86 55.12 57.01 57.30 57.65 57.17 56.87 57.76 58.15 57.10 57.75 57.72 58.24 59.55 61.13 62.34 62.70 62.85 62.28 60.89 60.31 60.01 59.56 62.57 62.94 63.34 63.90 63.53
47.68 50.51 49.77 48.85 47.26 48.28 44.33 49.40 48.64 46.74 45.24 41.07 48.14 38.94 46.22 48.75 50.27 53.28 55.35 56.62 55.24 56.60 57.73 58.42 58.43 58.51 57.66 57.71 59.88 61.28 62.13 62.98 63.39 63.24 61.56 59.67 58.36 57.24 58.94 61.88 62.89 62.74 63.02 63.01
45.94 47.51 47.31 47.00 47.35 49.42 46.44 50.00 48.57 47.64 45.34 44.87 44.45 41.59 44.91 48.87 47.47 51.02 53.87 56.27 56.94 57.79 57.52 58.12 58.80 59.86 59.76 60.66 61.27 62.22 62.69 62.67 62.24 63.09 62.65 60.83 59.33 59.11 59.80 61.03 61.95 61.75 62.03 62.17
47.86 51.41 49.53 48.50 50.38 50.01 50.41 48.40 48.08 47.40 45.73 39.23 44.28 43.11 42.87 45.21 47.67 50.11 53.70 55.68 57.41 58.33 58.51 59.43 59.97 60.38 61.09 61.62 62.33 63.16 63.11 62.77 63.06 63.52 62.52 62.46 59.94 60.42 60.14 61.56 60.97 61.04 60.95 60.39
46.12 46.71 49.61 50.69 47.24 49.95 48.69 45.66 38.92 37.73 37.98 37.81 45.09 43.43 44.69 48.63 51.02 50.79 51.98 54.89 57.04 58.37 59.06 59.13 59.58 59.21 59.90 60.95 61.96 62.93 62.96 62.11 63.17 63.78 62.98 63.03 62.95 61.12 60.79 61.52 60.80 60.51 59.28 58.36
41.00 39.35 46.41 49.93 48.05 46.25 46.65 45.79 40.51 31.97 35.25 38.96 44.24 39.73 42.88 50.42 51.52 52.22 52.99 54.56 56.88 57.39 59.26 58.96 59.39 60.80 60.56 60.88 62.10 62.33 62.50 62.12 62.95 63.55 63.69 64.02 63.52 63.17 62.31 62.45 61.63 60.82 59.65 58.10
41.73 41.43 48.31 49.79 50.02 49.19 46.69 43.26 48.49 43.20 43.75 39.95 42.15 45.42 48.65 50.02 49.48 50.40 51.24 53.36 55.29 56.83 57.82 59.18 60.49 60.25 61.23 61.48 62.04 62.60 62.56 62.47 62.79 63.48 63.82 64.00 64.17 63.86 63.04 62.79 62.36 60.74 60.06 58.93
46.41 41.51 47.36 48.72 50.18 49.72 47.76 50.17 42.48 44.04 35.23 33.20 39.28 41.11 41.28 46.34 47.84 49.76 50.18 52.11 54.44 57.42 57.93 58.46 59.59 61.49 61.33 62.02 62.87 63.24 63.34 63.29 63.23 63.41 63.65 64.02 64.29 64.28 63.91 62.95 60.61 59.51 59.61 57.59
48.04 46.14 45.03 47.61 45.45 44.48 45.35 44.39 46.73 45.80 42.91 36.02 34.98 39.57 48.88 48.30 49.02 49.59 51.14 52.56 54.39 56.08 57.30 58.16 59.31 60.57 62.61 62.62 61.52 63.45 63.99 63.80 63.62 63.78 63.83 63.74 63.75 62.01 60.74 59.81 59.70 58.59 57.84 55.78
48.56 46.30 41.56 43.67 48.42 49.32 48.00 46.08 46.70 41.15 39.54 43.17 40.34 40.99 51.88 51.56 52.41 52.48 52.64 53.20 54.56 55.58 56.78 58.23 58.92 59.58 60.28 62.71 63.41 62.77 63.54 63.83 63.88 63.53 63.68 63.36 62.34 60.50 59.14 58.08 56.00 54.66 53.43 50.69
48.25 44.10 39.03 41.16 45.24 48.27 45.11 46.57 47.52 47.32 46.05 41.33 37.79 40.46 51.66 51.31 51.07 52.22 53.25 53.04 53.58 55.25 55.36 57.34 58.87 58.77 59.15 60.46 61.00 63.03 63.92 63.76 64.16 61.91 60.84 59.27 56.98 53.78 51.53 49.67 49.45 49.28 48.88 46.91
48.18 46.23 42.90 38.58 42.12 45.55 43.10 45.03 46.69 46.67 40.93 42.06 42.43 44.05 48.07 49.17 49.81 51.25 52.53 52.87 53.33 55.01 54.51 55.97 57.77 59.05 59.91 60.68 61.09 61.66 61.59 60.48 59.45 58.20 55.74 53.07 51.30 50.37 49.10 48.40 48.67 47.91 47.35 46.28
47.60 43.01 45.12 45.03 45.41 45.61 44.74 44.52 45.07 43.86 44.94 41.94 44.87 44.31 47.02 49.16 50.24 51.72 52.99 54.09 53.17 53.43 53.89 54.66 55.88 59.00 60.26 60.87 59.44 58.42 57.64 56.44 55.41 52.97 50.92 49.21 49.08 47.82 47.68 48.18 47.86 46.91 46.24 46.16
47.02 41.13 44.31 42.63 45.21 45.43 43.25 45.63 45.73 45.12 44.98 44.72 45.37 44.78 49.67 50.32 50.98 51.57 51.58 51.89 52.58 53.61 55.13 55.35 56.34 59.82 60.48 58.93 56.02 54.18 52.84 52.25 51.84 49.66 48.47 48.47 47.32 47.48 46.67 46.28 45.49 45.23 44.94 44.15
44.84 42.91 41.03 37.49 44.09 43.11 37.46 43.47 44.72 45.09 46.40 45.81 42.33 46.98 49.88 49.79 50.05 51.35 52.61 52.37 52.43 53.98 55.39 55.93 57.17 60.22 59.44 56.06 54.46 52.03 50.71 50.51 49.11 48.07 47.73 47.77 47.26 46.23 46.01 45.47 44.98 44.13 43.35 43.43
44.04 43.33 41.64 37.83 38.26 31.69 43.57 48.80 47.78 46.10 46.40 47.71 47.63 48.51 49.73 49.98 51.33 52.99 53.91 54.41 53.75 54.95 55.46 56.72 58.81 58.77 56.61 54.96 53.32 51.65 50.12 49.19 48.75 48.19 47.98 47.49 46.07 44.68 44.01 43.29 42.34 42.02 42.09 42.30
46.66 44.63 37.75 35.94 36.40 41.27 43.84 46.43 46.24 44.95 44.56 49.15 47.96 49.18 50.30 51.15 52.83 52.09 53.64 54.28 55.13 55.31 55.83 56.69 57.62 57.42 55.73 53.77 52.82 51.15 50.00 49.31 48.84 47.11 46.42 45.73 44.72 43.16 42.71 41.86 42.02 42.82 43.75 44.62
44.96 45.92 40.76 38.60 34.34 31.61 43.26 48.25 50.95 49.86 39.97 49.64 49.92 50.23 50.55 51.54 45.94 49.73 52.44 54.22 54.73 55.03 55.41 55.55 55.98 55.66 55.01 54.57 53.52 51.54 49.94 48.80 47.28 46.65 46.00 45.80 44.97 43.73 43.07 43.54 44.26 44.53 44.70 43.99
38.31 39.75 37.47 36.69 35.14 41.03 47.85 48.94 50.24 38.99 41.52 50.51 51.63 51.61 52.19 49.99 52.00 52.32 53.71 53.84 54.15 53.79 53.85 54.61 54.00 52.68 52.54 52.77 52.08 50.12 48.57 46.62 47.14 46.78 45.53 44.69 45.05 45.44 45.69 44.99 43.26 41.34 39.82 39.64
38.82 37.29 37.14 38.53 35.53 34.12 50.25 48.84 42.81 47.30 52.46 53.20 53.56 53.84 53.53 52.18 51.70 51.76 52.18 51.73 51.67 51.62 52.24 52.87 51.54 50.78 50.86 51.14 50.21 48.02 46.53 46.95 46.77 46.18 45.22 44.80 44.22 42.86 42.04 40.41 39.65 39.26 38.14 34.65
33.62 40.96 40.98 42.03 42.33 51.35 52.37 50.48 51.85 52.69 52.98 53.89 54.75 54.77 54.69 51.76 51.43 51.21 50.53 50.75 50.89 51.03 50.82 51.85 50.69 49.66 50.13 50.11 49.55 47.02 46.29 46.58 45.28 43.86 42.25 41.04 40.86 40.66 40.37 38.30 36.15 35.01 34.50 31.67
44.16 46.74 40.74 41.07 46.26 48.63 51.16 52.96 54.08 53.12 53.11 54.35 55.34 54.58 54.55 52.14 51.29 50.38 50.30 49.63 49.43 49.79 49.58 49.87 49.16 48.18 47.87 48.95 48.38 46.01 44.87 44.26 43.27 40.99 39.63 38.57 36.63 35.87 35.54 35.57 34.89 33.82 31.24 30.19
45.30 45.47 43.02 42.85 45.90 47.04 48.12 50.70 52.56 53.11 54.42 54.15 54.19 54.33 53.25 53.73 51.17 49.94 49.39 48.86 48.98 48.63 48.69 48.88 47.79 46.80 45.69 44.95 43.61 43.84 43.59 42.90 40.26 38.56 36.62 34.78 33.97 34.37 33.24 30.93 29.92 29.50 27.34 27.14
45.97 44.54 43.00 43.56 48.32 48.59 49.15 51.21 51.52 52.65 53.29 54.65 53.53 52.86 53.07 54.05 51.79 50.53 49.06 49.18 48.71 47.37 47.52 46.73 45.58 43.70 41.77 41.48 40.84 40.97 41.32 39.78 36.96 34.74 33.52 32.12 32.31 30.79 31.85 31.01 28.56 28.64 27.12 26.65

GFSCGP_sfc_wetblb_075.txt.gz
Wetbulb
47.46 41.42 39.75 41.02 44.04 45.53 44.90 44.24 40.67 43.29 47.11 45.63 44.17 44.19 46.25 48.78 49.63 49.65 50.12 51.11 52.35 52.74 55.13 55.61 55.16 55.22 55.08 54.90 55.08 54.17 53.27 53.75 55.04 54.49 54.41 55.39 56.31 57.34 57.91 58.79 60.15 61.21 62.58 62.25
44.61 40.78 45.67 47.60 46.81 46.19 45.98 41.71 40.56 43.97 48.64 46.21 42.43 42.18 45.59 47.72 49.51 50.80 51.67 51.81 52.51 53.68 54.57 54.89 54.53 54.35 54.27 54.47 54.84 54.54 54.27 54.60 55.50 55.65 56.24 56.76 57.15 57.94 58.07 58.61 60.93 61.69 61.72 61.83
42.10 45.13 48.85 47.10 45.44 44.93 43.60 41.92 41.60 42.59 46.08 45.09 42.93 40.47 43.41 47.93 50.58 52.58 53.40 53.99 54.35 53.45 53.89 54.52 54.55 53.83 54.43 54.30 54.03 54.24 54.64 55.58 56.27 57.62 58.47 58.29 56.27 56.34 55.61 56.22 59.06 60.94 62.03 61.89
43.32 48.05 47.24 46.13 45.06 46.24 40.86 46.88 46.57 45.29 41.17 35.16 43.44 33.13 42.14 46.55 47.84 50.82 52.96 52.98 53.37 54.45 54.93 54.95 55.05 54.30 54.16 54.47 55.12 54.83 55.49 56.14 57.39 59.68 59.36 58.11 56.28 55.05 56.61 57.82 59.98 60.87 61.69 62.03
41.97 44.53 44.98 44.27 45.99 47.61 43.91 48.47 46.72 45.43 41.11 38.69 39.81 38.15 39.88 45.64 45.52 47.89 52.18 52.77 53.82 54.34 54.84 53.87 54.48 54.89 54.04 54.81 54.71 55.29 55.93 56.99 60.51 60.65 60.27 58.91 56.14 56.30 55.83 59.22 60.39 60.88 61.25 61.44
43.88 47.97 46.67 46.26 48.51 48.23 48.95 46.05 44.66 43.50 40.15 32.71 40.28 39.92 37.54 40.73 45.22 48.14 51.57 53.49 54.22 54.27 55.58 55.93 55.65 55.86 54.46 55.44 56.14 56.84 57.31 58.95 60.90 60.73 60.55 59.18 55.96 55.91 55.32 56.96 59.47 60.04 60.39 61.13
42.91 43.52 46.93 48.68 44.36 47.15 45.60 41.11 32.83 30.75 29.93 30.32 42.97 40.11 40.69 45.54 47.61 48.16 50.81 53.71 53.53 54.76 55.15 55.69 55.81 55.70 55.41 55.36 55.77 56.60 58.08 58.94 60.53 60.97 61.13 59.07 57.62 56.69 56.18 57.53 59.57 59.22 58.21 57.83
36.12 34.89 44.11 47.40 45.29 43.30 42.22 41.41 34.02 29.03 28.89 35.01 42.99 37.68 39.82 48.16 48.98 48.85 49.65 53.60 54.95 54.96 55.31 55.91 56.54 56.90 56.90 56.90 57.39 58.24 59.04 59.16 60.09 60.38 60.39 59.81 58.94 58.48 58.40 58.52 59.67 59.63 59.18 58.98
36.61 37.48 46.26 47.28 47.92 46.76 43.30 39.30 44.83 39.52 39.18 34.83 37.46 41.45 46.82 47.87 46.29 48.16 46.92 48.59 51.79 55.21 55.61 55.68 57.18 57.63 57.82 58.51 57.94 58.56 60.21 60.18 60.46 59.53 60.62 59.57 60.24 59.32 58.57 57.93 59.50 59.31 58.27 57.50
43.03 38.01 45.47 46.25 47.32 47.10 44.88 47.19 37.94 39.06 30.54 29.42 35.51 36.14 37.58 43.52 46.42 46.45 45.37 47.16 49.46 51.56 53.10 56.20 57.35 57.77 58.00 58.88 59.68 59.84 60.51 60.77 60.86 60.63 60.79 61.23 60.61 60.70 60.31 59.87 58.81 58.13 58.52 57.25
44.62 41.35 41.29 45.63 42.76 42.24 42.29 41.25 42.68 42.52 38.71 29.67 27.58 33.16 43.86 45.02 46.15 45.40 45.98 48.49 49.19 50.69 51.48 52.20 53.35 57.67 58.97 58.89 58.89 59.87 60.10 60.45 60.52 60.86 60.29 60.87 61.39 61.37 60.94 59.22 58.09 57.21 56.25 55.46
43.91 42.50 36.99 39.98 46.09 48.04 45.93 42.33 42.67 35.82 35.74 36.77 32.64 33.47 47.41 46.92 47.04 47.17 46.94 48.65 48.84 51.65 51.96 52.57 53.16 54.07 57.56 57.87 59.21 59.77 60.35 61.11 61.01 61.13 60.07 60.73 60.64 59.53 58.65 58.70 58.09 56.45 54.15 53.03
44.23 39.94 33.64 36.75 41.82 45.53 42.50 43.62 44.47 43.45 40.83 36.07 29.95 34.79 49.43 48.57 46.21 47.57 46.79 48.15 48.83 49.61 51.24 52.27 53.30 53.72 54.11 56.50 58.71 60.01 60.94 60.03 58.19 60.98 60.37 58.51 56.29 55.07 55.05 53.74 52.92 52.12 50.70 50.22
46.40 41.55 37.84 32.96 37.91 43.25 40.02 42.88 43.79 41.85 33.95 35.86 36.44 39.92 44.57 46.66 46.05 46.70 46.54 47.79 48.36 49.21 50.78 52.37 52.62 53.36 54.44 57.06 57.81 57.32 56.53 56.89 55.89 54.61 53.86 53.16 52.62 51.39 49.98 49.22 50.27 49.49 48.58 46.90
44.69 37.66 40.16 41.77 43.44 44.75 43.07 42.35 42.11 40.51 41.72 38.93 40.37 41.46 44.72 45.22 45.40 47.01 48.74 49.12 49.87 50.11 49.72 49.68 52.45 53.01 56.47 55.61 54.45 53.32 52.48 51.81 51.80 50.84 49.67 48.43 49.15 48.70 48.14 47.69 47.09 46.66 46.14 45.82
43.96 37.36 40.36 38.46 42.89 43.08 41.59 42.88 42.79 42.66 43.20 42.17 41.95 42.61 47.67 47.21 46.25 47.22 48.24 49.65 49.59 50.01 51.79 51.76 53.67 57.11 56.25 54.49 52.36 51.22 50.15 50.25 50.05 49.09 48.36 48.14 47.92 46.73 46.17 45.97 45.94 46.25 44.92 44.29
42.15 39.39 37.68 33.68 40.75 40.60 33.19 39.21 42.72 43.10 44.75 43.10 38.78 42.41 45.56 44.73 46.18 45.59 47.36 47.74 48.51 50.76 51.57 52.65 56.99 56.81 54.64 52.40 51.05 49.52 49.65 49.21 48.40 47.70 47.67 47.51 46.64 46.25 45.94 45.55 44.75 43.73 42.94 43.11
40.66 40.74 37.96 32.64 34.73 29.11 40.14 45.03 44.75 43.32 45.03 44.73 44.47 44.51 45.00 45.62 45.63 47.42 48.33 48.57 50.53 51.56 51.84 54.95 54.98 53.39 51.76 50.21 49.13 48.97 48.85 48.68 47.78 47.22 46.91 46.81 45.68 44.88 44.60 44.09 43.27 42.74 42.90 42.25
43.36 41.04 34.33 32.33 32.62 37.44 41.46 43.68 42.48 41.69 40.81 46.14 44.25 45.11 45.90 47.23 47.34 45.60 49.60 49.43 49.94 50.85 51.94 53.51 53.38 51.91 50.55 49.52 49.16 48.53 47.99 48.04 47.70 46.50 45.51 45.20 44.39 43.34 42.65 41.86 41.72 40.56 40.35 40.90
43.54 42.27 36.06 33.46 29.42 27.18 38.99 45.58 47.29 46.48 35.17 46.29 46.31 45.78 46.06 46.34 39.20 42.70 47.84 50.95 50.73 51.51 52.35 52.75 52.52 51.37 50.14 49.44 49.15 48.03 48.11 47.19 45.80 45.26 44.83 44.44 43.70 42.95 41.66 41.21 40.41 41.52 42.93 43.17
32.73 34.78 33.10 29.56 31.00 35.20 45.05 47.29 47.65 34.97 35.08 47.19 48.02 46.60 45.93 43.84 44.99 47.26 49.70 49.71 50.51 50.64 51.30 51.37 51.92 50.83 50.19 49.75 49.05 47.46 46.98 45.90 46.32 45.94 44.81 43.60 43.02 42.15 41.77 42.17 42.42 41.21 37.28 35.26
34.71 32.59 32.54 33.71 31.78 30.78 47.23 45.93 40.90 42.93 46.35 48.52 48.06 46.60 46.90 47.37 46.98 48.41 49.12 48.88 49.27 49.41 49.80 49.66 48.10 47.03 48.09 49.17 48.06 45.50 44.31 46.37 45.90 44.33 42.67 42.63 43.18 44.23 41.96 37.99 36.11 36.76 34.77 31.06
35.00 38.99 36.62 38.76 35.95 44.91 47.85 46.64 48.96 48.93 48.35 48.72 47.94 49.68 49.70 47.29 47.32 48.07 47.42 47.36 47.55 48.15 47.78 48.09 46.77 46.17 46.42 46.26 46.09 43.82 43.54 44.62 44.84 43.80 41.92 38.45 39.74 39.00 37.91 34.31 32.85 32.06 31.01 28.98
39.96 42.30 38.15 37.82 41.58 43.21 47.41 47.95 48.87 50.17 49.63 50.54 50.53 49.60 49.92 47.22 47.23 46.74 46.87 46.27 46.21 46.63 46.10 46.48 45.96 44.97 44.55 45.21 44.80 43.80 43.91 43.29 41.28 38.55 36.08 34.84 32.71 31.94 31.59 32.27 32.15 30.00 27.67 26.84
39.92 41.38 39.57 39.11 42.03 44.11 46.67 46.95 47.73 48.27 49.57 50.97 51.36 49.77 49.51 48.65 46.82 46.48 45.68 45.14 45.03 44.89 45.14 45.61 44.14 41.24 40.38 42.05 41.82 42.32 41.64 39.68 36.46 34.20 32.87 32.09 32.32 30.10 27.91 28.94 29.76 27.10 26.60 28.10
42.00 40.40 38.22 35.81 43.71 43.59 45.09 47.04 49.51 48.86 49.72 50.23 50.15 48.93 49.49 49.45 47.16 46.52 45.17 44.75 44.15 43.58 44.27 40.89 39.02 38.07 36.88 33.16 32.28 35.31 37.95 35.69 32.82 31.45 31.06 30.29 29.36 29.18 29.37 27.60 26.49 27.95 27.40 27.42

GFSCGP_sfc_wetblb_078.txt.gz
Wetbulb
45.72 40.02 38.30 39.45 41.29 42.91 41.88 40.83 39.49 42.89 45.47 45.09 43.45 42.20 44.27 47.96 48.58 47.65 48.74 50.13 50.47 51.78 52.78 54.09 54.66 55.09 54.76 55.36 54.46 53.34 53.47 54.07 54.50 54.14 53.03 53.23 53.14 53.74 54.30 54.43 56.75 58.13 58.72 59.42
42.84 39.61 43.69 44.96 44.14 43.05 42.22 40.40 40.41 43.62 46.01 44.58 41.93 40.22 42.91 47.78 48.78 49.09 49.52 50.29 50.24 51.69 53.07 53.63 53.60 53.51 53.28 53.96 53.44 52.48 52.26 52.75 53.33 53.45 53.23 52.84 53.18 55.14 54.92 55.21 56.44 58.20 59.39 59.80
40.02 43.53 47.04 45.05 43.79 42.62 42.18 40.15 40.56 40.48 43.59 42.77 40.47 38.99 41.51 46.31 48.47 50.56 51.51 51.63 52.11 51.96 52.03 52.95 53.25 52.69 53.06 53.12 53.46 52.92 52.37 52.50 53.68 53.64 53.37 54.59 54.69 54.94 54.55 54.99 55.54 58.21 59.70 60.75
40.16 45.32 44.98 43.88 42.84 43.73 38.53 44.83 44.74 43.38 40.00 34.34 40.47 31.64 39.45 43.64 46.63 49.40 50.57 50.79 51.92 52.86 53.76 53.47 52.85 52.41 52.71 53.15 53.93 53.92 53.80 52.89 53.82 54.86 54.25 54.23 54.33 53.11 55.15 55.65 56.64 59.08 59.91 60.35
39.31 42.18 42.42 41.98 43.48 45.65 41.88 46.45 44.89 44.00 39.88 36.33 37.32 34.67 38.34 42.82 43.86 47.75 49.91 51.46 52.00 53.49 53.51 53.18 53.26 53.26 53.61 54.00 53.74 53.45 53.74 53.87 54.34 55.28 55.32 55.31 54.90 56.01 55.58 55.00 55.90 58.80 59.76 60.30
41.53 45.26 44.63 44.83 46.58 46.72 47.60 44.37 42.75 41.42 38.52 31.48 37.44 36.91 36.06 38.58 43.28 47.97 50.66 51.99 52.42 53.00 54.11 54.24 54.51 54.18 53.66 54.32 54.10 53.20 53.18 53.94 54.74 55.09 56.28 57.10 56.34 56.21 54.80 54.42 55.90 57.61 59.18 60.06
39.74 40.94 44.09 45.75 42.56 44.82 43.98 39.07 30.81 29.34 29.03 29.26 40.76 37.48 39.82 44.27 45.40 48.64 50.62 51.38 52.65 53.51 53.52 53.73 53.83 53.44 53.36 53.20 53.43 53.65 53.43 53.63 55.07 56.57 57.64 58.36 58.23 57.17 55.67 54.91 56.33 57.18 58.32 59.09
34.63 32.33 41.50 45.36 42.88 41.61 40.75 39.72 31.65 27.54 27.51 31.88 40.99 35.33 39.05 45.77 47.70 48.61 50.79 53.32 53.34 53.34 53.89 52.97 54.05 54.04 52.59 53.04 53.17 53.27 53.58 53.89 55.67 56.05 58.96 59.59 59.35 58.39 57.12 56.12 57.36 58.20 58.89 59.44
34.74 35.45 43.89 45.25 45.86 45.52 41.11 37.07 43.04 36.64 36.20 31.51 35.98 39.67 44.26 44.42 44.89 45.67 47.38 52.32 52.20 52.92 53.93 54.26 54.01 54.21 54.39 52.46 53.14 53.78 54.64 55.49 56.48 57.35 59.00 59.63 59.52 58.47 57.66 56.85 56.80 59.26 59.29 59.16
40.01 34.02 42.83 44.22 45.80 45.17 43.92 45.51 36.26 36.85 29.73 28.39 33.83 34.93 36.53 41.76 43.09 44.09 45.07 48.76 51.89 52.95 53.61 54.78 55.52 55.26 55.02 55.16 54.84 55.11 55.36 55.95 57.16 58.39 59.11 59.60 59.54 59.20 58.49 57.16 57.18 58.10 58.72 57.76
42.82 37.84 37.82 43.23 40.56 39.50 40.59 39.74 40.16 40.07 36.92 29.59 27.30 32.40 41.63 43.70 44.92 43.86 44.29 46.94 49.55 52.39 53.60 54.32 55.28 56.68 56.89 56.97 56.59 56.23 56.44 56.95 58.22 59.18 59.18 59.63 59.12 59.09 58.63 57.15 57.39 56.61 56.85 56.89
42.98 39.43 34.53 37.68 43.71 44.32 44.64 42.33 41.25 33.31 33.45 34.91 31.88 35.30 44.60 44.87 44.89 44.48 44.76 47.58 47.21 49.46 51.94 54.32 55.70 56.13 56.90 57.18 57.59 57.82 57.64 58.16 59.43 60.03 59.81 59.39 59.75 58.60 58.42 57.82 57.52 57.59 56.13 56.59
41.24 37.98 31.07 35.45 39.87 42.87 40.60 41.91 43.04 41.87 39.25 35.05 30.21 33.89 46.24 45.12 45.26 46.00 44.55 45.85 47.56 49.17 49.51 49.53 50.44 52.72 55.91 56.84 56.96 57.72 58.46 58.81 59.70 59.24 58.34 57.10 56.83 58.01 58.95 58.69 57.07 57.85 56.73 53.69
44.85 38.97 36.90 31.99 35.57 40.07 38.49 41.84 43.39 41.92 34.17 35.06 34.95 37.95 43.23 46.04 45.46 46.87 45.46 45.55 46.95 47.72 49.89 49.96 49.85 51.73 53.75 55.92 56.96 56.90 57.66 58.91 57.88 55.75 55.20 53.82 54.16 54.14 54.12 54.40 53.50 53.28 52.64 50.13
43.49 35.53 38.03 39.64 41.45 42.07 40.81 40.50 42.11 40.62 39.71 36.20 38.67 38.94 42.52 45.10 45.92 46.68 46.63 46.54 47.18 47.54 48.20 49.64 50.31 51.83 54.59 53.78 53.80 53.83 53.40 52.78 53.11 52.20 51.51 49.92 50.12 50.06 50.21 49.81 49.32 49.09 48.04 47.39
42.77 34.68 37.62 35.85 40.71 41.52 39.15 41.64 42.68 41.90 40.71 39.78 41.53 39.94 46.48 47.51 45.99 44.97 46.71 47.27 47.11 47.67 48.92 49.78 50.24 55.37 54.53 53.00 51.29 51.79 51.62 51.28 51.01 49.88 48.33 48.49 48.29 48.15 47.66 47.12 47.06 46.00 45.91 44.92
39.20 37.48 34.14 30.82 38.97 39.21 32.76 38.39 42.28 41.87 42.28 41.41 37.04 41.05 45.02 45.37 44.80 44.24 45.23 46.87 47.46 47.90 49.14 51.94 53.41 55.20 53.64 51.76 51.21 50.45 49.95 50.24 49.64 49.10 49.12 48.96 48.04 46.58 45.96 46.23 45.77 44.90 44.48 44.05
37.28 36.66 34.45 30.02 33.99 27.54 37.70 43.94 45.31 43.12 43.34 43.49 42.45 43.15 43.93 44.75 45.38 45.13 46.17 46.39 47.43 48.20 50.93 54.26 53.95 51.05 49.88 50.26 50.29 49.66 49.48 48.89 48.30 48.34 48.13 47.44 47.01 45.48 45.25 44.71 43.81 43.36 43.59 43.21
41.59 38.17 31.12 30.16 30.48 35.23 39.14 42.62 41.80 41.45 40.41 44.03 43.73 44.17 45.48 45.50 44.57 43.15 46.99 48.23 48.96 49.67 52.64 52.52 51.17 49.51 48.29 48.27 48.88 48.79 48.33 48.33 48.19 47.44 46.38 45.85 45.42 44.30 43.95 43.01 42.70 42.90 42.71 42.24
42.22 40.54 34.59 30.47 28.66 24.67 36.39 43.61 46.73 45.59 35.19 44.98 45.52 45.16 44.97 44.50 37.70 41.49 47.17 49.42 50.03 51.55 53.02 51.45 50.44 49.31 48.41 47.82 48.03 47.33 47.21 47.38 46.06 45.57 45.29 45.22 44.76 43.95 43.25 42.77 42.12 42.48 42.36 41.84
32.77 34.19 31.28 28.95 30.20 33.34 42.51 45.24 46.84 35.77 34.96 45.05 46.48 46.06 45.51 42.73 43.37 45.80 48.11 49.34 50.70 51.72 51.84 50.94 50.16 48.72 47.82 48.01 47.61 46.04 46.35 45.42 45.91 45.60 44.68 43.99 43.91 43.33 42.71 42.27 42.17 40.95 35.97 33.69
33.45 31.76 31.85 32.77 30.08 28.86 44.68 45.08 39.43 42.12 44.27 46.85 47.47 47.19 47.02 45.58 45.00 46.79 48.36 48.44 49.60 49.50 50.32 50.23 48.93 47.78 47.37 47.43 46.56 44.65 45.02 45.61 45.16 44.17 43.27 43.01 42.86 42.63 42.32 40.28 38.17 35.66 32.77 30.84
31.85 38.06 34.90 35.10 34.54 44.00 45.08 45.74 47.61 46.79 46.47 47.66 48.30 48.37 47.96 45.85 46.74 47.63 47.58 47.56 47.81 47.78 46.60 47.47 47.37 45.67 45.61 45.58 45.46 42.62 42.57 43.45 43.59 43.05 42.36 40.97 39.79 38.79 37.62 36.03 34.42 33.18 32.07 28.64
39.55 42.25 38.31 38.16 41.82 43.37 44.44 45.33 47.42 47.28 47.47 48.68 49.08 47.94 47.60 45.35 46.52 45.95 45.68 45.24 45.40 46.13 45.09 46.09 45.47 43.68 42.90 45.27 44.63 42.87 42.83 42.85 39.81 36.38 34.77 33.76 32.29 32.43 32.61 32.46 31.85 30.52 29.66 29.52
37.68 40.76 38.65 37.21 40.60 42.09 43.52 44.61 45.83 47.61 48.83 50.34 50.14 48.67 48.36 47.44 45.79 45.52 44.45 44.66 44.86 44.49 44.76 42.96 40.23 38.23 37.54 40.63 41.60 41.63 40.18 37.54 33.71 32.79 31.97 30.91 30.61 30.40 29.24 27.98 28.12 26.57 27.81 29.29
40.56 38.59 34.69 33.68 41.63 41.39 42.57 45.23 47.35 47.25 47.83 49.06 49.26 48.54 48.43 47.66 46.03 45.35 44.24 44.43 44.03 39.98 38.89 33.07 32.26 31.46 31.60 32.39 33.08 34.51 35.31 34.08 31.88 29.99 29.51 29.07 28.99 28.61 28.11 27.01 26.19 28.33 27.85 27.97

GFSCGP_sfc_wetblb_081.txt.gz
Wetbulb
43.74 39.04 37.48 39.79 39.98 40.79 39.57 37.91 36.33 40.62 44.12 41.41 41.54 42.73 42.62 46.54 47.01 47.26 48.53 48.95 48.71 49.73 52.64 54.85 55.56 55.47 55.29 55.13 54.78 55.16 54.60 54.51 54.84 54.24 53.65 54.38 55.64 54.04 54.63 55.61 57.83 58.97 58.68 58.45
40.39 38.47 42.54 43.26 42.38 41.18 40.05 37.67 37.65 40.83 43.64 42.32 40.68 41.05 41.25 45.49 46.87 47.84 48.73 48.80 48.96 48.71 50.93 53.92 53.45 54.54 54.56 54.60 54.00 53.99 54.18 54.19 54.37 54.46 54.23 55.49 55.34 55.21 54.99 54.77 56.25 56.32 57.25 58.12
37.81 41.54 45.61 43.29 41.71 40.25 39.55 37.80 38.25 37.93 42.04 42.20 39.70 38.01 39.80 45.24 47.02 48.75 49.24 50.41 50.32 50.10 50.86 51.69 52.46 52.48 53.27 53.10 52.97 52.73 53.84 53.88 54.41 54.71 53.33 54.22 54.07 54.68 54.08 53.62 52.96 55.37 57.13 58.09
38.27 43.64 43.02 41.48 40.86 41.71 36.93 42.92 42.19 40.64 37.86 33.56 38.98 30.91 37.76 41.50 45.05 47.88 49.21 49.00 49.61 50.43 52.05 51.89 51.63 51.24 51.94 52.77 53.89 52.21 52.27 53.50 54.24 54.14 51.68 51.27 52.03 51.35 50.25 50.83 52.71 54.09 57.14 58.06
36.97 39.35 40.07 39.52 42.10 43.35 40.35 44.34 42.28 41.29 38.72 34.46 35.57 33.38 35.93 41.18 41.98 44.96 48.42 49.71 50.09 51.14 51.89 51.89 52.19 52.24 52.73 53.37 53.04 52.65 52.42 52.08 53.03 53.10 52.59 51.92 51.08 50.76 51.14 52.81 53.18 53.53 55.25 57.36
39.52 43.73 42.63 42.75 44.73 44.91 45.94 42.01 40.78 39.01 36.56 30.15 35.99 34.98 34.35 36.43 41.74 46.10 48.55 50.14 50.64 51.39 52.44 52.73 52.87 52.68 52.05 52.63 52.83 52.63 52.19 52.21 52.37 52.92 52.92 52.42 52.27 52.50 53.08 52.77 53.53 54.20 54.80 56.82
37.94 39.50 42.11 44.43 40.80 43.35 42.03 37.04 29.45 27.79 27.67 28.34 38.15 35.43 38.14 41.97 44.03 46.93 48.82 50.25 51.26 51.80 52.60 52.46 52.19 51.78 52.16 51.74 52.34 52.56 52.20 52.02 52.60 52.67 53.26 53.17 53.19 53.70 53.99 54.32 53.99 54.44 55.24 56.82
33.27 30.89 39.12 42.36 41.56 39.46 39.09 38.15 30.16 26.62 26.08 29.67 38.64 33.94 39.00 44.90 45.81 47.13 51.10 51.84 52.18 51.36 52.87 52.96 53.06 52.58 52.41 52.68 52.36 52.67 52.29 51.94 52.63 52.80 53.10 53.70 54.74 55.53 55.65 55.43 55.47 55.34 55.88 56.71
33.05 33.55 42.10 43.01 44.11 43.86 38.84 34.82 41.43 33.94 33.84 29.99 34.09 38.33 43.51 43.95 43.55 45.03 47.16 49.60 50.40 51.31 52.24 53.26 53.99 53.89 52.85 52.70 52.66 52.59 52.53 52.38 52.75 53.22 53.51 54.01 54.81 55.74 56.68 57.06 56.34 55.69 56.23 56.96
38.59 32.91 41.10 42.65 43.75 44.18 41.92 43.39 34.57 34.67 28.07 27.17 31.40 32.92 35.69 40.95 42.00 42.57 44.27 48.65 50.36 51.56 52.47 53.13 53.43 54.45 54.25 53.46 53.71 53.22 53.14 52.60 52.97 53.40 54.11 54.51 56.57 58.08 58.39 58.17 56.75 55.21 56.84 57.71
39.64 36.78 36.60 41.08 38.26 37.91 38.53 37.95 38.00 38.44 34.11 28.44 26.84 30.78 40.29 42.52 43.84 42.90 43.65 49.01 50.46 51.68 52.17 53.35 53.71 53.97 54.97 54.67 52.89 53.12 53.25 53.12 53.58 54.34 55.17 55.99 56.82 58.42 58.97 58.49 57.32 55.85 57.19 57.05
42.05 37.02 32.83 36.48 42.00 42.88 41.99 40.42 40.32 32.56 31.69 33.05 31.21 33.95 43.18 43.83 44.13 44.58 43.82 46.23 50.36 52.35 52.87 53.43 54.41 54.68 54.02 54.24 54.09 52.60 53.28 54.09 55.01 56.30 56.57 56.66 57.76 58.18 58.03 58.13 56.10 57.31 57.18 56.75
41.48 35.46 28.94 33.05 37.93 41.65 38.49 39.94 40.97 39.38 36.89 32.53 29.63 32.31 44.36 44.05 43.81 44.04 43.21 43.63 45.67 49.10 50.83 52.57 53.27 53.75 54.84 54.92 54.59 54.82 54.59 54.53 55.53 56.32 56.47 57.46 57.53 58.10 57.37 57.58 56.92 57.02 57.10 57.05
44.05 38.80 34.97 29.54 33.29 37.85 36.08 39.53 40.66 40.22 32.06 32.66 35.51 37.65 41.85 43.31 43.87 45.55 45.34 44.19 44.56 46.31 47.89 49.70 51.98 53.32 54.18 55.45 55.88 55.62 55.63 56.01 56.28 56.49 56.72 57.15 56.91 57.19 57.54 56.89 57.46 57.17 57.36 57.12
42.10 34.58 36.80 37.79 39.16 40.38 39.49 38.68 39.30 37.80 37.79 34.61 36.55 39.00 42.98 44.15 44.25 45.48 46.21 45.18 45.08 45.86 47.20 48.17 48.85 49.66 50.55 51.78 53.08 55.38 56.06 56.43 56.68 56.23 54.82 54.97 53.34 52.81 53.05 52.83 52.30 51.74 52.19 51.67
40.05 34.33 36.16 34.10 38.31 39.66 38.44 40.51 40.71 39.36 39.34 39.73 39.31 39.66 44.66 45.49 45.05 44.54 45.96 45.30 45.78 46.51 46.77 48.31 49.62 50.05 53.00 52.77 52.26 51.43 51.11 51.54 51.29 53.06 50.36 49.84 49.86 50.04 49.91 49.33 48.97 49.10 47.85 48.01
33.93 35.06 32.14 29.72 36.91 38.08 32.40 37.42 40.12 40.86 40.30 39.66 36.26 41.13 45.17 44.43 44.31 44.68 45.17 44.92 45.42 46.12 46.39 47.20 49.54 51.53 53.00 50.75 51.75 51.98 51.19 51.39 50.51 49.17 49.35 49.02 49.04 48.34 47.83 47.45 46.37 45.34 44.79 44.94
34.54 33.03 34.01 28.23 30.75 27.10 36.68 42.63 43.13 41.70 42.43 43.57 42.70 43.26 44.52 44.52 46.04 45.71 45.02 44.89 45.84 45.85 46.66 48.27 50.57 50.27 50.63 51.20 50.09 49.97 50.07 49.85 49.71 48.99 48.97 48.63 48.14 46.87 46.35 45.61 44.56 43.89 44.06 43.78
39.52 35.04 31.49 29.70 28.36 32.58 36.80 39.99 39.86 39.78 39.17 44.74 42.20 43.95 43.78 44.13 43.41 42.90 45.11 44.72 46.00 46.63 48.17 51.10 49.64 50.18 51.14 50.10 50.18 49.53 49.13 48.86 48.33 47.54 47.60 47.40 47.00 45.23 44.44 43.31 43.30 43.38 43.29 43.09
39.27 38.78 33.63 31.88 28.81 23.44 33.46 41.36 45.39 45.01 34.50 44.54 44.84 43.79 44.02 44.01 38.26 41.62 45.55 46.72 47.06 49.62 51.62 49.75 48.36 48.74 48.71 49.20 49.70 48.86 47.97 47.75 46.66 46.27 45.59 45.47 45.22 44.28 43.46 43.50 43.18 43.41 43.07 41.47
32.87 32.95 31.32 31.79 30.83 31.46 39.43 43.69 46.00 34.07 34.17 45.36 45.94 45.37 44.50 42.40 44.02 45.23 45.84 47.50 48.90 51.32 50.08 49.50 48.87 47.92 47.58 48.09 48.37 47.48 47.05 46.11 46.49 45.87 44.81 44.34 44.64 44.03 43.51 42.83 42.43 40.00 37.77 35.00
30.93 30.08 29.89 32.36 30.01 26.98 42.55 43.69 37.85 41.16 44.87 44.95 46.59 46.77 44.43 44.22 45.21 45.63 46.34 48.08 49.97 49.49 49.53 49.14 47.70 46.87 47.11 46.72 46.23 46.01 44.74 45.14 44.88 43.89 43.25 42.84 42.93 42.76 41.98 39.25 37.10 35.77 34.42 31.84
31.26 34.73 32.91 35.31 33.97 41.71 43.55 43.78 46.95 46.92 45.18 46.30 46.93 48.15 48.29 45.31 45.15 46.13 46.80 48.01 48.90 49.09 48.53 48.56 47.24 46.15 46.07 46.10 45.68 42.74 42.71 43.87 43.46 42.60 39.49 37.76 37.31 37.39 37.87 36.46 34.48 32.93 32.42 30.95
36.14 40.89 36.63 36.95 40.08 41.42 44.02 45.32 45.42 47.60 46.88 47.73 48.63 48.04 46.87 44.17 45.76 44.79 46.27 46.11 45.52 46.08 46.27 46.31 45.51 43.93 42.92 43.56 43.14 42.32 42.00 39.69 37.08 34.39 33.71 33.68 32.37 31.41 31.58 31.23 31.70 31.03 30.31 30.22
36.76 40.28 38.58 37.50 40.32 41.94 42.83 43.47 45.41 46.37 48.03 48.28 49.71 48.59 47.67 47.09 46.51 46.11 45.14 44.31 43.86 42.70 41.28 40.53 39.16 39.38 40.01 40.83 39.72 38.75 36.77 35.60 32.88 32.09 31.57 30.94 29.85 28.37 26.89 26.93 26.80 26.99 28.41 29.79
38.60 37.72 35.24 34.17 41.39 40.17 41.18 43.65 45.26 44.81 46.36 47.97 47.84 47.38 48.77 47.95 44.84 44.01 42.82 42.27 39.26 35.81 34.48 33.18 32.77 31.98 31.79 32.60 32.79 33.54 34.28 33.60 31.44 29.54 29.05 28.74 28.29 27.60 27.12 26.50 26.64 28.83 27.99 28.26

GFSCGP_sfc_wetblb_084.txt.gz
Wetbulb
42.20 37.45 35.39 38.27 38.83 39.00 37.74 36.59 34.87 38.02 41.14 39.75 38.75 37.77 41.96 43.82 46.47 46.75 48.33 48.55 48.08 48.50 52.61 55.46 55.45 55.93 55.44 55.74 56.15 55.36 54.88 55.17 55.64 55.18 55.26 55.88 56.08 55.69 56.86 57.48 57.84 57.72 57.65 57.00
38.84 35.91 41.36 41.95 41.16 39.90 38.35 36.53 35.99 39.04 41.59 40.46 39.56 39.22 42.06 42.07 45.10 46.77 47.59 48.40 47.81 47.99 51.01 52.99 54.33 54.28 54.59 54.35 55.22 55.04 54.74 54.86 55.93 55.81 55.81 56.78 56.16 54.68 55.23 56.05 57.61 58.24 57.93 57.52
37.87 39.78 44.08 41.81 39.36 38.40 37.35 36.72 36.15 36.50 39.32 39.93 37.38 36.48 38.94 42.27 45.30 46.94 48.04 49.48 49.41 48.20 49.45 51.24 52.23 53.32 54.29 53.79 53.84 54.39 54.21 54.56 55.39 56.03 54.13 53.44 53.96 54.56 54.33 54.33 54.71 56.42 57.71 58.27
38.15 43.05 41.28 39.96 39.29 40.09 34.87 40.56 40.20 38.99 35.91 31.37 37.81 29.55 36.01 40.44 41.72 45.88 46.91 48.25 49.21 48.86 50.15 50.83 52.35 52.22 52.87 53.43 53.77 54.27 54.24 54.02 54.73 55.22 54.02 52.34 54.10 53.59 54.49 53.01 54.26 54.93 56.84 57.22
36.16 38.36 38.60 37.50 39.68 41.51 38.82 42.47 40.31 39.54 35.91 33.45 33.88 31.28 35.29 38.76 40.19 42.81 45.68 47.50 49.31 50.03 50.21 50.00 51.34 51.61 53.13 53.53 53.57 52.99 53.53 53.18 53.55 54.10 53.81 51.30 53.49 54.35 49.65 50.88 51.17 52.07 54.35 56.05
37.84 42.13 40.49 40.00 43.38 42.87 44.58 40.44 39.59 37.54 35.22 28.36 34.26 33.67 32.71 35.54 40.11 43.36 45.23 47.76 48.86 49.88 50.52 51.10 51.73 52.66 52.82 53.23 53.34 53.07 51.72 52.08 53.14 53.16 52.12 50.90 50.19 50.00 50.06 50.16 50.91 51.68 52.53 54.26
36.68 38.23 40.59 43.13 38.68 41.40 41.01 35.94 28.41 27.11 27.19 27.63 35.59 33.38 37.17 40.30 42.63 43.78 45.11 47.19 49.32 50.24 50.57 50.99 51.07 51.79 52.18 51.79 51.85 52.43 52.01 51.39 52.15 52.37 52.37 51.81 51.49 51.04 51.34 51.80 51.62 51.18 51.44 52.47
29.86 28.57 37.71 41.05 40.22 38.09 37.85 36.67 28.89 26.04 25.78 28.80 36.06 31.60 36.96 44.14 45.06 45.56 45.89 47.70 49.26 49.73 51.39 51.44 51.68 51.74 51.64 51.57 51.58 51.66 51.92 51.82 52.08 51.79 52.06 52.54 52.28 52.33 52.58 52.62 53.23 52.55 52.95 53.34
31.52 31.17 40.77 41.71 42.58 42.55 37.13 34.70 39.78 32.14 31.40 29.32 32.37 36.42 42.04 44.18 43.41 43.47 43.45 47.90 48.53 49.51 51.03 51.97 52.60 52.31 52.02 51.94 51.85 51.88 52.09 52.06 52.10 51.73 51.95 51.83 52.27 52.35 52.40 53.22 53.07 53.45 53.44 54.39
36.11 31.37 39.68 41.27 41.33 41.24 39.49 41.80 33.50 32.19 26.66 26.09 29.50 31.55 34.78 40.43 42.37 42.19 42.44 46.26 47.81 49.24 50.51 52.03 52.77 52.87 52.62 52.68 52.70 52.56 52.52 51.95 51.97 51.95 51.97 52.17 52.39 52.93 53.55 54.06 54.75 54.94 54.17 54.11
40.13 33.43 33.60 39.07 36.96 35.83 36.52 36.31 35.95 36.55 32.49 27.85 26.17 29.86 39.04 42.19 43.40 43.20 42.22 45.19 47.33 48.44 50.03 51.56 53.09 53.95 53.79 53.15 52.74 52.73 52.45 52.08 51.62 51.96 52.25 52.32 52.40 53.33 53.72 54.23 55.15 55.95 55.54 55.53
40.53 37.12 29.65 34.27 40.60 41.95 39.18 37.51 38.30 32.64 29.92 31.03 29.96 32.95 41.85 42.70 43.59 43.70 43.96 44.10 46.71 49.01 49.85 51.33 51.84 52.29 53.50 53.19 52.51 52.36 52.50 52.39 52.45 52.59 52.63 52.99 53.57 53.55 54.45 55.83 56.97 57.10 56.17 56.07
39.30 35.96 30.42 30.44 36.32 39.35 36.31 38.32 39.00 37.95 35.28 31.54 29.46 31.56 42.90 42.96 43.00 43.95 43.74 43.99 44.21 47.46 49.07 50.02 50.80 51.55 52.15 53.39 53.36 52.55 52.50 52.51 53.11 53.80 53.30 53.42 53.81 54.37 54.87 55.78 56.95 57.39 56.09 56.50
41.70 35.82 33.89 29.90 32.40 37.16 34.74 37.45 39.51 38.11 31.37 32.98 34.42 34.87 39.80 41.91 43.25 43.70 43.78 43.69 43.59 44.60 48.01 49.09 49.58 51.12 52.55 52.92 53.19 53.42 52.47 52.56 52.79 53.17 53.19 53.00 53.96 54.42 55.47 56.32 55.76 55.36 56.01 56.13
39.60 31.66 34.49 36.06 37.70 37.49 37.17 37.09 37.74 36.85 36.95 33.29 34.65 36.68 40.26 42.51 43.80 44.58 45.81 44.96 44.36 43.79 45.98 47.91 50.20 50.26 51.18 51.37 52.83 53.31 53.57 53.22 52.78 52.61 52.79 52.87 53.07 53.50 53.85 53.25 53.07 54.45 55.81 56.05
38.65 31.17 33.41 32.30 34.65 36.53 35.05 38.06 38.57 38.41 37.26 36.83 36.47 36.15 42.76 44.60 44.07 42.81 45.32 45.79 44.81 44.72 44.83 47.41 48.74 49.86 49.49 50.57 51.40 51.56 51.39 51.12 52.83 52.99 52.53 51.41 51.89 52.07 51.91 51.00 50.82 50.30 50.30 49.35
35.66 34.06 31.37 27.26 32.99 34.29 30.57 35.02 38.38 38.49 38.88 38.25 34.38 38.21 42.22 42.86 42.95 43.70 45.47 45.13 45.26 45.97 45.26 46.16 48.32 49.20 49.27 49.81 49.98 49.85 51.01 51.63 51.29 50.55 50.58 50.02 50.02 49.14 48.79 48.77 48.61 47.38 46.48 45.90
33.03 33.47 31.35 29.06 31.99 26.51 35.90 40.40 41.28 39.46 40.41 40.27 39.75 40.21 41.97 43.25 44.94 45.90 46.02 46.00 45.57 45.47 45.42 45.64 46.71 48.88 49.47 49.12 49.73 50.79 51.43 50.49 49.73 49.17 48.83 48.90 48.74 47.69 46.98 46.60 46.08 44.27 44.41 44.38
37.04 34.20 30.68 27.97 28.81 33.10 35.43 38.78 38.07 37.38 38.32 42.75 41.35 41.63 43.28 45.32 42.23 41.98 44.77 45.07 47.12 46.86 47.38 45.94 47.88 48.94 49.78 49.19 50.52 50.23 49.76 49.78 48.86 48.14 48.00 47.83 47.07 45.99 45.09 43.69 43.33 43.66 43.68 43.32
37.30 36.46 32.14 30.88 26.82 24.61 34.49 39.70 43.53 42.81 33.34 42.43 41.92 42.34 43.09 42.75 36.09 39.99 44.52 45.03 43.90 45.00 48.51 48.54 49.79 50.07 50.21 49.96 50.30 49.17 48.57 48.01 46.75 46.37 46.59 46.14 46.37 45.09 43.88 43.38 43.22 43.37 41.08 38.37
31.23 32.47 29.31 29.83 29.47 31.98 40.14 42.21 43.45 31.77 32.77 43.16 43.61 43.21 43.90 42.16 42.32 45.54 45.97 47.25 48.23 49.06 47.87 48.78 49.07 48.18 48.68 49.56 49.12 47.70 47.33 45.47 45.43 45.28 44.99 44.50 44.67 43.70 43.14 42.15 41.24 38.88 35.98 33.34
28.56 29.14 29.29 31.96 29.24 26.49 41.78 41.20 37.91 40.71 43.16 44.42 44.45 44.64 45.11 44.51 45.05 44.83 45.95 48.53 48.81 47.76 47.67 47.63 46.84 46.75 48.02 48.46 47.81 45.49 43.59 44.39 44.15 43.47 42.75 41.97 41.72 41.36 39.68 38.08 37.35 36.03 33.87 30.86
27.83 32.62 30.20 33.24 33.32 40.95 41.52 41.86 43.73 45.76 45.45 44.53 46.03 46.29 47.21 46.16 45.39 45.53 46.86 48.32 48.50 48.48 47.63 47.52 46.61 45.92 45.92 45.98 45.68 42.65 42.83 42.80 39.80 38.36 37.09 36.66 36.39 36.48 36.88 35.40 34.30 33.37 32.40 30.15
32.82 38.35 34.03 34.76 37.42 38.99 41.41 43.19 44.56 45.39 46.08 48.39 47.09 47.56 47.66 45.39 45.16 45.67 46.11 45.96 46.53 46.73 45.61 46.20 45.07 42.68 41.62 42.34 42.32 42.18 40.75 39.44 37.94 35.37 33.91 33.21 31.67 30.88 30.93 31.21 31.77 31.53 31.07 30.19
33.63 35.87 34.44 34.77 39.50 41.44 42.78 43.47 43.88 43.60 45.27 46.90 48.18 48.03 48.08 47.26 45.14 45.29 43.33 40.27 39.02 38.99 40.14 40.95 40.55 39.13 37.93 37.22 35.77 36.01 35.92 34.94 31.98 30.71 29.73 28.75 27.94 27.25 26.84 27.08 27.59 28.77 29.47 30.41
35.27 34.10 32.19 31.77 39.46 38.55 39.40 41.47 43.08 43.25 43.28 45.14 46.26 47.50 47.17 45.62 42.92 38.68 35.87 35.63 35.31 34.22 34.08 32.22 31.73 30.60 30.29 30.35 30.74 31.91 32.97 32.09 30.09 28.51 28.29 28.19 27.79 28.32 28.34 27.41 26.98 29.36 28.70 28.83

GFSCGP_sfc_wetblb_087.txt.gz
Wetbulb
45.58 41.70 39.28 42.15 43.48 42.22 41.32 39.60 39.56 42.30 44.68 43.29 43.86 43.23 46.20 47.96 49.60 50.21 51.56 53.15 53.48 53.25 54.34 56.22 56.58 56.54 56.88 57.44 56.74 55.91 56.13 56.69 56.77 57.75 57.31 57.07 56.63 58.25 58.04 58.65 58.64 59.30 59.53 58.87
41.64 38.67 43.08 44.12 43.67 43.29 41.69 39.89 39.74 42.62 43.92 43.21 44.03 43.65 46.94 46.78 48.80 50.22 51.34 52.76 53.30 52.35 52.85 54.66 55.20 56.04 55.88 56.13 56.11 55.85 55.63 55.95 56.59 57.69 57.50 57.23 56.64 57.37 57.85 58.30 58.38 58.26 58.27 58.60
39.37 41.67 44.48 42.92 41.37 40.60 40.87 39.80 40.07 39.85 42.57 43.83 42.62 42.16 44.82 47.03 48.37 50.35 51.30 53.37 54.09 52.97 52.42 53.25 53.10 54.85 55.32 55.33 55.61 55.66 55.62 56.19 56.54 56.82 56.38 55.61 55.66 55.93 56.16 56.89 57.25 58.31 58.97 59.61
40.31 43.59 42.47 41.60 40.45 42.03 37.65 42.83 42.25 40.79 39.68 35.48 43.15 35.38 42.45 46.62 46.51 48.21 50.70 51.47 52.95 52.66 52.86 53.63 52.62 53.18 54.85 55.44 56.11 56.03 55.79 55.87 56.73 56.83 56.36 55.29 54.70 55.18 56.31 56.33 57.26 57.81 58.97 59.74
38.85 39.77 40.46 39.48 40.81 43.03 40.42 44.18 42.29 42.00 39.59 38.56 39.63 36.96 41.44 43.19 44.76 47.31 49.02 51.17 52.57 53.55 53.19 53.08 53.79 54.13 53.96 55.42 55.32 56.52 55.35 55.39 56.34 56.90 57.16 56.49 56.29 57.34 56.78 56.57 56.86 57.77 59.91 60.66
40.63 43.59 42.69 42.40 43.61 44.19 45.28 42.77 41.93 40.84 39.79 33.53 38.66 37.72 39.78 43.03 45.35 47.14 49.16 51.07 52.33 53.28 53.49 54.00 55.28 55.08 54.70 54.80 55.11 54.89 55.12 55.49 55.75 56.74 57.39 55.78 57.55 57.15 54.75 56.75 56.17 56.55 57.68 58.85
38.45 39.48 42.63 44.64 40.63 43.51 43.56 39.77 33.19 31.89 32.02 32.04 39.50 36.78 41.16 45.40 46.68 47.43 49.52 50.48 52.67 53.82 54.11 53.80 53.59 53.89 54.49 53.98 54.09 54.25 54.17 55.31 55.82 55.57 56.94 56.21 56.23 56.25 55.93 55.55 56.11 55.69 56.02 56.65
31.37 29.77 39.39 42.83 42.32 39.87 40.54 40.39 34.13 27.58 30.02 34.03 38.22 35.49 41.24 47.72 49.36 49.70 49.68 49.95 52.75 53.13 54.24 54.65 54.31 54.79 54.43 54.33 53.51 53.45 53.67 54.07 55.63 55.80 55.96 56.42 56.72 56.30 55.90 56.52 56.96 55.81 55.99 56.82
33.39 31.76 41.42 42.12 43.91 44.20 39.56 36.26 42.43 35.31 35.69 34.38 37.38 40.87 45.14 47.93 48.17 47.88 48.20 50.07 51.75 52.86 53.90 54.49 55.29 55.23 55.12 54.59 53.88 53.22 52.92 53.40 55.45 55.48 55.78 56.08 56.50 56.14 56.24 56.74 57.03 57.46 57.85 57.77
38.41 31.54 39.89 41.48 43.06 43.41 42.48 43.81 35.72 36.52 28.83 27.95 33.90 35.97 38.81 43.80 46.29 47.94 48.22 49.43 51.97 52.90 53.51 54.79 55.41 55.29 55.81 55.58 55.00 53.84 53.71 53.96 55.93 56.14 56.27 56.15 56.10 56.69 57.04 57.49 57.18 57.81 58.31 58.51
40.12 36.38 35.59 40.29 38.33 37.80 38.78 37.97 39.38 39.45 36.54 31.65 30.38 35.17 44.67 45.95 48.03 47.38 49.46 48.81 51.18 52.90 53.68 54.76 55.87 56.44 56.35 56.31 55.74 55.29 55.30 55.49 55.43 55.79 56.14 56.35 56.36 56.69 57.18 57.30 57.68 58.25 58.80 58.89
40.62 37.99 33.50 35.44 41.95 43.08 41.31 39.02 39.35 33.82 33.01 35.84 35.07 36.49 45.76 48.16 47.93 48.81 49.20 49.66 49.70 52.67 54.00 55.04 55.91 56.44 56.24 55.68 55.54 55.37 55.52 55.48 55.79 55.87 55.73 55.53 56.29 56.67 56.52 56.21 57.22 58.26 58.28 59.17
37.57 34.18 27.44 32.99 37.46 40.93 38.41 39.53 40.35 39.81 38.93 34.47 32.31 35.94 45.93 46.40 46.32 47.80 48.18 50.62 50.74 49.54 53.32 53.91 54.84 55.48 55.99 56.02 55.85 55.61 55.66 55.85 56.10 55.76 55.43 55.59 55.54 55.44 55.69 55.20 55.93 56.88 56.79 58.13
42.03 35.27 30.30 26.95 33.11 36.32 33.43 36.59 38.83 38.28 34.43 35.39 36.19 38.34 43.90 45.18 45.93 48.44 48.86 48.97 49.05 48.85 50.48 53.84 54.21 55.07 56.20 56.44 56.43 55.95 56.06 56.22 56.11 55.80 55.44 55.41 55.74 55.97 56.02 55.39 56.38 57.87 59.00 58.87
39.86 32.27 34.46 35.46 36.15 36.54 36.08 35.53 36.60 36.09 37.82 34.45 38.09 39.14 43.11 46.11 47.70 49.41 50.46 49.61 48.87 49.41 48.84 51.06 53.58 54.83 55.64 55.54 56.20 56.53 56.35 56.05 56.23 55.62 55.52 55.50 56.58 56.77 56.79 57.43 58.06 58.70 59.00 59.08
39.51 31.99 33.28 30.74 35.43 36.15 33.87 36.38 37.48 38.28 39.12 39.07 39.67 39.40 46.11 48.44 48.69 47.54 48.55 48.88 48.98 49.44 50.09 49.93 51.95 53.84 54.28 55.17 55.55 55.39 55.85 55.35 55.66 55.14 55.12 55.82 55.93 55.85 56.74 57.61 57.87 58.11 57.94 57.49
32.73 31.77 30.24 27.83 33.73 34.10 29.97 35.47 37.64 39.20 41.52 40.85 36.97 42.49 45.83 45.12 45.93 46.88 48.33 49.01 48.82 50.10 50.26 50.47 50.04 51.91 53.66 54.68 54.64 54.72 54.83 55.46 54.87 54.81 54.79 53.78 53.80 54.11 54.09 53.72 53.22 53.30 52.97 50.17
32.72 31.78 30.82 26.95 30.38 22.60 35.53 41.54 42.22 39.72 41.64 43.61 43.42 44.15 45.64 46.87 48.23 48.62 49.33 49.22 49.50 49.65 50.44 50.66 50.37 50.74 51.92 52.97 53.63 53.56 53.59 53.44 53.16 52.45 52.03 52.22 51.70 51.00 50.41 49.99 49.05 46.61 46.34 45.78
35.56 32.37 27.78 25.65 26.72 32.05 34.43 39.99 39.15 38.09 38.59 43.96 43.49 45.29 45.89 47.73 47.02 47.43 49.28 49.20 50.03 50.98 51.31 51.57 50.96 51.38 51.33 52.37 52.79 52.64 52.06 51.43 50.62 50.00 49.75 49.41 49.03 47.60 46.47 44.86 44.34 44.65 43.54 41.35
34.49 34.78 30.47 28.67 24.91 23.75 34.67 41.74 43.66 43.97 35.38 43.86 44.93 45.18 45.41 46.41 41.65 46.18 49.63 48.21 48.75 47.99 50.22 50.91 51.49 51.34 51.18 51.84 52.58 51.62 50.12 48.70 47.32 46.85 46.52 46.63 46.27 45.39 44.16 43.75 42.49 40.56 38.69 36.71
29.66 30.12 27.22 26.34 24.58 30.61 40.62 42.80 45.10 33.17 35.05 42.51 43.81 45.73 46.43 44.56 46.71 48.92 48.65 50.36 49.69 49.38 50.52 51.71 51.37 50.51 50.65 51.23 51.18 48.45 47.03 45.18 45.58 45.59 45.05 44.54 44.35 43.59 42.92 41.29 39.33 36.89 34.46 32.74
30.29 29.43 28.69 28.76 26.29 25.23 42.54 42.21 36.98 40.55 43.47 43.46 44.64 46.37 46.91 48.33 48.05 47.96 50.09 49.27 48.45 46.49 48.20 48.73 48.52 48.73 49.45 49.54 47.50 45.03 43.64 44.39 44.28 43.45 42.50 41.59 41.12 40.49 39.73 37.81 36.10 34.80 33.06 31.01
29.07 34.88 33.54 34.14 34.26 41.84 43.14 43.05 45.47 45.46 43.98 44.30 44.20 47.12 48.56 48.13 46.80 48.31 46.49 47.35 47.30 46.40 46.47 47.96 47.17 46.14 46.33 46.24 45.39 42.69 42.36 42.41 41.22 39.27 37.38 36.20 35.95 35.74 36.37 35.71 34.40 32.97 32.27 30.87
34.82 38.58 35.63 35.72 38.77 40.30 42.18 43.94 44.65 46.21 44.97 46.20 46.58 47.68 48.95 47.36 47.29 46.83 46.62 45.78 45.58 45.89 44.68 44.19 43.33 42.07 41.58 43.12 43.32 42.63 42.05 40.85 38.41 35.30 32.77 31.45 30.40 30.51 31.63 31.51 31.87 31.77 30.80 29.84
36.15 37.64 35.90 35.63 38.91 40.89 42.39 44.25 44.44 43.39 45.03 46.12 47.15 48.96 47.99 46.58 44.05 41.72 40.50 39.54 38.81 39.36 40.14 39.18 36.45 34.70 34.77 35.78 36.50 37.81 37.45 36.40 33.25 31.64 30.46 29.63 29.87 29.54 28.77 28.83 29.22 28.81 29.83 30.93
37.38 36.62 34.74 33.89 40.20 39.57 40.37 43.52 44.13 43.20 44.39 43.72 46.30 48.38 47.66 46.48 40.53 37.69 35.63 35.85 35.88 34.59 34.44 33.59 33.52 32.46 32.07 33.22 33.48 33.93 34.46 33.86 32.03 29.77 29.77 30.18 30.12 29.41 28.71 27.96 27.64 29.91 29.29 29.28

GFSCGP_sfc_wetblb_090.txt.gz
Wetbulb
48.03 44.77 42.42 44.59 45.53 46.20 45.32 44.29 43.34 45.89 47.79 46.25 45.91 46.98 50.30 52.83 52.81 54.14 55.58 56.81 58.23 58.45 59.54 59.41 59.28 58.44 58.70 57.73 58.11 58.54 58.96 58.43 58.44 58.12 57.51 57.66 57.65 58.58 58.85 59.59 60.17 60.61 60.06 59.87
45.02 41.70 46.02 46.93 46.85 45.12 44.85 42.82 42.95 45.92 47.55 46.20 46.17 46.49 50.30 52.09 52.55 54.05 55.23 56.83 57.75 58.69 58.26 58.19 58.73 58.42 57.69 56.99 57.09 57.87 59.33 58.59 59.22 58.82 58.19 58.41 58.33 58.54 58.49 59.04 59.82 61.16 60.80 60.67
42.79 44.51 46.68 45.35 44.30 42.48 43.86 42.94 43.40 42.97 46.31 47.46 45.72 44.57 47.38 51.12 52.53 54.07 55.69 56.89 58.29 58.66 57.86 57.69 57.58 57.92 57.20 57.36 57.80 56.93 57.58 58.20 59.17 59.97 58.21 57.28 57.48 57.30 56.96 57.69 58.49 59.81 61.69 61.69
43.32 46.45 44.78 43.93 42.40 43.37 40.55 46.01 44.92 43.81 43.05 39.73 45.45 37.91 46.19 49.03 49.93 51.78 53.43 56.23 57.47 58.71 58.81 58.22 57.85 57.57 58.09 58.24 58.82 59.37 57.61 57.61 58.79 58.63 58.04 57.06 56.36 56.33 57.22 56.90 57.99 59.15 61.46 61.67
42.16 43.11 42.46 41.85 42.89 44.08 42.01 46.09 44.44 44.57 43.29 42.71 42.14 39.52 45.05 48.13 47.39 49.88 52.62 54.82 57.17 58.98 59.04 58.28 58.16 58.13 57.77 57.89 58.89 59.18 58.37 57.61 57.78 58.94 58.09 56.43 55.66 59.34 58.56 57.77 57.08 57.90 59.09 59.56
44.31 46.54 45.41 44.87 45.95 46.47 46.77 45.10 44.57 44.81 43.45 36.31 40.65 40.75 42.83 46.14 47.75 49.81 52.42 54.16 56.63 58.44 59.04 59.28 59.44 59.13 58.50 57.59 58.14 59.47 59.13 57.44 57.50 57.98 57.95 56.40 55.47 56.31 56.74 56.47 56.78 57.19 57.00 58.24
39.62 41.26 44.95 45.95 42.65 45.28 44.95 41.67 36.52 34.66 35.42 34.76 42.21 40.98 43.52 48.49 50.26 51.37 51.83 53.61 56.89 58.64 58.84 59.16 58.52 58.38 58.26 57.37 57.19 58.49 58.18 57.43 57.62 57.87 57.98 58.45 58.61 58.35 59.06 58.10 57.52 57.47 58.46 58.66
34.40 32.62 40.05 44.31 43.00 41.68 41.57 41.45 37.93 31.07 33.82 37.17 43.17 38.18 43.95 50.29 51.93 53.19 54.19 54.95 56.31 58.06 59.14 59.59 59.33 59.47 58.78 57.99 57.49 56.53 56.69 56.88 58.49 58.97 58.49 60.01 60.82 59.93 59.90 60.53 60.36 59.72 60.08 60.99
36.07 34.42 43.33 43.31 44.58 44.33 42.38 39.88 45.12 39.72 40.12 36.59 41.09 44.27 48.52 50.61 50.81 52.13 52.78 53.16 55.10 57.35 58.90 59.75 60.04 59.98 59.76 58.74 58.46 58.00 57.86 58.44 58.20 58.11 59.39 59.58 60.15 60.42 59.73 60.16 61.23 61.50 61.03 61.08
39.35 34.39 41.61 43.57 45.27 44.78 43.05 45.73 38.14 40.06 30.93 30.76 38.33 40.30 42.22 45.83 48.19 50.11 51.40 52.86 55.52 57.76 58.85 59.81 60.59 60.17 60.61 60.11 59.33 59.02 58.78 58.30 59.60 60.14 59.87 59.74 60.08 60.28 60.35 60.40 59.68 60.33 60.95 60.39
41.57 39.52 38.61 42.39 41.31 40.79 41.22 40.24 41.87 42.40 39.90 34.37 33.81 39.03 47.60 47.21 49.78 50.33 51.76 53.22 55.06 57.62 58.64 59.50 60.43 61.26 61.10 60.93 59.97 58.93 58.21 58.33 58.71 59.84 60.28 60.40 60.28 60.26 60.09 60.15 60.55 60.18 60.47 60.46
39.27 39.54 34.66 37.46 44.16 45.98 44.29 42.01 42.52 37.30 36.82 39.93 39.06 39.38 49.53 49.52 52.03 52.22 52.63 53.55 54.23 57.41 58.95 59.88 60.16 60.67 60.83 60.66 60.01 58.85 58.32 58.44 59.12 60.06 60.25 60.29 60.57 60.59 60.29 59.91 60.71 61.37 60.76 61.26
38.96 36.85 31.76 33.90 40.03 42.98 40.02 41.58 42.38 42.24 41.88 37.29 35.49 39.49 49.03 48.64 49.65 51.93 52.17 54.02 54.24 55.35 57.70 58.95 59.75 59.98 60.51 60.61 60.77 60.42 59.55 59.10 59.81 59.90 59.86 59.80 60.03 60.13 60.32 60.39 60.73 60.60 60.36 60.70
40.43 35.89 32.56 29.42 33.96 39.09 36.38 39.23 41.20 40.28 36.75 38.04 39.14 41.16 45.42 46.79 47.80 50.43 52.13 53.97 54.88 55.11 56.14 58.22 59.01 59.75 60.58 60.86 60.90 61.04 60.88 60.57 60.03 59.56 59.37 58.96 59.32 59.78 60.15 60.45 60.50 60.51 60.22 59.66
39.20 31.92 35.38 36.36 37.02 37.31 37.03 37.08 38.80 38.25 39.93 36.74 40.20 41.54 45.05 47.37 47.86 49.10 51.03 53.01 53.65 52.93 53.62 57.07 58.33 59.45 60.38 60.57 60.90 61.10 61.39 60.82 60.52 59.44 58.88 58.71 59.48 59.56 59.39 59.36 59.47 59.36 58.80 58.76
39.89 33.44 34.88 32.87 36.93 37.24 35.29 37.60 38.50 39.38 40.51 41.29 41.91 42.12 48.41 49.70 50.02 49.42 50.57 52.12 52.81 53.55 54.48 55.19 56.16 58.53 59.62 60.15 60.77 60.56 60.35 60.77 60.38 59.56 59.09 59.43 59.21 59.16 59.11 59.14 59.13 59.48 59.54 59.86
34.65 34.01 30.59 28.32 35.35 35.38 31.00 36.59 37.90 39.38 41.86 42.67 39.72 44.96 48.98 48.31 48.56 49.11 50.42 52.37 52.90 53.56 54.03 54.63 55.66 55.85 58.30 60.00 60.33 60.67 60.69 60.67 59.65 59.26 59.19 59.17 59.31 58.77 59.06 59.12 59.26 59.20 59.34 59.57
34.53 32.42 31.53 29.27 30.99 22.39 35.65 42.23 42.97 40.90 43.26 45.35 45.90 46.76 48.60 49.27 50.69 51.96 52.78 52.33 53.06 53.38 54.15 54.82 55.91 56.50 57.10 59.08 60.26 60.39 60.64 59.66 58.52 58.65 58.38 58.53 58.16 57.71 57.19 56.74 55.28 50.94 49.17 47.31
38.95 35.30 29.43 27.72 28.35 32.59 35.48 40.35 39.36 40.89 40.79 46.11 45.13 47.18 49.01 50.01 50.93 50.93 53.35 53.39 52.73 53.79 54.24 55.36 56.51 57.14 57.61 57.68 58.97 58.82 58.18 58.62 57.68 56.35 54.72 54.85 55.81 52.50 49.33 47.13 46.46 44.79 42.40 40.29
38.31 37.77 32.24 30.05 24.92 23.09 37.43 42.59 46.83 46.07 36.37 46.11 46.62 46.64 46.69 49.22 45.40 48.36 53.15 53.10 53.20 54.43 54.56 54.22 55.33 56.18 56.65 57.00 57.63 56.70 54.73 54.14 51.85 50.75 49.57 49.07 48.19 46.72 45.03 43.69 41.33 39.72 38.17 36.07
30.91 30.46 27.57 28.15 26.51 32.01 39.51 42.16 46.22 34.10 37.20 44.99 47.02 46.69 46.77 44.72 48.21 52.43 53.75 53.89 52.11 52.83 53.72 54.51 55.11 54.93 55.60 56.29 55.74 52.23 49.69 47.01 47.01 46.77 46.10 45.11 44.67 43.11 41.42 39.53 37.89 35.78 33.85 32.32
31.64 30.27 29.42 30.54 27.89 25.31 42.88 43.25 37.13 42.57 46.02 46.35 47.12 46.08 44.92 47.76 50.13 51.78 52.59 51.15 48.74 49.42 51.37 52.60 51.92 51.45 52.74 52.93 50.35 46.33 44.54 44.85 44.11 42.40 41.32 41.08 40.61 39.97 38.49 36.90 35.75 34.36 32.60 30.24
31.84 37.15 35.25 35.61 35.43 42.56 44.69 43.26 45.81 47.41 46.37 45.89 46.48 47.62 46.21 46.25 48.07 50.43 47.66 48.01 47.42 47.38 48.45 49.53 47.85 47.00 47.74 48.25 46.53 42.34 41.42 40.77 40.03 38.08 36.66 36.28 36.32 36.47 36.58 35.22 33.65 32.30 31.49 29.69
38.87 41.37 37.29 37.56 40.53 41.76 43.81 45.85 46.93 47.64 46.94 46.38 47.59 48.19 49.80 47.41 48.68 47.24 46.19 46.70 46.19 45.45 44.82 44.43 41.64 40.68 41.56 42.75 42.92 42.27 41.45 40.41 37.89 35.37 34.08 34.01 33.58 32.44 32.62 33.03 32.89 31.95 31.09 30.02
39.58 40.84 38.14 38.09 40.96 42.56 43.74 45.00 45.90 46.26 46.67 47.08 47.47 46.87 49.14 50.03 46.21 44.86 42.63 42.11 43.75 41.85 40.19 38.94 37.29 36.84 37.36 38.92 39.26 40.81 40.75 39.14 34.66 33.36 32.72 31.88 31.11 30.18 28.99 29.42 29.15 28.25 29.16 31.25
41.33 39.18 36.98 36.42 42.66 42.45 43.11 45.66 47.49 45.88 46.07 45.97 44.30 45.69 50.77 51.48 45.72 39.80 36.40 37.58 37.02 36.28 36.14 35.37 35.98 36.31 37.11 38.14 39.08 38.44 38.23 36.93 35.26 33.24 32.40 32.04 31.19 29.85 28.65 27.42 26.72 28.42 28.58 28.83

GFSCGP_sfc_wetblb_093.txt.gz
Wetbulb
47.24 43.96 42.59 45.17 46.79 46.95 46.55 45.77 45.74 48.45 50.55 47.68 47.82 48.24 49.50 51.88 53.20 53.82 54.40 55.85 57.99 60.01 61.95 62.16 61.84 61.14 60.01 59.99 59.61 60.14 58.52 59.28 59.54 59.51 58.16 57.74 57.63 59.11 58.83 59.02 59.09 58.83 58.98 59.66
43.79 41.33 46.04 48.67 47.97 47.06 46.05 44.74 45.02 47.66 49.68 48.38 47.74 47.22 49.37 50.77 51.57 53.84 54.15 55.91 57.37 59.83 60.96 60.69 61.15 60.17 58.82 58.62 58.68 59.50 59.82 59.47 59.80 59.62 60.09 58.46 57.75 58.48 58.45 58.84 58.75 58.91 59.03 59.36
42.67 44.58 48.08 46.17 46.40 44.71 45.34 44.03 44.53 44.54 48.39 48.83 47.18 45.60 47.41 50.45 51.78 53.38 54.70 55.80 56.83 59.17 60.20 60.10 60.14 59.77 58.51 58.45 58.78 59.22 59.43 59.67 60.02 59.58 59.84 59.71 59.15 58.27 57.45 57.86 57.84 58.13 59.27 59.89
45.25 47.29 46.31 45.70 44.48 46.02 42.96 47.14 45.14 45.11 44.87 41.25 48.46 39.38 46.01 49.38 50.76 52.70 53.85 55.18 56.29 58.30 60.68 60.59 60.19 59.95 58.92 59.71 60.02 59.11 59.51 59.04 59.95 61.43 59.84 57.82 57.15 56.08 57.55 57.38 58.40 59.00 59.81 59.73
43.21 44.36 44.14 43.75 44.90 46.77 44.43 46.99 45.39 45.36 44.58 44.01 44.09 41.67 44.67 49.07 47.95 50.18 52.74 54.42 56.19 58.57 60.61 60.17 60.44 60.19 60.68 59.31 60.43 60.37 58.90 58.54 59.80 59.78 60.15 59.15 57.47 56.51 57.48 57.57 57.81 59.05 57.40 58.19
45.17 49.11 47.16 45.83 46.96 47.16 47.55 45.36 45.13 45.17 44.45 38.30 43.03 42.72 42.70 46.46 49.21 51.08 52.65 54.45 56.41 58.34 60.45 61.00 61.32 60.58 60.83 60.11 59.37 60.78 59.03 58.49 58.98 59.83 59.75 59.21 57.00 56.52 56.75 56.31 55.92 57.17 57.54 56.84
41.90 43.83 46.98 47.53 44.08 47.42 46.05 43.09 36.20 33.03 35.25 36.13 44.84 42.01 43.90 49.71 50.50 51.56 52.43 53.63 56.99 58.88 60.36 60.65 60.44 59.49 59.83 59.62 58.54 59.34 58.86 57.83 58.42 59.28 59.55 59.54 58.69 58.58 57.37 56.75 55.76 55.95 56.37 57.10
35.49 34.11 43.36 46.32 45.22 43.34 43.46 43.14 37.39 29.52 33.23 37.90 45.26 39.37 43.86 51.29 52.73 53.50 53.67 54.50 57.27 58.74 60.36 60.77 60.78 60.45 59.80 59.67 59.63 59.85 58.41 57.90 58.85 58.27 59.03 59.67 58.80 57.28 57.22 59.18 58.67 56.86 56.54 56.41
38.07 36.55 43.52 44.09 44.93 45.30 42.67 39.94 45.51 39.69 41.72 38.31 41.74 44.72 48.49 50.96 51.74 52.12 52.60 54.67 55.94 58.28 59.94 60.62 61.29 61.60 60.52 60.09 59.98 60.39 59.80 59.72 59.07 59.37 59.45 58.94 58.70 58.19 57.99 59.40 61.28 60.26 59.26 58.66
42.73 37.58 42.89 42.97 44.97 45.01 42.94 45.77 38.90 40.74 32.60 31.17 39.02 40.73 41.75 46.22 49.49 51.41 51.53 52.64 54.57 57.43 59.49 60.57 61.39 61.90 61.78 60.95 60.64 60.65 60.45 60.13 60.02 60.49 60.33 60.18 59.58 60.51 60.64 60.08 60.15 61.62 61.20 61.53
43.07 41.88 40.84 43.48 41.61 40.50 40.98 40.06 41.84 42.87 40.97 35.02 34.21 39.16 48.71 47.99 49.92 51.08 52.54 53.83 55.16 57.18 59.26 60.39 61.46 62.31 62.71 62.05 61.05 60.57 60.37 60.23 60.66 60.49 60.59 60.53 60.12 60.60 60.92 60.97 62.29 61.52 61.57 61.30
42.27 41.32 37.79 39.88 45.12 46.50 45.37 42.74 42.29 37.59 37.03 40.59 39.62 39.86 50.72 49.92 50.71 53.25 53.20 54.20 55.39 57.79 59.79 60.47 61.34 62.14 62.15 62.13 61.31 60.55 60.52 60.32 60.65 61.33 61.16 60.59 61.39 61.63 61.54 62.02 61.32 62.80 62.49 63.02
41.04 38.25 34.31 35.55 40.96 44.09 42.49 44.20 44.43 44.22 43.24 38.84 37.19 39.60 50.47 49.56 49.25 50.59 51.42 53.45 54.82 56.07 58.88 60.41 60.84 61.33 61.93 62.20 61.80 61.19 60.60 60.22 60.73 60.93 61.16 62.10 62.34 62.20 62.14 62.18 62.21 62.59 61.39 61.14
41.40 38.56 36.07 32.15 35.91 39.78 37.89 41.40 43.47 41.84 37.82 38.93 39.81 41.60 45.96 47.89 48.32 49.80 51.01 53.16 54.80 55.98 56.27 58.63 59.96 60.93 61.82 62.12 62.26 61.78 61.15 60.82 60.61 60.45 60.68 61.16 61.34 61.70 61.96 62.60 62.76 62.72 62.93 61.99
40.68 33.67 36.85 37.05 37.72 38.79 38.44 38.64 40.08 39.19 40.40 37.60 40.84 42.03 45.79 48.50 49.28 49.96 51.42 52.30 52.25 53.96 54.74 56.12 58.76 60.26 61.53 61.95 62.49 62.66 62.39 61.81 61.21 60.31 60.40 61.09 61.61 61.89 61.58 62.03 62.35 62.08 62.12 61.67
41.01 34.77 36.52 33.64 37.23 37.70 35.98 38.25 38.96 39.27 40.35 41.34 41.94 41.25 47.37 49.34 50.26 49.56 50.36 50.86 51.56 52.49 53.80 56.12 57.18 59.31 60.49 61.50 62.25 62.42 62.68 63.12 62.89 61.31 60.84 60.97 61.25 60.65 60.99 61.51 61.44 61.36 60.76 60.59
36.69 36.09 33.14 29.84 36.26 36.26 32.68 37.42 38.83 39.45 40.71 40.97 38.52 43.30 47.17 48.36 49.19 50.28 50.39 50.83 50.98 52.46 54.34 55.51 56.22 57.46 59.07 61.03 62.31 62.50 62.76 63.37 62.28 61.56 61.08 60.69 60.48 59.85 60.77 60.05 59.78 59.63 59.72 59.35
35.05 35.14 34.18 30.46 32.56 23.53 36.51 41.89 41.89 39.94 42.39 43.58 42.49 45.11 48.66 49.23 50.87 51.61 52.38 51.97 51.99 53.70 55.10 55.94 56.75 57.40 58.39 59.65 62.04 62.91 63.22 62.63 62.01 61.40 61.13 60.82 60.52 59.85 59.96 59.87 58.90 53.85 51.20 46.95
39.40 34.69 31.05 29.02 29.85 34.02 36.73 40.69 41.84 39.55 39.62 47.10 46.51 47.83 48.99 50.56 51.80 51.94 53.53 54.04 54.92 55.31 56.03 56.00 56.70 57.16 58.06 58.98 60.41 61.94 62.12 61.92 61.34 60.52 60.52 60.59 60.57 59.57 56.04 50.00 46.62 43.75 40.02 37.78
38.97 37.70 33.08 30.92 26.32 25.12 39.04 42.52 44.82 45.03 36.44 46.06 46.41 46.91 46.64 48.63 43.91 48.90 53.52 54.95 55.38 56.11 56.47 56.85 57.60 57.53 57.80 59.32 60.46 60.57 60.05 59.91 59.11 59.82 57.74 56.10 52.03 49.05 45.33 42.39 39.63 37.77 36.04 34.19
32.32 32.78 29.99 30.86 28.13 33.31 41.33 43.28 44.81 34.36 37.45 45.87 46.23 45.81 47.11 45.37 46.16 50.37 51.78 52.93 55.73 54.85 54.98 56.31 57.11 57.02 58.04 59.13 59.58 59.02 57.29 50.62 49.11 47.65 46.29 44.93 43.72 41.44 39.50 37.36 35.83 34.07 32.37 31.26
33.03 31.20 29.95 31.28 28.26 26.17 43.71 43.82 38.34 43.43 46.42 46.91 47.55 47.28 46.18 48.52 49.81 49.55 49.67 52.46 51.54 50.53 52.39 54.97 55.93 56.21 57.35 57.45 52.98 47.54 44.62 44.30 43.49 41.98 40.48 39.25 38.61 37.70 36.36 34.82 34.41 33.19 31.13 29.87
31.96 37.08 34.98 35.73 35.13 43.64 46.29 45.48 47.37 47.49 46.26 46.86 47.25 47.55 48.41 47.35 48.56 48.62 47.16 51.66 48.16 47.90 48.85 49.92 49.86 49.56 49.07 47.87 45.24 41.08 39.91 39.38 38.10 36.95 36.31 36.25 35.95 35.46 35.06 33.75 32.38 31.53 31.33 29.95
40.18 43.47 38.71 38.58 41.82 43.18 45.40 46.34 47.22 47.11 47.30 47.71 47.68 48.39 48.27 46.64 49.81 48.26 49.24 49.30 46.62 45.13 44.43 44.75 44.16 42.93 42.34 42.49 41.11 39.85 38.71 37.83 36.23 34.28 33.49 33.15 32.11 31.77 31.97 32.64 32.79 31.62 30.76 30.09
40.28 41.65 39.42 39.39 42.29 43.72 45.10 45.99 46.62 46.92 48.50 48.07 48.42 46.98 47.52 49.49 49.41 47.93 44.41 41.99 39.65 39.76 39.95 40.42 39.82 39.05 39.59 39.57 38.66 38.71 37.39 36.34 33.68 32.85 32.50 31.24 30.26 29.10 28.27 28.71 28.72 28.95 30.85 32.23
42.13 40.27 37.95 37.59 43.42 43.44 44.42 46.77 48.16 47.04 47.08 47.89 45.53 44.62 49.55 47.33 45.81 43.15 39.35 38.73 35.12 34.22 35.49 37.31 37.54 38.17 39.30 39.73 39.21 39.29 39.24 37.08 35.27 32.62 32.06 30.18 29.13 28.52 27.84 26.78 26.52 29.21 28.74 29.16

GFSCGP_sfc_wetblb_096.txt.gz
Wetbulb
45.15 39.72 38.56 42.37 45.00 44.99 45.09 44.49 43.75 46.66 50.05 49.01 48.16 47.55 49.14 51.59 51.58 52.14 53.22 54.15 55.12 58.18 61.12 62.14 62.07 61.21 60.12 59.10 59.37 59.26 59.27 59.54 59.52 58.45 57.91 59.44 59.66 61.04 60.94 61.51 61.47 61.02 60.00 59.35
43.11 38.35 43.20 44.83 45.45 45.11 44.36 42.60 43.26 47.12 48.81 48.57 47.60 46.49 49.21 50.80 51.22 51.40 51.30 53.22 55.45 57.86 60.47 60.26 60.39 59.92 59.21 58.52 59.02 59.07 58.58 59.21 59.39 58.92 58.54 58.49 58.96 59.19 58.92 58.92 58.87 59.16 58.32 58.76
40.91 42.57 45.23 44.06 42.88 42.69 44.60 43.51 43.83 43.97 46.99 48.74 47.09 45.00 46.76 49.93 51.59 52.07 52.44 54.34 55.39 57.35 59.35 59.46 59.60 59.19 58.94 57.67 58.12 58.92 59.42 59.52 59.08 59.34 58.41 57.92 58.04 57.89 57.25 57.03 57.10 57.77 58.04 58.20
44.01 46.99 45.09 43.46 42.83 43.17 40.28 46.58 45.85 45.02 43.10 38.33 46.62 38.70 45.88 48.66 49.45 51.12 51.69 53.06 55.32 55.42 60.34 59.75 59.64 58.43 58.21 57.59 58.76 58.95 59.71 59.85 58.93 59.63 58.28 57.07 55.99 54.98 55.92 56.30 56.58 57.36 57.52 58.14
41.85 43.46 43.14 42.37 43.21 45.95 42.64 46.75 45.45 45.70 42.44 41.54 41.84 40.42 43.68 48.33 47.02 49.09 52.04 54.12 55.02 56.18 60.11 59.40 59.33 59.40 58.89 59.18 59.44 58.90 59.35 59.57 59.46 59.20 58.93 57.53 56.43 56.33 55.79 55.03 55.01 56.50 57.24 57.51
42.54 46.89 45.53 45.20 46.21 46.09 47.11 45.36 45.04 44.22 42.55 35.13 40.29 40.80 41.56 44.69 47.83 50.08 52.06 53.78 56.90 56.36 59.73 60.06 60.40 60.14 59.16 59.45 58.76 59.31 58.44 58.72 59.48 59.81 58.68 57.90 56.73 55.83 54.96 54.48 53.83 54.91 56.34 57.19
39.36 40.52 45.06 47.05 43.64 45.98 44.87 41.84 34.72 33.42 33.60 32.63 43.13 40.82 43.66 48.37 50.56 51.49 52.20 53.88 56.96 57.43 59.32 59.36 59.02 58.49 59.02 58.32 58.08 58.54 58.39 57.31 58.90 59.08 59.39 58.65 57.41 56.80 55.72 55.39 54.99 55.29 55.13 55.53
34.37 32.80 39.93 45.66 43.72 41.95 42.39 41.79 36.10 29.17 31.58 35.51 43.94 38.54 43.74 49.88 51.60 52.71 54.05 55.50 56.38 57.39 59.45 59.38 59.42 58.46 59.26 58.47 58.04 57.89 58.25 57.38 58.11 59.14 58.90 58.87 57.97 57.23 57.06 56.71 56.32 56.28 55.42 54.99
36.62 37.15 43.21 44.46 46.20 45.16 42.39 39.29 44.42 38.78 40.15 34.59 38.84 43.65 49.27 50.18 50.76 52.10 52.35 53.63 55.73 57.04 58.64 59.32 60.06 59.07 58.82 58.82 58.34 58.54 58.35 58.13 57.53 58.73 59.21 58.82 58.44 58.03 57.34 57.19 56.81 56.86 56.68 56.80
42.36 36.34 42.41 43.32 45.43 45.45 43.25 45.82 38.11 39.57 30.49 29.02 36.51 37.95 40.45 46.75 48.71 51.14 51.36 52.60 55.07 56.94 58.39 59.28 60.07 59.98 59.49 59.51 59.17 59.32 59.02 58.46 58.18 57.93 58.95 58.82 58.21 57.97 57.76 57.27 56.81 56.87 56.83 57.16
43.22 39.95 39.35 41.68 39.28 38.50 39.51 38.62 40.09 40.47 38.99 32.53 31.49 36.56 47.20 47.24 49.11 50.60 52.10 54.27 55.07 57.55 57.75 59.11 60.00 60.85 60.22 59.95 59.61 59.67 59.31 58.95 58.47 58.66 58.63 58.84 58.29 57.76 57.82 57.82 58.02 58.20 57.14 56.95
42.03 38.23 36.26 38.86 44.73 46.28 44.73 40.72 40.47 35.00 34.66 38.92 37.08 37.57 48.60 50.13 49.64 50.98 51.58 52.72 56.18 56.80 58.27 59.18 59.95 61.06 60.72 59.54 59.41 59.07 59.19 58.93 59.36 59.66 59.09 58.72 58.84 58.65 58.25 58.22 58.52 58.89 58.73 58.37
39.38 37.08 32.55 35.22 40.38 44.22 41.34 43.39 43.32 41.87 40.79 36.75 33.63 36.75 49.66 50.11 49.29 51.88 50.95 51.93 53.38 56.56 58.94 59.25 59.67 60.41 60.91 60.51 59.62 59.31 59.20 59.20 59.91 59.63 59.51 59.07 59.05 58.72 58.67 59.26 58.92 59.54 59.22 59.20
41.40 36.04 34.34 31.51 34.43 39.07 38.33 41.31 43.07 41.72 36.64 37.47 38.39 40.41 45.25 46.17 47.61 49.95 51.02 52.36 52.58 53.51 55.59 58.40 59.18 59.79 60.95 61.34 60.73 59.93 59.29 59.59 59.63 59.87 59.35 58.92 59.23 59.14 58.73 59.47 59.50 59.50 59.76 59.35
39.40 31.57 34.81 36.27 37.76 37.83 37.11 37.94 39.30 38.42 40.08 36.06 39.47 40.62 44.44 46.58 47.24 48.32 49.79 51.59 51.49 51.71 53.02 54.95 57.17 58.80 60.21 61.18 61.43 60.93 60.00 59.68 59.74 58.94 59.16 59.38 59.77 60.27 60.26 59.70 59.71 59.84 59.82 59.25
40.81 33.09 35.21 32.61 36.30 36.19 34.50 37.13 38.01 38.57 38.91 38.98 40.27 40.25 46.62 47.95 48.44 48.42 49.25 49.86 50.18 50.93 51.91 53.02 55.10 57.90 59.51 60.38 61.26 61.44 60.88 59.94 59.42 58.73 58.43 59.76 60.05 60.09 59.81 59.82 59.73 59.55 59.47 59.47
36.51 34.60 33.17 28.98 35.59 35.19 31.27 35.55 36.64 37.49 39.01 38.79 35.58 41.13 45.76 45.97 46.93 48.20 49.02 50.41 50.61 51.49 52.25 52.66 54.84 56.76 59.10 60.61 61.66 61.28 61.45 61.37 59.68 58.95 59.16 59.41 59.93 59.56 59.41 59.77 59.56 59.06 58.65 57.78
35.51 34.44 34.27 29.13 32.14 23.77 36.33 41.49 40.95 39.34 40.43 41.54 44.42 43.61 43.73 46.17 49.57 50.31 51.40 51.17 51.89 53.80 54.47 55.10 55.99 56.17 57.07 58.38 61.32 61.99 62.42 61.97 60.75 59.70 59.65 59.60 59.24 58.87 59.02 58.74 57.99 51.83 47.05 43.23
38.52 34.98 31.05 27.06 27.63 32.70 35.80 39.28 39.96 39.99 39.88 45.59 45.01 46.41 47.92 48.53 49.18 48.57 51.70 51.81 51.43 52.81 54.69 54.79 55.45 56.01 56.87 56.58 56.89 60.97 61.51 61.25 61.19 60.26 59.81 59.70 59.15 58.13 57.39 51.29 44.62 41.91 38.96 36.76
37.92 38.11 33.25 31.06 24.97 24.26 37.36 42.01 43.99 43.47 35.22 44.32 44.94 44.36 44.32 45.71 41.03 44.76 49.96 50.89 51.47 53.17 53.39 52.93 54.07 55.35 56.48 56.82 57.98 58.29 59.91 60.33 59.21 59.35 58.48 57.42 54.70 48.60 43.72 40.78 38.13 36.21 34.62 33.04
31.62 32.79 29.03 29.39 28.18 32.55 40.72 42.64 44.34 32.10 35.94 44.73 45.33 45.28 45.04 42.64 44.97 48.09 50.60 51.34 51.74 52.69 51.32 52.11 53.64 54.34 56.36 57.24 57.49 55.99 51.87 49.44 49.08 47.20 45.67 45.16 43.75 40.39 37.77 35.51 34.32 32.97 31.88 31.44
31.48 30.04 29.47 30.71 27.77 25.76 43.34 42.38 37.62 42.07 45.56 45.71 46.20 46.42 45.99 47.07 47.79 48.15 48.65 50.37 50.44 49.66 48.98 49.95 50.73 51.03 51.01 50.89 49.41 45.94 43.69 43.76 42.96 41.18 39.41 38.36 37.55 36.68 35.02 33.42 32.65 31.93 30.86 29.42
31.47 35.54 33.39 34.25 33.46 42.90 44.67 45.19 47.41 47.10 45.04 45.70 46.60 46.68 47.04 46.40 46.41 47.77 49.42 49.50 47.83 46.98 45.80 45.97 45.92 46.24 45.27 45.55 44.67 39.91 39.23 39.49 39.25 37.67 35.81 35.11 34.74 34.16 33.73 32.33 31.53 30.81 30.49 29.05
38.80 41.85 35.66 36.83 40.12 42.51 44.93 46.76 47.33 46.71 46.06 47.19 47.79 47.11 45.78 44.90 47.89 48.54 48.53 45.67 42.39 41.88 40.74 41.86 42.41 41.46 39.71 40.22 39.71 38.57 38.10 37.69 35.99 34.23 33.36 33.47 32.44 32.18 32.49 32.40 31.85 30.72 29.74 28.94
39.25 39.53 38.15 38.20 42.05 43.40 45.04 45.92 46.66 46.85 47.71 47.34 47.97 46.57 45.56 47.68 46.86 45.00 42.22 40.27 38.76 37.02 38.01 38.71 38.46 38.35 37.56 37.76 36.91 37.04 36.43 35.16 32.80 31.72 30.96 29.99 29.41 29.07 28.42 28.79 29.49 29.16 30.35 30.88
41.25 39.64 37.32 35.70 42.88 42.54 43.74 46.15 47.24 46.43 46.61 46.81 45.36 44.65 46.87 44.89 42.74 40.40 36.67 35.33 34.04 32.09 30.99 30.00 29.74 32.29 36.36 37.50 36.79 35.84 35.66 33.94 31.44 29.51 28.90 28.46 27.69 27.05 26.17 24.94 24.49 28.41 27.64 27.85

GFSCGP_sfc_wetblb_099.txt.gz
Wetbulb
41.41 35.21 32.62 35.33 40.35 41.76 41.40 40.27 39.34 42.34 45.84 45.75 43.39 44.12 46.57 46.99 45.11 45.81 48.66 48.39 48.99 53.47 58.57 57.95 57.68 57.42 56.59 56.90 58.72 57.81 58.35 59.18 58.31 58.35 58.25 58.39 59.57 60.96 60.57 60.88 61.55 61.10 60.33 59.19
38.64 34.51 38.89 40.16 40.71 41.10 40.74 38.79 38.20 42.05 45.11 45.60 44.00 42.95 46.26 47.30 46.80 46.92 46.48 46.24 48.89 56.01 56.69 56.75 56.25 56.26 55.53 57.41 58.18 58.42 58.87 58.31 58.90 58.20 58.28 59.19 60.25 61.02 60.56 60.97 61.10 60.67 59.11 57.86
38.86 41.20 42.86 40.20 38.97 38.41 38.65 38.23 38.66 39.37 43.79 46.45 43.46 41.23 42.99 47.66 47.88 48.57 49.91 48.92 50.86 55.89 55.47 55.75 55.72 55.23 55.37 57.37 57.93 57.87 58.17 57.81 58.96 58.35 58.48 58.35 58.69 58.91 58.89 59.87 59.65 58.62 58.67 57.56
41.44 45.42 42.93 39.16 38.28 39.91 35.69 41.14 41.89 42.13 41.27 35.07 44.23 33.04 41.11 45.21 46.89 48.18 49.25 49.91 48.48 55.69 56.48 56.15 55.51 54.72 54.99 56.73 58.27 58.70 58.53 58.46 58.72 57.10 57.55 57.06 56.44 55.83 57.44 58.18 59.16 57.82 58.07 57.59
38.18 40.77 40.56 39.92 41.05 41.66 38.97 42.45 42.04 42.04 39.99 37.12 38.57 36.07 37.46 44.92 44.92 47.09 46.26 47.68 49.04 56.22 55.89 55.58 55.43 55.49 55.53 56.56 57.21 58.24 58.86 58.25 58.62 57.96 56.97 57.03 56.30 56.60 57.18 56.66 56.58 56.82 57.31 58.04
38.66 42.69 41.01 40.68 43.57 43.69 44.86 42.09 41.80 41.85 38.18 31.94 37.99 37.09 34.18 40.34 44.89 47.90 49.35 49.64 50.03 55.81 55.89 56.40 56.11 56.15 55.14 56.35 57.11 58.21 58.34 57.67 58.27 58.28 57.77 57.03 55.52 55.05 54.33 55.27 55.29 55.43 56.26 56.87
36.31 37.02 40.30 42.62 38.48 42.22 41.38 37.39 30.08 29.65 27.41 27.73 39.95 37.35 38.16 44.45 47.89 48.92 49.34 49.82 50.42 56.06 55.51 55.50 54.99 55.04 55.18 55.90 56.91 57.72 57.49 57.68 57.89 58.19 57.07 56.31 55.03 54.85 54.03 54.38 54.80 54.50 54.54 55.75
29.59 28.46 36.84 41.31 38.97 38.24 39.37 38.13 31.09 25.06 26.62 30.26 40.69 35.15 38.97 48.09 50.12 50.94 51.50 50.62 54.34 55.30 55.94 55.68 55.55 55.32 55.65 55.94 55.92 57.17 56.90 57.31 58.06 58.20 57.45 57.10 55.93 54.79 54.70 54.96 54.59 54.29 54.53 55.20
32.95 33.33 43.10 41.41 41.48 42.10 39.52 35.73 40.75 36.11 37.11 31.80 35.76 39.13 44.66 48.38 49.05 50.58 49.42 50.75 52.53 54.97 55.34 55.35 55.57 55.99 55.69 55.80 56.00 55.96 55.97 56.84 57.90 58.28 58.15 57.31 56.63 55.29 54.77 54.61 54.35 54.44 54.95 55.71
39.59 33.38 42.00 43.51 41.76 41.70 41.51 43.51 35.27 36.72 27.47 25.01 32.97 36.06 37.72 43.23 45.93 49.19 49.80 49.21 51.95 55.46 55.22 55.76 55.20 56.29 56.33 56.31 56.01 55.76 56.50 56.44 57.28 58.15 58.42 57.84 56.88 56.42 55.56 55.25 54.62 55.47 54.88 55.31
39.11 36.47 37.24 41.28 37.31 37.25 38.00 37.63 38.43 38.91 35.31 27.44 26.05 32.74 44.27 45.12 46.61 46.32 48.63 49.83 50.75 53.08 55.59 56.07 55.86 56.38 56.82 56.65 56.33 56.12 56.15 56.04 55.72 57.07 58.41 58.12 57.20 56.37 56.63 55.56 55.58 56.30 56.05 55.63
37.48 35.59 33.57 37.15 41.31 42.97 41.77 38.53 38.04 31.77 30.14 33.59 33.00 33.29 47.41 46.85 48.28 47.91 48.84 50.14 50.45 50.87 54.31 56.46 56.77 56.36 56.59 56.33 56.47 56.24 56.17 56.33 56.40 56.34 57.43 57.81 57.28 56.37 55.75 55.80 55.71 56.51 56.10 55.91
36.06 33.04 29.34 33.89 36.79 40.63 39.82 41.67 42.42 38.86 36.60 32.35 27.28 31.96 47.10 47.33 47.16 48.64 48.74 50.02 50.30 51.10 51.01 55.40 56.98 56.37 56.54 56.29 56.67 56.84 57.05 56.54 56.89 56.89 56.64 57.01 57.19 55.90 55.58 55.69 56.14 56.39 56.22 55.51
39.91 33.35 30.01 26.25 32.04 36.12 33.29 36.66 40.64 37.40 31.25 32.27 32.59 36.34 43.35 44.95 45.81 47.20 47.28 48.68 49.22 50.05 49.40 52.87 56.49 57.18 56.68 56.89 57.06 57.31 57.29 57.18 57.30 57.21 57.01 56.52 57.22 56.79 55.93 56.27 56.60 56.77 57.36 56.57
36.21 29.82 32.96 34.25 35.35 34.95 34.17 34.08 36.67 34.21 37.01 34.57 37.13 37.68 42.19 44.61 44.96 46.16 46.54 49.89 50.65 51.32 51.99 51.20 51.04 56.64 58.16 56.71 56.94 57.49 57.30 57.56 57.09 57.28 57.17 56.53 56.79 57.61 57.36 56.80 57.27 56.86 57.72 58.12
36.83 30.74 33.76 31.32 35.60 35.65 32.65 34.91 35.20 35.78 36.25 35.69 36.79 36.13 42.21 44.84 46.01 44.89 49.21 49.67 50.03 51.22 52.57 53.09 53.09 53.33 54.57 58.14 57.23 57.33 57.24 57.26 57.80 56.98 56.86 57.60 57.32 57.57 57.04 56.73 56.86 56.69 56.78 57.72
34.34 31.63 30.13 27.64 34.10 33.12 27.19 33.15 35.13 35.71 36.94 35.58 31.75 37.38 41.76 41.04 45.45 46.53 46.42 47.42 48.03 49.85 51.15 51.71 51.75 52.30 53.11 54.11 58.89 57.67 57.55 57.87 57.38 56.86 57.34 57.68 57.81 57.56 57.62 57.55 57.03 56.69 55.41 55.72
33.30 31.61 31.77 27.74 30.24 20.94 33.79 40.56 39.22 36.94 39.07 39.75 41.54 43.11 43.59 44.62 46.46 47.02 47.71 47.11 48.11 49.52 50.78 50.74 50.81 51.24 52.65 53.87 54.19 58.29 58.86 57.95 57.10 56.74 56.79 57.25 58.00 57.64 57.85 57.43 57.27 53.93 46.66 43.15
35.39 33.40 28.31 25.82 24.77 30.83 34.33 38.35 38.85 37.88 37.43 42.06 41.23 42.46 43.24 45.03 45.70 44.60 47.68 48.45 48.80 49.61 49.93 50.13 50.81 51.60 52.87 52.27 52.82 52.92 57.29 58.09 57.22 56.38 56.33 56.78 57.07 57.13 56.73 50.88 43.15 41.34 38.69 36.68
35.20 34.61 29.46 27.53 22.94 20.53 35.24 40.37 42.31 41.11 33.29 42.92 42.67 42.00 41.82 42.32 35.60 40.07 46.21 47.39 48.62 49.09 49.09 48.76 49.74 51.52 50.21 49.06 50.74 51.32 51.69 54.37 55.38 56.18 56.04 55.66 56.01 54.65 44.98 41.36 38.61 36.74 35.34 33.47
27.75 28.61 26.12 26.23 26.68 30.60 39.29 41.29 42.97 30.06 33.05 43.02 43.45 42.32 41.73 39.48 41.28 44.25 46.44 48.49 49.38 47.78 47.62 48.04 48.24 48.84 47.18 47.06 45.88 43.28 44.01 43.84 45.08 43.50 44.83 44.10 43.01 41.29 38.73 36.29 35.55 34.34 32.89 31.98
27.52 26.59 25.36 27.89 23.74 22.90 42.17 41.33 36.36 40.33 41.28 41.64 42.54 42.22 42.04 42.42 43.57 44.49 47.33 47.27 45.89 43.68 43.86 44.47 44.65 45.29 44.31 44.07 42.44 39.90 39.05 40.54 42.31 41.86 41.24 39.40 39.48 38.06 37.29 34.77 32.91 32.38 31.58 30.29
29.12 32.73 30.58 31.03 29.78 39.20 42.87 42.80 44.61 43.75 41.89 41.25 41.96 42.01 42.32 41.29 42.11 45.84 45.92 43.04 40.92 39.33 39.48 40.82 41.53 42.49 41.32 40.97 40.46 38.62 38.23 38.66 38.15 37.60 36.80 36.34 36.58 35.47 34.95 33.34 31.50 30.80 30.79 29.52
36.85 39.93 34.87 34.69 38.14 40.02 41.99 44.10 44.86 45.01 44.13 44.35 43.69 42.79 43.88 44.11 44.93 44.31 42.08 39.37 37.04 36.18 36.68 37.42 38.92 38.55 37.24 37.85 37.79 37.41 37.18 36.75 35.80 34.60 34.22 33.54 32.88 32.57 32.52 32.34 31.96 31.15 30.29 29.26
36.50 38.81 36.74 37.01 39.39 40.29 42.52 43.77 44.40 44.47 45.27 44.49 43.74 44.23 43.93 43.84 40.73 39.83 37.14 36.48 35.24 33.12 32.62 32.52 31.96 35.98 36.17 36.12 35.29 35.47 34.94 34.25 31.92 31.06 30.38 29.39 28.86 28.13 27.30 27.61 29.62 28.96 29.06 28.31
38.21 37.35 35.42 34.05 40.76 40.03 40.79 43.89 45.69 44.69 43.06 42.94 42.42 42.10 39.36 39.05 37.69 37.10 34.57 33.79 32.07 30.31 29.72 29.64 29.73 30.77 32.37 34.81 34.04 33.38 33.23 32.16 30.25 28.47 27.79 26.82 26.16 25.61 25.19 24.52 24.41 28.31 27.43 28.01

GFSCGP_sfc_wetblb_102.txt.gz
Wetbulb
39.33 33.38 31.73 34.42 39.70 41.50 40.43 38.27 36.70 38.09 43.40 41.06 40.04 40.32 42.17 45.05 45.07 43.90 44.97 46.33 47.16 51.30 56.80 56.24 57.17 57.23 56.46 56.34 56.18 56.44 56.30 58.10 58.96 57.92 57.76 57.50 59.29 59.81 60.38 61.92 62.49 62.72 61.16 58.92
36.64 32.47 37.41 38.89 38.48 38.36 39.30 37.21 36.72 40.57 42.58 41.83 40.37 40.74 42.64 45.31 45.12 46.50 46.32 45.69 47.01 53.69 54.93 55.86 56.01 55.88 56.10 55.98 55.46 55.84 56.82 58.73 58.46 58.01 57.48 57.20 58.80 60.37 60.09 60.94 61.76 61.66 61.27 59.91
37.33 38.78 40.58 38.18 36.52 35.79 36.26 35.93 36.51 36.70 40.69 41.90 39.79 39.27 41.74 45.15 46.19 48.69 49.91 46.94 49.81 54.47 53.85 54.94 54.99 54.74 54.91 55.06 55.30 56.54 56.66 57.95 57.93 58.28 58.50 58.63 58.97 60.45 59.27 59.69 59.07 59.71 59.36 59.95
39.40 44.01 42.25 38.77 35.69 36.66 32.15 38.35 38.28 37.85 36.24 31.45 41.18 31.94 39.28 43.19 44.93 47.08 48.81 49.73 48.64 54.16 55.19 55.11 54.77 53.94 54.56 54.80 55.84 56.34 56.44 56.34 57.18 58.28 58.02 57.82 58.00 57.94 58.81 59.74 59.16 57.48 57.84 58.10
35.10 39.45 40.06 38.96 39.16 38.98 35.23 39.58 38.57 38.05 35.32 33.13 35.28 32.79 35.20 42.10 41.70 44.59 47.67 49.56 47.23 54.27 54.86 54.30 54.36 54.42 54.98 55.68 56.18 55.90 56.50 56.72 56.91 57.55 57.81 57.45 57.38 58.22 58.99 59.34 57.76 56.54 56.83 57.43
36.67 40.64 39.07 40.11 42.44 41.82 41.20 38.08 38.13 37.73 35.08 29.62 35.29 34.83 33.18 36.91 42.26 44.67 48.38 50.25 47.85 53.50 54.84 55.03 54.88 54.57 54.40 55.10 56.08 56.32 56.06 56.68 57.04 56.86 57.46 56.95 56.34 56.26 56.46 57.40 56.94 56.28 56.43 56.92
34.25 36.00 39.32 39.99 35.80 38.85 38.40 34.11 27.47 26.24 25.91 26.22 36.98 34.51 36.91 42.37 45.98 46.54 47.54 49.51 50.37 52.32 54.36 53.71 53.47 53.53 53.99 54.07 55.20 56.63 56.22 56.67 57.42 56.78 56.93 56.46 56.25 56.29 56.00 56.45 56.12 55.88 55.70 55.90
27.67 26.01 35.19 38.89 36.65 34.71 35.82 34.80 27.25 23.54 24.36 27.89 37.49 31.21 37.25 46.12 48.77 49.80 50.16 49.60 51.48 53.33 54.57 53.90 53.93 53.84 54.10 54.26 55.10 56.23 56.42 56.86 57.48 57.51 55.54 56.24 56.43 55.98 56.26 56.55 56.16 56.05 55.86 56.04
30.50 29.25 40.20 38.78 39.70 39.01 35.70 33.71 38.26 31.84 33.62 28.39 32.28 36.72 42.68 46.95 47.67 48.99 49.37 48.56 51.22 52.95 54.20 53.95 54.42 54.30 54.49 54.69 55.07 55.68 56.33 57.58 57.50 57.74 57.01 55.93 55.75 54.96 55.46 56.11 56.24 56.10 56.44 56.31
36.96 31.44 40.09 41.88 41.68 39.20 38.44 40.78 32.68 32.26 24.82 23.38 29.54 31.82 34.60 42.03 45.02 46.89 47.81 47.39 50.85 53.79 54.38 54.71 54.72 54.78 55.35 55.47 55.52 55.75 56.14 57.36 57.80 58.23 57.52 56.56 55.71 54.63 54.53 55.49 54.82 55.08 55.40 56.15
36.24 35.17 34.50 39.57 35.71 33.17 34.47 35.08 35.62 36.16 32.25 26.70 23.97 28.93 42.98 43.16 45.36 45.90 47.46 49.70 48.98 50.23 53.47 54.62 55.19 55.32 55.55 55.77 55.27 54.94 55.26 55.67 57.14 58.08 57.90 57.09 56.08 55.30 54.20 53.88 53.64 54.15 54.66 55.27
36.62 33.59 30.39 36.64 40.48 41.74 39.61 36.77 37.86 30.31 28.97 31.82 30.18 31.33 45.85 44.44 47.16 48.33 47.66 50.13 50.57 49.70 50.28 55.13 55.47 55.52 55.20 54.87 55.19 54.92 55.07 55.08 55.85 57.54 58.26 57.43 56.72 56.20 54.95 53.91 53.59 54.28 53.43 53.93
35.19 31.87 26.73 33.15 37.19 39.25 35.60 37.88 40.66 37.93 34.98 30.45 27.92 30.25 45.82 46.56 45.48 46.51 47.24 49.18 49.89 51.42 49.92 52.24 54.21 55.44 55.21 54.87 55.05 55.13 55.41 55.11 55.56 56.15 57.57 57.55 57.09 56.12 55.60 54.49 54.29 54.88 55.02 54.42
37.84 32.67 27.83 25.00 31.92 35.24 31.04 33.63 37.66 36.73 29.16 30.71 32.06 35.01 42.10 44.19 44.71 46.17 47.10 48.55 48.81 51.05 51.05 51.11 53.36 54.40 55.32 55.95 55.62 55.46 55.66 55.81 55.73 55.60 55.62 56.70 56.81 56.12 56.25 55.42 54.76 54.64 55.21 54.51
35.79 30.02 31.87 32.37 34.46 35.43 33.04 33.09 33.30 34.03 33.75 29.87 34.91 37.04 41.28 44.18 46.12 46.87 47.56 49.57 48.90 50.77 50.75 50.84 51.34 52.72 53.27 55.86 56.08 56.26 56.11 56.35 56.17 55.53 54.98 55.35 56.46 56.86 56.35 55.68 55.19 55.12 55.13 54.99
37.32 30.84 31.98 28.53 33.67 34.50 32.92 34.47 34.41 35.05 34.76 34.14 34.67 33.99 41.82 45.92 46.40 45.56 46.59 47.51 47.80 49.24 49.65 50.03 50.48 51.12 51.99 53.29 55.60 56.52 56.56 56.55 56.55 55.89 55.27 55.71 55.93 56.51 56.13 55.54 55.18 55.12 55.09 55.44
33.51 31.22 28.66 25.89 32.23 32.67 26.12 31.69 34.04 35.04 36.70 36.08 31.33 38.70 43.17 44.13 44.12 44.41 44.02 45.89 47.54 48.49 49.01 49.28 49.30 50.45 51.59 51.76 52.83 52.96 56.65 56.91 56.40 55.96 56.45 56.32 56.14 56.01 56.00 55.70 55.25 55.00 54.97 55.49
31.02 30.10 28.10 25.18 28.10 20.41 33.39 38.89 37.81 38.26 39.17 39.53 39.64 40.43 42.72 43.57 44.38 45.14 45.46 45.19 47.22 48.48 48.44 48.27 48.61 50.00 49.67 48.95 49.34 51.47 56.11 57.06 56.63 56.09 56.34 56.81 56.36 55.71 56.05 55.81 55.40 55.03 51.69 47.38
33.35 30.08 23.49 21.97 22.67 28.89 32.94 37.19 36.33 36.29 36.15 41.02 39.68 40.77 42.01 43.50 43.52 42.00 45.66 47.99 48.18 47.91 47.62 47.31 47.58 49.21 47.66 46.58 47.29 47.33 47.96 50.92 56.72 56.12 56.03 56.65 56.79 56.17 55.98 55.11 54.12 43.42 41.23 39.84
32.22 31.56 25.83 24.20 21.05 18.33 32.90 38.58 41.13 39.61 32.21 41.60 41.81 41.10 40.75 41.47 34.04 37.69 45.38 48.01 46.71 46.38 45.22 44.93 45.64 46.57 45.08 44.62 45.47 44.27 44.50 44.82 45.24 48.23 54.99 55.46 56.15 55.67 53.88 45.97 41.71 39.12 37.76 35.08
24.49 24.31 23.94 22.77 21.19 28.55 37.15 40.26 41.41 28.61 30.99 41.33 41.90 40.61 40.84 38.83 40.15 42.56 47.38 45.15 44.02 42.86 42.05 42.80 43.41 43.51 42.67 42.76 43.20 41.65 41.69 40.78 42.66 43.78 47.31 46.60 47.25 45.30 42.47 39.36 37.05 34.94 33.40 32.46
25.22 21.71 19.60 23.50 20.94 20.95 39.62 40.23 34.04 38.20 39.85 40.59 40.88 40.92 40.26 40.78 43.32 45.54 43.49 40.98 39.33 38.72 38.94 40.41 40.45 41.48 39.94 39.88 41.21 39.83 38.82 39.83 40.00 40.18 40.21 41.23 41.93 39.79 37.33 35.64 34.51 33.61 32.69 31.46
27.62 29.19 27.51 28.42 28.22 37.70 40.41 40.80 44.65 43.52 40.52 39.46 39.78 40.70 42.09 43.10 44.06 43.60 40.25 38.34 36.66 36.04 36.22 37.18 38.39 38.86 38.00 38.31 38.09 37.56 37.33 38.35 37.83 36.63 35.72 35.82 36.04 35.87 34.95 33.33 32.11 31.48 32.30 30.91
35.58 37.44 33.59 32.51 36.70 38.63 40.53 42.62 44.75 44.14 41.54 41.55 42.39 43.94 44.29 42.02 41.10 39.03 37.51 35.28 33.47 32.35 32.08 33.40 34.63 36.72 35.86 36.11 35.90 35.51 35.83 35.78 35.16 33.95 33.52 33.51 32.79 32.69 32.95 32.50 31.79 30.65 30.07 28.64
34.60 36.96 36.02 36.30 39.03 40.22 42.07 42.52 42.78 43.05 43.55 43.56 41.75 40.77 40.47 39.17 37.15 36.39 34.01 32.96 31.11 30.20 30.85 31.47 31.52 32.49 34.80 34.70 33.84 34.16 33.69 32.74 30.28 29.43 28.80 28.05 27.54 27.59 27.37 28.06 28.02 27.67 28.77 28.03
38.23 34.77 33.19 33.04 39.41 38.48 40.89 43.97 44.45 42.24 41.80 42.40 39.88 36.70 37.07 37.16 36.37 35.16 32.33 31.24 29.37 27.97 29.06 29.49 29.89 30.89 31.73 32.81 32.35 32.45 32.48 31.22 29.15 27.49 27.07 26.74 26.42 26.66 26.58 26.45 26.02 28.71 27.81 28.14

GFSCGP_sfc_wetblb_105.txt.gz
Wetbulb
37.95 31.57 30.58 34.52 37.35 38.92 38.07 36.31 34.96 37.16 42.44 40.26 38.18 38.84 40.66 42.07 43.22 42.86 44.56 44.25 44.66 45.76 54.58 55.75 56.48 56.62 56.34 56.14 55.90 55.84 55.75 56.00 57.50 58.65 57.97 57.85 59.11 59.59 60.58 62.06 61.23 61.55 60.17 59.35
36.29 31.72 35.33 36.80 36.67 37.17 36.91 35.83 35.34 38.19 41.17 40.44 39.53 39.24 42.12 41.66 43.34 44.50 44.71 45.14 44.41 49.81 53.01 55.40 55.28 55.32 55.58 55.46 55.70 55.33 55.56 56.76 57.18 57.56 56.56 58.06 58.97 60.14 59.55 60.90 61.47 60.75 59.11 57.33
33.43 37.26 41.03 36.69 34.84 33.75 33.33 33.49 34.01 35.81 39.74 39.18 36.19 35.94 38.66 42.36 44.06 45.83 46.92 47.22 45.52 50.22 52.65 54.72 55.20 54.96 54.98 54.91 54.73 55.44 56.52 56.98 56.94 58.19 57.80 57.90 58.05 59.61 59.15 59.48 61.28 59.74 58.27 56.96
34.88 39.65 39.20 35.56 33.89 34.23 30.22 35.64 36.26 35.45 34.07 29.05 37.09 28.74 36.12 40.81 43.11 44.60 46.29 46.21 45.38 50.25 54.14 55.15 55.24 53.85 54.63 54.78 54.70 55.52 57.21 55.72 56.14 56.84 57.02 57.15 56.58 57.48 58.74 59.01 59.89 60.35 58.77 57.94
31.98 37.89 37.02 36.16 37.77 36.30 33.00 37.65 35.22 34.62 31.66 28.74 32.43 30.40 32.76 39.28 39.89 42.67 45.80 45.53 45.85 50.42 53.48 54.71 54.96 54.77 54.47 54.42 55.20 55.92 56.02 54.65 55.38 57.45 57.45 56.40 57.94 58.77 59.13 58.02 57.52 58.94 59.40 58.72
34.22 38.23 39.47 39.08 41.58 40.46 39.08 35.48 34.58 33.53 31.25 24.48 31.10 31.39 30.30 34.18 39.94 42.41 45.45 46.56 47.06 48.57 53.03 54.94 55.14 54.40 54.03 54.52 54.55 55.13 56.30 56.22 55.70 56.28 57.69 57.52 57.36 57.66 58.16 57.44 55.86 57.26 58.28 58.13
32.12 33.60 35.81 38.51 33.73 36.55 36.20 31.90 24.72 23.92 24.14 24.01 34.19 32.70 35.34 39.62 43.07 43.98 46.33 47.77 48.37 47.61 52.07 53.96 53.02 53.20 54.24 54.33 54.34 55.08 55.52 54.99 55.78 56.35 57.21 57.01 57.23 57.63 57.87 57.68 56.32 55.60 56.62 57.52
25.16 24.41 33.36 37.04 35.44 32.10 32.70 32.42 25.98 22.23 23.00 26.07 35.36 29.32 34.46 42.51 45.85 47.57 49.09 48.68 49.30 50.11 51.76 53.81 53.34 53.69 53.79 54.12 54.52 55.48 54.93 54.87 55.84 54.97 56.57 56.83 56.76 56.99 57.62 57.93 57.22 56.41 56.80 57.59
26.84 27.27 35.98 36.79 38.28 37.50 34.06 29.72 36.39 30.09 30.20 27.07 30.22 34.66 40.01 43.66 45.69 46.66 47.11 48.25 47.96 52.72 53.28 53.32 53.40 53.57 53.64 53.87 54.36 55.74 55.13 55.36 56.02 55.42 55.72 55.82 56.23 56.39 56.63 57.13 57.27 56.87 56.92 57.04
33.76 28.48 37.20 39.55 37.64 36.85 36.20 38.06 29.98 30.37 24.32 23.56 27.13 29.72 31.74 38.53 43.14 45.77 46.12 46.96 48.34 49.42 52.90 53.42 52.96 53.49 53.96 54.18 54.57 55.42 55.78 55.50 56.22 56.18 55.36 55.15 55.29 56.22 56.53 56.58 56.13 56.39 56.60 56.64
33.40 31.48 32.89 37.75 34.53 32.40 31.60 32.19 33.74 34.62 29.89 26.24 23.68 27.03 37.84 39.39 43.23 43.90 47.09 47.70 48.80 48.85 49.15 51.77 53.82 53.95 54.27 54.03 53.99 54.66 55.26 55.60 55.88 56.44 55.95 55.13 55.43 55.34 54.69 55.73 55.97 55.54 56.04 56.08
33.72 30.89 26.65 32.98 38.98 38.93 36.38 33.52 34.53 28.41 27.90 29.28 27.49 27.66 41.92 42.14 44.56 45.54 47.52 49.00 49.22 49.23 50.63 53.03 54.20 54.38 54.66 55.21 54.42 53.31 54.41 55.64 56.22 56.93 56.37 55.40 55.83 55.12 53.85 54.42 55.48 55.57 55.38 55.72
34.19 29.70 24.70 29.18 33.98 37.51 33.51 34.79 37.70 35.68 34.12 29.81 25.86 27.93 43.78 43.76 43.47 46.11 46.85 49.26 49.22 50.02 50.09 51.67 53.95 54.06 54.59 55.07 55.34 55.13 53.80 53.79 55.27 56.57 56.42 55.78 54.99 54.83 54.28 53.31 52.68 54.30 54.94 55.28
36.94 31.29 27.99 23.70 27.07 35.41 31.55 32.37 36.33 35.05 28.68 29.11 28.91 33.11 40.72 43.57 44.12 45.93 47.10 47.81 48.78 49.85 49.71 49.20 51.85 52.84 55.30 55.90 55.15 55.23 55.19 54.44 54.07 54.93 55.56 55.62 55.38 54.85 54.69 54.07 52.81 53.13 53.44 53.40
33.83 27.93 30.37 31.67 33.86 34.71 33.85 31.99 32.68 33.43 32.83 28.86 32.02 33.09 39.01 42.67 42.70 45.67 47.71 47.99 48.56 48.62 48.90 48.86 48.73 51.72 52.80 53.58 56.09 55.85 55.61 55.59 54.62 54.18 54.24 54.75 55.37 55.38 55.65 54.30 53.31 53.40 53.99 53.38
36.63 29.13 30.99 28.86 33.25 33.77 32.54 33.56 34.40 34.85 35.70 35.37 36.06 33.28 41.68 44.09 45.10 44.88 46.26 48.32 47.59 47.95 48.34 48.90 48.90 50.24 50.73 50.71 51.59 52.74 56.14 55.95 56.08 54.95 54.16 54.75 55.73 55.31 55.03 54.95 54.16 53.25 53.45 53.59
32.19 31.28 28.67 23.68 31.08 30.04 26.55 31.72 33.58 34.19 36.34 36.99 32.72 37.38 42.59 41.94 42.85 43.81 44.91 46.67 46.73 47.35 48.10 47.63 47.86 48.74 48.29 48.06 49.22 49.54 51.16 56.04 56.18 55.65 55.83 55.31 55.02 55.54 55.24 55.53 55.16 54.20 52.81 53.09
29.77 29.99 29.73 26.28 27.75 18.45 32.22 38.47 38.84 37.32 37.83 38.49 39.31 41.54 42.42 41.70 42.94 43.77 45.94 46.75 46.65 46.79 46.55 46.28 47.09 48.22 47.11 46.59 46.66 47.80 49.27 52.13 56.50 55.93 56.03 56.10 55.53 55.20 55.82 55.01 54.56 54.36 53.95 52.50
32.30 30.06 26.02 24.21 24.22 27.34 31.56 36.45 34.40 35.74 35.70 40.54 38.84 40.68 41.68 42.42 42.90 42.60 47.57 47.24 46.25 45.61 45.04 45.43 45.99 46.87 44.35 43.80 44.37 45.12 46.01 47.53 48.42 55.41 55.73 56.04 56.13 55.86 55.46 54.63 53.94 51.75 46.93 43.69
31.05 30.03 27.51 24.97 20.24 14.96 28.74 36.99 39.63 40.18 31.37 41.54 41.50 40.68 40.89 41.85 35.29 38.46 46.25 45.42 43.60 42.84 42.01 41.90 42.76 43.88 41.26 40.85 42.79 43.19 43.26 43.66 43.90 45.33 48.99 55.14 56.35 55.66 54.59 54.65 46.44 41.16 40.91 36.54
23.83 24.44 23.11 22.21 19.33 25.83 34.41 38.68 39.81 28.76 32.18 41.51 41.54 40.79 39.98 36.79 37.58 43.14 43.72 40.85 40.46 39.60 38.96 39.91 40.97 40.22 38.75 40.30 41.88 41.44 41.04 39.49 41.06 42.91 44.11 45.16 52.68 54.81 50.70 44.82 42.34 38.48 35.00 33.51
26.29 20.70 17.43 21.63 19.53 19.30 37.25 38.64 32.12 36.87 40.17 41.52 40.45 40.10 39.38 42.13 43.22 41.29 39.63 37.27 36.08 35.17 35.11 36.05 37.98 37.76 37.57 38.23 38.71 38.47 37.05 38.56 38.93 39.03 38.57 38.87 40.23 41.99 43.53 40.05 36.44 34.97 33.45 31.45
26.93 29.14 25.60 26.36 25.54 34.09 38.44 38.84 42.16 41.36 38.94 39.22 39.26 41.22 43.27 42.16 39.36 38.98 35.97 35.12 33.38 32.52 33.51 34.82 35.21 36.83 36.80 36.29 36.00 35.17 35.51 36.81 36.59 35.78 35.05 35.02 35.19 35.75 36.56 36.38 35.18 33.49 32.88 31.61
33.24 36.31 31.58 29.52 32.63 36.21 39.27 41.50 42.57 42.45 40.90 42.75 43.34 43.11 40.89 38.21 37.94 35.70 34.55 32.69 31.29 31.45 31.82 32.79 32.87 33.26 34.16 34.47 34.27 34.15 34.13 34.28 33.46 32.35 32.58 33.17 32.33 31.95 32.29 32.63 33.11 32.04 30.67 29.31
33.06 33.31 35.10 34.15 37.77 39.06 40.67 41.68 42.14 43.00 42.05 39.75 38.85 38.80 38.03 37.28 36.11 34.68 33.01 31.16 29.81 29.66 30.16 30.72 30.84 31.47 31.68 32.89 32.83 33.10 32.45 31.70 29.65 29.20 28.59 28.03 28.26 27.87 27.49 28.33 28.88 28.70 29.02 29.25
35.37 33.30 31.96 30.86 36.83 38.42 39.82 40.50 43.70 42.03 40.69 39.03 37.07 35.34 35.04 35.05 33.19 32.00 30.28 29.48 28.61 27.63 28.49 28.73 29.40 30.06 30.01 29.90 29.69 30.82 31.34 30.44 28.88 27.55 27.37 27.45 27.29 27.14 27.02 26.58 26.57 29.42 29.10 29.68

GFSCGP_sfc_wetblb_108.txt.gz
Wetbulb
36.36 30.78 30.01 33.16 34.40 35.80 35.58 33.60 32.64 34.29 39.95 37.87 37.57 38.58 38.60 40.95 40.55 40.41 41.58 42.74 44.21 44.18 48.43 53.30 54.28 55.83 57.00 57.46 57.92 57.62 57.40 56.03 58.40 58.78 58.70 59.47 59.57 60.15 60.69 61.23 61.44 60.86 60.65 61.20
34.26 30.16 34.27 34.95 34.92 35.33 34.72 33.49 33.42 35.75 39.65 39.56 38.67 38.69 41.67 40.05 40.41 41.56 42.49 43.47 44.05 44.01 49.74 53.86 53.73 55.03 56.92 57.81 56.96 56.66 57.24 56.74 58.61 58.68 58.63 58.83 58.66 59.93 60.30 61.14 61.21 60.54 60.85 60.76
31.81 34.69 39.87 36.18 32.99 32.51 33.10 32.85 33.01 33.69 36.38 38.07 34.11 34.91 36.98 39.49 40.02 42.60 43.89 44.57 45.34 45.46 46.31 52.22 53.79 54.33 55.77 56.70 56.28 56.52 56.26 57.38 57.47 56.26 58.05 56.94 58.58 59.19 59.07 59.41 60.33 60.69 59.73 58.81
32.73 37.44 36.41 34.24 33.46 33.56 29.52 34.42 35.09 33.78 31.53 25.90 33.84 25.98 31.65 36.80 39.49 42.33 43.88 44.11 44.49 44.69 46.99 50.70 53.85 53.59 55.48 56.19 55.92 54.95 56.29 56.62 55.99 56.14 56.17 55.23 56.34 57.06 58.44 58.84 60.53 60.03 58.64 57.39
31.89 32.54 32.93 32.84 34.81 34.84 32.08 35.89 33.65 32.65 29.62 26.34 28.37 25.57 28.77 36.10 37.33 41.18 43.27 44.15 45.63 44.50 45.92 49.58 53.57 54.71 55.89 55.50 54.95 56.10 56.91 55.82 54.65 54.93 56.73 56.19 55.98 57.83 58.90 57.40 58.95 57.48 57.14 56.90
32.13 35.75 36.21 35.32 37.46 37.36 36.88 33.91 33.03 31.18 28.78 22.43 28.06 27.50 25.54 30.84 36.23 41.70 44.93 46.77 48.54 48.28 45.49 49.88 53.50 53.99 54.99 54.74 55.56 56.07 55.40 55.54 54.03 54.88 57.07 55.92 55.40 57.86 57.62 56.78 56.65 56.66 56.76 56.93
28.96 30.68 33.60 37.65 33.59 37.00 35.43 30.92 24.39 22.26 21.25 22.51 31.06 27.93 31.10 36.97 40.37 44.57 44.55 46.36 47.59 51.01 45.83 50.26 52.37 52.73 54.19 54.28 54.82 54.75 55.80 55.42 55.32 54.87 57.17 56.90 56.54 58.30 57.56 56.50 56.48 57.16 56.66 56.82
21.81 21.53 31.36 35.00 33.91 31.36 32.82 33.48 25.87 21.64 22.01 24.52 32.48 25.86 32.45 40.03 44.59 46.79 47.30 47.30 48.05 47.58 50.67 50.39 52.29 52.39 53.92 54.24 54.02 55.10 55.44 55.42 55.68 56.32 56.77 57.05 57.57 58.27 58.33 57.34 56.61 57.11 57.55 57.41
24.58 24.54 33.01 35.04 35.61 36.15 31.49 29.31 34.77 27.57 28.69 25.77 27.67 31.65 38.54 41.82 43.58 45.42 45.47 46.81 46.72 48.52 48.80 51.03 52.02 53.05 54.18 54.12 53.79 54.86 54.70 55.19 55.24 55.36 56.67 56.59 56.67 57.19 57.69 57.88 57.27 57.49 58.25 58.30
32.29 27.20 35.71 36.48 35.53 35.23 33.94 36.30 27.90 27.85 22.70 21.44 24.64 27.65 30.86 37.69 41.36 43.98 43.88 44.91 46.26 48.35 49.15 51.58 52.92 52.37 54.14 54.15 55.16 55.32 54.89 54.67 54.97 55.05 55.43 56.09 56.27 56.35 57.15 57.33 56.96 56.75 57.29 58.07
33.24 30.14 31.21 35.84 32.27 29.22 29.76 29.40 31.00 31.28 27.89 23.75 21.91 25.48 35.51 36.59 41.01 42.59 44.52 46.11 46.78 47.45 48.71 52.49 53.14 53.48 53.92 54.43 54.92 55.10 54.71 54.75 55.14 55.40 54.36 53.08 53.40 56.39 56.39 56.39 56.47 56.57 56.68 56.92
34.55 30.10 26.77 30.43 37.27 37.73 33.67 30.91 32.50 26.33 25.97 27.68 26.65 26.72 40.61 41.75 42.92 44.19 44.63 47.66 47.81 47.72 48.13 51.71 53.98 53.88 53.70 53.33 54.59 55.06 55.30 55.84 55.71 56.19 55.04 53.55 53.60 54.20 53.70 55.70 55.82 56.33 56.10 56.41
34.19 28.83 24.77 26.67 32.19 35.70 31.97 32.94 35.33 33.01 31.05 27.43 24.29 26.88 41.92 42.92 43.14 44.70 45.65 47.20 48.10 47.89 48.27 49.20 52.20 54.30 54.82 54.29 54.15 54.28 55.12 55.50 56.31 56.88 55.54 53.49 53.17 53.52 53.76 54.75 55.24 55.62 55.88 55.58
36.52 32.02 27.17 23.29 26.32 31.56 30.37 31.31 32.17 31.87 26.74 27.94 27.78 32.68 38.81 40.99 41.61 43.79 45.51 46.89 48.82 48.17 48.38 48.06 49.48 51.62 52.78 55.54 55.40 54.39 53.67 54.24 54.59 56.02 56.29 55.20 53.08 53.77 53.86 53.64 53.74 55.01 55.66 55.16
34.41 28.25 30.05 30.22 32.18 33.31 33.44 33.23 31.66 31.86 30.60 28.12 30.05 30.00 34.54 42.39 42.65 43.26 46.41 47.55 48.13 47.65 48.48 48.14 48.40 48.29 49.39 50.63 53.49 55.48 54.53 54.25 54.18 53.95 54.58 55.46 55.48 55.10 54.77 53.94 53.02 53.26 54.12 54.99
35.22 26.46 30.58 26.98 30.94 30.28 30.52 32.73 32.31 33.30 33.93 33.66 32.78 33.10 40.71 42.88 44.52 45.14 46.86 47.08 46.83 47.54 47.98 47.90 48.62 47.47 47.44 47.36 48.45 49.77 51.63 54.74 54.57 53.61 53.60 54.53 55.22 55.00 55.05 54.35 53.32 53.04 52.94 52.63
30.39 29.17 26.33 23.29 28.91 28.14 24.88 30.68 32.75 33.87 35.88 34.60 29.49 35.79 41.51 40.95 43.31 44.14 44.77 45.73 46.04 46.92 46.62 46.17 46.91 47.53 45.61 45.30 45.94 46.65 48.52 50.82 54.45 54.33 54.14 54.12 54.85 55.04 54.31 54.37 53.72 52.99 52.95 53.19
28.42 27.60 28.13 25.71 27.66 17.46 30.48 37.29 35.83 35.25 37.24 36.74 38.26 40.28 41.23 41.60 43.00 44.38 46.44 45.89 45.37 45.08 44.49 44.21 44.26 45.30 43.30 42.95 43.08 44.68 46.85 48.00 49.06 54.69 55.40 54.91 54.45 54.41 54.78 54.29 54.11 53.29 53.00 52.52
30.84 28.38 23.96 23.16 23.82 26.83 29.91 36.09 34.65 33.57 35.02 39.29 39.69 40.02 41.72 44.42 44.88 43.97 45.27 44.93 42.86 41.74 41.40 41.60 42.65 42.16 40.49 40.49 42.19 44.01 44.34 44.55 45.65 45.87 50.46 55.44 55.40 54.63 54.77 54.09 53.87 53.45 52.56 49.83
29.80 29.23 25.62 24.91 21.16 17.52 28.47 35.10 38.21 38.70 30.22 41.31 41.50 41.08 41.83 42.08 35.84 40.60 42.27 41.71 39.94 39.31 38.69 39.02 40.85 40.25 38.78 39.36 40.49 42.06 41.62 41.07 40.68 41.65 43.24 45.95 49.77 54.79 53.76 53.83 52.91 45.98 47.44 39.99
24.41 23.56 22.62 23.02 21.71 26.54 32.69 36.62 38.62 28.11 29.89 41.04 42.20 41.54 41.39 37.37 38.27 42.00 39.90 37.47 37.30 36.13 35.58 37.13 39.28 37.45 36.95 37.60 38.51 38.38 37.63 37.07 38.90 39.56 40.29 40.92 42.33 50.16 54.57 52.49 44.47 41.91 37.34 34.16
26.19 23.12 18.20 21.16 18.31 18.41 35.26 36.92 31.91 36.04 39.37 41.89 40.72 39.97 41.74 41.81 40.05 38.53 36.96 34.90 33.17 33.05 34.79 35.68 36.47 36.60 36.05 35.30 35.71 35.20 34.23 35.84 37.43 37.15 36.58 36.43 36.95 38.51 42.38 43.50 39.89 36.96 35.06 32.51
22.95 29.97 26.39 26.08 24.41 32.52 36.46 37.30 40.53 41.52 38.88 39.31 39.53 43.28 42.93 41.00 38.85 36.76 34.98 33.72 32.69 32.81 32.65 32.74 33.01 34.42 34.00 34.13 33.87 32.76 32.94 34.02 34.49 34.01 33.69 33.74 34.18 34.51 35.80 35.64 35.37 34.40 34.12 32.55
32.88 33.98 30.54 29.84 32.22 34.97 38.56 40.29 41.37 42.43 41.16 41.81 41.51 41.12 39.42 36.76 35.83 34.97 33.94 32.18 31.25 30.72 29.83 30.73 31.75 31.51 31.34 32.41 32.32 32.30 32.36 32.13 30.91 29.70 29.24 29.69 30.03 30.52 31.53 32.16 32.51 32.39 32.42 31.55
32.56 33.11 32.57 32.03 35.53 37.55 38.87 38.88 41.37 40.74 39.75 38.11 37.93 37.91 36.72 35.23 33.67 33.52 31.80 30.47 29.37 28.41 29.82 30.56 30.23 29.81 28.60 29.33 29.59 30.78 31.13 30.88 29.22 28.70 28.66 28.32 28.35 28.44 28.32 28.76 28.72 28.90 29.87 31.39
35.78 32.67 30.80 30.99 36.48 37.48 36.66 38.65 41.26 38.62 37.56 37.50 35.33 32.72 33.27 33.16 32.19 31.17 28.76 28.48 27.61 27.19 27.73 27.43 27.18 27.13 27.66 27.15 26.83 27.80 28.61 28.96 28.17 27.18 27.61 27.73 27.70 27.80 27.64 27.33 27.56 30.82 30.22 30.73

GFSCGP_sfc_wetblb_111.txt.gz
Wetbulb
39.35 35.35 32.80 35.97 38.06 38.30 37.46 36.56 36.21 39.74 43.59 42.50 42.61 42.98 45.17 46.69 46.91 46.54 48.24 48.83 49.34 50.08 52.79 54.76 59.02 59.44 60.36 61.68 61.97 62.69 62.81 62.72 61.57 61.23 60.46 60.25 59.62 61.42 61.76 62.09 62.12 62.01 61.48 61.75
36.54 32.90 38.39 38.00 37.91 36.91 36.29 34.79 34.83 38.25 41.62 41.54 41.07 40.89 44.25 45.64 46.10 47.46 47.70 48.02 48.43 49.84 50.97 52.92 57.74 57.87 59.09 59.96 61.29 61.18 62.03 61.16 61.50 61.11 60.73 62.52 61.95 61.56 62.13 62.54 62.61 62.89 61.59 61.40
34.44 37.12 40.29 36.92 34.85 33.95 34.94 33.93 34.39 34.41 39.34 41.90 39.88 37.68 39.70 43.17 45.02 46.00 46.58 47.73 48.93 49.28 50.72 52.76 54.36 57.71 57.88 59.18 58.74 59.43 60.47 60.44 61.37 62.03 61.20 59.95 61.24 61.00 60.76 61.42 61.95 61.74 61.35 61.08
34.05 38.63 37.94 36.53 34.79 35.73 31.83 36.82 36.13 35.54 34.89 30.60 38.32 30.65 37.68 40.86 42.29 44.54 46.83 48.73 50.79 52.41 53.12 52.53 52.59 56.85 57.80 58.59 58.48 59.10 60.05 60.06 59.77 60.02 59.51 58.42 58.84 58.43 60.23 60.76 61.86 60.81 60.85 60.77
32.21 34.63 34.90 34.53 36.12 37.15 34.55 38.02 36.57 36.24 34.36 33.73 34.31 31.58 35.40 39.49 40.72 42.94 48.51 49.33 51.00 53.78 53.38 51.90 52.93 56.10 58.43 59.24 57.36 58.66 60.57 59.74 57.89 59.00 58.98 58.08 59.14 60.20 60.32 60.36 60.31 60.56 60.13 58.92
32.74 36.59 37.56 37.19 38.39 38.91 38.86 36.56 35.52 34.98 33.54 26.65 32.04 31.46 33.04 37.66 40.51 45.74 47.78 49.28 50.55 52.40 54.21 55.89 55.00 56.82 57.97 59.22 56.57 59.10 59.86 57.50 57.40 59.70 59.32 59.13 58.30 58.43 58.86 58.93 58.88 58.64 57.92 56.46
31.24 31.18 35.49 39.89 35.72 38.04 36.85 34.22 27.47 25.99 25.53 26.30 33.96 30.74 34.97 40.43 44.58 47.63 47.28 48.92 50.74 52.28 53.63 54.85 55.50 56.04 56.86 55.61 55.67 57.34 57.91 56.13 57.54 59.63 60.10 59.61 58.37 57.86 59.11 58.68 58.12 56.10 55.95 54.55
26.29 25.32 31.45 35.75 36.59 34.66 34.18 34.40 28.05 21.21 23.56 28.02 33.63 29.03 35.10 42.92 46.34 49.02 49.00 50.06 51.05 51.84 53.80 54.96 55.32 56.19 55.86 54.76 55.27 56.34 55.85 56.07 57.00 58.80 59.32 59.61 59.54 58.88 60.02 58.65 58.69 56.69 56.54 54.92
28.21 26.47 34.16 34.80 37.61 39.95 34.76 31.33 38.14 31.34 32.26 29.62 32.67 36.59 41.73 44.39 46.54 47.63 47.77 49.30 49.31 51.60 54.19 54.91 55.52 55.97 56.18 55.41 54.92 55.63 55.72 56.42 56.12 57.77 58.31 58.21 58.73 59.15 58.90 58.47 58.75 58.41 58.02 56.28
32.64 27.47 36.59 37.16 36.58 38.07 37.50 40.09 30.72 32.26 24.58 23.55 29.69 32.43 35.28 40.98 43.54 46.28 46.83 47.69 48.64 51.64 53.63 55.00 55.26 55.68 55.93 55.39 55.21 56.08 56.53 56.04 56.58 56.72 57.37 57.55 57.64 58.50 59.02 58.40 57.73 58.38 58.29 56.57
33.68 30.99 32.97 37.12 32.93 31.27 32.79 33.39 35.36 35.81 32.70 26.95 26.01 30.89 40.47 40.97 45.06 46.15 47.31 47.53 48.53 50.49 52.27 53.15 54.81 54.86 54.88 55.08 55.20 55.10 55.45 55.53 55.98 55.91 56.60 56.72 56.84 57.90 57.87 57.70 57.55 58.06 58.23 57.95
34.88 32.00 27.98 32.38 38.36 39.51 36.63 34.37 35.72 31.11 28.89 32.67 32.40 32.21 43.60 45.17 46.58 46.84 47.75 47.58 48.58 49.62 51.20 52.15 51.99 54.69 54.37 54.63 54.59 54.51 55.38 55.87 56.13 56.12 56.27 56.58 56.73 57.11 57.77 56.87 57.13 57.53 57.29 58.18
33.90 30.71 25.82 29.08 34.28 36.54 33.25 34.89 35.64 35.77 34.69 31.19 29.01 31.93 44.15 45.55 45.82 47.84 47.91 48.12 49.07 49.52 49.77 50.15 49.78 50.49 51.20 54.67 54.73 55.32 55.96 55.99 56.31 56.67 57.40 55.97 55.97 56.18 56.54 57.25 56.83 56.93 56.71 56.80
35.87 32.20 28.74 24.59 27.86 32.27 30.82 33.97 35.63 34.53 30.01 31.23 32.85 36.06 41.27 43.30 44.77 46.55 47.92 48.78 49.82 49.59 50.03 50.23 50.27 48.76 48.95 49.98 54.81 55.18 55.99 56.93 57.50 57.81 57.46 56.16 56.18 56.92 55.99 56.50 56.27 56.61 56.87 56.65
35.05 27.63 29.98 30.63 32.13 33.34 33.05 32.54 33.33 32.05 33.67 30.68 33.95 34.99 41.59 43.91 45.56 46.51 48.37 48.76 48.71 49.01 49.41 49.50 48.84 47.70 47.24 46.97 48.06 50.17 53.69 55.99 57.39 57.89 57.24 56.29 57.01 57.22 56.24 55.58 55.93 56.15 56.22 56.17
34.04 28.92 30.26 27.74 31.55 31.23 29.50 33.58 34.03 33.42 35.72 35.45 35.98 36.86 43.02 45.44 47.39 47.36 47.50 47.78 47.77 47.72 47.59 48.01 48.59 46.55 44.93 44.56 44.68 46.87 48.25 49.84 54.26 56.42 56.81 57.00 56.46 56.72 56.53 55.75 55.05 55.32 55.76 55.74
29.78 28.94 27.63 23.98 30.27 29.29 26.94 31.66 33.24 33.69 35.48 36.10 33.25 39.12 44.44 44.22 45.61 45.99 46.49 46.98 46.09 45.50 45.37 44.84 45.26 43.92 43.07 42.25 43.17 44.14 47.36 49.44 50.67 55.02 55.57 56.53 56.54 56.60 56.46 56.32 55.38 54.71 54.73 55.30
29.19 28.15 28.67 25.82 28.56 19.14 31.54 38.64 37.77 34.32 35.43 39.42 40.49 42.09 43.87 44.30 45.73 46.15 47.30 45.46 43.80 43.18 42.74 42.34 43.04 41.02 41.06 41.58 42.12 44.47 46.04 46.26 47.86 47.32 51.63 55.21 56.21 56.40 56.57 56.75 55.53 55.60 55.54 54.42
32.84 29.78 26.33 23.69 24.02 28.03 32.77 34.96 34.78 33.35 35.29 40.24 40.75 42.41 44.67 44.94 44.81 42.78 43.85 42.60 41.17 40.84 40.69 41.34 41.95 39.99 39.91 39.34 41.28 43.33 42.19 42.66 43.13 42.23 43.76 45.27 48.00 55.03 56.09 55.66 55.34 55.65 54.16 54.04
31.31 31.47 27.77 25.31 21.36 18.79 30.05 35.95 39.13 39.32 32.40 42.29 42.74 42.93 42.21 42.70 37.62 41.70 40.48 40.48 39.16 38.55 38.85 39.59 39.68 39.27 38.09 37.88 39.78 39.49 38.56 38.95 38.87 39.23 40.67 41.97 43.26 45.34 53.59 55.08 55.18 54.09 53.41 50.89
27.53 27.21 24.33 24.13 22.42 27.17 34.81 36.74 40.65 29.72 32.58 42.86 43.41 43.13 42.51 39.47 39.93 40.12 39.47 37.36 37.45 37.39 37.42 38.16 38.82 37.28 36.26 36.80 38.32 36.89 35.83 34.96 36.69 37.65 38.24 38.11 38.86 40.94 43.40 53.26 51.02 48.56 41.85 38.18
26.95 25.39 23.76 25.54 22.67 19.40 36.78 38.12 33.92 38.11 42.02 43.04 43.32 42.66 42.37 40.55 38.81 37.87 36.78 35.51 35.44 35.29 34.71 35.21 35.86 35.39 35.51 35.19 35.57 34.33 33.24 33.96 34.98 35.12 35.17 35.34 35.30 36.22 38.59 40.97 40.00 38.92 37.18 34.28
26.31 30.28 27.34 27.62 27.72 34.35 40.27 39.68 42.07 42.24 41.45 41.77 43.35 43.78 42.45 39.74 37.60 36.72 35.27 34.27 33.27 32.97 32.66 33.88 33.94 33.14 33.26 33.15 33.15 31.56 32.03 32.79 32.73 32.18 31.55 31.74 32.42 32.88 33.88 35.39 35.39 34.08 33.83 32.73
31.49 35.47 31.39 30.75 34.40 36.67 38.64 41.95 41.12 41.58 40.86 42.38 43.25 41.41 39.89 36.61 36.20 34.99 33.86 32.74 31.58 31.59 31.54 32.21 32.28 31.11 29.93 30.62 30.78 30.78 31.76 32.15 31.13 29.99 29.96 30.20 30.41 30.39 31.07 31.61 32.63 32.99 32.28 31.08
31.21 33.35 32.06 31.72 35.03 37.11 35.92 38.74 40.03 38.77 38.36 37.67 37.34 37.52 36.61 35.88 34.50 33.59 31.96 30.66 30.06 30.01 30.29 30.02 28.64 28.74 28.15 28.95 28.54 29.27 30.24 30.95 29.78 29.56 29.31 29.05 29.19 29.36 29.24 29.63 29.94 30.05 31.19 31.40
34.83 30.58 27.57 28.49 33.13 34.81 31.81 34.62 37.74 36.68 37.06 36.53 34.91 33.58 34.23 34.23 32.05 31.28 29.43 29.34 28.95 28.52 28.59 27.82 27.19 27.29 27.26 27.15 26.87 27.30 29.00 29.84 29.27 28.25 28.12 28.08 28.21 28.48 28.66 28.35 28.35 31.06 30.64 30.93

GFSCGP_sfc_wetblb_114.txt.gz
Wetbulb
42.68 37.89 36.17 38.61 40.25 39.72 39.45 39.32 38.88 41.69 44.51 44.77 44.74 45.52 47.80 50.14 50.96 51.17 51.77 52.58 53.64 54.63 56.70 57.88 58.46 60.58 63.91 64.35 64.36 65.76 66.47 67.68 64.46 63.94 63.37 64.03 64.00 63.63 64.55 65.69 63.72 63.11 63.61 63.15
37.91 35.31 40.16 40.83 40.11 38.94 38.55 37.92 38.17 40.77 42.75 42.76 42.18 42.18 45.63 47.61 48.99 50.60 51.03 51.87 52.43 53.49 54.74 55.64 56.90 60.77 63.49 64.16 64.65 65.15 66.10 67.00 63.63 64.04 65.34 64.80 62.78 62.93 62.99 64.00 63.88 63.88 62.56 62.29
34.51 37.70 40.84 39.77 39.32 37.17 37.79 36.85 37.66 37.95 40.93 42.58 41.25 40.07 42.94 46.29 47.94 48.88 49.93 50.94 51.52 52.28 52.77 54.99 56.74 58.93 62.53 63.57 64.48 64.86 65.85 66.81 65.59 66.84 64.53 65.53 65.02 63.53 63.75 63.63 63.70 63.16 62.77 62.30
36.77 39.26 36.92 37.35 37.80 39.18 35.07 40.09 39.18 38.24 37.28 34.39 42.14 34.66 41.61 43.85 44.73 46.57 48.55 50.43 51.90 53.88 56.29 57.63 57.95 58.24 60.71 63.11 64.63 64.50 65.62 65.39 65.53 66.86 64.89 64.44 62.76 61.32 62.68 63.61 64.09 63.19 64.67 64.06
34.56 36.78 36.36 35.45 36.46 40.05 37.30 41.08 39.42 38.75 37.38 37.55 38.29 35.55 39.92 43.10 42.00 45.62 48.02 50.88 54.21 56.30 57.88 58.96 59.25 59.16 59.99 63.08 63.32 61.89 63.44 63.80 64.91 66.19 65.61 63.90 62.43 62.91 62.71 63.93 63.93 64.27 63.61 62.58
37.20 41.31 39.45 38.33 39.57 39.73 41.62 39.75 39.35 39.45 37.79 31.52 36.50 36.50 37.54 40.66 43.85 46.30 50.86 53.04 54.44 55.83 57.59 59.01 60.07 59.07 60.44 63.42 60.79 60.45 62.18 61.69 62.11 63.44 64.33 63.42 62.21 61.24 61.52 62.11 62.56 62.43 62.27 61.45
35.29 36.06 39.28 40.04 36.44 40.08 39.19 36.69 29.79 28.15 29.15 28.88 37.89 35.81 38.13 42.83 46.65 48.93 50.87 52.51 54.39 56.32 58.29 58.95 59.30 60.17 60.56 61.36 58.74 59.47 61.15 59.98 59.70 61.17 62.00 62.68 62.17 60.19 60.19 59.95 61.64 60.51 59.37 57.23
28.23 27.33 37.00 39.88 37.26 35.53 36.87 36.46 30.53 24.43 27.20 31.02 37.74 32.88 38.60 45.33 48.27 52.09 52.88 53.27 54.42 56.41 58.74 59.02 59.33 60.35 59.57 58.47 58.52 58.66 59.74 58.78 59.29 61.46 61.87 62.23 61.31 61.18 61.15 62.60 61.58 60.02 58.60 57.05
26.06 29.70 39.54 40.08 39.86 39.07 36.22 34.12 39.08 33.65 35.20 32.45 35.93 38.90 42.83 46.03 46.35 50.60 51.71 52.32 53.40 55.97 58.09 58.58 59.26 59.68 59.38 57.43 57.09 57.70 58.30 58.52 59.23 62.05 62.31 61.69 61.03 60.96 60.90 62.64 61.48 58.89 58.88 55.81
31.59 25.17 37.42 40.39 39.48 39.82 38.27 39.93 32.14 33.75 26.06 25.66 32.55 35.65 37.68 42.67 45.92 49.66 50.79 51.31 53.04 55.84 56.44 57.10 57.90 57.85 57.82 57.14 57.49 57.87 57.83 58.38 58.63 60.96 60.55 60.69 60.43 61.74 61.93 62.40 59.63 58.37 58.10 56.50
33.44 31.74 34.01 37.95 34.32 33.98 36.26 36.22 36.41 36.22 34.68 29.39 28.89 34.70 44.53 45.93 48.67 49.53 51.18 51.70 53.21 54.75 55.78 56.15 55.36 56.34 56.79 56.30 56.35 56.69 56.70 57.57 58.39 58.73 59.51 59.69 59.23 60.90 61.54 61.08 60.54 59.01 58.01 56.35
33.96 31.62 29.41 33.11 40.14 42.00 39.01 37.54 38.05 32.18 31.06 34.42 34.81 35.29 47.59 48.46 50.72 51.73 50.70 51.50 53.08 54.62 54.77 55.17 55.16 52.11 51.38 55.00 55.63 55.61 55.99 56.98 57.89 58.42 58.37 57.72 59.26 60.51 60.35 59.40 59.02 59.00 57.35 56.37
34.80 30.41 26.73 29.98 36.24 37.72 34.82 37.60 39.53 39.68 38.26 33.83 31.29 34.97 48.92 49.91 50.09 51.24 50.61 51.20 51.89 53.05 53.45 53.62 53.36 52.21 48.73 49.12 54.31 54.86 55.55 56.40 57.67 57.33 56.50 57.40 58.12 58.87 59.53 59.98 59.68 58.78 58.21 57.28
37.17 32.71 28.86 23.30 28.84 35.42 31.57 33.20 37.97 36.62 33.33 34.12 35.57 37.93 44.42 47.08 48.25 50.16 50.76 52.10 52.23 52.54 52.95 52.89 52.42 50.45 48.38 47.30 47.64 48.92 54.70 57.06 56.99 56.67 56.84 57.37 58.54 60.17 60.41 60.97 59.81 59.02 58.25 57.31
35.04 27.24 31.70 31.70 33.01 34.67 34.50 34.98 34.38 34.64 36.28 33.63 36.63 37.47 42.58 46.38 48.33 50.17 51.81 52.18 51.75 51.51 51.87 51.37 50.48 48.85 46.70 45.81 46.30 46.71 48.70 50.82 56.17 57.01 57.64 57.72 59.10 59.78 59.26 59.59 60.26 59.79 59.09 58.32
35.39 27.47 31.56 28.45 31.69 34.87 32.06 35.67 36.30 36.58 36.84 38.04 38.51 38.08 44.76 49.15 50.74 50.13 50.39 50.70 50.24 49.64 49.95 50.18 49.43 48.52 45.71 43.72 45.01 45.67 46.83 48.75 51.26 53.66 57.50 58.27 57.51 57.64 58.38 59.02 58.58 58.89 59.42 59.47
31.67 29.94 27.72 25.80 32.49 31.81 29.71 34.77 35.88 36.69 38.96 39.20 36.34 41.58 46.71 46.66 47.60 48.60 49.52 49.66 48.85 47.80 47.58 47.54 46.83 45.97 46.24 44.06 43.41 44.98 45.21 46.82 48.30 48.94 55.04 57.35 56.59 56.45 56.79 58.27 57.86 57.70 57.57 58.36
31.89 30.95 29.51 26.70 30.40 20.68 33.08 40.05 39.72 37.34 38.83 41.52 41.73 44.33 45.23 45.11 44.88 45.57 48.08 47.72 46.67 46.37 46.41 46.32 46.02 45.47 45.44 46.18 44.16 44.71 43.62 43.94 43.92 44.55 45.36 46.85 52.03 56.61 57.02 56.82 56.69 57.55 57.69 57.18
35.94 32.57 28.13 24.58 26.14 29.81 32.67 35.41 36.12 35.45 36.88 42.20 42.23 44.54 44.23 45.29 45.87 42.67 45.53 45.68 44.69 44.67 45.28 45.29 45.30 44.10 44.04 43.67 44.48 43.16 41.41 41.54 40.62 39.98 41.99 42.63 44.06 46.66 50.99 56.59 56.68 57.43 57.12 56.79
34.55 35.08 30.46 27.76 21.57 21.03 31.65 37.74 41.02 40.78 33.31 43.41 44.66 44.65 43.79 45.17 40.10 41.05 42.68 44.25 43.79 44.09 43.76 44.06 44.05 43.28 41.95 42.21 43.47 39.16 38.67 38.25 37.76 38.28 39.21 40.82 40.84 41.94 44.55 46.41 56.12 56.61 57.82 57.10
29.68 31.03 27.45 27.65 24.53 28.70 36.16 39.51 43.28 31.52 34.07 43.26 44.97 42.40 42.72 41.18 40.47 40.84 41.57 42.10 42.97 42.09 41.26 43.10 42.56 40.98 39.72 40.32 40.97 39.03 36.87 34.79 36.32 37.70 37.65 38.72 38.64 38.52 40.69 42.35 47.61 53.43 49.73 44.50
27.96 27.53 28.79 28.99 24.82 22.17 39.23 39.86 34.15 39.07 43.67 43.29 43.45 43.50 43.36 42.22 40.62 39.56 40.40 39.45 39.36 40.05 40.05 40.60 40.27 38.66 38.29 38.05 37.61 36.73 35.45 34.74 35.18 35.35 35.39 35.98 36.28 36.44 37.30 39.37 39.36 40.22 39.45 36.00
28.05 30.66 29.65 30.28 31.36 39.06 41.32 39.33 42.28 43.74 42.33 43.45 44.14 45.22 44.60 41.94 39.89 38.97 36.93 36.91 36.42 37.90 38.01 38.59 38.53 37.43 36.41 35.88 34.57 33.70 33.66 34.67 33.96 34.01 33.49 33.81 34.71 34.63 34.33 35.23 35.43 34.64 34.40 33.33
32.17 35.64 31.40 32.39 35.95 35.92 35.54 39.01 41.30 41.07 41.68 43.40 44.64 43.67 43.07 39.93 38.88 38.48 37.94 37.19 36.45 35.54 35.33 35.84 35.88 34.64 33.79 34.29 33.12 32.68 33.47 34.77 33.58 32.57 31.63 31.99 31.75 32.04 32.26 32.68 33.45 33.45 32.45 31.15
31.97 33.26 30.98 32.13 33.61 33.94 33.14 34.41 37.58 38.44 38.30 37.57 40.01 40.03 39.71 39.08 37.33 36.52 35.47 35.18 34.70 34.32 34.50 33.96 32.53 32.07 31.69 32.49 31.17 31.70 33.01 33.68 31.65 30.85 30.82 30.68 31.14 30.82 30.38 30.36 31.22 30.94 31.66 31.76
34.99 30.27 28.01 27.97 32.23 32.64 31.21 34.08 35.73 33.80 33.66 36.05 36.63 35.51 36.03 36.98 35.14 35.02 33.67 33.97 33.54 32.60 32.55 31.43 30.69 30.41 29.97 30.24 29.61 30.16 31.32 32.34 31.15 29.52 29.32 29.80 29.96 29.76 29.25 28.45 27.82 30.25 30.07 29.83

GFSCGP_sfc_wetblb_117.txt.gz
Wetbulb
43.78 39.52 37.82 39.96 41.44 40.62 38.43 37.76 37.25 41.27 45.61 44.69 44.56 45.17 47.30 50.69 51.70 51.99 52.71 53.77 55.27 56.22 58.09 58.94 60.12 60.78 60.93 63.42 64.28 64.97 66.26 69.17 70.23 68.76 67.70 65.89 65.26 65.06 65.90 66.31 66.62 67.35 67.39 66.72
39.97 36.68 40.76 41.39 41.79 40.56 39.34 36.78 37.55 40.75 42.43 42.46 42.89 43.26 47.33 48.65 49.10 51.09 51.92 52.90 54.10 55.05 56.29 57.62 59.00 59.92 61.58 61.64 64.64 65.05 66.34 68.15 69.11 66.97 65.95 67.04 67.56 66.60 67.14 66.46 66.19 66.03 65.67 66.11
36.85 39.36 41.71 39.80 39.06 38.27 39.03 37.53 37.79 37.56 40.61 42.47 41.95 40.48 42.79 45.96 47.93 48.93 50.33 51.84 53.37 54.12 54.68 55.30 56.62 58.39 59.85 62.44 64.74 65.17 66.36 67.39 68.30 65.25 66.35 67.47 66.98 65.50 64.09 63.59 64.61 65.45 65.08 64.31
37.60 40.86 38.74 38.14 37.11 38.49 35.75 41.03 39.75 37.80 36.72 34.20 41.87 34.40 40.98 44.86 46.30 48.24 49.57 50.92 51.76 52.70 53.79 54.53 55.66 57.46 59.66 62.40 65.14 65.79 66.36 66.87 67.55 65.90 66.47 66.80 64.70 62.61 64.22 64.61 64.94 64.75 65.66 64.40
36.00 37.46 36.34 36.63 37.79 39.78 36.51 41.04 40.47 39.77 37.57 36.87 37.46 35.65 39.89 44.47 43.89 46.47 48.66 50.08 52.16 54.21 56.26 57.34 58.24 59.10 59.92 62.29 64.76 66.18 66.59 66.86 66.94 66.78 67.20 66.56 66.25 65.23 65.09 64.70 64.82 64.41 64.73 64.88
38.09 41.77 40.47 38.27 39.68 40.34 41.12 38.93 39.83 40.14 38.36 31.41 36.69 36.47 37.55 41.46 44.04 46.86 49.85 51.18 53.75 56.15 57.78 58.71 60.34 61.94 61.13 65.10 65.60 65.51 65.50 66.28 66.53 66.26 67.26 66.52 66.13 65.17 64.08 63.78 63.51 63.54 64.30 65.12
35.49 37.18 40.06 41.21 37.21 39.93 39.30 36.22 30.11 28.89 30.18 29.98 38.27 36.07 38.78 44.06 46.22 47.88 51.01 53.80 55.61 57.50 58.20 59.07 59.95 61.23 60.88 63.06 64.04 61.72 62.75 64.04 64.57 65.25 66.40 66.40 66.00 65.12 64.04 63.75 63.12 63.20 63.31 63.01
28.38 27.15 35.06 37.89 35.94 35.57 36.53 35.80 31.17 24.50 26.83 30.93 37.78 33.91 38.77 45.58 47.39 50.20 53.40 55.10 56.22 57.03 59.08 59.38 60.51 61.51 61.42 62.32 62.75 59.46 60.91 61.77 61.72 63.91 65.16 65.39 65.42 64.48 63.57 63.24 63.12 62.65 63.00 62.67
27.34 28.07 36.89 39.59 40.81 39.63 36.05 33.90 38.83 34.23 35.93 32.32 35.36 38.56 43.09 45.71 46.41 51.10 52.67 53.89 55.29 57.18 58.74 59.65 60.68 61.12 61.16 60.30 58.90 58.61 60.18 60.51 59.96 61.93 63.81 63.61 63.99 63.45 62.55 62.80 63.56 63.46 63.39 61.72
32.70 25.24 35.88 38.44 41.43 41.62 38.56 39.92 32.96 34.77 26.48 26.42 33.33 35.97 37.16 42.06 44.40 49.43 50.88 52.84 55.32 57.23 57.72 58.34 59.03 59.03 58.78 58.06 58.10 58.56 59.54 59.52 59.82 61.85 62.58 62.77 63.04 63.32 63.02 62.54 62.43 62.58 61.42 60.33
35.21 31.60 30.85 35.06 34.70 34.70 36.55 34.89 36.31 36.22 34.82 28.95 28.74 34.12 43.91 44.18 45.99 47.73 50.98 53.55 55.19 56.36 57.28 56.95 55.82 56.03 55.79 57.61 57.50 57.43 57.84 58.39 59.06 60.86 61.72 62.58 62.22 62.50 62.04 62.17 62.39 62.04 60.32 59.12
34.99 31.65 27.34 29.42 38.27 41.33 41.38 37.15 37.16 31.58 30.79 34.32 33.91 34.87 47.77 47.80 49.05 50.01 51.42 53.54 55.69 56.18 56.04 56.00 55.40 54.74 53.21 52.72 55.88 56.37 56.99 57.82 58.98 59.56 60.03 61.08 60.99 61.19 61.67 61.53 61.87 61.69 58.98 58.28
34.59 30.25 24.17 30.22 33.52 36.73 35.69 39.08 37.74 37.74 37.68 33.27 30.95 33.92 47.95 48.50 49.57 51.22 52.18 53.30 54.28 54.69 54.95 55.09 54.51 53.00 51.32 49.51 49.40 50.18 55.90 56.92 57.90 58.94 58.83 59.30 59.52 60.51 60.93 60.62 60.85 59.64 57.66 56.69
37.57 32.07 27.63 23.66 28.57 32.25 30.13 34.82 38.48 37.27 33.89 34.03 34.93 37.24 42.93 46.58 47.52 51.19 50.97 53.03 53.61 54.24 54.04 53.54 52.45 51.33 50.59 48.13 47.94 48.06 49.22 50.88 56.92 57.97 57.92 58.38 58.37 58.99 59.79 61.32 61.06 59.89 57.99 56.47
35.88 28.21 31.03 31.93 33.66 34.14 34.47 35.09 35.83 35.89 36.41 33.79 37.37 38.17 42.79 47.02 48.94 51.09 52.43 52.03 51.75 51.46 51.53 51.70 51.19 50.62 49.72 47.73 46.63 47.42 47.80 48.50 50.56 53.65 56.87 57.66 59.74 59.87 60.33 60.34 60.51 60.43 59.04 57.60
37.13 29.43 31.85 29.67 34.86 34.99 34.07 36.41 36.29 36.53 37.12 38.30 38.85 37.86 43.65 46.39 49.67 50.99 52.00 52.11 49.78 50.46 50.90 50.22 49.87 49.97 49.42 47.67 44.98 45.92 46.18 46.89 47.62 47.72 51.19 58.84 58.96 59.22 59.76 60.01 60.50 59.76 59.39 58.89
33.40 32.05 30.33 26.07 33.03 31.92 30.39 34.56 36.68 37.51 39.43 39.06 36.36 41.72 47.75 46.09 42.90 50.00 50.90 49.93 48.40 49.35 49.79 48.99 48.65 48.17 48.45 48.74 46.35 43.83 44.40 45.51 44.62 44.54 45.44 47.25 56.53 57.13 58.00 59.37 59.24 59.12 59.15 59.75
33.34 31.85 31.53 26.88 30.37 22.75 33.87 40.28 40.05 38.82 40.10 41.36 40.81 41.50 44.79 47.56 47.26 48.36 48.10 46.52 46.91 48.09 48.27 47.97 47.73 47.52 47.41 48.28 48.71 46.88 43.32 42.63 42.33 41.54 42.02 42.95 44.54 48.12 54.81 57.11 58.46 58.76 59.07 58.74
38.62 33.94 29.47 25.96 26.30 30.98 33.39 37.08 36.86 36.27 37.37 43.70 42.50 45.10 45.17 44.30 46.46 43.10 44.79 46.55 46.68 47.08 47.76 47.43 47.10 46.53 46.46 46.54 46.89 46.56 43.87 40.42 39.67 39.20 39.44 39.99 41.60 42.41 45.35 50.32 56.98 57.98 58.09 58.31
37.79 37.40 31.92 29.14 23.66 21.39 32.84 38.52 42.05 41.90 33.83 41.58 42.85 44.14 43.38 44.65 39.14 38.37 44.27 46.09 45.64 46.01 46.48 46.39 46.07 45.24 44.29 44.40 45.79 44.02 41.45 39.37 36.90 36.98 37.68 38.47 40.12 39.60 40.94 43.15 45.58 52.82 57.75 57.99
30.76 32.10 29.05 29.35 27.30 30.77 38.26 39.99 43.13 31.31 32.25 41.56 38.96 43.00 42.93 39.34 38.96 40.84 43.45 44.06 44.96 44.74 44.00 45.90 44.77 42.85 41.91 42.42 43.55 42.02 40.46 37.41 36.84 36.62 37.09 36.95 37.04 38.02 38.96 40.28 43.51 46.15 49.40 44.50
28.01 27.93 29.12 30.45 27.00 24.51 39.86 38.74 32.71 37.46 42.27 40.07 40.83 42.56 41.97 43.31 42.81 40.90 40.83 41.66 42.79 42.92 42.71 43.50 42.64 40.87 40.54 40.46 40.43 39.38 37.15 37.23 36.53 35.41 35.25 35.58 35.92 35.97 36.02 37.93 38.70 40.16 40.14 36.31
28.25 31.02 29.31 30.05 30.35 37.33 38.00 36.50 40.39 40.39 39.25 38.77 43.04 45.37 43.75 40.67 39.88 39.95 39.25 40.02 40.00 40.62 40.52 41.21 40.92 39.86 39.00 38.54 37.79 36.69 36.25 36.97 35.96 34.52 33.95 33.29 34.11 33.87 34.31 33.83 34.73 34.79 34.93 34.22
33.61 37.06 31.93 31.69 34.98 33.80 33.22 34.51 36.63 38.17 37.52 38.47 40.42 43.01 42.50 40.64 39.78 39.06 37.88 37.87 38.63 37.86 38.17 38.84 38.25 36.99 36.10 36.72 36.03 35.92 36.15 36.14 34.04 32.42 32.05 32.41 31.47 31.15 31.75 32.61 32.45 32.79 32.52 31.94
33.18 34.88 31.56 31.95 34.32 34.08 34.34 33.63 34.62 35.20 35.81 37.27 36.71 40.60 40.49 39.27 37.73 38.28 36.69 36.08 36.75 36.83 36.97 36.56 35.37 34.14 33.95 34.54 33.97 34.07 34.35 34.99 32.51 31.52 31.69 31.23 30.88 30.21 29.06 28.93 29.85 29.69 30.34 31.47
34.68 30.95 29.14 28.21 33.00 31.84 32.63 34.29 35.33 33.33 33.60 34.26 36.03 36.72 38.42 38.82 37.28 36.71 34.67 33.56 33.02 32.87 33.03 32.20 31.75 31.21 31.12 31.70 30.76 31.08 32.36 33.18 32.38 30.16 30.07 30.09 29.73 29.31 28.85 27.73 27.16 30.01 29.29 29.09

GFSCGP_sfc_wetblb_120.txt.gz
Wetbulb
43.19 38.94 36.49 38.70 40.66 40.37 39.04 37.45 36.15 39.08 41.96 41.53 41.72 42.57 45.58 48.12 49.13 49.43 51.17 52.64 53.49 54.87 57.05 58.22 59.61 60.51 60.98 61.75 63.89 63.75 66.45 68.24 69.36 69.04 67.89 67.39 66.56 66.45 66.47 66.65 66.75 66.20 66.79 66.50
38.80 35.68 40.23 41.18 40.42 38.91 38.16 36.81 36.91 39.96 41.06 40.04 39.97 39.83 43.85 45.70 47.49 49.42 50.48 51.25 52.86 53.92 55.55 57.74 58.97 61.03 61.76 61.37 62.86 63.80 63.73 67.74 68.59 69.07 68.49 67.78 66.97 65.13 64.94 65.58 65.55 65.55 66.15 65.91
35.13 37.67 40.81 38.86 37.81 36.70 37.15 35.80 36.29 36.80 39.72 40.62 39.45 37.59 40.62 44.30 46.12 48.06 49.27 49.35 50.06 52.96 54.36 55.77 57.14 58.63 61.09 61.41 63.37 63.27 63.65 65.28 67.69 68.64 67.34 65.95 65.08 65.20 64.49 64.86 64.60 64.73 64.98 65.35
37.56 40.63 38.70 37.77 36.15 37.18 33.05 38.78 38.28 37.12 36.32 31.75 39.22 30.44 38.58 42.10 43.61 46.02 47.14 48.07 49.06 50.66 52.56 55.42 56.09 56.77 58.52 60.57 63.41 64.04 63.97 64.45 66.68 67.39 65.40 64.72 63.54 63.02 63.71 63.50 63.64 63.90 64.35 63.95
34.63 35.92 35.37 34.66 35.45 37.59 35.23 39.94 37.91 37.10 35.21 35.84 35.69 32.52 36.28 41.35 40.99 43.58 46.52 48.79 49.84 50.59 52.20 53.07 54.32 55.78 59.71 60.08 62.96 63.60 64.22 64.64 66.75 65.88 64.97 64.50 64.21 64.25 63.81 63.74 62.46 62.93 63.73 63.58
36.73 40.11 38.41 37.38 39.03 38.94 39.70 37.40 36.34 36.92 35.34 28.86 34.97 34.04 34.14 37.61 40.78 43.51 47.41 49.58 50.86 53.17 56.21 57.37 59.55 61.05 61.16 64.57 64.27 65.05 64.57 64.42 65.86 65.24 65.43 64.59 64.65 63.62 63.08 62.99 62.77 62.48 62.90 63.20
33.78 35.45 38.60 40.15 34.68 37.77 36.35 32.87 25.53 24.73 26.42 26.82 36.32 33.92 36.08 41.65 43.34 44.43 47.80 52.26 54.63 56.30 57.32 58.34 58.95 59.98 61.02 62.87 64.53 64.07 63.85 63.60 65.43 65.52 65.05 65.23 65.05 65.29 63.88 62.52 62.38 62.07 62.44 62.51
27.13 25.42 34.57 38.12 34.67 33.15 33.22 32.44 26.32 18.84 23.36 27.82 36.05 31.14 36.41 43.33 44.87 46.44 52.60 54.13 55.23 56.13 58.03 58.55 59.98 60.83 61.13 62.73 62.82 60.78 60.91 61.53 64.41 64.87 64.87 65.01 64.43 64.53 63.84 63.36 62.45 62.09 62.09 62.13
26.63 26.65 36.53 38.11 38.92 37.21 34.97 30.74 36.00 30.73 32.62 28.69 33.45 36.98 41.48 43.47 43.98 45.31 51.97 53.49 53.87 55.78 57.05 58.64 59.26 59.76 59.14 59.68 60.15 60.04 59.58 60.63 62.15 62.63 63.09 63.44 63.24 62.73 62.60 62.76 62.20 61.80 62.14 62.48
32.72 25.06 34.19 36.56 38.69 40.19 37.28 39.49 29.87 31.21 22.25 21.35 29.14 33.19 35.29 39.86 41.81 45.65 50.70 51.72 54.48 56.59 56.94 57.21 57.06 56.96 57.51 57.90 58.37 58.85 59.00 60.11 60.30 61.00 61.58 62.48 61.92 62.28 62.49 62.19 61.53 62.00 62.11 60.84
35.81 30.67 29.39 34.29 31.72 31.39 33.32 33.06 34.96 34.06 31.81 25.26 24.73 31.32 42.06 43.97 43.73 47.77 50.45 53.06 54.05 55.01 55.53 55.02 55.07 54.63 54.53 55.81 56.30 57.89 57.64 58.20 59.22 59.58 60.75 61.50 61.19 61.61 61.07 61.20 61.99 61.09 60.64 60.51
36.09 31.50 24.82 28.85 35.35 38.41 37.23 32.79 34.18 29.14 27.50 32.31 31.96 31.91 43.68 46.65 47.47 49.39 50.32 53.08 54.99 55.35 54.76 53.93 53.68 53.00 51.35 51.08 51.33 51.32 56.26 57.66 58.79 59.40 59.48 60.15 60.42 60.26 60.03 60.16 61.35 61.30 60.06 58.80
34.83 28.70 23.14 25.97 31.87 34.94 32.32 34.69 35.57 35.65 35.84 30.95 28.31 32.03 43.65 46.17 46.67 48.90 51.29 53.16 53.54 53.29 53.33 52.25 50.97 50.24 49.13 48.65 48.74 49.20 50.28 51.24 55.89 58.27 58.56 58.24 58.32 58.73 59.35 59.95 60.84 59.97 58.77 57.77
37.93 31.34 26.96 21.96 26.23 31.54 28.82 32.51 34.48 35.07 29.43 31.56 33.03 35.36 39.64 44.81 43.47 48.40 49.27 49.28 50.78 51.93 51.92 51.13 50.19 49.46 48.87 48.42 47.87 47.72 48.29 49.51 51.05 52.50 57.62 57.53 57.20 58.32 58.62 60.27 60.11 59.25 58.27 56.49
36.06 28.00 30.42 31.48 32.67 33.15 33.01 33.64 35.15 34.21 35.48 30.65 34.89 35.98 39.62 43.80 44.71 47.86 49.61 50.95 50.96 50.65 50.27 50.23 49.32 48.68 48.16 47.46 47.08 46.58 46.92 47.02 48.24 49.07 50.53 55.22 57.66 58.91 59.03 59.37 59.67 59.34 58.02 56.55
36.55 28.45 31.61 29.47 33.13 34.13 31.44 34.67 35.77 36.11 36.55 35.77 37.20 37.19 44.37 46.30 44.21 45.39 45.95 49.64 49.24 48.74 48.64 48.96 48.81 48.76 48.19 47.42 46.36 45.22 45.03 45.18 46.04 45.69 45.35 46.54 48.94 57.60 59.11 58.91 58.71 58.92 58.14 56.85
33.78 31.19 29.15 25.26 31.86 31.76 29.05 32.23 33.62 34.60 38.37 38.70 34.81 39.53 43.05 44.30 44.55 43.00 41.36 45.77 47.30 47.61 47.70 47.49 47.00 46.54 47.08 47.92 46.55 44.23 43.66 43.89 43.62 43.50 43.43 43.66 44.38 46.89 51.68 57.94 58.65 58.07 57.90 57.60
33.86 32.42 31.22 26.70 29.67 21.62 32.49 38.64 37.76 36.38 35.95 38.69 39.07 41.77 43.97 42.56 43.50 44.94 45.25 44.79 45.00 45.79 46.12 46.10 45.93 45.47 45.81 46.58 46.43 45.93 43.87 41.93 40.88 40.61 40.82 41.53 42.09 42.32 44.97 48.73 56.34 57.56 57.65 57.20
37.90 34.18 28.62 24.91 25.38 29.76 32.41 35.83 34.93 33.47 34.37 37.76 38.32 40.16 42.87 43.43 42.99 41.43 44.69 45.10 44.97 45.52 45.80 45.26 45.15 44.51 44.25 44.41 45.15 44.04 42.56 40.51 39.04 38.19 38.44 39.28 40.05 40.37 41.40 42.89 45.92 50.01 56.49 56.37
37.09 37.04 30.61 28.70 23.03 21.15 30.59 36.77 40.75 41.23 31.03 38.43 39.22 38.81 41.03 43.76 33.93 37.07 42.69 43.88 43.50 44.68 44.88 44.19 43.76 42.63 41.75 42.09 44.03 41.72 39.73 38.67 36.74 36.53 37.12 38.29 38.16 38.10 38.35 39.32 41.38 44.82 48.97 55.83
29.67 30.83 27.68 27.84 25.94 30.06 33.47 37.75 41.14 26.02 28.81 38.72 36.47 38.38 37.30 34.36 38.44 40.89 42.89 43.09 43.33 43.02 43.08 43.72 41.97 39.94 39.27 40.19 41.64 39.14 37.72 35.94 37.13 36.66 36.49 36.12 36.66 36.57 36.95 37.29 40.40 41.53 45.06 42.16
27.91 26.43 26.29 27.37 25.79 23.04 34.57 35.64 29.61 34.58 37.61 37.24 35.39 39.57 40.30 40.13 40.22 40.17 40.25 40.32 40.62 40.06 40.62 41.43 39.98 38.20 38.14 38.10 38.27 36.44 34.95 36.39 36.72 36.08 34.71 34.18 33.84 33.92 35.41 35.45 36.35 37.42 37.81 35.65
27.36 31.02 29.63 30.18 28.61 34.22 34.15 32.63 34.51 36.28 35.64 35.78 34.60 40.99 40.64 39.27 38.69 38.65 38.17 38.44 38.23 38.19 38.22 39.00 37.83 36.87 36.59 36.38 35.78 34.19 34.51 35.44 34.38 33.61 33.00 32.73 32.21 31.71 32.52 32.55 32.67 33.69 34.33 33.67
33.10 35.97 30.74 30.24 33.12 32.39 32.71 33.20 33.99 34.48 34.25 36.79 35.96 38.93 39.16 37.36 37.10 36.65 36.74 36.49 36.19 36.09 35.35 35.95 35.20 33.88 33.11 34.00 33.59 33.22 34.41 34.92 32.72 31.63 31.18 30.94 30.17 29.24 29.26 30.80 31.18 30.88 31.78 32.52
34.06 34.58 30.74 31.10 33.03 33.15 34.23 33.03 33.46 34.04 34.36 34.29 36.89 36.76 37.54 37.01 35.60 34.31 32.68 32.46 32.44 32.51 32.71 32.51 31.59 31.11 30.71 31.14 30.67 31.53 32.67 33.86 31.33 30.20 30.08 29.45 29.07 28.18 27.73 27.70 28.07 27.88 28.67 30.14
35.37 32.03 28.63 27.08 32.78 31.18 32.39 34.51 33.92 34.61 33.41 33.87 34.19 35.13 35.39 36.04 33.68 31.98 30.20 29.75 29.14 28.41 29.11 28.33 28.36 28.53 28.27 28.49 28.66 30.01 31.74 32.27 30.78 28.95 28.66 28.57 28.31 27.77 27.02 26.00 25.77 29.60 29.13 29.17

GFSCGP_sfc_wetblb_123.txt.gz
Wetbulb
38.19 32.40 29.12 33.24 34.96 35.70 34.02 32.77 32.39 35.70 38.95 37.48 36.92 37.49 38.89 42.48 44.28 43.78 45.95 48.17 49.22 50.29 52.36 54.68 54.90 54.84 52.27 52.12 55.71 65.32 66.56 67.30 68.36 67.10 66.03 65.75 65.16 65.25 64.43 66.25 66.26 65.06 66.29 65.46
33.44 29.62 36.27 38.93 37.86 35.76 34.31 31.85 31.45 35.39 38.05 37.35 36.74 36.34 38.82 40.62 42.07 43.43 43.59 44.78 47.46 49.33 51.41 53.18 52.68 52.98 53.60 55.03 57.21 61.41 65.30 66.89 67.93 68.17 67.41 66.42 65.81 65.13 64.82 66.62 66.37 66.40 66.22 65.53
31.21 35.00 39.43 37.14 34.86 33.66 33.63 31.73 31.95 31.89 35.55 36.58 35.21 33.66 36.11 39.87 42.14 43.61 44.13 44.88 46.01 46.21 46.43 50.13 52.81 53.28 53.65 54.45 56.54 60.41 63.89 66.72 67.42 67.56 66.67 63.94 63.20 62.66 62.39 63.98 64.18 64.58 65.02 64.91
33.45 38.34 36.21 34.20 32.64 33.64 28.60 35.86 34.97 33.25 31.25 25.77 34.86 25.53 34.03 37.68 39.85 41.77 43.04 44.04 45.47 46.43 47.35 48.69 51.86 51.72 52.85 54.72 57.58 59.08 61.37 65.48 66.65 66.95 66.12 64.43 63.56 61.78 61.93 63.15 64.10 63.97 64.40 64.57
32.01 33.76 32.63 31.34 32.69 36.17 32.49 36.49 34.17 33.44 29.89 29.45 29.98 27.21 31.52 37.02 37.24 39.33 41.89 43.44 45.68 47.17 47.46 47.13 49.80 51.76 52.30 53.68 58.18 59.44 59.64 62.92 65.18 65.91 65.58 63.94 63.11 63.08 63.06 63.66 63.30 63.28 63.33 63.33
34.50 37.53 35.21 34.26 36.77 36.13 36.37 34.17 33.43 32.46 29.74 22.09 28.41 28.17 28.99 33.73 37.03 39.53 42.27 43.85 45.97 47.02 48.10 48.11 51.21 52.86 56.64 55.52 57.21 57.76 58.73 60.57 64.67 64.31 64.31 64.06 63.02 61.68 62.10 62.00 61.48 61.57 62.36 62.39
31.64 32.39 35.78 37.69 31.57 34.65 33.71 29.88 21.57 19.24 20.44 19.88 31.04 28.80 30.75 37.33 40.08 41.10 42.11 44.39 51.58 51.34 50.62 52.66 55.41 56.46 58.89 58.59 57.86 58.52 58.84 61.38 61.77 62.60 62.84 62.96 61.95 61.99 61.58 61.29 60.85 59.99 60.27 61.71
24.11 21.83 31.29 35.66 32.38 30.78 30.31 29.94 22.98 16.82 17.39 21.02 31.08 25.67 31.17 39.89 42.30 43.39 44.35 51.67 52.11 53.37 56.06 55.87 56.20 56.54 57.02 58.27 57.27 57.15 57.52 57.82 61.36 61.62 62.59 62.61 62.28 63.03 62.82 62.75 61.55 61.18 61.05 61.54
24.34 24.55 34.16 35.62 35.76 34.36 30.97 28.90 34.61 27.84 27.58 22.63 26.95 31.28 37.00 39.07 41.06 42.75 43.81 51.69 52.33 53.28 54.72 54.60 54.98 55.08 54.95 55.16 55.43 55.74 56.15 57.15 59.62 61.83 62.66 63.37 62.50 62.45 62.54 62.41 61.91 62.01 61.56 61.50
30.49 21.99 31.95 34.66 36.23 37.23 33.69 36.62 28.54 28.04 17.96 16.93 23.75 26.52 28.77 35.47 39.03 41.19 45.43 49.17 53.07 53.65 53.10 52.46 52.96 53.72 54.21 53.97 55.31 55.77 56.36 57.06 58.24 60.18 61.23 62.10 61.89 61.96 61.60 61.11 60.11 60.62 61.04 60.61
30.50 26.49 26.99 31.38 29.30 27.79 30.98 29.44 31.07 31.77 28.29 19.81 18.74 24.01 34.81 38.42 40.50 43.15 47.84 52.08 52.00 51.61 51.67 51.89 51.80 51.74 52.04 52.47 52.72 53.20 55.41 57.32 57.75 58.07 59.86 60.92 60.86 61.23 60.76 60.20 60.25 60.42 59.99 59.45
31.57 25.09 21.96 25.03 32.65 36.69 34.92 30.99 31.10 26.15 25.22 26.68 26.30 25.52 39.03 40.19 45.12 47.29 50.24 52.08 51.48 51.48 51.13 50.50 49.96 49.41 49.04 49.07 49.86 50.50 51.72 52.47 55.49 58.70 58.72 60.10 60.84 60.41 59.25 59.42 60.41 60.21 59.09 58.75
31.05 22.78 19.28 23.26 29.09 33.33 29.90 32.31 33.00 33.78 32.24 26.11 23.52 27.00 40.73 45.00 46.14 47.86 48.75 49.83 49.69 49.12 48.45 48.42 47.80 47.61 47.51 47.55 47.93 48.28 48.76 50.05 52.47 55.01 58.04 58.06 58.20 58.69 58.75 58.98 60.05 59.46 58.13 56.84
35.48 27.25 25.58 19.00 22.39 28.47 26.48 30.40 33.32 33.05 28.34 28.54 28.65 32.24 38.35 42.03 43.81 45.94 44.97 44.63 49.56 48.89 48.80 47.54 46.61 46.19 46.07 45.69 45.26 46.46 46.65 47.89 49.37 51.11 54.32 55.33 56.80 57.88 58.34 59.20 59.21 58.37 57.56 56.58
30.90 21.31 25.26 28.07 30.31 30.80 30.34 31.27 32.94 31.64 33.18 28.91 32.01 32.58 37.65 41.13 43.61 45.51 45.61 44.07 47.89 48.19 47.42 46.84 46.17 45.54 45.17 44.49 43.80 43.88 44.35 45.33 46.86 47.45 47.41 47.82 50.86 53.63 58.17 58.30 58.78 57.99 56.98 55.38
30.81 23.39 28.22 25.99 30.74 31.36 29.69 32.64 33.44 33.66 33.90 34.98 35.39 34.20 41.12 43.04 42.37 42.14 41.59 41.24 41.52 46.55 46.18 46.09 46.47 46.52 45.47 44.50 42.92 43.11 42.09 42.16 43.75 44.23 44.72 45.51 46.77 49.15 51.57 57.08 58.42 57.80 56.93 54.80
27.26 26.34 25.17 22.45 29.49 29.17 27.26 31.75 32.10 32.22 34.09 33.69 30.07 36.89 42.41 41.73 40.70 39.89 41.02 41.98 41.82 42.07 43.71 43.44 43.04 43.29 44.59 44.19 43.03 41.02 40.77 40.51 40.05 40.80 41.76 42.88 44.01 45.05 45.81 48.85 56.28 57.68 56.63 56.07
28.19 26.95 27.54 24.10 26.86 17.97 30.58 35.70 34.53 33.44 33.41 33.95 33.78 36.66 41.41 41.76 42.81 43.94 44.59 43.57 43.38 42.75 41.73 41.57 41.07 40.61 41.24 42.28 42.20 40.80 39.78 39.33 38.85 38.64 38.78 39.75 40.73 42.11 43.28 44.28 46.10 49.83 56.40 56.20
34.70 30.72 25.50 23.38 23.23 27.84 28.53 30.32 31.24 30.25 31.83 35.00 33.63 35.46 38.90 41.29 40.89 39.74 43.06 43.79 42.79 42.18 41.31 39.98 39.62 39.01 38.50 39.29 39.77 38.28 37.06 37.03 37.15 36.79 36.95 37.85 38.34 39.28 40.36 40.58 40.94 43.73 47.26 54.64
35.70 33.94 26.52 25.91 22.56 20.60 25.61 31.82 35.10 37.14 27.41 35.17 34.45 35.23 35.87 39.86 32.09 34.85 40.71 41.66 41.09 41.57 39.81 38.44 37.68 36.85 36.27 36.76 37.64 36.18 34.89 35.20 35.14 35.61 35.66 35.92 36.47 37.23 37.42 37.86 39.44 41.47 43.37 47.60
25.36 25.99 24.34 24.64 23.47 27.23 29.51 33.24 35.83 23.22 25.06 34.44 33.05 36.20 34.95 31.34 34.73 37.26 39.12 39.04 39.25 39.07 39.32 38.16 36.46 34.15 34.28 35.66 35.54 33.47 33.46 33.43 34.91 35.31 34.77 34.02 33.55 34.66 35.82 36.73 37.63 38.16 40.81 40.57
24.75 23.71 20.82 25.48 22.90 17.41 31.70 31.45 25.78 30.79 34.92 34.96 33.03 36.47 37.75 37.01 36.94 36.82 36.59 35.66 36.23 35.50 35.92 36.56 34.34 33.09 32.93 32.97 33.38 32.53 32.60 33.80 34.24 33.69 32.84 31.90 31.28 31.65 33.00 34.41 35.11 35.63 36.24 34.36
24.99 27.56 24.61 26.72 26.38 33.23 32.67 31.04 33.50 34.43 33.47 34.07 34.51 36.09 37.58 35.25 34.78 34.61 32.98 33.39 33.07 32.74 32.56 33.36 31.89 31.12 30.83 31.17 31.31 30.83 33.02 32.85 32.65 31.61 30.82 30.45 30.03 29.50 30.08 30.45 31.75 32.97 33.83 32.55
30.67 33.43 26.77 28.14 30.46 30.95 31.17 32.39 33.00 34.82 33.38 34.75 36.09 37.01 36.18 34.08 33.75 31.86 31.15 30.18 30.24 29.88 29.48 30.28 29.62 28.14 27.95 29.61 30.71 31.20 32.65 32.49 30.91 29.87 29.14 29.05 28.02 27.58 28.03 28.60 28.83 28.20 29.61 32.19
27.90 28.60 25.27 27.46 30.98 31.62 32.51 31.70 32.21 33.68 34.16 33.42 35.42 35.41 35.68 33.86 31.12 30.00 28.85 28.17 28.18 28.34 27.98 28.00 27.29 26.76 26.88 28.60 29.23 30.85 31.88 31.95 29.81 29.19 28.90 28.05 27.68 26.80 26.52 27.32 27.47 27.08 27.84 29.29
30.83 24.25 20.26 18.55 30.31 29.97 31.09 33.29 32.33 31.99 34.09 33.26 32.99 33.74 35.04 32.74 30.25 29.21 27.42 27.28 26.56 25.95 26.32 25.51 25.65 26.00 26.25 27.33 28.35 29.80 31.27 31.10 29.49 27.77 27.53 27.82 27.23 26.46 26.11 25.51 25.77 29.65 29.13 29.54

GFSCGP_sfc_wetblb_126.txt.gz
Wetbulb
35.68 30.18 26.03 29.04 31.88 33.24 31.93 30.26 29.14 32.92 36.66 33.77 33.18 34.07 36.19 38.56 39.50 39.06 40.54 42.81 44.31 47.10 51.35 52.52 53.92 54.31 52.15 51.78 56.86 64.69 65.92 67.12 67.86 66.88 65.53 64.99 64.85 64.95 65.71 65.80 65.96 66.23 65.72 64.85
31.13 27.42 34.16 35.92 35.09 33.11 31.71 29.17 28.63 32.70 35.89 35.04 33.02 32.44 36.28 37.96 38.46 39.67 40.38 41.41 43.90 44.06 46.25 47.96 51.56 52.89 52.92 52.53 50.90 62.51 65.56 66.58 67.72 67.44 66.89 66.32 65.85 64.98 65.65 65.74 65.20 65.80 65.74 65.32
27.94 33.07 37.90 35.00 32.46 31.17 30.42 28.51 29.13 29.39 33.57 34.64 32.45 30.08 33.36 37.45 38.92 40.19 41.39 42.21 43.63 43.85 43.62 46.45 48.27 50.35 51.32 52.99 50.45 58.37 64.77 66.41 67.94 67.64 66.54 64.03 63.02 62.15 63.28 64.98 64.98 65.41 66.30 65.85
31.68 36.38 34.45 32.43 30.79 31.81 26.72 33.93 32.56 30.49 27.93 22.28 31.79 20.02 30.16 34.51 36.16 38.54 40.35 41.61 42.57 43.16 45.49 46.69 47.83 49.55 51.51 52.18 53.74 57.84 64.56 66.19 67.65 67.38 65.88 64.63 64.19 63.10 64.11 64.88 65.19 64.74 65.39 65.27
29.46 31.99 31.61 29.66 30.91 33.85 29.86 34.05 31.75 31.12 28.37 27.08 27.24 23.07 28.02 34.09 33.04 36.23 39.23 41.51 41.24 43.82 44.10 46.04 46.96 48.91 52.25 52.93 56.05 60.91 64.37 66.26 67.05 67.09 66.16 64.84 64.04 64.15 63.17 63.68 62.73 64.13 64.21 64.58
31.54 35.84 32.89 32.18 34.91 34.14 34.46 32.15 31.42 30.86 28.30 20.61 26.36 24.93 24.97 29.54 33.12 36.68 39.91 41.64 41.62 42.90 44.64 46.24 47.01 47.94 52.08 52.87 54.69 57.37 63.26 65.13 66.00 66.61 66.01 65.04 63.60 62.38 61.89 62.30 62.20 62.78 63.07 63.27
29.95 30.53 33.32 35.96 30.31 32.82 31.28 27.68 20.55 18.39 18.28 18.69 29.77 27.10 27.66 33.96 36.99 38.71 39.70 41.20 41.59 42.34 47.53 49.08 50.79 55.23 55.63 55.83 57.09 59.11 60.75 60.86 63.82 65.06 64.97 64.76 63.47 62.60 62.09 61.94 61.73 61.79 61.46 61.72
22.45 20.60 29.38 34.38 30.78 27.60 28.53 28.92 23.32 16.64 18.21 20.69 29.91 22.79 27.95 35.97 38.50 40.71 41.95 42.34 48.48 52.45 53.04 52.91 53.83 54.91 55.47 55.75 55.77 56.86 58.05 60.03 60.95 61.31 62.47 63.07 62.80 62.68 62.24 62.19 61.39 61.12 61.33 61.46
22.76 23.58 33.21 34.03 34.11 32.17 30.03 25.79 31.89 27.32 28.60 23.32 24.84 27.91 34.05 36.88 38.09 40.08 41.01 41.75 51.60 51.73 51.81 52.15 52.77 52.70 53.39 54.19 54.73 55.53 56.80 57.98 59.58 60.31 60.68 60.31 60.84 61.76 61.54 61.25 61.14 61.09 61.40 61.55
28.07 21.12 30.83 32.74 34.08 34.69 32.30 34.31 25.28 27.17 20.07 17.86 21.71 23.16 24.77 32.42 35.56 39.45 42.38 44.24 48.16 50.90 51.16 51.18 51.11 51.38 51.75 52.50 53.28 54.27 55.59 56.41 57.67 60.19 61.44 61.89 60.86 61.26 61.92 61.22 61.11 61.60 61.73 61.69
28.46 25.14 26.28 29.71 26.12 25.63 27.15 28.03 29.53 29.38 27.26 22.12 18.71 22.73 37.67 39.06 43.15 44.87 47.56 47.30 46.57 49.67 49.66 49.65 49.79 50.34 50.20 50.79 50.75 51.21 52.32 53.58 55.85 58.83 59.75 60.84 60.45 60.21 61.10 60.50 61.21 61.49 61.23 61.00
29.99 23.95 20.95 24.36 31.41 33.25 30.50 28.62 29.89 24.65 22.24 26.41 25.99 25.67 40.28 40.58 43.54 42.88 44.51 48.27 48.69 48.38 48.19 48.43 48.33 48.40 47.93 48.11 48.20 48.45 49.80 50.77 53.27 57.39 58.46 58.89 60.43 60.30 59.73 59.74 60.15 60.08 59.86 60.00
29.21 21.67 18.30 21.60 26.64 30.58 27.38 30.16 31.12 32.00 31.01 25.57 22.75 25.75 40.96 42.55 43.80 43.97 43.05 45.07 47.32 46.82 46.61 46.24 46.07 45.68 45.32 45.37 45.96 46.44 46.77 47.59 49.92 53.46 57.13 57.31 57.79 59.61 58.48 59.23 59.77 59.39 58.74 57.91
33.50 25.20 18.29 14.91 20.63 25.84 23.50 28.18 31.84 32.00 26.87 26.35 27.86 30.55 37.23 40.43 41.56 42.73 43.23 43.28 48.06 46.29 45.87 45.07 44.37 44.10 43.82 43.96 43.84 43.90 44.52 45.38 46.94 48.75 50.24 50.65 51.63 56.53 58.49 59.21 59.38 58.38 57.70 56.75
29.24 19.60 22.55 25.08 26.81 27.93 28.10 29.91 30.06 30.38 30.02 26.59 29.39 32.50 35.86 39.27 41.19 41.85 42.36 41.66 41.16 44.19 45.56 44.97 44.37 44.05 43.38 42.76 42.92 41.61 41.56 42.83 44.13 44.42 45.26 46.07 48.48 52.13 55.41 58.35 58.21 58.04 57.26 56.55
28.42 21.30 25.67 24.06 27.90 29.40 28.40 30.65 30.58 32.04 30.57 29.25 29.51 31.20 36.43 41.47 42.21 41.28 41.21 41.19 40.78 39.98 40.64 43.30 44.18 43.86 42.80 41.59 40.68 40.45 39.64 39.58 40.70 41.17 41.23 42.43 44.77 47.23 49.51 50.79 55.95 57.25 56.69 55.73
25.96 24.39 23.34 20.48 26.91 27.11 26.59 27.91 28.92 31.30 31.26 30.86 25.62 31.34 35.03 40.46 40.64 40.92 41.39 41.31 40.58 40.44 40.01 39.17 38.73 39.00 41.76 40.37 39.72 38.02 38.28 39.83 39.36 39.08 39.24 39.95 40.66 42.74 44.29 46.65 49.49 56.39 55.97 55.31
25.78 24.86 24.33 21.16 25.02 14.66 27.67 32.89 31.88 30.12 32.22 32.48 31.20 32.35 35.32 38.63 38.32 39.05 41.78 42.04 40.01 39.12 38.42 37.45 36.91 36.66 39.19 38.83 37.50 37.34 37.28 37.67 37.62 37.35 37.21 37.79 38.14 39.16 40.89 42.48 44.01 45.96 50.50 55.12
32.99 29.66 24.43 23.28 22.10 26.24 26.72 28.66 27.52 27.32 29.00 32.14 31.05 32.37 34.94 38.47 37.23 34.86 37.19 39.06 37.99 37.02 36.46 35.70 35.74 35.48 36.99 36.03 36.32 35.43 35.00 35.73 35.62 35.05 35.20 35.49 35.89 36.73 37.58 37.83 39.32 42.49 44.25 48.95
33.19 31.96 26.13 24.18 19.73 17.43 24.14 30.09 33.00 32.30 24.81 31.94 32.24 32.52 33.37 35.04 27.46 30.70 35.03 35.71 36.14 36.27 35.45 34.21 33.87 33.25 33.62 34.20 34.74 33.50 33.06 33.06 33.43 33.94 33.69 33.78 33.73 34.58 34.77 35.74 37.18 38.86 41.67 44.79
25.42 24.80 23.16 22.70 20.40 23.48 28.59 30.31 32.24 22.84 22.40 32.39 32.52 33.70 34.83 30.75 33.35 34.84 35.42 33.61 33.71 33.71 33.92 33.80 32.41 30.53 30.78 32.64 33.78 32.87 32.14 31.91 33.20 33.41 32.99 32.11 31.82 32.59 32.75 34.45 36.04 36.59 38.26 37.00
23.33 22.66 18.01 21.80 19.04 15.30 30.43 30.09 23.71 28.39 32.08 33.67 33.50 34.80 34.80 35.28 34.12 32.55 32.20 31.54 31.06 30.16 30.79 31.19 29.56 28.89 30.00 30.96 32.32 31.73 30.41 32.16 32.54 31.83 30.77 30.35 30.02 30.53 31.04 30.59 32.43 34.73 34.91 33.31
17.78 23.02 20.53 22.30 22.56 31.89 31.94 29.90 32.19 33.67 31.72 32.81 34.12 36.32 35.58 34.20 33.08 31.35 29.84 29.71 29.14 28.58 28.18 29.41 28.07 27.97 29.27 30.84 31.19 30.38 31.22 31.35 31.10 30.15 29.03 28.81 29.01 28.85 29.35 27.80 28.17 30.50 32.65 32.70
26.79 32.07 24.07 26.74 29.75 30.37 31.11 32.33 32.23 33.41 31.55 33.61 35.06 35.13 35.37 31.77 31.53 29.33 28.36 27.84 27.65 27.42 26.71 27.54 27.08 26.82 27.37 29.57 30.41 30.91 31.58 31.11 29.81 28.89 28.11 27.88 27.56 27.42 27.98 28.18 27.86 27.38 27.99 31.49
23.34 25.98 22.85 26.18 30.03 31.21 30.99 31.09 30.70 32.31 33.89 32.79 34.46 34.71 34.47 31.55 29.32 28.79 27.02 26.40 26.27 26.58 26.26 26.39 25.85 25.84 26.23 28.38 29.21 30.62 30.89 30.65 28.65 28.14 28.19 27.24 26.98 26.81 26.59 27.38 27.34 27.35 28.16 28.82
27.79 22.83 20.31 19.51 29.57 28.40 30.68 31.72 31.60 31.67 31.83 33.67 32.07 31.95 34.67 31.62 28.75 27.89 26.98 26.11 24.67 24.68 24.60 23.90 24.35 24.60 25.18 26.42 28.07 29.50 30.56 30.19 28.32 27.13 26.83 26.50 26.30 25.82 25.69 25.67 25.93 29.89 29.10 29.52

GFSCGP_sfc_wetblb_129.txt.gz
Wetbulb
34.28 29.08 25.50 27.30 29.52 30.98 29.71 27.08 26.27 30.38 33.07 31.42 31.24 31.98 34.51 37.28 37.53 37.38 38.50 39.49 40.26 40.96 43.54 45.94 48.64 51.57 50.34 48.51 52.70 61.93 65.04 66.48 67.20 66.87 65.64 65.31 65.10 65.14 65.56 66.42 66.45 66.22 65.66 64.78
29.89 26.55 31.93 33.77 32.83 30.81 29.25 27.33 26.75 30.73 33.47 33.13 30.86 29.91 34.17 36.10 36.80 37.79 38.20 38.90 39.61 40.72 42.14 44.54 46.71 46.20 49.98 49.67 49.95 56.35 63.38 65.85 67.06 66.98 66.67 66.04 65.87 65.76 65.40 66.43 66.65 66.04 65.41 64.61
27.02 31.11 35.90 33.50 30.56 29.10 27.75 26.52 27.31 27.34 31.39 32.73 30.54 28.04 31.46 35.62 37.23 38.39 39.46 40.32 40.55 40.98 41.28 42.85 44.64 46.26 46.37 47.88 48.02 54.45 61.55 64.88 66.82 67.31 66.84 64.49 63.28 63.58 64.60 64.76 65.65 65.84 65.28 64.75
30.33 34.27 32.84 30.26 28.84 30.05 24.54 31.59 30.55 28.63 26.40 21.19 30.85 18.48 28.51 33.12 34.32 36.53 37.82 38.79 39.59 40.89 41.98 43.10 44.53 45.43 46.47 47.27 49.87 51.01 59.51 64.23 66.39 67.21 66.23 64.60 64.34 63.37 64.72 65.38 65.67 65.82 65.91 65.06
27.26 30.00 29.47 27.46 29.20 31.94 27.35 32.14 29.86 29.34 26.08 25.04 25.47 21.15 27.03 33.22 31.83 34.51 37.13 38.50 39.33 40.15 41.10 42.29 44.21 46.48 47.26 48.72 50.48 50.59 56.63 63.60 65.76 66.76 66.24 64.89 64.36 64.55 64.10 65.71 65.31 64.76 65.72 65.73
30.25 33.12 31.19 30.25 32.98 32.36 33.09 30.05 30.12 29.20 25.35 18.64 24.75 23.60 25.43 30.21 32.91 35.35 37.69 38.67 39.94 40.57 41.07 42.47 44.93 46.49 44.70 51.62 51.34 56.26 57.15 63.04 65.70 66.48 65.96 65.13 64.44 63.49 63.02 64.11 64.19 64.27 64.28 64.62
27.61 28.73 31.89 33.78 28.88 30.77 29.30 26.00 20.32 19.14 18.85 19.08 29.03 26.57 28.34 34.64 36.58 36.91 37.24 38.13 39.82 40.75 39.27 40.25 42.34 43.61 51.91 53.96 54.70 56.47 61.45 63.26 65.66 65.89 65.47 65.24 64.75 63.51 62.98 63.31 62.75 63.10 62.90 63.10
20.94 19.82 27.87 33.01 28.14 25.95 26.08 27.77 21.36 14.88 16.55 19.36 28.71 22.70 28.40 37.05 41.52 41.86 41.55 39.41 44.47 49.19 50.39 52.06 52.71 53.23 54.52 54.93 56.23 57.87 60.22 60.85 64.58 65.85 65.16 64.91 63.32 63.28 62.83 62.89 63.12 62.76 62.44 62.66
21.87 22.09 30.55 31.94 32.26 30.11 26.05 23.39 29.89 24.45 25.45 22.06 23.54 28.04 32.77 38.47 41.40 43.27 43.40 45.74 48.33 50.23 50.37 51.42 51.70 52.96 54.10 54.75 55.13 56.69 58.87 60.06 60.82 61.10 60.74 61.46 62.64 62.63 62.22 62.54 62.45 62.34 62.47 62.13
26.86 19.27 28.96 31.43 31.90 32.88 30.27 31.84 22.86 26.55 17.43 15.15 21.34 23.97 25.52 33.11 38.06 41.29 42.33 42.68 43.51 47.75 50.21 50.39 50.50 50.93 50.84 52.14 53.19 53.86 55.73 57.37 59.16 60.41 61.29 61.18 60.83 61.32 61.53 61.57 60.92 60.73 61.06 60.77
27.04 24.00 25.02 28.12 23.95 23.81 24.17 23.07 26.94 27.75 24.65 19.89 18.52 21.86 34.53 36.86 39.82 40.46 42.53 43.14 46.19 47.80 49.21 50.21 49.22 49.05 49.27 50.17 50.55 50.74 51.97 53.34 55.91 58.22 59.56 60.43 60.73 61.36 60.79 61.26 60.67 60.67 60.70 61.41
27.10 23.43 20.16 23.08 30.03 31.65 28.95 28.14 27.75 23.14 20.63 24.50 24.31 23.55 38.88 40.65 41.78 42.84 41.81 43.84 47.03 47.30 46.98 47.10 46.25 45.84 45.64 46.05 46.41 47.39 48.73 49.39 51.29 56.55 56.87 58.29 60.32 59.03 58.89 59.43 60.26 60.84 60.48 61.21
28.38 20.67 16.30 20.61 24.61 28.14 25.41 27.83 29.85 31.47 30.54 25.06 23.79 23.76 38.63 38.19 40.47 43.41 41.67 42.71 45.18 45.76 45.45 44.50 44.06 43.42 42.94 42.96 43.38 43.78 44.65 46.00 47.96 50.34 51.88 52.51 53.62 58.83 58.88 58.71 58.97 59.27 59.65 59.75
32.98 24.54 16.42 11.49 18.20 23.67 21.02 25.18 29.41 30.18 24.08 24.71 25.67 26.30 35.02 34.05 36.44 40.49 41.25 40.69 40.04 40.14 43.09 43.74 42.59 41.85 41.94 42.05 41.12 41.01 41.67 43.17 44.45 45.37 46.30 46.91 49.00 51.38 57.45 58.71 58.81 58.07 58.49 58.05
28.03 18.65 22.47 24.67 26.12 25.50 24.36 26.73 28.66 27.61 29.09 24.60 25.96 27.00 32.47 32.89 36.43 40.55 41.38 40.92 39.96 39.14 38.41 38.79 40.65 39.56 39.28 38.96 39.24 39.70 40.07 40.92 41.90 42.09 42.24 42.63 45.45 48.32 49.97 52.56 57.43 58.11 57.39 57.41
26.63 19.95 24.19 22.62 26.15 26.51 24.79 29.39 27.79 30.74 30.16 27.43 27.28 26.65 32.90 36.93 38.26 40.98 41.21 40.37 39.17 38.34 37.10 37.05 37.98 38.67 37.37 36.85 36.72 37.62 38.54 39.11 40.12 39.69 39.59 40.59 42.10 43.92 45.04 47.56 50.06 56.35 57.11 56.13
24.92 23.77 22.40 19.59 25.06 24.98 24.53 24.93 26.39 27.53 30.66 28.65 24.15 29.18 33.39 33.45 33.42 33.92 37.54 37.21 36.34 36.30 35.40 34.27 35.14 35.35 35.64 35.37 35.67 35.33 36.72 38.14 37.69 37.22 37.52 37.80 38.96 40.53 41.22 43.56 45.47 47.10 50.02 55.52
25.24 24.45 23.73 20.26 23.96 11.63 24.58 32.90 30.09 27.53 31.27 29.95 30.68 31.11 33.16 34.38 34.00 33.57 34.62 34.03 33.37 33.05 32.68 32.53 33.10 34.15 34.19 34.66 34.38 34.79 34.79 36.14 35.88 35.36 35.23 35.66 36.21 37.51 38.72 39.86 40.79 42.73 45.04 48.13
29.02 26.17 21.39 21.10 21.63 24.51 26.44 29.15 26.57 25.65 26.29 29.41 30.18 31.75 33.79 35.35 32.93 32.09 33.47 33.95 33.31 32.83 32.37 31.64 31.98 31.70 32.45 33.18 33.89 33.34 32.88 33.20 33.90 33.34 33.21 33.37 34.00 34.92 35.87 36.06 37.62 39.62 40.92 43.63
31.67 30.24 24.50 22.78 18.58 12.43 22.63 29.74 30.92 30.52 21.83 29.21 31.35 30.45 33.48 33.04 25.87 29.25 34.05 32.60 31.73 31.85 31.76 30.48 30.56 30.37 30.31 31.71 34.10 32.23 31.58 31.77 31.59 32.13 32.19 32.36 32.58 33.11 32.74 33.22 35.30 37.36 39.39 41.32
24.51 24.49 22.19 21.86 21.01 21.12 28.15 29.37 31.00 21.80 18.96 30.30 31.81 33.07 33.24 30.38 31.26 33.25 33.52 31.16 31.16 30.45 29.87 30.31 29.60 28.33 29.72 31.72 33.01 31.70 30.59 30.29 31.70 31.61 31.52 30.96 30.89 31.57 31.64 29.98 32.16 35.19 36.13 35.40
22.20 20.17 16.37 20.67 17.83 14.48 29.42 29.53 23.58 27.54 30.80 31.54 32.59 34.20 32.89 32.10 33.91 32.13 30.51 29.43 28.39 27.66 27.95 28.52 27.83 28.54 29.81 30.96 31.35 30.37 29.53 30.89 31.42 30.49 29.68 29.54 29.55 29.89 30.27 28.84 28.80 32.29 34.04 33.18
18.64 22.18 19.50 21.54 20.30 29.14 30.59 29.93 31.82 32.45 30.59 31.38 32.78 34.04 33.57 31.09 30.54 29.88 27.95 27.54 27.82 27.25 26.90 27.93 27.30 27.94 28.79 30.02 30.44 29.23 30.32 30.61 30.31 29.21 28.29 28.44 28.90 28.93 29.13 28.46 28.14 28.94 31.04 32.21
25.29 30.36 23.48 25.45 26.52 28.96 29.90 32.46 31.87 31.95 32.43 32.43 33.76 33.85 32.58 30.03 29.52 28.79 27.56 25.91 26.28 26.29 25.66 26.38 26.31 25.90 26.34 28.58 29.59 30.01 30.52 30.69 29.19 28.17 27.67 27.72 27.48 27.36 28.04 28.25 28.14 27.43 27.57 28.28
22.24 25.05 22.75 25.47 28.59 31.01 31.75 31.50 29.88 31.24 33.64 33.35 33.05 33.30 31.96 30.17 28.16 27.48 26.43 24.57 24.60 24.77 24.41 24.37 24.01 24.16 24.99 27.05 28.57 29.56 30.00 30.06 28.34 27.71 27.33 26.94 26.53 26.52 26.62 27.62 27.34 27.02 27.97 28.17
25.23 21.67 19.14 18.61 27.48 26.71 29.92 32.25 30.53 30.29 30.92 33.76 30.16 29.94 32.02 29.37 26.84 26.57 25.69 25.72 23.78 23.65 23.66 23.21 23.20 23.59 23.77 25.07 27.36 28.42 29.07 28.88 27.98 26.64 25.78 25.49 25.56 25.59 25.16 25.88 26.37 30.03 29.35 29.51